<?xml version='1.0' encoding='UTF-8'?><gpx version="1.1" creator="JPX - https://github.com/jenetics/jpx" xmlns="http://www.topografix.com/GPX/1/1"><trk><trkseg><trkpt lat="42.777302" lon="12.4115787"><ele>300.0</ele><time>2026-04-07T09:33:31.819Z</time></trkpt><trkpt lat="42.7774086" lon="12.4115749"><ele>300.0</ele><time>2026-04-07T09:34:23.856Z</time></trkpt><trkpt lat="42.7774317" lon="12.4114868"><ele>300.0</ele><time>2026-04-07T09:34:25.838Z</time></trkpt><trkpt lat="42.7774735" lon="12.4112621"><ele>300.0</ele><time>2026-04-07T09:34:28.828Z</time></trkpt><trkpt lat="42.7774791" lon="12.4111688"><ele>300.0</ele><time>2026-04-07T09:34:29.844Z</time></trkpt><trkpt lat="42.7774058" lon="12.4111577"><ele>300.5</ele><time>2026-04-07T09:34:32.839Z</time></trkpt><trkpt lat="42.7773264" lon="12.4111272"><ele>301.0</ele><time>2026-04-07T09:34:33.832Z</time></trkpt><trkpt lat="42.7772266" lon="12.4111008"><ele>301.5</ele><time>2026-04-07T09:34:35.836Z</time></trkpt><trkpt lat="42.7770949" lon="12.4109855"><ele>302.0</ele><time>2026-04-07T09:34:38.886Z</time></trkpt><trkpt lat="42.7769693" lon="12.4108559"><ele>302.0</ele><time>2026-04-07T09:34:40.856Z</time></trkpt><trkpt lat="42.7768989" lon="12.4107694"><ele>302.0</ele><time>2026-04-07T09:34:42.856Z</time></trkpt><trkpt lat="42.7768296" lon="12.4106459"><ele>302.0</ele><time>2026-04-07T09:34:44.838Z</time></trkpt><trkpt lat="42.7768017" lon="12.4105244"><ele>302.0</ele><time>2026-04-07T09:34:46.848Z</time></trkpt><trkpt lat="42.7768993" lon="12.4103446"><ele>302.0</ele><time>2026-04-07T09:34:48.827Z</time></trkpt><trkpt lat="42.7769494" lon="12.4102608"><ele>302.0</ele><time>2026-04-07T09:34:49.829Z</time></trkpt><trkpt lat="42.7768878" lon="12.4100985"><ele>302.0</ele><time>2026-04-07T09:34:51.846Z</time></trkpt><trkpt lat="42.7767684" lon="12.4099724"><ele>302.0</ele><time>2026-04-07T09:34:52.84Z</time></trkpt><trkpt lat="42.776708" lon="12.4098717"><ele>302.0</ele><time>2026-04-07T09:34:53.85Z</time></trkpt><trkpt lat="42.7766686" lon="12.4097772"><ele>302.0</ele><time>2026-04-07T09:34:54.837Z</time></trkpt><trkpt lat="42.776641" lon="12.4096853"><ele>302.0</ele><time>2026-04-07T09:34:55.849Z</time></trkpt><trkpt lat="42.7766633" lon="12.4095403"><ele>302.0</ele><time>2026-04-07T09:34:57.841Z</time></trkpt><trkpt lat="42.7767039" lon="12.4094665"><ele>302.0</ele><time>2026-04-07T09:34:58.84Z</time></trkpt><trkpt lat="42.7767579" lon="12.4093876"><ele>302.0</ele><time>2026-04-07T09:34:59.837Z</time></trkpt><trkpt lat="42.7768134" lon="12.4093037"><ele>303.5</ele><time>2026-04-07T09:35:00.841Z</time></trkpt><trkpt lat="42.7768707" lon="12.4092232"><ele>305.0</ele><time>2026-04-07T09:35:01.837Z</time></trkpt><trkpt lat="42.776924" lon="12.40916"><ele>306.5</ele><time>2026-04-07T09:35:02.843Z</time></trkpt><trkpt lat="42.7769834" lon="12.4091279"><ele>308.0</ele><time>2026-04-07T09:35:03.841Z</time></trkpt><trkpt lat="42.7770846" lon="12.409066"><ele>309.5</ele><time>2026-04-07T09:35:05.862Z</time></trkpt><trkpt lat="42.777083" lon="12.4089424"><ele>311.0</ele><time>2026-04-07T09:35:07.852Z</time></trkpt><trkpt lat="42.7770347" lon="12.4088025"><ele>311.6666666666667</ele><time>2026-04-07T09:35:09.843Z</time></trkpt><trkpt lat="42.777" lon="12.4086838"><ele>312.33333333333337</ele><time>2026-04-07T09:35:11.841Z</time></trkpt><trkpt lat="42.7769612" lon="12.4085902"><ele>313.0</ele><time>2026-04-07T09:35:24.838Z</time></trkpt><trkpt lat="42.7768983" lon="12.4086171"><ele>313.6666666666667</ele><time>2026-04-07T09:35:25.842Z</time></trkpt><trkpt lat="42.7768243" lon="12.4086728"><ele>314.3333333333333</ele><time>2026-04-07T09:35:26.831Z</time></trkpt><trkpt lat="42.7767475" lon="12.4087272"><ele>315.0</ele><time>2026-04-07T09:35:27.846Z</time></trkpt><trkpt lat="42.7766595" lon="12.4087873"><ele>312.0</ele><time>2026-04-07T09:35:28.839Z</time></trkpt><trkpt lat="42.7765716" lon="12.4088471"><ele>309.0</ele><time>2026-04-07T09:35:29.851Z</time></trkpt><trkpt lat="42.7764821" lon="12.4089098"><ele>306.0</ele><time>2026-04-07T09:35:30.84Z</time></trkpt><trkpt lat="42.7763807" lon="12.408972"><ele>303.0</ele><time>2026-04-07T09:35:31.834Z</time></trkpt><trkpt lat="42.7762727" lon="12.4090296"><ele>300.0</ele><time>2026-04-07T09:35:32.854Z</time></trkpt><trkpt lat="42.7761681" lon="12.4090881"><ele>300.0</ele><time>2026-04-07T09:35:33.836Z</time></trkpt><trkpt lat="42.7760683" lon="12.4091514"><ele>300.0</ele><time>2026-04-07T09:35:34.829Z</time></trkpt><trkpt lat="42.7759687" lon="12.4092127"><ele>300.0</ele><time>2026-04-07T09:35:35.825Z</time></trkpt><trkpt lat="42.7758692" lon="12.4092864"><ele>300.0</ele><time>2026-04-07T09:35:36.838Z</time></trkpt><trkpt lat="42.7757659" lon="12.4093598"><ele>300.0</ele><time>2026-04-07T09:35:37.844Z</time></trkpt><trkpt lat="42.7756563" lon="12.4094382"><ele>297.0</ele><time>2026-04-07T09:35:38.838Z</time></trkpt><trkpt lat="42.775557" lon="12.4095168"><ele>294.0</ele><time>2026-04-07T09:35:39.836Z</time></trkpt><trkpt lat="42.7754567" lon="12.4096003"><ele>291.0</ele><time>2026-04-07T09:35:40.842Z</time></trkpt><trkpt lat="42.7753524" lon="12.4096834"><ele>288.0</ele><time>2026-04-07T09:35:41.838Z</time></trkpt><trkpt lat="42.775252" lon="12.4097691"><ele>283.0</ele><time>2026-04-07T09:35:42.85Z</time></trkpt><trkpt lat="42.7751494" lon="12.4098486"><ele>278.0</ele><time>2026-04-07T09:35:43.846Z</time></trkpt><trkpt lat="42.7750463" lon="12.4099301"><ele>273.0</ele><time>2026-04-07T09:35:44.849Z</time></trkpt><trkpt lat="42.7749407" lon="12.4100086"><ele>268.0</ele><time>2026-04-07T09:35:45.827Z</time></trkpt><trkpt lat="42.7748387" lon="12.4100848"><ele>268.0</ele><time>2026-04-07T09:35:46.838Z</time></trkpt><trkpt lat="42.7747315" lon="12.4101603"><ele>268.0</ele><time>2026-04-07T09:35:47.837Z</time></trkpt><trkpt lat="42.7746224" lon="12.410239"><ele>268.0</ele><time>2026-04-07T09:35:48.839Z</time></trkpt><trkpt lat="42.7745144" lon="12.4103136"><ele>268.0</ele><time>2026-04-07T09:35:49.843Z</time></trkpt><trkpt lat="42.7744109" lon="12.4103826"><ele>264.75</ele><time>2026-04-07T09:35:50.837Z</time></trkpt><trkpt lat="42.7743063" lon="12.4104509"><ele>261.5</ele><time>2026-04-07T09:35:51.855Z</time></trkpt><trkpt lat="42.7742" lon="12.4105234"><ele>258.25</ele><time>2026-04-07T09:35:52.843Z</time></trkpt><trkpt lat="42.7740883" lon="12.4105991"><ele>255.0</ele><time>2026-04-07T09:35:53.829Z</time></trkpt><trkpt lat="42.7739699" lon="12.4106832"><ele>254.25</ele><time>2026-04-07T09:35:54.854Z</time></trkpt><trkpt lat="42.7738483" lon="12.4107715"><ele>253.5</ele><time>2026-04-07T09:35:55.838Z</time></trkpt><trkpt lat="42.7737264" lon="12.4108565"><ele>252.75</ele><time>2026-04-07T09:35:56.839Z</time></trkpt><trkpt lat="42.7736063" lon="12.4109357"><ele>252.0</ele><time>2026-04-07T09:35:57.854Z</time></trkpt><trkpt lat="42.7734864" lon="12.4110142"><ele>248.75</ele><time>2026-04-07T09:35:58.851Z</time></trkpt><trkpt lat="42.7733656" lon="12.4110953"><ele>245.5</ele><time>2026-04-07T09:35:59.839Z</time></trkpt><trkpt lat="42.7732363" lon="12.4111854"><ele>242.25</ele><time>2026-04-07T09:36:00.864Z</time></trkpt><trkpt lat="42.7731049" lon="12.4112726"><ele>239.0</ele><time>2026-04-07T09:36:01.854Z</time></trkpt><trkpt lat="42.7729745" lon="12.4113658"><ele>238.0</ele><time>2026-04-07T09:36:02.843Z</time></trkpt><trkpt lat="42.7728386" lon="12.4114599"><ele>237.0</ele><time>2026-04-07T09:36:03.829Z</time></trkpt><trkpt lat="42.7727007" lon="12.4115506"><ele>236.0</ele><time>2026-04-07T09:36:04.842Z</time></trkpt><trkpt lat="42.7725599" lon="12.4116503"><ele>231.0</ele><time>2026-04-07T09:36:05.831Z</time></trkpt><trkpt lat="42.7724162" lon="12.411755"><ele>226.0</ele><time>2026-04-07T09:36:06.838Z</time></trkpt><trkpt lat="42.7722689" lon="12.4118568"><ele>221.0</ele><time>2026-04-07T09:36:07.83Z</time></trkpt><trkpt lat="42.7721199" lon="12.4119626"><ele>221.0</ele><time>2026-04-07T09:36:08.855Z</time></trkpt><trkpt lat="42.7719706" lon="12.4120671"><ele>221.0</ele><time>2026-04-07T09:36:09.853Z</time></trkpt><trkpt lat="42.7718241" lon="12.4121669"><ele>221.0</ele><time>2026-04-07T09:36:10.85Z</time></trkpt><trkpt lat="42.7716824" lon="12.4122658"><ele>216.33333333333334</ele><time>2026-04-07T09:36:11.832Z</time></trkpt><trkpt lat="42.7715452" lon="12.412363"><ele>211.66666666666669</ele><time>2026-04-07T09:36:12.852Z</time></trkpt><trkpt lat="42.7714061" lon="12.4124618"><ele>207.0</ele><time>2026-04-07T09:36:13.846Z</time></trkpt><trkpt lat="42.7712656" lon="12.4125584"><ele>207.0</ele><time>2026-04-07T09:36:14.842Z</time></trkpt><trkpt lat="42.7711258" lon="12.412652"><ele>207.0</ele><time>2026-04-07T09:36:15.851Z</time></trkpt><trkpt lat="42.7709861" lon="12.4127623"><ele>207.0</ele><time>2026-04-07T09:36:16.826Z</time></trkpt><trkpt lat="42.770838" lon="12.4128757"><ele>203.66666666666669</ele><time>2026-04-07T09:36:17.831Z</time></trkpt><trkpt lat="42.7706791" lon="12.4129876"><ele>200.33333333333334</ele><time>2026-04-07T09:36:18.846Z</time></trkpt><trkpt lat="42.7705164" lon="12.4131016"><ele>197.0</ele><time>2026-04-07T09:36:19.848Z</time></trkpt><trkpt lat="42.7703556" lon="12.4132205"><ele>196.33333333333334</ele><time>2026-04-07T09:36:20.847Z</time></trkpt><trkpt lat="42.7701933" lon="12.413337"><ele>195.66666666666669</ele><time>2026-04-07T09:36:21.858Z</time></trkpt><trkpt lat="42.7700355" lon="12.4134489"><ele>195.0</ele><time>2026-04-07T09:36:22.839Z</time></trkpt><trkpt lat="42.7698787" lon="12.4135604"><ele>190.33333333333334</ele><time>2026-04-07T09:36:23.855Z</time></trkpt><trkpt lat="42.7697285" lon="12.4136641"><ele>185.66666666666669</ele><time>2026-04-07T09:36:24.846Z</time></trkpt><trkpt lat="42.7695759" lon="12.4137702"><ele>181.0</ele><time>2026-04-07T09:36:25.842Z</time></trkpt><trkpt lat="42.7694232" lon="12.4138755"><ele>176.0</ele><time>2026-04-07T09:36:26.849Z</time></trkpt><trkpt lat="42.769264" lon="12.4139869"><ele>171.0</ele><time>2026-04-07T09:36:27.839Z</time></trkpt><trkpt lat="42.7691051" lon="12.4141015"><ele>166.0</ele><time>2026-04-07T09:36:28.844Z</time></trkpt><trkpt lat="42.7689425" lon="12.4142163"><ele>166.0</ele><time>2026-04-07T09:36:29.836Z</time></trkpt><trkpt lat="42.7687778" lon="12.4143334"><ele>166.0</ele><time>2026-04-07T09:36:30.84Z</time></trkpt><trkpt lat="42.7686115" lon="12.4144446"><ele>166.0</ele><time>2026-04-07T09:36:31.861Z</time></trkpt><trkpt lat="42.7684573" lon="12.4145495"><ele>166.66666666666669</ele><time>2026-04-07T09:36:32.835Z</time></trkpt><trkpt lat="42.7683076" lon="12.4146488"><ele>167.33333333333334</ele><time>2026-04-07T09:36:33.841Z</time></trkpt><trkpt lat="42.7681568" lon="12.4147423"><ele>168.0</ele><time>2026-04-07T09:36:34.851Z</time></trkpt><trkpt lat="42.7680028" lon="12.4148229"><ele>168.0</ele><time>2026-04-07T09:36:35.846Z</time></trkpt><trkpt lat="42.7678507" lon="12.4148852"><ele>168.0</ele><time>2026-04-07T09:36:36.859Z</time></trkpt><trkpt lat="42.7677005" lon="12.4149275"><ele>168.0</ele><time>2026-04-07T09:36:37.853Z</time></trkpt><trkpt lat="42.7675513" lon="12.4149502"><ele>168.0</ele><time>2026-04-07T09:36:38.855Z</time></trkpt><trkpt lat="42.7674146" lon="12.4149703"><ele>168.0</ele><time>2026-04-07T09:36:39.836Z</time></trkpt><trkpt lat="42.7672865" lon="12.4149887"><ele>168.0</ele><time>2026-04-07T09:36:40.856Z</time></trkpt><trkpt lat="42.7671688" lon="12.4149821"><ele>168.0</ele><time>2026-04-07T09:36:41.829Z</time></trkpt><trkpt lat="42.7670604" lon="12.4149374"><ele>168.0</ele><time>2026-04-07T09:36:42.835Z</time></trkpt><trkpt lat="42.7669535" lon="12.4148667"><ele>168.0</ele><time>2026-04-07T09:36:43.839Z</time></trkpt><trkpt lat="42.7668501" lon="12.4147715"><ele>168.0</ele><time>2026-04-07T09:36:44.844Z</time></trkpt><trkpt lat="42.7667509" lon="12.4146663"><ele>168.0</ele><time>2026-04-07T09:36:45.844Z</time></trkpt><trkpt lat="42.7666583" lon="12.414567"><ele>166.75</ele><time>2026-04-07T09:36:46.84Z</time></trkpt><trkpt lat="42.7665668" lon="12.4144603"><ele>165.5</ele><time>2026-04-07T09:36:47.856Z</time></trkpt><trkpt lat="42.7664816" lon="12.4143488"><ele>164.25</ele><time>2026-04-07T09:36:48.852Z</time></trkpt><trkpt lat="42.7663941" lon="12.4142369"><ele>163.0</ele><time>2026-04-07T09:36:49.849Z</time></trkpt><trkpt lat="42.7662984" lon="12.4141161"><ele>163.0</ele><time>2026-04-07T09:36:50.854Z</time></trkpt><trkpt lat="42.7661878" lon="12.4139981"><ele>163.0</ele><time>2026-04-07T09:36:51.863Z</time></trkpt><trkpt lat="42.7660541" lon="12.41388"><ele>163.0</ele><time>2026-04-07T09:36:52.844Z</time></trkpt><trkpt lat="42.7659202" lon="12.4137774"><ele>162.75</ele><time>2026-04-07T09:36:53.852Z</time></trkpt><trkpt lat="42.7657898" lon="12.4136814"><ele>162.5</ele><time>2026-04-07T09:36:54.853Z</time></trkpt><trkpt lat="42.7656631" lon="12.4135882"><ele>162.25</ele><time>2026-04-07T09:36:55.84Z</time></trkpt><trkpt lat="42.7655361" lon="12.4135018"><ele>162.0</ele><time>2026-04-07T09:36:56.851Z</time></trkpt><trkpt lat="42.7654168" lon="12.413421"><ele>162.0</ele><time>2026-04-07T09:36:57.85Z</time></trkpt><trkpt lat="42.7653042" lon="12.4133502"><ele>162.0</ele><time>2026-04-07T09:36:58.842Z</time></trkpt><trkpt lat="42.7651746" lon="12.4132823"><ele>162.0</ele><time>2026-04-07T09:36:59.855Z</time></trkpt><trkpt lat="42.7650436" lon="12.4132201"><ele>162.0</ele><time>2026-04-07T09:37:00.863Z</time></trkpt><trkpt lat="42.7649124" lon="12.4131547"><ele>162.0</ele><time>2026-04-07T09:37:01.842Z</time></trkpt><trkpt lat="42.7647699" lon="12.4130844"><ele>162.0</ele><time>2026-04-07T09:37:02.855Z</time></trkpt><trkpt lat="42.7646199" lon="12.413013"><ele>162.0</ele><time>2026-04-07T09:37:03.841Z</time></trkpt><trkpt lat="42.7644625" lon="12.4129639"><ele>162.0</ele><time>2026-04-07T09:37:04.84Z</time></trkpt><trkpt lat="42.7643049" lon="12.4129445"><ele>162.0</ele><time>2026-04-07T09:37:05.845Z</time></trkpt><trkpt lat="42.764137" lon="12.4129515"><ele>162.0</ele><time>2026-04-07T09:37:06.84Z</time></trkpt><trkpt lat="42.7639696" lon="12.4129672"><ele>162.0</ele><time>2026-04-07T09:37:07.851Z</time></trkpt><trkpt lat="42.7638097" lon="12.4129829"><ele>162.0</ele><time>2026-04-07T09:37:08.859Z</time></trkpt><trkpt lat="42.7636526" lon="12.4129919"><ele>162.0</ele><time>2026-04-07T09:37:09.836Z</time></trkpt><trkpt lat="42.7634897" lon="12.4130053"><ele>162.33333333333334</ele><time>2026-04-07T09:37:10.839Z</time></trkpt><trkpt lat="42.7633043" lon="12.4130178"><ele>162.66666666666669</ele><time>2026-04-07T09:37:11.855Z</time></trkpt><trkpt lat="42.7631083" lon="12.4130197"><ele>163.0</ele><time>2026-04-07T09:37:12.844Z</time></trkpt><trkpt lat="42.7629068" lon="12.4129996"><ele>162.66666666666669</ele><time>2026-04-07T09:37:13.84Z</time></trkpt><trkpt lat="42.7627062" lon="12.4129783"><ele>162.33333333333334</ele><time>2026-04-07T09:37:14.842Z</time></trkpt><trkpt lat="42.7625179" lon="12.4129539"><ele>162.0</ele><time>2026-04-07T09:37:15.856Z</time></trkpt><trkpt lat="42.7623395" lon="12.41295"><ele>162.33333333333334</ele><time>2026-04-07T09:37:16.853Z</time></trkpt><trkpt lat="42.7621689" lon="12.4129596"><ele>162.66666666666669</ele><time>2026-04-07T09:37:17.85Z</time></trkpt><trkpt lat="42.7620117" lon="12.4129948"><ele>163.0</ele><time>2026-04-07T09:37:18.869Z</time></trkpt><trkpt lat="42.7618693" lon="12.4130342"><ele>163.8</ele><time>2026-04-07T09:37:19.836Z</time></trkpt><trkpt lat="42.761752" lon="12.4130559"><ele>164.60000000000002</ele><time>2026-04-07T09:37:20.851Z</time></trkpt><trkpt lat="42.7616573" lon="12.4130456"><ele>165.39999999999998</ele><time>2026-04-07T09:37:21.857Z</time></trkpt><trkpt lat="42.7615794" lon="12.4129911"><ele>166.2</ele><time>2026-04-07T09:37:22.847Z</time></trkpt><trkpt lat="42.7615108" lon="12.4128859"><ele>167.0</ele><time>2026-04-07T09:37:23.858Z</time></trkpt><trkpt lat="42.7614477" lon="12.412749"><ele>167.25</ele><time>2026-04-07T09:37:24.85Z</time></trkpt><trkpt lat="42.7613796" lon="12.4126006"><ele>167.5</ele><time>2026-04-07T09:37:25.85Z</time></trkpt><trkpt lat="42.7613051" lon="12.4124571"><ele>167.75</ele><time>2026-04-07T09:37:26.852Z</time></trkpt><trkpt lat="42.7612295" lon="12.4123162"><ele>168.0</ele><time>2026-04-07T09:37:27.841Z</time></trkpt><trkpt lat="42.7611551" lon="12.4121656"><ele>168.0</ele><time>2026-04-07T09:37:28.845Z</time></trkpt><trkpt lat="42.7610907" lon="12.4120163"><ele>168.0</ele><time>2026-04-07T09:37:29.844Z</time></trkpt><trkpt lat="42.7610269" lon="12.4118531"><ele>168.0</ele><time>2026-04-07T09:37:30.851Z</time></trkpt><trkpt lat="42.7609573" lon="12.4116773"><ele>168.0</ele><time>2026-04-07T09:37:31.839Z</time></trkpt><trkpt lat="42.7608863" lon="12.4115046"><ele>168.0</ele><time>2026-04-07T09:37:32.84Z</time></trkpt><trkpt lat="42.7608059" lon="12.4113303"><ele>168.0</ele><time>2026-04-07T09:37:33.847Z</time></trkpt><trkpt lat="42.7607111" lon="12.4111755"><ele>168.0</ele><time>2026-04-07T09:37:34.842Z</time></trkpt><trkpt lat="42.7605903" lon="12.4110674"><ele>168.0</ele><time>2026-04-07T09:37:35.869Z</time></trkpt><trkpt lat="42.7604396" lon="12.4110212"><ele>168.0</ele><time>2026-04-07T09:37:36.848Z</time></trkpt><trkpt lat="42.7602792" lon="12.4110032"><ele>168.0</ele><time>2026-04-07T09:37:37.826Z</time></trkpt><trkpt lat="42.7601095" lon="12.4109994"><ele>168.0</ele><time>2026-04-07T09:37:38.835Z</time></trkpt><trkpt lat="42.7599403" lon="12.4109943"><ele>168.33333333333334</ele><time>2026-04-07T09:37:39.842Z</time></trkpt><trkpt lat="42.7597706" lon="12.4109843"><ele>168.66666666666669</ele><time>2026-04-07T09:37:40.851Z</time></trkpt><trkpt lat="42.7596032" lon="12.410972"><ele>169.0</ele><time>2026-04-07T09:37:41.849Z</time></trkpt><trkpt lat="42.759435" lon="12.4109631"><ele>169.33333333333334</ele><time>2026-04-07T09:37:42.863Z</time></trkpt><trkpt lat="42.7592701" lon="12.4109538"><ele>169.66666666666666</ele><time>2026-04-07T09:37:43.852Z</time></trkpt><trkpt lat="42.7590968" lon="12.4109456"><ele>170.0</ele><time>2026-04-07T09:37:44.837Z</time></trkpt><trkpt lat="42.7589204" lon="12.41094"><ele>170.0</ele><time>2026-04-07T09:37:45.832Z</time></trkpt><trkpt lat="42.7587469" lon="12.4109264"><ele>170.0</ele><time>2026-04-07T09:37:46.834Z</time></trkpt><trkpt lat="42.7585668" lon="12.4109042"><ele>170.0</ele><time>2026-04-07T09:37:47.851Z</time></trkpt><trkpt lat="42.7583723" lon="12.4108736"><ele>170.33333333333331</ele><time>2026-04-07T09:37:48.832Z</time></trkpt><trkpt lat="42.7581709" lon="12.410836"><ele>170.66666666666666</ele><time>2026-04-07T09:37:49.854Z</time></trkpt><trkpt lat="42.7579697" lon="12.4107983"><ele>171.0</ele><time>2026-04-07T09:37:50.839Z</time></trkpt><trkpt lat="42.7577749" lon="12.4107532"><ele>171.0</ele><time>2026-04-07T09:37:51.838Z</time></trkpt><trkpt lat="42.7575868" lon="12.410711"><ele>171.0</ele><time>2026-04-07T09:37:52.865Z</time></trkpt><trkpt lat="42.7573939" lon="12.4107061"><ele>171.0</ele><time>2026-04-07T09:37:53.854Z</time></trkpt><trkpt lat="42.7571899" lon="12.4107339"><ele>171.0</ele><time>2026-04-07T09:37:54.841Z</time></trkpt><trkpt lat="42.7569842" lon="12.4107783"><ele>171.0</ele><time>2026-04-07T09:37:55.837Z</time></trkpt><trkpt lat="42.756782" lon="12.4108139"><ele>171.0</ele><time>2026-04-07T09:37:56.855Z</time></trkpt><trkpt lat="42.7565873" lon="12.4108311"><ele>171.66666666666666</ele><time>2026-04-07T09:37:57.843Z</time></trkpt><trkpt lat="42.7563913" lon="12.4108426"><ele>172.33333333333331</ele><time>2026-04-07T09:37:58.851Z</time></trkpt><trkpt lat="42.7561952" lon="12.4108546"><ele>173.0</ele><time>2026-04-07T09:37:59.852Z</time></trkpt><trkpt lat="42.7559969" lon="12.4108961"><ele>174.0</ele><time>2026-04-07T09:38:00.852Z</time></trkpt><trkpt lat="42.7558134" lon="12.410971"><ele>175.0</ele><time>2026-04-07T09:38:01.839Z</time></trkpt><trkpt lat="42.7556443" lon="12.4110467"><ele>176.0</ele><time>2026-04-07T09:38:02.839Z</time></trkpt><trkpt lat="42.7554786" lon="12.4110941"><ele>176.0</ele><time>2026-04-07T09:38:03.862Z</time></trkpt><trkpt lat="42.7553041" lon="12.4111095"><ele>176.0</ele><time>2026-04-07T09:38:04.852Z</time></trkpt><trkpt lat="42.7551312" lon="12.4110927"><ele>176.0</ele><time>2026-04-07T09:38:05.852Z</time></trkpt><trkpt lat="42.7549509" lon="12.4110551"><ele>176.33333333333331</ele><time>2026-04-07T09:38:06.849Z</time></trkpt><trkpt lat="42.754765" lon="12.4110113"><ele>176.66666666666666</ele><time>2026-04-07T09:38:07.836Z</time></trkpt><trkpt lat="42.7545772" lon="12.4109516"><ele>177.0</ele><time>2026-04-07T09:38:08.87Z</time></trkpt><trkpt lat="42.7543911" lon="12.4108791"><ele>177.0</ele><time>2026-04-07T09:38:09.853Z</time></trkpt><trkpt lat="42.754213" lon="12.4108065"><ele>177.0</ele><time>2026-04-07T09:38:10.853Z</time></trkpt><trkpt lat="42.7540443" lon="12.4107295"><ele>177.0</ele><time>2026-04-07T09:38:11.844Z</time></trkpt><trkpt lat="42.7538738" lon="12.4106612"><ele>177.0</ele><time>2026-04-07T09:38:12.857Z</time></trkpt><trkpt lat="42.753705" lon="12.4106121"><ele>177.0</ele><time>2026-04-07T09:38:13.853Z</time></trkpt><trkpt lat="42.7535336" lon="12.4106011"><ele>177.0</ele><time>2026-04-07T09:38:14.851Z</time></trkpt><trkpt lat="42.753363" lon="12.4106246"><ele>177.66666666666666</ele><time>2026-04-07T09:38:15.848Z</time></trkpt><trkpt lat="42.7531874" lon="12.4106877"><ele>178.33333333333331</ele><time>2026-04-07T09:38:16.842Z</time></trkpt><trkpt lat="42.7530089" lon="12.4107713"><ele>179.0</ele><time>2026-04-07T09:38:17.843Z</time></trkpt><trkpt lat="42.7528238" lon="12.4108464"><ele>180.0</ele><time>2026-04-07T09:38:18.835Z</time></trkpt><trkpt lat="42.7526464" lon="12.4109108"><ele>181.0</ele><time>2026-04-07T09:38:19.843Z</time></trkpt><trkpt lat="42.7524831" lon="12.410972"><ele>182.0</ele><time>2026-04-07T09:38:20.842Z</time></trkpt><trkpt lat="42.752336" lon="12.4110136"><ele>182.0</ele><time>2026-04-07T09:38:21.847Z</time></trkpt><trkpt lat="42.7521846" lon="12.4110253"><ele>182.0</ele><time>2026-04-07T09:38:22.853Z</time></trkpt><trkpt lat="42.7520218" lon="12.4110117"><ele>182.0</ele><time>2026-04-07T09:38:23.846Z</time></trkpt><trkpt lat="42.7518586" lon="12.4109692"><ele>182.33333333333331</ele><time>2026-04-07T09:38:24.84Z</time></trkpt><trkpt lat="42.7516915" lon="12.4108919"><ele>182.66666666666666</ele><time>2026-04-07T09:38:25.838Z</time></trkpt><trkpt lat="42.7515283" lon="12.4107841"><ele>183.0</ele><time>2026-04-07T09:38:26.838Z</time></trkpt><trkpt lat="42.751362" lon="12.4106501"><ele>183.0</ele><time>2026-04-07T09:38:27.855Z</time></trkpt><trkpt lat="42.7511949" lon="12.4105105"><ele>183.0</ele><time>2026-04-07T09:38:28.845Z</time></trkpt><trkpt lat="42.7510293" lon="12.4103843"><ele>183.0</ele><time>2026-04-07T09:38:29.837Z</time></trkpt><trkpt lat="42.7508618" lon="12.4102623"><ele>183.0</ele><time>2026-04-07T09:38:30.855Z</time></trkpt><trkpt lat="42.7506881" lon="12.4101673"><ele>183.0</ele><time>2026-04-07T09:38:31.844Z</time></trkpt><trkpt lat="42.7505137" lon="12.4100902"><ele>183.0</ele><time>2026-04-07T09:38:32.832Z</time></trkpt><trkpt lat="42.7503344" lon="12.4100423"><ele>183.66666666666666</ele><time>2026-04-07T09:38:33.833Z</time></trkpt><trkpt lat="42.7501512" lon="12.4100264"><ele>184.33333333333331</ele><time>2026-04-07T09:38:34.847Z</time></trkpt><trkpt lat="42.7499697" lon="12.4100142"><ele>185.0</ele><time>2026-04-07T09:38:35.846Z</time></trkpt><trkpt lat="42.7497808" lon="12.4099982"><ele>185.0</ele><time>2026-04-07T09:38:36.847Z</time></trkpt><trkpt lat="42.7495922" lon="12.4099754"><ele>185.0</ele><time>2026-04-07T09:38:37.87Z</time></trkpt><trkpt lat="42.7494114" lon="12.4099421"><ele>185.0</ele><time>2026-04-07T09:38:38.85Z</time></trkpt><trkpt lat="42.7492396" lon="12.4098878"><ele>186.66666666666666</ele><time>2026-04-07T09:38:39.853Z</time></trkpt><trkpt lat="42.7490808" lon="12.4097954"><ele>188.33333333333334</ele><time>2026-04-07T09:38:40.844Z</time></trkpt><trkpt lat="42.7489351" lon="12.4096731"><ele>190.0</ele><time>2026-04-07T09:38:41.835Z</time></trkpt><trkpt lat="42.7488107" lon="12.4095233"><ele>190.75</ele><time>2026-04-07T09:38:42.845Z</time></trkpt><trkpt lat="42.748707" lon="12.4093844"><ele>191.5</ele><time>2026-04-07T09:38:43.838Z</time></trkpt><trkpt lat="42.7486204" lon="12.4092648"><ele>192.25</ele><time>2026-04-07T09:38:44.845Z</time></trkpt><trkpt lat="42.7485356" lon="12.4091689"><ele>193.0</ele><time>2026-04-07T09:38:45.877Z</time></trkpt><trkpt lat="42.7484323" lon="12.4091048"><ele>195.0</ele><time>2026-04-07T09:38:46.849Z</time></trkpt><trkpt lat="42.7483085" lon="12.4091176"><ele>197.0</ele><time>2026-04-07T09:38:47.84Z</time></trkpt><trkpt lat="42.7481925" lon="12.4091866"><ele>199.0</ele><time>2026-04-07T09:38:48.844Z</time></trkpt><trkpt lat="42.748084" lon="12.4092874"><ele>201.0</ele><time>2026-04-07T09:38:49.846Z</time></trkpt><trkpt lat="42.7479528" lon="12.4093812"><ele>201.0</ele><time>2026-04-07T09:38:50.833Z</time></trkpt><trkpt lat="42.7478121" lon="12.4094301"><ele>201.0</ele><time>2026-04-07T09:38:51.84Z</time></trkpt><trkpt lat="42.7476527" lon="12.4094465"><ele>201.0</ele><time>2026-04-07T09:38:52.848Z</time></trkpt><trkpt lat="42.7474853" lon="12.4094546"><ele>204.66666666666669</ele><time>2026-04-07T09:38:53.847Z</time></trkpt><trkpt lat="42.7473306" lon="12.4094594"><ele>208.33333333333334</ele><time>2026-04-07T09:38:54.847Z</time></trkpt><trkpt lat="42.7471746" lon="12.4094651"><ele>212.0</ele><time>2026-04-07T09:38:55.831Z</time></trkpt><trkpt lat="42.747012" lon="12.4094677"><ele>212.0</ele><time>2026-04-07T09:38:56.864Z</time></trkpt><trkpt lat="42.7468497" lon="12.4094576"><ele>212.0</ele><time>2026-04-07T09:38:57.849Z</time></trkpt><trkpt lat="42.7466832" lon="12.4094349"><ele>212.0</ele><time>2026-04-07T09:38:58.855Z</time></trkpt><trkpt lat="42.7465152" lon="12.4094096"><ele>212.0</ele><time>2026-04-07T09:38:59.851Z</time></trkpt><trkpt lat="42.7463648" lon="12.4093822"><ele>212.0</ele><time>2026-04-07T09:39:00.848Z</time></trkpt><trkpt lat="42.7462369" lon="12.4093399"><ele>212.0</ele><time>2026-04-07T09:39:01.853Z</time></trkpt><trkpt lat="42.7461179" lon="12.4092668"><ele>212.0</ele><time>2026-04-07T09:39:02.834Z</time></trkpt><trkpt lat="42.7460105" lon="12.4091554"><ele>211.25</ele><time>2026-04-07T09:39:03.832Z</time></trkpt><trkpt lat="42.7459213" lon="12.4090062"><ele>210.5</ele><time>2026-04-07T09:39:04.834Z</time></trkpt><trkpt lat="42.745865" lon="12.4088364"><ele>209.75</ele><time>2026-04-07T09:39:05.846Z</time></trkpt><trkpt lat="42.7458305" lon="12.4086546"><ele>209.0</ele><time>2026-04-07T09:39:06.835Z</time></trkpt><trkpt lat="42.7458134" lon="12.4084491"><ele>209.0</ele><time>2026-04-07T09:39:07.832Z</time></trkpt><trkpt lat="42.7457974" lon="12.4082389"><ele>209.0</ele><time>2026-04-07T09:39:08.836Z</time></trkpt><trkpt lat="42.7457657" lon="12.408012"><ele>209.0</ele><time>2026-04-07T09:39:09.835Z</time></trkpt><trkpt lat="42.7457117" lon="12.4077707"><ele>212.0</ele><time>2026-04-07T09:39:10.845Z</time></trkpt><trkpt lat="42.7456543" lon="12.4075266"><ele>215.0</ele><time>2026-04-07T09:39:11.844Z</time></trkpt><trkpt lat="42.7455897" lon="12.4072882"><ele>218.0</ele><time>2026-04-07T09:39:12.851Z</time></trkpt><trkpt lat="42.7455035" lon="12.4070703"><ele>215.66666666666669</ele><time>2026-04-07T09:39:13.847Z</time></trkpt><trkpt lat="42.745396" lon="12.4068739"><ele>213.33333333333331</ele><time>2026-04-07T09:39:14.846Z</time></trkpt><trkpt lat="42.7452559" lon="12.4067171"><ele>211.0</ele><time>2026-04-07T09:39:15.836Z</time></trkpt><trkpt lat="42.745102" lon="12.4065792"><ele>211.0</ele><time>2026-04-07T09:39:16.861Z</time></trkpt><trkpt lat="42.7449424" lon="12.4064224"><ele>211.0</ele><time>2026-04-07T09:39:17.834Z</time></trkpt><trkpt lat="42.7447874" lon="12.4062613"><ele>211.0</ele><time>2026-04-07T09:39:18.847Z</time></trkpt><trkpt lat="42.7446382" lon="12.4061003"><ele>211.33333333333331</ele><time>2026-04-07T09:39:19.836Z</time></trkpt><trkpt lat="42.7444892" lon="12.4059407"><ele>211.66666666666669</ele><time>2026-04-07T09:39:20.832Z</time></trkpt><trkpt lat="42.7443456" lon="12.405789"><ele>212.0</ele><time>2026-04-07T09:39:21.834Z</time></trkpt><trkpt lat="42.7441894" lon="12.4056332"><ele>214.33333333333334</ele><time>2026-04-07T09:39:22.849Z</time></trkpt><trkpt lat="42.7440258" lon="12.4054563"><ele>216.66666666666669</ele><time>2026-04-07T09:39:23.844Z</time></trkpt><trkpt lat="42.743881" lon="12.405292"><ele>219.0</ele><time>2026-04-07T09:39:24.831Z</time></trkpt><trkpt lat="42.7437489" lon="12.4051616"><ele>219.0</ele><time>2026-04-07T09:39:25.848Z</time></trkpt><trkpt lat="42.7436231" lon="12.4050532"><ele>219.0</ele><time>2026-04-07T09:39:26.837Z</time></trkpt><trkpt lat="42.7435004" lon="12.4049637"><ele>219.0</ele><time>2026-04-07T09:39:27.85Z</time></trkpt><trkpt lat="42.7433819" lon="12.4048832"><ele>219.0</ele><time>2026-04-07T09:39:28.852Z</time></trkpt><trkpt lat="42.7432804" lon="12.4048215"><ele>218.2</ele><time>2026-04-07T09:39:29.829Z</time></trkpt><trkpt lat="42.7431941" lon="12.4047684"><ele>217.39999999999998</ele><time>2026-04-07T09:39:30.859Z</time></trkpt><trkpt lat="42.7431225" lon="12.4047246"><ele>216.6</ele><time>2026-04-07T09:39:31.836Z</time></trkpt><trkpt lat="42.7430593" lon="12.4046887"><ele>215.8</ele><time>2026-04-07T09:39:32.84Z</time></trkpt><trkpt lat="42.7429554" lon="12.4046158"><ele>215.0</ele><time>2026-04-07T09:39:34.843Z</time></trkpt><trkpt lat="42.7428375" lon="12.4045585"><ele>215.33333333333334</ele><time>2026-04-07T09:39:36.863Z</time></trkpt><trkpt lat="42.7427583" lon="12.4045223"><ele>215.66666666666669</ele><time>2026-04-07T09:39:37.847Z</time></trkpt><trkpt lat="42.7426823" lon="12.4044822"><ele>216.0</ele><time>2026-04-07T09:39:38.854Z</time></trkpt><trkpt lat="42.7426191" lon="12.4044472"><ele>216.33333333333331</ele><time>2026-04-07T09:39:39.845Z</time></trkpt><trkpt lat="42.7425326" lon="12.4044028"><ele>216.66666666666666</ele><time>2026-04-07T09:39:41.838Z</time></trkpt><trkpt lat="42.7424797" lon="12.4043269"><ele>217.0</ele><time>2026-04-07T09:39:44.842Z</time></trkpt><trkpt lat="42.742465" lon="12.4042164"><ele>217.0</ele><time>2026-04-07T09:39:46.844Z</time></trkpt><trkpt lat="42.7424504" lon="12.4040696"><ele>217.0</ele><time>2026-04-07T09:39:48.846Z</time></trkpt><trkpt lat="42.7423758" lon="12.4039572"><ele>217.0</ele><time>2026-04-07T09:39:50.845Z</time></trkpt><trkpt lat="42.7422994" lon="12.4038999"><ele>217.0</ele><time>2026-04-07T09:39:51.863Z</time></trkpt><trkpt lat="42.7422028" lon="12.4038219"><ele>217.0</ele><time>2026-04-07T09:39:52.851Z</time></trkpt><trkpt lat="42.7421035" lon="12.4037315"><ele>218.39999999999998</ele><time>2026-04-07T09:39:53.836Z</time></trkpt><trkpt lat="42.7420012" lon="12.4036319"><ele>219.79999999999998</ele><time>2026-04-07T09:39:54.879Z</time></trkpt><trkpt lat="42.7419126" lon="12.4035452"><ele>221.2</ele><time>2026-04-07T09:39:55.844Z</time></trkpt><trkpt lat="42.7418518" lon="12.4034723"><ele>222.6</ele><time>2026-04-07T09:39:56.857Z</time></trkpt><trkpt lat="42.7418031" lon="12.4033905"><ele>224.0</ele><time>2026-04-07T09:39:57.843Z</time></trkpt><trkpt lat="42.7417743" lon="12.4032783"><ele>224.0</ele><time>2026-04-07T09:39:58.866Z</time></trkpt><trkpt lat="42.7417571" lon="12.4031353"><ele>223.99999999999997</ele><time>2026-04-07T09:39:59.843Z</time></trkpt><trkpt lat="42.7417458" lon="12.4029958"><ele>223.99999999999997</ele><time>2026-04-07T09:40:00.854Z</time></trkpt><trkpt lat="42.7417309" lon="12.4028554"><ele>224.0</ele><time>2026-04-07T09:40:01.848Z</time></trkpt><trkpt lat="42.7417198" lon="12.4026999"><ele>224.0</ele><time>2026-04-07T09:40:02.844Z</time></trkpt><trkpt lat="42.7417111" lon="12.4025338"><ele>226.79999999999998</ele><time>2026-04-07T09:40:03.848Z</time></trkpt><trkpt lat="42.7417034" lon="12.4023672"><ele>229.59999999999997</ele><time>2026-04-07T09:40:04.847Z</time></trkpt><trkpt lat="42.7417148" lon="12.4022203"><ele>232.4</ele><time>2026-04-07T09:40:05.844Z</time></trkpt><trkpt lat="42.741748" lon="12.402086"><ele>235.2</ele><time>2026-04-07T09:40:06.848Z</time></trkpt><trkpt lat="42.7417792" lon="12.4019444"><ele>238.0</ele><time>2026-04-07T09:40:07.85Z</time></trkpt><trkpt lat="42.7418177" lon="12.4017862"><ele>240.2</ele><time>2026-04-07T09:40:08.844Z</time></trkpt><trkpt lat="42.7418495" lon="12.4016404"><ele>242.4</ele><time>2026-04-07T09:40:09.837Z</time></trkpt><trkpt lat="42.7418672" lon="12.4015517"><ele>244.59999999999997</ele><time>2026-04-07T09:40:10.847Z</time></trkpt><trkpt lat="42.7418474" lon="12.4014099"><ele>246.79999999999998</ele><time>2026-04-07T09:40:12.869Z</time></trkpt><trkpt lat="42.7418141" lon="12.4013168"><ele>249.0</ele><time>2026-04-07T09:40:13.851Z</time></trkpt><trkpt lat="42.7417755" lon="12.4012039"><ele>251.2</ele><time>2026-04-07T09:40:14.847Z</time></trkpt><trkpt lat="42.7417449" lon="12.4010786"><ele>253.39999999999998</ele><time>2026-04-07T09:40:15.839Z</time></trkpt><trkpt lat="42.7417111" lon="12.400947"><ele>255.6</ele><time>2026-04-07T09:40:16.844Z</time></trkpt><trkpt lat="42.7416813" lon="12.4007998"><ele>257.8</ele><time>2026-04-07T09:40:17.842Z</time></trkpt><trkpt lat="42.7416484" lon="12.4006377"><ele>260.0</ele><time>2026-04-07T09:40:18.851Z</time></trkpt><trkpt lat="42.7416122" lon="12.4004667"><ele>261.25</ele><time>2026-04-07T09:40:19.847Z</time></trkpt><trkpt lat="42.7415749" lon="12.4002916"><ele>262.5</ele><time>2026-04-07T09:40:20.844Z</time></trkpt><trkpt lat="42.7415309" lon="12.4001079"><ele>263.75</ele><time>2026-04-07T09:40:21.839Z</time></trkpt><trkpt lat="42.7414753" lon="12.399919"><ele>265.0</ele><time>2026-04-07T09:40:22.837Z</time></trkpt><trkpt lat="42.7414242" lon="12.3997323"><ele>265.5</ele><time>2026-04-07T09:40:23.831Z</time></trkpt><trkpt lat="42.7413805" lon="12.3995707"><ele>266.0</ele><time>2026-04-07T09:40:24.847Z</time></trkpt><trkpt lat="42.7413366" lon="12.3994302"><ele>266.5</ele><time>2026-04-07T09:40:25.842Z</time></trkpt><trkpt lat="42.7412775" lon="12.3992992"><ele>267.0</ele><time>2026-04-07T09:40:26.859Z</time></trkpt><trkpt lat="42.7412112" lon="12.3991575"><ele>267.0</ele><time>2026-04-07T09:40:27.835Z</time></trkpt><trkpt lat="42.74114" lon="12.3990013"><ele>267.0</ele><time>2026-04-07T09:40:28.828Z</time></trkpt><trkpt lat="42.7410712" lon="12.3988511"><ele>267.0</ele><time>2026-04-07T09:40:29.851Z</time></trkpt><trkpt lat="42.7410191" lon="12.3987283"><ele>267.0</ele><time>2026-04-07T09:40:30.841Z</time></trkpt><trkpt lat="42.7409784" lon="12.3986272"><ele>269.3333333333333</ele><time>2026-04-07T09:40:31.85Z</time></trkpt><trkpt lat="42.7409333" lon="12.3985514"><ele>271.6666666666667</ele><time>2026-04-07T09:40:32.877Z</time></trkpt><trkpt lat="42.7408758" lon="12.3985156"><ele>274.0</ele><time>2026-04-07T09:40:33.86Z</time></trkpt><trkpt lat="42.7408133" lon="12.3984937"><ele>276.33333333333337</ele><time>2026-04-07T09:40:34.864Z</time></trkpt><trkpt lat="42.7407442" lon="12.3984816"><ele>278.6666666666667</ele><time>2026-04-07T09:40:35.842Z</time></trkpt><trkpt lat="42.740647" lon="12.3984683"><ele>281.0</ele><time>2026-04-07T09:40:36.877Z</time></trkpt><trkpt lat="42.7405267" lon="12.398465"><ele>281.0</ele><time>2026-04-07T09:40:37.859Z</time></trkpt><trkpt lat="42.7404096" lon="12.3984585"><ele>281.0</ele><time>2026-04-07T09:40:38.865Z</time></trkpt><trkpt lat="42.7403166" lon="12.3984414"><ele>281.0</ele><time>2026-04-07T09:40:39.848Z</time></trkpt><trkpt lat="42.7402393" lon="12.3983871"><ele>281.0</ele><time>2026-04-07T09:40:40.835Z</time></trkpt><trkpt lat="42.740146" lon="12.3982997"><ele>281.0</ele><time>2026-04-07T09:40:41.85Z</time></trkpt><trkpt lat="42.7400255" lon="12.3982072"><ele>281.2</ele><time>2026-04-07T09:40:42.832Z</time></trkpt><trkpt lat="42.7399117" lon="12.3981157"><ele>281.40000000000003</ele><time>2026-04-07T09:40:43.847Z</time></trkpt><trkpt lat="42.7398191" lon="12.3980427"><ele>281.6</ele><time>2026-04-07T09:40:44.848Z</time></trkpt><trkpt lat="42.7397516" lon="12.3979613"><ele>281.8</ele><time>2026-04-07T09:40:45.843Z</time></trkpt><trkpt lat="42.7397093" lon="12.3978664"><ele>282.0</ele><time>2026-04-07T09:40:46.841Z</time></trkpt><trkpt lat="42.7396715" lon="12.3977683"><ele>283.6</ele><time>2026-04-07T09:40:47.831Z</time></trkpt><trkpt lat="42.7396524" lon="12.3976636"><ele>285.2</ele><time>2026-04-07T09:40:48.844Z</time></trkpt><trkpt lat="42.7396522" lon="12.3975512"><ele>286.8</ele><time>2026-04-07T09:40:49.861Z</time></trkpt><trkpt lat="42.739656" lon="12.3974242"><ele>288.4</ele><time>2026-04-07T09:40:50.834Z</time></trkpt><trkpt lat="42.7396684" lon="12.3972888"><ele>290.0</ele><time>2026-04-07T09:40:51.842Z</time></trkpt><trkpt lat="42.7397041" lon="12.3971536"><ele>291.6</ele><time>2026-04-07T09:40:52.831Z</time></trkpt><trkpt lat="42.7397428" lon="12.3969945"><ele>293.2</ele><time>2026-04-07T09:40:53.864Z</time></trkpt><trkpt lat="42.7397724" lon="12.3968465"><ele>294.8</ele><time>2026-04-07T09:40:54.847Z</time></trkpt><trkpt lat="42.7397896" lon="12.3967325"><ele>296.4</ele><time>2026-04-07T09:40:55.882Z</time></trkpt><trkpt lat="42.7397946" lon="12.3966374"><ele>298.0</ele><time>2026-04-07T09:40:56.836Z</time></trkpt><trkpt lat="42.7397806" lon="12.3964899"><ele>299.2</ele><time>2026-04-07T09:40:57.881Z</time></trkpt><trkpt lat="42.7397711" lon="12.3963166"><ele>300.4</ele><time>2026-04-07T09:40:58.863Z</time></trkpt><trkpt lat="42.7397499" lon="12.3961622"><ele>301.59999999999997</ele><time>2026-04-07T09:40:59.844Z</time></trkpt><trkpt lat="42.7397359" lon="12.396017"><ele>302.8</ele><time>2026-04-07T09:41:00.843Z</time></trkpt><trkpt lat="42.7397334" lon="12.3958905"><ele>304.0</ele><time>2026-04-07T09:41:01.858Z</time></trkpt><trkpt lat="42.7397341" lon="12.3957476"><ele>304.0</ele><time>2026-04-07T09:41:02.846Z</time></trkpt><trkpt lat="42.7397401" lon="12.3956133"><ele>304.0</ele><time>2026-04-07T09:41:03.833Z</time></trkpt><trkpt lat="42.7397538" lon="12.3954777"><ele>304.0</ele><time>2026-04-07T09:41:04.852Z</time></trkpt><trkpt lat="42.7397693" lon="12.3953339"><ele>304.0</ele><time>2026-04-07T09:41:05.839Z</time></trkpt><trkpt lat="42.7397644" lon="12.3951981"><ele>304.0</ele><time>2026-04-07T09:41:06.839Z</time></trkpt><trkpt lat="42.7397557" lon="12.3950829"><ele>305.0</ele><time>2026-04-07T09:41:07.834Z</time></trkpt><trkpt lat="42.7397305" lon="12.3949769"><ele>306.0</ele><time>2026-04-07T09:41:08.862Z</time></trkpt><trkpt lat="42.7396807" lon="12.3948401"><ele>307.0</ele><time>2026-04-07T09:41:09.847Z</time></trkpt><trkpt lat="42.7396126" lon="12.3946836"><ele>308.0</ele><time>2026-04-07T09:41:10.846Z</time></trkpt><trkpt lat="42.7395448" lon="12.3945254"><ele>309.0</ele><time>2026-04-07T09:41:11.838Z</time></trkpt><trkpt lat="42.7394741" lon="12.3943682"><ele>310.0</ele><time>2026-04-07T09:41:12.835Z</time></trkpt><trkpt lat="42.7394075" lon="12.3942071"><ele>311.0</ele><time>2026-04-07T09:41:13.841Z</time></trkpt><trkpt lat="42.7393533" lon="12.3940345"><ele>312.0</ele><time>2026-04-07T09:41:14.854Z</time></trkpt><trkpt lat="42.7393125" lon="12.3938603"><ele>314.5</ele><time>2026-04-07T09:41:15.838Z</time></trkpt><trkpt lat="42.7392757" lon="12.3936758"><ele>317.0</ele><time>2026-04-07T09:41:16.848Z</time></trkpt><trkpt lat="42.7392403" lon="12.3934872"><ele>319.5</ele><time>2026-04-07T09:41:17.841Z</time></trkpt><trkpt lat="42.7392058" lon="12.3933236"><ele>322.0</ele><time>2026-04-07T09:41:18.855Z</time></trkpt><trkpt lat="42.7391664" lon="12.3931788"><ele>322.0</ele><time>2026-04-07T09:41:19.838Z</time></trkpt><trkpt lat="42.739111" lon="12.393026"><ele>322.0</ele><time>2026-04-07T09:41:20.84Z</time></trkpt><trkpt lat="42.7390472" lon="12.3928667"><ele>322.0</ele><time>2026-04-07T09:41:21.839Z</time></trkpt><trkpt lat="42.7389801" lon="12.3927096"><ele>322.0</ele><time>2026-04-07T09:41:22.845Z</time></trkpt><trkpt lat="42.7389123" lon="12.3925509"><ele>324.25</ele><time>2026-04-07T09:41:23.843Z</time></trkpt><trkpt lat="42.738854" lon="12.3923891"><ele>326.5</ele><time>2026-04-07T09:41:24.863Z</time></trkpt><trkpt lat="42.7388091" lon="12.3922367"><ele>328.75</ele><time>2026-04-07T09:41:25.844Z</time></trkpt><trkpt lat="42.7387747" lon="12.3920933"><ele>331.0</ele><time>2026-04-07T09:41:26.842Z</time></trkpt><trkpt lat="42.7387533" lon="12.3919488"><ele>332.8</ele><time>2026-04-07T09:41:27.838Z</time></trkpt><trkpt lat="42.7387345" lon="12.3918044"><ele>334.6</ele><time>2026-04-07T09:41:28.842Z</time></trkpt><trkpt lat="42.7387178" lon="12.3916635"><ele>336.4</ele><time>2026-04-07T09:41:29.847Z</time></trkpt><trkpt lat="42.7387035" lon="12.3915108"><ele>338.2</ele><time>2026-04-07T09:41:30.843Z</time></trkpt><trkpt lat="42.7386898" lon="12.3913589"><ele>340.0</ele><time>2026-04-07T09:41:31.847Z</time></trkpt><trkpt lat="42.7386753" lon="12.3912034"><ele>342.2</ele><time>2026-04-07T09:41:32.841Z</time></trkpt><trkpt lat="42.7386629" lon="12.3910534"><ele>344.4</ele><time>2026-04-07T09:41:33.855Z</time></trkpt><trkpt lat="42.7386533" lon="12.3909121"><ele>346.6</ele><time>2026-04-07T09:41:34.857Z</time></trkpt><trkpt lat="42.738651" lon="12.3907737"><ele>348.8</ele><time>2026-04-07T09:41:35.853Z</time></trkpt><trkpt lat="42.738661" lon="12.3906301"><ele>351.0</ele><time>2026-04-07T09:41:36.845Z</time></trkpt><trkpt lat="42.7386714" lon="12.3904868"><ele>352.6</ele><time>2026-04-07T09:41:37.847Z</time></trkpt><trkpt lat="42.7386768" lon="12.3903331"><ele>354.20000000000005</ele><time>2026-04-07T09:41:38.847Z</time></trkpt><trkpt lat="42.7386722" lon="12.3901791"><ele>355.79999999999995</ele><time>2026-04-07T09:41:39.838Z</time></trkpt><trkpt lat="42.7386606" lon="12.3900302"><ele>357.4</ele><time>2026-04-07T09:41:40.847Z</time></trkpt><trkpt lat="42.7386391" lon="12.3899031"><ele>359.0</ele><time>2026-04-07T09:41:41.847Z</time></trkpt><trkpt lat="42.738615" lon="12.3897821"><ele>360.6666666666667</ele><time>2026-04-07T09:41:42.837Z</time></trkpt><trkpt lat="42.7385743" lon="12.3896688"><ele>362.33333333333337</ele><time>2026-04-07T09:41:43.84Z</time></trkpt><trkpt lat="42.7385254" lon="12.3895432"><ele>364.0</ele><time>2026-04-07T09:41:44.854Z</time></trkpt><trkpt lat="42.7384839" lon="12.3894321"><ele>365.6666666666667</ele><time>2026-04-07T09:41:45.844Z</time></trkpt><trkpt lat="42.7384456" lon="12.389332"><ele>367.3333333333333</ele><time>2026-04-07T09:41:46.842Z</time></trkpt><trkpt lat="42.7384195" lon="12.3892448"><ele>369.0</ele><time>2026-04-07T09:41:47.842Z</time></trkpt><trkpt lat="42.7384439" lon="12.3890813"><ele>369.6666666666667</ele><time>2026-04-07T09:41:49.854Z</time></trkpt><trkpt lat="42.7384821" lon="12.3889842"><ele>370.3333333333333</ele><time>2026-04-07T09:41:50.844Z</time></trkpt><trkpt lat="42.7385273" lon="12.3888851"><ele>371.0</ele><time>2026-04-07T09:41:51.863Z</time></trkpt><trkpt lat="42.7385692" lon="12.3887955"><ele>371.66666666666663</ele><time>2026-04-07T09:41:52.844Z</time></trkpt><trkpt lat="42.7385966" lon="12.3886994"><ele>372.3333333333333</ele><time>2026-04-07T09:41:54.86Z</time></trkpt><trkpt lat="42.7385704" lon="12.3886116"><ele>373.0</ele><time>2026-04-07T09:41:56.835Z</time></trkpt><trkpt lat="42.7384879" lon="12.3885101"><ele>375.5</ele><time>2026-04-07T09:41:58.856Z</time></trkpt><trkpt lat="42.7384006" lon="12.3883963"><ele>378.0</ele><time>2026-04-07T09:42:00.834Z</time></trkpt><trkpt lat="42.7383209" lon="12.388288"><ele>380.5</ele><time>2026-04-07T09:42:02.835Z</time></trkpt><trkpt lat="42.7382264" lon="12.388206"><ele>383.0</ele><time>2026-04-07T09:42:04.849Z</time></trkpt><trkpt lat="42.7381186" lon="12.3881365"><ele>383.0</ele><time>2026-04-07T09:42:06.845Z</time></trkpt><trkpt lat="42.7380168" lon="12.3880768"><ele>383.0</ele><time>2026-04-07T09:42:08.841Z</time></trkpt><trkpt lat="42.7379147" lon="12.3880573"><ele>383.0</ele><time>2026-04-07T09:42:10.839Z</time></trkpt><trkpt lat="42.7378229" lon="12.3880242"><ele>383.0</ele><time>2026-04-07T09:42:12.869Z</time></trkpt><trkpt lat="42.7377662" lon="12.3879649"><ele>383.0</ele><time>2026-04-07T09:42:14.829Z</time></trkpt><trkpt lat="42.7377257" lon="12.3878769"><ele>384.6666666666667</ele><time>2026-04-07T09:42:16.845Z</time></trkpt><trkpt lat="42.7376927" lon="12.3877616"><ele>386.33333333333337</ele><time>2026-04-07T09:42:18.854Z</time></trkpt><trkpt lat="42.7376655" lon="12.3876322"><ele>388.0</ele><time>2026-04-07T09:42:20.849Z</time></trkpt><trkpt lat="42.7376422" lon="12.3875082"><ele>389.6666666666667</ele><time>2026-04-07T09:42:22.842Z</time></trkpt><trkpt lat="42.737621" lon="12.3874077"><ele>391.3333333333333</ele><time>2026-04-07T09:42:24.841Z</time></trkpt><trkpt lat="42.7375518" lon="12.3873588"><ele>393.0</ele><time>2026-04-07T09:42:26.828Z</time></trkpt><trkpt lat="42.7374396" lon="12.3873218"><ele>393.0</ele><time>2026-04-07T09:42:28.843Z</time></trkpt><trkpt lat="42.7373576" lon="12.3872876"><ele>393.0</ele><time>2026-04-07T09:42:29.862Z</time></trkpt><trkpt lat="42.737263" lon="12.3872431"><ele>393.0</ele><time>2026-04-07T09:42:30.84Z</time></trkpt><trkpt lat="42.7371768" lon="12.3871916"><ele>393.0</ele><time>2026-04-07T09:42:31.835Z</time></trkpt><trkpt lat="42.7370986" lon="12.3871404"><ele>393.0</ele><time>2026-04-07T09:42:32.845Z</time></trkpt><trkpt lat="42.7370288" lon="12.3870788"><ele>393.8333333333333</ele><time>2026-04-07T09:42:33.857Z</time></trkpt><trkpt lat="42.7369718" lon="12.3870062"><ele>394.66666666666663</ele><time>2026-04-07T09:42:34.844Z</time></trkpt><trkpt lat="42.7369281" lon="12.3869119"><ele>395.5</ele><time>2026-04-07T09:42:35.849Z</time></trkpt><trkpt lat="42.736894" lon="12.3868096"><ele>396.3333333333333</ele><time>2026-04-07T09:42:36.857Z</time></trkpt><trkpt lat="42.7368627" lon="12.3867255"><ele>397.16666666666663</ele><time>2026-04-07T09:42:37.845Z</time></trkpt><trkpt lat="42.7368224" lon="12.3866434"><ele>398.0</ele><time>2026-04-07T09:42:38.852Z</time></trkpt><trkpt lat="42.7367694" lon="12.3865677"><ele>398.8333333333333</ele><time>2026-04-07T09:42:39.84Z</time></trkpt><trkpt lat="42.7366908" lon="12.3864848"><ele>399.66666666666663</ele><time>2026-04-07T09:42:40.852Z</time></trkpt><trkpt lat="42.7366052" lon="12.3863969"><ele>400.5</ele><time>2026-04-07T09:42:41.845Z</time></trkpt><trkpt lat="42.7365334" lon="12.3863301"><ele>401.33333333333337</ele><time>2026-04-07T09:42:42.854Z</time></trkpt><trkpt lat="42.7364836" lon="12.3862712"><ele>402.1666666666667</ele><time>2026-04-07T09:42:43.849Z</time></trkpt><trkpt lat="42.7364326" lon="12.3861876"><ele>403.0</ele><time>2026-04-07T09:42:44.852Z</time></trkpt><trkpt lat="42.7363845" lon="12.3860953"><ele>405.00000000000006</ele><time>2026-04-07T09:42:45.85Z</time></trkpt><trkpt lat="42.736343" lon="12.3860091"><ele>407.0</ele><time>2026-04-07T09:42:46.836Z</time></trkpt><trkpt lat="42.7362847" lon="12.385934"><ele>409.0</ele><time>2026-04-07T09:42:47.851Z</time></trkpt><trkpt lat="42.7362184" lon="12.3858711"><ele>411.0</ele><time>2026-04-07T09:42:48.846Z</time></trkpt><trkpt lat="42.7361423" lon="12.3857998"><ele>413.00000000000006</ele><time>2026-04-07T09:42:49.862Z</time></trkpt><trkpt lat="42.7360622" lon="12.3857285"><ele>415.0</ele><time>2026-04-07T09:42:50.834Z</time></trkpt><trkpt lat="42.7359962" lon="12.3856469"><ele>415.00000000000006</ele><time>2026-04-07T09:42:51.854Z</time></trkpt><trkpt lat="42.7359704" lon="12.385558"><ele>415.0</ele><time>2026-04-07T09:42:53.842Z</time></trkpt><trkpt lat="42.7360209" lon="12.385497"><ele>415.0</ele><time>2026-04-07T09:42:56.838Z</time></trkpt><trkpt lat="42.7361181" lon="12.3854621"><ele>415.0</ele><time>2026-04-07T09:42:58.849Z</time></trkpt><trkpt lat="42.7361933" lon="12.3854506"><ele>415.00000000000006</ele><time>2026-04-07T09:42:59.845Z</time></trkpt><trkpt lat="42.7362843" lon="12.3854523"><ele>415.0</ele><time>2026-04-07T09:43:00.879Z</time></trkpt><trkpt lat="42.7363509" lon="12.3854728"><ele>415.2857142857143</ele><time>2026-04-07T09:43:01.852Z</time></trkpt><trkpt lat="42.7364107" lon="12.3855009"><ele>415.57142857142856</ele><time>2026-04-07T09:43:02.829Z</time></trkpt><trkpt lat="42.7364789" lon="12.3855216"><ele>415.8571428571429</ele><time>2026-04-07T09:43:03.837Z</time></trkpt><trkpt lat="42.7365571" lon="12.3855264"><ele>416.1428571428571</ele><time>2026-04-07T09:43:04.831Z</time></trkpt><trkpt lat="42.7366382" lon="12.3855328"><ele>416.4285714285714</ele><time>2026-04-07T09:43:05.827Z</time></trkpt><trkpt lat="42.7367044" lon="12.3855125"><ele>416.7142857142857</ele><time>2026-04-07T09:43:06.863Z</time></trkpt><trkpt lat="42.7367675" lon="12.3854727"><ele>417.0</ele><time>2026-04-07T09:43:07.834Z</time></trkpt><trkpt lat="42.7368217" lon="12.3854129"><ele>418.5714285714286</ele><time>2026-04-07T09:43:08.83Z</time></trkpt><trkpt lat="42.7368594" lon="12.3853348"><ele>420.1428571428571</ele><time>2026-04-07T09:43:09.84Z</time></trkpt><trkpt lat="42.7368727" lon="12.3852468"><ele>421.7142857142857</ele><time>2026-04-07T09:43:10.88Z</time></trkpt><trkpt lat="42.7368772" lon="12.3851428"><ele>423.28571428571433</ele><time>2026-04-07T09:43:11.837Z</time></trkpt><trkpt lat="42.7368753" lon="12.3850356"><ele>424.8571428571429</ele><time>2026-04-07T09:43:12.848Z</time></trkpt><trkpt lat="42.7368748" lon="12.384942"><ele>426.42857142857144</ele><time>2026-04-07T09:43:13.861Z</time></trkpt><trkpt lat="42.7368741" lon="12.3848273"><ele>428.0</ele><time>2026-04-07T09:43:15.85Z</time></trkpt><trkpt lat="42.7368433" lon="12.3847502"><ele>428.66666666666663</ele><time>2026-04-07T09:43:17.856Z</time></trkpt><trkpt lat="42.736758" lon="12.3846337"><ele>429.3333333333333</ele><time>2026-04-07T09:43:19.844Z</time></trkpt><trkpt lat="42.736717" lon="12.3845431"><ele>430.0</ele><time>2026-04-07T09:43:20.866Z</time></trkpt><trkpt lat="42.7366898" lon="12.3844389"><ele>430.66666666666663</ele><time>2026-04-07T09:43:21.842Z</time></trkpt><trkpt lat="42.7366645" lon="12.3843306"><ele>431.3333333333333</ele><time>2026-04-07T09:43:22.846Z</time></trkpt><trkpt lat="42.7366416" lon="12.3842227"><ele>432.0</ele><time>2026-04-07T09:43:23.852Z</time></trkpt><trkpt lat="42.736619" lon="12.3841309"><ele>432.0</ele><time>2026-04-07T09:43:24.84Z</time></trkpt><trkpt lat="42.7366015" lon="12.3840479"><ele>432.0</ele><time>2026-04-07T09:43:25.872Z</time></trkpt><trkpt lat="42.7365999" lon="12.3839044"><ele>432.0</ele><time>2026-04-07T09:43:27.856Z</time></trkpt><trkpt lat="42.7366592" lon="12.3838008"><ele>432.0</ele><time>2026-04-07T09:43:29.836Z</time></trkpt><trkpt lat="42.7366993" lon="12.3836603"><ele>432.0</ele><time>2026-04-07T09:43:31.841Z</time></trkpt><trkpt lat="42.736692" lon="12.3835614"><ele>432.0</ele><time>2026-04-07T09:43:32.858Z</time></trkpt><trkpt lat="42.7366764" lon="12.3834572"><ele>432.1666666666667</ele><time>2026-04-07T09:43:33.849Z</time></trkpt><trkpt lat="42.7366623" lon="12.3833486"><ele>432.33333333333337</ele><time>2026-04-07T09:43:34.856Z</time></trkpt><trkpt lat="42.7366385" lon="12.3832393"><ele>432.5</ele><time>2026-04-07T09:43:35.852Z</time></trkpt><trkpt lat="42.7366171" lon="12.3831257"><ele>432.6666666666667</ele><time>2026-04-07T09:43:36.87Z</time></trkpt><trkpt lat="42.7365994" lon="12.3830114"><ele>432.83333333333337</ele><time>2026-04-07T09:43:37.852Z</time></trkpt><trkpt lat="42.7365792" lon="12.3828906"><ele>433.0</ele><time>2026-04-07T09:43:38.848Z</time></trkpt><trkpt lat="42.736558" lon="12.3827649"><ele>434.50000000000006</ele><time>2026-04-07T09:43:39.851Z</time></trkpt><trkpt lat="42.7365357" lon="12.3826441"><ele>436.0</ele><time>2026-04-07T09:43:40.839Z</time></trkpt><trkpt lat="42.7365196" lon="12.3825284"><ele>437.5</ele><time>2026-04-07T09:43:41.86Z</time></trkpt><trkpt lat="42.736508" lon="12.3824108"><ele>439.0</ele><time>2026-04-07T09:43:42.856Z</time></trkpt><trkpt lat="42.7365015" lon="12.3822965"><ele>440.50000000000006</ele><time>2026-04-07T09:43:43.841Z</time></trkpt><trkpt lat="42.7364937" lon="12.382192"><ele>442.0</ele><time>2026-04-07T09:43:44.854Z</time></trkpt><trkpt lat="42.7364785" lon="12.3820851"><ele>443.83333333333337</ele><time>2026-04-07T09:43:45.852Z</time></trkpt><trkpt lat="42.7364652" lon="12.3819744"><ele>445.6666666666667</ele><time>2026-04-07T09:43:46.854Z</time></trkpt><trkpt lat="42.7364536" lon="12.3818682"><ele>447.5</ele><time>2026-04-07T09:43:47.846Z</time></trkpt><trkpt lat="42.7364418" lon="12.3817718"><ele>449.33333333333337</ele><time>2026-04-07T09:43:48.85Z</time></trkpt><trkpt lat="42.7364237" lon="12.3816817"><ele>451.1666666666667</ele><time>2026-04-07T09:43:49.845Z</time></trkpt><trkpt lat="42.7363966" lon="12.3815848"><ele>453.0</ele><time>2026-04-07T09:43:50.851Z</time></trkpt><trkpt lat="42.7363541" lon="12.3814899"><ele>453.0</ele><time>2026-04-07T09:43:51.861Z</time></trkpt><trkpt lat="42.7362986" lon="12.3813958"><ele>452.99999999999994</ele><time>2026-04-07T09:43:52.849Z</time></trkpt><trkpt lat="42.7362495" lon="12.3813225"><ele>452.99999999999994</ele><time>2026-04-07T09:43:53.854Z</time></trkpt><trkpt lat="42.7361765" lon="12.3812291"><ele>453.0</ele><time>2026-04-07T09:43:55.846Z</time></trkpt><trkpt lat="42.7360787" lon="12.3811999"><ele>453.0</ele><time>2026-04-07T09:43:58.846Z</time></trkpt><trkpt lat="42.7359767" lon="12.3812363"><ele>453.6666666666667</ele><time>2026-04-07T09:44:00.841Z</time></trkpt><trkpt lat="42.7359068" lon="12.3812678"><ele>454.33333333333337</ele><time>2026-04-07T09:44:01.836Z</time></trkpt><trkpt lat="42.7358297" lon="12.3813105"><ele>455.0</ele><time>2026-04-07T09:44:02.84Z</time></trkpt><trkpt lat="42.7357528" lon="12.3813486"><ele>455.6666666666667</ele><time>2026-04-07T09:44:03.848Z</time></trkpt><trkpt lat="42.7356896" lon="12.3813925"><ele>456.33333333333337</ele><time>2026-04-07T09:44:04.838Z</time></trkpt><trkpt lat="42.7356298" lon="12.3814346"><ele>457.0</ele><time>2026-04-07T09:44:05.859Z</time></trkpt><trkpt lat="42.7355217" lon="12.3815019"><ele>457.0</ele><time>2026-04-07T09:44:07.848Z</time></trkpt><trkpt lat="42.7354179" lon="12.3814905"><ele>457.00000000000006</ele><time>2026-04-07T09:44:09.836Z</time></trkpt><trkpt lat="42.73534" lon="12.3813913"><ele>457.00000000000006</ele><time>2026-04-07T09:44:11.857Z</time></trkpt><trkpt lat="42.7353015" lon="12.3813025"><ele>457.0</ele><time>2026-04-07T09:44:12.849Z</time></trkpt><trkpt lat="42.735271" lon="12.381177"><ele>457.0</ele><time>2026-04-07T09:44:13.857Z</time></trkpt><trkpt lat="42.7352357" lon="12.3810329"><ele>460.0</ele><time>2026-04-07T09:44:14.854Z</time></trkpt><trkpt lat="42.7351961" lon="12.3808683"><ele>463.0</ele><time>2026-04-07T09:44:15.852Z</time></trkpt><trkpt lat="42.7351588" lon="12.3807092"><ele>466.0</ele><time>2026-04-07T09:44:16.855Z</time></trkpt><trkpt lat="42.7351214" lon="12.3805627"><ele>469.0</ele><time>2026-04-07T09:44:17.844Z</time></trkpt><trkpt lat="42.7350828" lon="12.3804442"><ele>469.1666666666667</ele><time>2026-04-07T09:44:18.84Z</time></trkpt><trkpt lat="42.7350539" lon="12.3803562"><ele>469.33333333333337</ele><time>2026-04-07T09:44:19.853Z</time></trkpt><trkpt lat="42.7350634" lon="12.3802198"><ele>469.5</ele><time>2026-04-07T09:44:21.852Z</time></trkpt><trkpt lat="42.7350991" lon="12.3801284"><ele>469.66666666666663</ele><time>2026-04-07T09:44:22.843Z</time></trkpt><trkpt lat="42.7351399" lon="12.3800216"><ele>469.8333333333333</ele><time>2026-04-07T09:44:23.837Z</time></trkpt><trkpt lat="42.7351912" lon="12.3799071"><ele>470.0</ele><time>2026-04-07T09:44:24.83Z</time></trkpt><trkpt lat="42.7352496" lon="12.3797964"><ele>471.8333333333333</ele><time>2026-04-07T09:44:25.84Z</time></trkpt><trkpt lat="42.7353101" lon="12.3796805"><ele>473.66666666666663</ele><time>2026-04-07T09:44:26.837Z</time></trkpt><trkpt lat="42.7353663" lon="12.3795696"><ele>475.5</ele><time>2026-04-07T09:44:27.849Z</time></trkpt><trkpt lat="42.7354347" lon="12.3794789"><ele>477.33333333333337</ele><time>2026-04-07T09:44:28.849Z</time></trkpt><trkpt lat="42.7355015" lon="12.3794371"><ele>479.1666666666667</ele><time>2026-04-07T09:44:29.844Z</time></trkpt><trkpt lat="42.7355634" lon="12.3794082"><ele>481.0</ele><time>2026-04-07T09:44:30.831Z</time></trkpt><trkpt lat="42.7356247" lon="12.3793018"><ele>481.0</ele><time>2026-04-07T09:44:32.858Z</time></trkpt><trkpt lat="42.7356616" lon="12.3791833"><ele>481.0</ele><time>2026-04-07T09:44:34.848Z</time></trkpt><trkpt lat="42.7357132" lon="12.3790239"><ele>481.0</ele><time>2026-04-07T09:44:36.867Z</time></trkpt><trkpt lat="42.7357522" lon="12.3789298"><ele>481.0</ele><time>2026-04-07T09:44:37.845Z</time></trkpt><trkpt lat="42.7357919" lon="12.3788299"><ele>481.0</ele><time>2026-04-07T09:44:38.832Z</time></trkpt><trkpt lat="42.7358438" lon="12.3787352"><ele>481.4</ele><time>2026-04-07T09:44:39.84Z</time></trkpt><trkpt lat="42.7359003" lon="12.3786354"><ele>481.8</ele><time>2026-04-07T09:44:40.85Z</time></trkpt><trkpt lat="42.7359616" lon="12.3785261"><ele>482.19999999999993</ele><time>2026-04-07T09:44:41.853Z</time></trkpt><trkpt lat="42.7360197" lon="12.3784277"><ele>482.59999999999997</ele><time>2026-04-07T09:44:42.84Z</time></trkpt><trkpt lat="42.7360748" lon="12.3783327"><ele>483.0</ele><time>2026-04-07T09:44:43.843Z</time></trkpt><trkpt lat="42.7361254" lon="12.3782284"><ele>483.0</ele><time>2026-04-07T09:44:44.845Z</time></trkpt><trkpt lat="42.7361637" lon="12.378122"><ele>482.99999999999994</ele><time>2026-04-07T09:44:45.856Z</time></trkpt><trkpt lat="42.7361961" lon="12.37799"><ele>482.99999999999994</ele><time>2026-04-07T09:44:46.839Z</time></trkpt><trkpt lat="42.736224" lon="12.3778435"><ele>483.0</ele><time>2026-04-07T09:44:47.855Z</time></trkpt><trkpt lat="42.7362516" lon="12.3777071"><ele>483.0</ele><time>2026-04-07T09:44:48.863Z</time></trkpt><trkpt lat="42.7362802" lon="12.3775588"><ele>484.4</ele><time>2026-04-07T09:44:49.85Z</time></trkpt><trkpt lat="42.7363008" lon="12.377421"><ele>485.79999999999995</ele><time>2026-04-07T09:44:50.856Z</time></trkpt><trkpt lat="42.7363075" lon="12.3773018"><ele>487.2</ele><time>2026-04-07T09:44:51.847Z</time></trkpt><trkpt lat="42.7363033" lon="12.377169"><ele>488.6</ele><time>2026-04-07T09:44:53.846Z</time></trkpt><trkpt lat="42.736258" lon="12.3771025"><ele>490.0</ele><time>2026-04-07T09:44:56.849Z</time></trkpt><trkpt lat="42.7361656" lon="12.3771365"><ele>490.33333333333337</ele><time>2026-04-07T09:44:58.852Z</time></trkpt><trkpt lat="42.7361057" lon="12.3771731"><ele>490.6666666666667</ele><time>2026-04-07T09:44:59.841Z</time></trkpt><trkpt lat="42.7360411" lon="12.3772107"><ele>491.0</ele><time>2026-04-07T09:45:00.827Z</time></trkpt><trkpt lat="42.735978" lon="12.377256"><ele>491.33333333333337</ele><time>2026-04-07T09:45:01.847Z</time></trkpt><trkpt lat="42.7358933" lon="12.3773121"><ele>491.6666666666667</ele><time>2026-04-07T09:45:02.851Z</time></trkpt><trkpt lat="42.7357924" lon="12.3773776"><ele>492.0</ele><time>2026-04-07T09:45:03.843Z</time></trkpt><trkpt lat="42.7356898" lon="12.3774451"><ele>494.75</ele><time>2026-04-07T09:45:04.847Z</time></trkpt><trkpt lat="42.7355818" lon="12.3775234"><ele>497.5</ele><time>2026-04-07T09:45:05.845Z</time></trkpt><trkpt lat="42.7354616" lon="12.3776147"><ele>500.25</ele><time>2026-04-07T09:45:06.84Z</time></trkpt><trkpt lat="42.7353226" lon="12.3777149"><ele>503.0</ele><time>2026-04-07T09:45:07.848Z</time></trkpt><trkpt lat="42.7351734" lon="12.3778212"><ele>504.66666666666663</ele><time>2026-04-07T09:45:08.843Z</time></trkpt><trkpt lat="42.735029" lon="12.3779212"><ele>506.33333333333337</ele><time>2026-04-07T09:45:09.851Z</time></trkpt><trkpt lat="42.7348879" lon="12.3780277"><ele>508.0</ele><time>2026-04-07T09:45:10.836Z</time></trkpt><trkpt lat="42.7347519" lon="12.3781292"><ele>508.0</ele><time>2026-04-07T09:45:11.846Z</time></trkpt><trkpt lat="42.734609" lon="12.3782376"><ele>508.0</ele><time>2026-04-07T09:45:12.85Z</time></trkpt><trkpt lat="42.7344714" lon="12.3783436"><ele>508.0</ele><time>2026-04-07T09:45:13.848Z</time></trkpt><trkpt lat="42.7343478" lon="12.3784379"><ele>510.75</ele><time>2026-04-07T09:45:14.828Z</time></trkpt><trkpt lat="42.7342323" lon="12.3785308"><ele>513.5</ele><time>2026-04-07T09:45:15.852Z</time></trkpt><trkpt lat="42.7341106" lon="12.378624"><ele>516.25</ele><time>2026-04-07T09:45:16.832Z</time></trkpt><trkpt lat="42.7339828" lon="12.3787223"><ele>519.0</ele><time>2026-04-07T09:45:17.855Z</time></trkpt><trkpt lat="42.7338551" lon="12.3788178"><ele>517.6666666666666</ele><time>2026-04-07T09:45:18.855Z</time></trkpt><trkpt lat="42.7337216" lon="12.3789196"><ele>516.3333333333333</ele><time>2026-04-07T09:45:19.85Z</time></trkpt><trkpt lat="42.7335872" lon="12.3790299"><ele>515.0</ele><time>2026-04-07T09:45:20.84Z</time></trkpt><trkpt lat="42.7334549" lon="12.3791369"><ele>517.75</ele><time>2026-04-07T09:45:21.838Z</time></trkpt><trkpt lat="42.7333301" lon="12.3792253"><ele>520.5</ele><time>2026-04-07T09:45:22.858Z</time></trkpt><trkpt lat="42.7332054" lon="12.3792905"><ele>523.25</ele><time>2026-04-07T09:45:23.845Z</time></trkpt><trkpt lat="42.7330795" lon="12.37932"><ele>526.0</ele><time>2026-04-07T09:45:24.844Z</time></trkpt><trkpt lat="42.7329314" lon="12.3793002"><ele>526.0</ele><time>2026-04-07T09:45:25.852Z</time></trkpt><trkpt lat="42.7327664" lon="12.3792615"><ele>526.0</ele><time>2026-04-07T09:45:26.838Z</time></trkpt><trkpt lat="42.7325923" lon="12.3792331"><ele>526.0</ele><time>2026-04-07T09:45:27.859Z</time></trkpt><trkpt lat="42.732408" lon="12.3792153"><ele>527.0</ele><time>2026-04-07T09:45:28.853Z</time></trkpt><trkpt lat="42.732215" lon="12.3791925"><ele>528.0</ele><time>2026-04-07T09:45:29.841Z</time></trkpt><trkpt lat="42.732016" lon="12.3791678"><ele>529.0</ele><time>2026-04-07T09:45:30.849Z</time></trkpt><trkpt lat="42.7318153" lon="12.3791487"><ele>530.6666666666667</ele><time>2026-04-07T09:45:31.833Z</time></trkpt><trkpt lat="42.7316164" lon="12.3791295"><ele>532.3333333333334</ele><time>2026-04-07T09:45:32.842Z</time></trkpt><trkpt lat="42.7314173" lon="12.3791043"><ele>534.0</ele><time>2026-04-07T09:45:33.846Z</time></trkpt><trkpt lat="42.7312188" lon="12.3790763"><ele>535.3333333333334</ele><time>2026-04-07T09:45:34.866Z</time></trkpt><trkpt lat="42.7310067" lon="12.379044"><ele>536.6666666666667</ele><time>2026-04-07T09:45:35.867Z</time></trkpt><trkpt lat="42.7307884" lon="12.3790097"><ele>538.0</ele><time>2026-04-07T09:45:36.867Z</time></trkpt><trkpt lat="42.7305619" lon="12.378978"><ele>538.0</ele><time>2026-04-07T09:45:37.847Z</time></trkpt><trkpt lat="42.7303325" lon="12.3789492"><ele>538.0</ele><time>2026-04-07T09:45:38.85Z</time></trkpt><trkpt lat="42.7300976" lon="12.3789207"><ele>539.3333333333334</ele><time>2026-04-07T09:45:39.85Z</time></trkpt><trkpt lat="42.7298717" lon="12.3788978"><ele>540.6666666666666</ele><time>2026-04-07T09:45:40.849Z</time></trkpt><trkpt lat="42.7296538" lon="12.3788736"><ele>542.0</ele><time>2026-04-07T09:45:41.868Z</time></trkpt><trkpt lat="42.7294376" lon="12.3788686"><ele>544.6666666666666</ele><time>2026-04-07T09:45:42.864Z</time></trkpt><trkpt lat="42.7292361" lon="12.3789117"><ele>547.3333333333334</ele><time>2026-04-07T09:45:43.856Z</time></trkpt><trkpt lat="42.7290431" lon="12.378988"><ele>550.0</ele><time>2026-04-07T09:45:44.836Z</time></trkpt><trkpt lat="42.7288535" lon="12.3790862"><ele>550.0</ele><time>2026-04-07T09:45:45.849Z</time></trkpt><trkpt lat="42.7286663" lon="12.3791872"><ele>550.0</ele><time>2026-04-07T09:45:46.85Z</time></trkpt><trkpt lat="42.7284838" lon="12.3792894"><ele>550.0</ele><time>2026-04-07T09:45:47.849Z</time></trkpt><trkpt lat="42.7283171" lon="12.3793905"><ele>550.3333333333334</ele><time>2026-04-07T09:45:48.851Z</time></trkpt><trkpt lat="42.7281567" lon="12.3794862"><ele>550.6666666666666</ele><time>2026-04-07T09:45:49.862Z</time></trkpt><trkpt lat="42.7279894" lon="12.379566"><ele>551.0</ele><time>2026-04-07T09:45:50.852Z</time></trkpt><trkpt lat="42.7278137" lon="12.3796351"><ele>550.3333333333333</ele><time>2026-04-07T09:45:51.845Z</time></trkpt><trkpt lat="42.7276223" lon="12.379701"><ele>549.6666666666666</ele><time>2026-04-07T09:45:52.838Z</time></trkpt><trkpt lat="42.7274144" lon="12.3797635"><ele>549.0</ele><time>2026-04-07T09:45:53.843Z</time></trkpt><trkpt lat="42.7272007" lon="12.3798299"><ele>549.0</ele><time>2026-04-07T09:45:54.853Z</time></trkpt><trkpt lat="42.7269805" lon="12.3799002"><ele>549.0</ele><time>2026-04-07T09:45:55.837Z</time></trkpt><trkpt lat="42.7267574" lon="12.3799705"><ele>549.5</ele><time>2026-04-07T09:45:56.841Z</time></trkpt><trkpt lat="42.7265341" lon="12.380037"><ele>550.0</ele><time>2026-04-07T09:45:57.847Z</time></trkpt><trkpt lat="42.7263116" lon="12.3800976"><ele>550.0</ele><time>2026-04-07T09:45:58.845Z</time></trkpt><trkpt lat="42.7260854" lon="12.3801589"><ele>550.0</ele><time>2026-04-07T09:45:59.849Z</time></trkpt><trkpt lat="42.7258594" lon="12.3802235"><ele>547.5</ele><time>2026-04-07T09:46:00.862Z</time></trkpt><trkpt lat="42.7256305" lon="12.3802872"><ele>545.0</ele><time>2026-04-07T09:46:01.868Z</time></trkpt><trkpt lat="42.725407" lon="12.3803522"><ele>544.3333333333333</ele><time>2026-04-07T09:46:02.854Z</time></trkpt><trkpt lat="42.7251918" lon="12.3804016"><ele>543.6666666666666</ele><time>2026-04-07T09:46:03.859Z</time></trkpt><trkpt lat="42.7249763" lon="12.3804343"><ele>543.0</ele><time>2026-04-07T09:46:04.874Z</time></trkpt><trkpt lat="42.7247629" lon="12.3804552"><ele>543.0</ele><time>2026-04-07T09:46:05.864Z</time></trkpt><trkpt lat="42.724548" lon="12.3804772"><ele>543.0</ele><time>2026-04-07T09:46:06.844Z</time></trkpt><trkpt lat="42.724333" lon="12.3805092"><ele>543.0</ele><time>2026-04-07T09:46:07.849Z</time></trkpt><trkpt lat="42.724119" lon="12.3805345"><ele>544.6666666666666</ele><time>2026-04-07T09:46:08.849Z</time></trkpt><trkpt lat="42.7239025" lon="12.3805603"><ele>546.3333333333333</ele><time>2026-04-07T09:46:09.852Z</time></trkpt><trkpt lat="42.723684" lon="12.3805899"><ele>548.0</ele><time>2026-04-07T09:46:10.846Z</time></trkpt><trkpt lat="42.7234656" lon="12.3806282"><ele>548.0</ele><time>2026-04-07T09:46:11.848Z</time></trkpt><trkpt lat="42.7232479" lon="12.3806788"><ele>548.0</ele><time>2026-04-07T09:46:12.836Z</time></trkpt><trkpt lat="42.7230339" lon="12.3807506"><ele>548.0</ele><time>2026-04-07T09:46:13.839Z</time></trkpt><trkpt lat="42.7228187" lon="12.3808329"><ele>548.0</ele><time>2026-04-07T09:46:14.843Z</time></trkpt><trkpt lat="42.7225975" lon="12.3809268"><ele>548.0</ele><time>2026-04-07T09:46:15.862Z</time></trkpt><trkpt lat="42.7223809" lon="12.3810235"><ele>548.0</ele><time>2026-04-07T09:46:16.843Z</time></trkpt><trkpt lat="42.7221764" lon="12.3811131"><ele>548.0</ele><time>2026-04-07T09:46:17.829Z</time></trkpt><trkpt lat="42.7219829" lon="12.3811933"><ele>548.0</ele><time>2026-04-07T09:46:18.835Z</time></trkpt><trkpt lat="42.721801" lon="12.3812635"><ele>547.3333333333333</ele><time>2026-04-07T09:46:19.842Z</time></trkpt><trkpt lat="42.7216303" lon="12.3813114"><ele>546.6666666666666</ele><time>2026-04-07T09:46:20.85Z</time></trkpt><trkpt lat="42.7214693" lon="12.3813294"><ele>546.0</ele><time>2026-04-07T09:46:21.854Z</time></trkpt><trkpt lat="42.7213134" lon="12.3812798"><ele>546.0</ele><time>2026-04-07T09:46:22.852Z</time></trkpt><trkpt lat="42.7211518" lon="12.3811734"><ele>546.0</ele><time>2026-04-07T09:46:23.862Z</time></trkpt><trkpt lat="42.7209745" lon="12.3810463"><ele>546.0</ele><time>2026-04-07T09:46:24.88Z</time></trkpt><trkpt lat="42.7207867" lon="12.3809212"><ele>545.6666666666666</ele><time>2026-04-07T09:46:25.851Z</time></trkpt><trkpt lat="42.7205913" lon="12.3808033"><ele>545.3333333333333</ele><time>2026-04-07T09:46:26.849Z</time></trkpt><trkpt lat="42.7204029" lon="12.3807026"><ele>545.0</ele><time>2026-04-07T09:46:27.853Z</time></trkpt><trkpt lat="42.7202234" lon="12.3806211"><ele>545.0</ele><time>2026-04-07T09:46:28.84Z</time></trkpt><trkpt lat="42.7200393" lon="12.3805566"><ele>545.0</ele><time>2026-04-07T09:46:29.86Z</time></trkpt><trkpt lat="42.7198403" lon="12.3805181"><ele>545.0</ele><time>2026-04-07T09:46:30.851Z</time></trkpt><trkpt lat="42.7196324" lon="12.3804925"><ele>544.6666666666666</ele><time>2026-04-07T09:46:31.839Z</time></trkpt><trkpt lat="42.7194179" lon="12.3804796"><ele>544.3333333333334</ele><time>2026-04-07T09:46:32.837Z</time></trkpt><trkpt lat="42.7192013" lon="12.3804524"><ele>544.0</ele><time>2026-04-07T09:46:33.835Z</time></trkpt><trkpt lat="42.7189823" lon="12.3804095"><ele>545.0</ele><time>2026-04-07T09:46:34.847Z</time></trkpt><trkpt lat="42.7187556" lon="12.3803602"><ele>546.0</ele><time>2026-04-07T09:46:35.85Z</time></trkpt><trkpt lat="42.7185113" lon="12.3803008"><ele>548.0</ele><time>2026-04-07T09:46:36.857Z</time></trkpt><trkpt lat="42.7182631" lon="12.3802421"><ele>550.0</ele><time>2026-04-07T09:46:37.85Z</time></trkpt><trkpt lat="42.7180371" lon="12.3801742"><ele>550.0</ele><time>2026-04-07T09:46:38.861Z</time></trkpt><trkpt lat="42.7178264" lon="12.3801123"><ele>550.0</ele><time>2026-04-07T09:46:39.846Z</time></trkpt><trkpt lat="42.7176102" lon="12.3800555"><ele>550.0</ele><time>2026-04-07T09:46:40.851Z</time></trkpt><trkpt lat="42.7173988" lon="12.379996"><ele>550.6666666666667</ele><time>2026-04-07T09:46:41.86Z</time></trkpt><trkpt lat="42.7171958" lon="12.3799423"><ele>551.3333333333334</ele><time>2026-04-07T09:46:42.855Z</time></trkpt><trkpt lat="42.717003" lon="12.3799023"><ele>552.0</ele><time>2026-04-07T09:46:43.848Z</time></trkpt><trkpt lat="42.7168202" lon="12.3798749"><ele>553.6666666666666</ele><time>2026-04-07T09:46:44.848Z</time></trkpt><trkpt lat="42.7166551" lon="12.379853"><ele>555.3333333333333</ele><time>2026-04-07T09:46:45.846Z</time></trkpt><trkpt lat="42.7164995" lon="12.3798297"><ele>557.0</ele><time>2026-04-07T09:46:46.848Z</time></trkpt><trkpt lat="42.716354" lon="12.3798111"><ele>557.0</ele><time>2026-04-07T09:46:47.855Z</time></trkpt><trkpt lat="42.7162206" lon="12.3798054"><ele>557.0</ele><time>2026-04-07T09:46:48.85Z</time></trkpt><trkpt lat="42.7160971" lon="12.3798079"><ele>557.0</ele><time>2026-04-07T09:46:49.847Z</time></trkpt><trkpt lat="42.7159821" lon="12.3798102"><ele>557.0</ele><time>2026-04-07T09:46:50.849Z</time></trkpt><trkpt lat="42.7158846" lon="12.3798107"><ele>556.8333333333333</ele><time>2026-04-07T09:46:51.85Z</time></trkpt><trkpt lat="42.7157986" lon="12.379811"><ele>556.6666666666666</ele><time>2026-04-07T09:46:52.858Z</time></trkpt><trkpt lat="42.7157282" lon="12.3798125"><ele>556.5</ele><time>2026-04-07T09:46:53.851Z</time></trkpt><trkpt lat="42.715661" lon="12.3798364"><ele>556.3333333333334</ele><time>2026-04-07T09:46:54.848Z</time></trkpt><trkpt lat="42.715598" lon="12.3798857"><ele>556.1666666666667</ele><time>2026-04-07T09:46:55.851Z</time></trkpt><trkpt lat="42.7155394" lon="12.3799517"><ele>556.0</ele><time>2026-04-07T09:46:56.859Z</time></trkpt><trkpt lat="42.7154733" lon="12.3800261"><ele>556.0</ele><time>2026-04-07T09:46:57.843Z</time></trkpt><trkpt lat="42.7153923" lon="12.3801075"><ele>556.0</ele><time>2026-04-07T09:46:58.845Z</time></trkpt><trkpt lat="42.7153065" lon="12.3801961"><ele>556.0</ele><time>2026-04-07T09:46:59.858Z</time></trkpt><trkpt lat="42.7152065" lon="12.3803139"><ele>556.0</ele><time>2026-04-07T09:47:00.852Z</time></trkpt><trkpt lat="42.7150997" lon="12.3804474"><ele>557.5</ele><time>2026-04-07T09:47:01.859Z</time></trkpt><trkpt lat="42.7149962" lon="12.3805672"><ele>559.0</ele><time>2026-04-07T09:47:02.851Z</time></trkpt><trkpt lat="42.714902" lon="12.3806743"><ele>560.5</ele><time>2026-04-07T09:47:03.851Z</time></trkpt><trkpt lat="42.7148228" lon="12.3807781"><ele>562.0</ele><time>2026-04-07T09:47:04.849Z</time></trkpt><trkpt lat="42.714749" lon="12.3808876"><ele>562.0</ele><time>2026-04-07T09:47:05.847Z</time></trkpt><trkpt lat="42.7146809" lon="12.3810071"><ele>562.0</ele><time>2026-04-07T09:47:06.836Z</time></trkpt><trkpt lat="42.7146272" lon="12.3811757"><ele>562.0</ele><time>2026-04-07T09:47:07.848Z</time></trkpt><trkpt lat="42.7145788" lon="12.3813944"><ele>562.0</ele><time>2026-04-07T09:47:08.851Z</time></trkpt><trkpt lat="42.7145272" lon="12.3816249"><ele>563.3333333333334</ele><time>2026-04-07T09:47:09.858Z</time></trkpt><trkpt lat="42.7144786" lon="12.3818507"><ele>564.6666666666666</ele><time>2026-04-07T09:47:10.845Z</time></trkpt><trkpt lat="42.7144432" lon="12.3820476"><ele>566.0</ele><time>2026-04-07T09:47:11.849Z</time></trkpt><trkpt lat="42.7144134" lon="12.3822321"><ele>566.0</ele><time>2026-04-07T09:47:12.858Z</time></trkpt><trkpt lat="42.7143983" lon="12.3824005"><ele>566.0</ele><time>2026-04-07T09:47:13.85Z</time></trkpt><trkpt lat="42.7143955" lon="12.3825752"><ele>566.0</ele><time>2026-04-07T09:47:14.85Z</time></trkpt><trkpt lat="42.7144097" lon="12.3827681"><ele>566.0</ele><time>2026-04-07T09:47:15.849Z</time></trkpt><trkpt lat="42.7144334" lon="12.3829798"><ele>566.0</ele><time>2026-04-07T09:47:16.867Z</time></trkpt><trkpt lat="42.7144637" lon="12.3832085"><ele>566.0</ele><time>2026-04-07T09:47:17.847Z</time></trkpt><trkpt lat="42.7144921" lon="12.3834411"><ele>566.0</ele><time>2026-04-07T09:47:18.846Z</time></trkpt><trkpt lat="42.7145198" lon="12.3836882"><ele>566.3333333333333</ele><time>2026-04-07T09:47:19.848Z</time></trkpt><trkpt lat="42.7145506" lon="12.3839618"><ele>566.6666666666666</ele><time>2026-04-07T09:47:20.856Z</time></trkpt><trkpt lat="42.7145811" lon="12.3842614"><ele>567.0</ele><time>2026-04-07T09:47:21.857Z</time></trkpt><trkpt lat="42.7146103" lon="12.3845694"><ele>567.6666666666666</ele><time>2026-04-07T09:47:22.852Z</time></trkpt><trkpt lat="42.7146347" lon="12.3848268"><ele>568.3333333333333</ele><time>2026-04-07T09:47:23.865Z</time></trkpt><trkpt lat="42.7146557" lon="12.3850447"><ele>569.0</ele><time>2026-04-07T09:47:24.849Z</time></trkpt><trkpt lat="42.7146833" lon="12.3852566"><ele>569.0</ele><time>2026-04-07T09:47:25.845Z</time></trkpt><trkpt lat="42.7147116" lon="12.3854687"><ele>569.0</ele><time>2026-04-07T09:47:26.842Z</time></trkpt><trkpt lat="42.7147329" lon="12.385667"><ele>569.0</ele><time>2026-04-07T09:47:27.841Z</time></trkpt><trkpt lat="42.7147514" lon="12.3858598"><ele>569.0</ele><time>2026-04-07T09:47:28.876Z</time></trkpt><trkpt lat="42.7147655" lon="12.3860485"><ele>568.3333333333333</ele><time>2026-04-07T09:47:29.857Z</time></trkpt><trkpt lat="42.7147674" lon="12.3862496"><ele>567.6666666666666</ele><time>2026-04-07T09:47:30.865Z</time></trkpt><trkpt lat="42.7147649" lon="12.3864682"><ele>567.0</ele><time>2026-04-07T09:47:31.84Z</time></trkpt><trkpt lat="42.7147537" lon="12.3866746"><ele>566.5</ele><time>2026-04-07T09:47:32.857Z</time></trkpt><trkpt lat="42.7147414" lon="12.3868529"><ele>566.0</ele><time>2026-04-07T09:47:33.853Z</time></trkpt><trkpt lat="42.7147302" lon="12.3870253"><ele>565.5</ele><time>2026-04-07T09:47:34.853Z</time></trkpt><trkpt lat="42.714727" lon="12.387215"><ele>565.0</ele><time>2026-04-07T09:47:35.848Z</time></trkpt><trkpt lat="42.7147508" lon="12.3874437"><ele>564.0</ele><time>2026-04-07T09:47:36.859Z</time></trkpt><trkpt lat="42.7147847" lon="12.3877198"><ele>563.0</ele><time>2026-04-07T09:47:37.854Z</time></trkpt><trkpt lat="42.7148157" lon="12.3880018"><ele>562.0</ele><time>2026-04-07T09:47:38.854Z</time></trkpt><trkpt lat="42.7148397" lon="12.3882526"><ele>561.25</ele><time>2026-04-07T09:47:39.858Z</time></trkpt><trkpt lat="42.7148689" lon="12.388459"><ele>560.5</ele><time>2026-04-07T09:47:40.845Z</time></trkpt><trkpt lat="42.7148888" lon="12.3886394"><ele>559.75</ele><time>2026-04-07T09:47:41.848Z</time></trkpt><trkpt lat="42.7149093" lon="12.3887942"><ele>559.0</ele><time>2026-04-07T09:47:42.844Z</time></trkpt><trkpt lat="42.7149245" lon="12.3889235"><ele>558.6</ele><time>2026-04-07T09:47:43.842Z</time></trkpt><trkpt lat="42.7149404" lon="12.389023"><ele>558.2</ele><time>2026-04-07T09:47:44.849Z</time></trkpt><trkpt lat="42.7150023" lon="12.3891483"><ele>557.8000000000001</ele><time>2026-04-07T09:47:46.857Z</time></trkpt><trkpt lat="42.7151277" lon="12.389154"><ele>557.4</ele><time>2026-04-07T09:47:48.836Z</time></trkpt><trkpt lat="42.7151927" lon="12.3890897"><ele>557.0</ele><time>2026-04-07T09:47:49.86Z</time></trkpt><trkpt lat="42.7152619" lon="12.3889982"><ele>555.8000000000001</ele><time>2026-04-07T09:47:50.841Z</time></trkpt><trkpt lat="42.7153231" lon="12.388906"><ele>554.6</ele><time>2026-04-07T09:47:51.849Z</time></trkpt><trkpt lat="42.7153877" lon="12.3888554"><ele>553.4000000000001</ele><time>2026-04-07T09:47:52.853Z</time></trkpt><trkpt lat="42.7154903" lon="12.3888936"><ele>552.2</ele><time>2026-04-07T09:47:54.849Z</time></trkpt><trkpt lat="42.7155558" lon="12.3890141"><ele>551.0</ele><time>2026-04-07T09:47:56.856Z</time></trkpt><trkpt lat="42.715571" lon="12.3891707"><ele>551.0</ele><time>2026-04-07T09:47:58.845Z</time></trkpt><trkpt lat="42.7155394" lon="12.3893335"><ele>551.0</ele><time>2026-04-07T09:48:00.854Z</time></trkpt><trkpt lat="42.7155104" lon="12.3894258"><ele>551.0</ele><time>2026-04-07T09:48:01.847Z</time></trkpt><trkpt lat="42.7154663" lon="12.3895307"><ele>551.0</ele><time>2026-04-07T09:48:02.854Z</time></trkpt><trkpt lat="42.7154223" lon="12.3896455"><ele>551.0</ele><time>2026-04-07T09:48:03.862Z</time></trkpt><trkpt lat="42.7153897" lon="12.3897592"><ele>549.4</ele><time>2026-04-07T09:48:04.844Z</time></trkpt><trkpt lat="42.7153638" lon="12.3898839"><ele>547.8</ele><time>2026-04-07T09:48:05.862Z</time></trkpt><trkpt lat="42.7153593" lon="12.390024"><ele>546.1999999999999</ele><time>2026-04-07T09:48:06.852Z</time></trkpt><trkpt lat="42.715355" lon="12.3901912"><ele>544.6</ele><time>2026-04-07T09:48:07.842Z</time></trkpt><trkpt lat="42.7153443" lon="12.3903642"><ele>543.0</ele><time>2026-04-07T09:48:08.84Z</time></trkpt><trkpt lat="42.7153351" lon="12.3905283"><ele>540.5</ele><time>2026-04-07T09:48:09.845Z</time></trkpt><trkpt lat="42.7153237" lon="12.3906838"><ele>538.0</ele><time>2026-04-07T09:48:10.845Z</time></trkpt><trkpt lat="42.7153092" lon="12.3908411"><ele>535.5</ele><time>2026-04-07T09:48:11.849Z</time></trkpt><trkpt lat="42.7152926" lon="12.3909916"><ele>533.0</ele><time>2026-04-07T09:48:12.84Z</time></trkpt><trkpt lat="42.7152711" lon="12.3911395"><ele>533.0</ele><time>2026-04-07T09:48:13.859Z</time></trkpt><trkpt lat="42.7152375" lon="12.391272"><ele>533.0</ele><time>2026-04-07T09:48:14.846Z</time></trkpt><trkpt lat="42.7151797" lon="12.3913774"><ele>533.0</ele><time>2026-04-07T09:48:15.853Z</time></trkpt><trkpt lat="42.7151005" lon="12.3914652"><ele>533.0</ele><time>2026-04-07T09:48:16.856Z</time></trkpt><trkpt lat="42.7150111" lon="12.3915419"><ele>533.0</ele><time>2026-04-07T09:48:17.843Z</time></trkpt><trkpt lat="42.7149193" lon="12.3915953"><ele>533.1999999999999</ele><time>2026-04-07T09:48:18.856Z</time></trkpt><trkpt lat="42.7148234" lon="12.3916145"><ele>533.4</ele><time>2026-04-07T09:48:19.858Z</time></trkpt><trkpt lat="42.7147316" lon="12.3915943"><ele>533.5999999999999</ele><time>2026-04-07T09:48:20.865Z</time></trkpt><trkpt lat="42.7146253" lon="12.3915361"><ele>533.8</ele><time>2026-04-07T09:48:21.842Z</time></trkpt><trkpt lat="42.7145018" lon="12.3914674"><ele>534.0</ele><time>2026-04-07T09:48:22.861Z</time></trkpt><trkpt lat="42.7143814" lon="12.3913953"><ele>534.5</ele><time>2026-04-07T09:48:23.84Z</time></trkpt><trkpt lat="42.7142746" lon="12.3913471"><ele>535.0</ele><time>2026-04-07T09:48:24.843Z</time></trkpt><trkpt lat="42.7141975" lon="12.3913203"><ele>535.5</ele><time>2026-04-07T09:48:25.846Z</time></trkpt><trkpt lat="42.7141346" lon="12.3913127"><ele>536.0</ele><time>2026-04-07T09:48:26.859Z</time></trkpt><trkpt lat="42.7140354" lon="12.3913784"><ele>536.5</ele><time>2026-04-07T09:48:28.85Z</time></trkpt><trkpt lat="42.7140061" lon="12.3914552"><ele>537.0</ele><time>2026-04-07T09:48:29.844Z</time></trkpt><trkpt lat="42.714014" lon="12.3916027"><ele>536.25</ele><time>2026-04-07T09:48:31.87Z</time></trkpt><trkpt lat="42.7141279" lon="12.3917055"><ele>535.5</ele><time>2026-04-07T09:48:33.852Z</time></trkpt><trkpt lat="42.714221" lon="12.3917533"><ele>534.75</ele><time>2026-04-07T09:48:34.848Z</time></trkpt><trkpt lat="42.7143231" lon="12.3918165"><ele>534.0</ele><time>2026-04-07T09:48:35.844Z</time></trkpt><trkpt lat="42.7144203" lon="12.3918837"><ele>534.0</ele><time>2026-04-07T09:48:36.84Z</time></trkpt><trkpt lat="42.7145129" lon="12.3919486"><ele>534.0</ele><time>2026-04-07T09:48:37.844Z</time></trkpt><trkpt lat="42.7145976" lon="12.3920155"><ele>534.0</ele><time>2026-04-07T09:48:38.832Z</time></trkpt><trkpt lat="42.7146659" lon="12.3920908"><ele>534.0</ele><time>2026-04-07T09:48:39.845Z</time></trkpt><trkpt lat="42.7147273" lon="12.3921791"><ele>534.0</ele><time>2026-04-07T09:48:40.843Z</time></trkpt><trkpt lat="42.7147731" lon="12.3922989"><ele>530.0</ele><time>2026-04-07T09:48:41.845Z</time></trkpt><trkpt lat="42.7148111" lon="12.3924459"><ele>526.0</ele><time>2026-04-07T09:48:42.842Z</time></trkpt><trkpt lat="42.7148507" lon="12.3925989"><ele>522.0</ele><time>2026-04-07T09:48:43.856Z</time></trkpt><trkpt lat="42.7148768" lon="12.3927687"><ele>518.0</ele><time>2026-04-07T09:48:44.852Z</time></trkpt><trkpt lat="42.7148921" lon="12.3929664"><ele>516.0</ele><time>2026-04-07T09:48:45.845Z</time></trkpt><trkpt lat="42.7149069" lon="12.3932003"><ele>514.0</ele><time>2026-04-07T09:48:46.848Z</time></trkpt><trkpt lat="42.7149227" lon="12.3934349"><ele>512.0</ele><time>2026-04-07T09:48:47.841Z</time></trkpt><trkpt lat="42.7149374" lon="12.3936429"><ele>511.0</ele><time>2026-04-07T09:48:48.844Z</time></trkpt><trkpt lat="42.7149496" lon="12.3938425"><ele>510.0</ele><time>2026-04-07T09:48:49.853Z</time></trkpt><trkpt lat="42.714963" lon="12.3940373"><ele>509.0</ele><time>2026-04-07T09:48:50.846Z</time></trkpt><trkpt lat="42.7149784" lon="12.3942412"><ele>508.0</ele><time>2026-04-07T09:48:51.838Z</time></trkpt><trkpt lat="42.7149962" lon="12.3944515"><ele>508.0</ele><time>2026-04-07T09:48:52.853Z</time></trkpt><trkpt lat="42.7150125" lon="12.3946613"><ele>508.0</ele><time>2026-04-07T09:48:53.839Z</time></trkpt><trkpt lat="42.7150304" lon="12.3948721"><ele>508.0</ele><time>2026-04-07T09:48:54.854Z</time></trkpt><trkpt lat="42.7150505" lon="12.3950796"><ele>507.59999999999997</ele><time>2026-04-07T09:48:55.843Z</time></trkpt><trkpt lat="42.7150727" lon="12.3952729"><ele>507.19999999999993</ele><time>2026-04-07T09:48:56.855Z</time></trkpt><trkpt lat="42.7150935" lon="12.3954345"><ele>506.8</ele><time>2026-04-07T09:48:57.862Z</time></trkpt><trkpt lat="42.7151101" lon="12.3955638"><ele>506.4</ele><time>2026-04-07T09:48:58.845Z</time></trkpt><trkpt lat="42.7151321" lon="12.3956737"><ele>506.0</ele><time>2026-04-07T09:48:59.837Z</time></trkpt><trkpt lat="42.7151568" lon="12.3957802"><ele>506.0</ele><time>2026-04-07T09:49:00.855Z</time></trkpt><trkpt lat="42.7151922" lon="12.3958862"><ele>506.0</ele><time>2026-04-07T09:49:01.842Z</time></trkpt><trkpt lat="42.7152355" lon="12.3959874"><ele>506.0</ele><time>2026-04-07T09:49:02.838Z</time></trkpt><trkpt lat="42.7152852" lon="12.3961067"><ele>506.0</ele><time>2026-04-07T09:49:03.849Z</time></trkpt><trkpt lat="42.7153434" lon="12.3962523"><ele>506.0</ele><time>2026-04-07T09:49:04.848Z</time></trkpt><trkpt lat="42.7154124" lon="12.3964131"><ele>504.0</ele><time>2026-04-07T09:49:05.851Z</time></trkpt><trkpt lat="42.7154866" lon="12.3965867"><ele>502.0</ele><time>2026-04-07T09:49:06.847Z</time></trkpt><trkpt lat="42.7155574" lon="12.3967574"><ele>500.0</ele><time>2026-04-07T09:49:07.845Z</time></trkpt><trkpt lat="42.7156285" lon="12.3969231"><ele>498.0</ele><time>2026-04-07T09:49:08.847Z</time></trkpt><trkpt lat="42.7156914" lon="12.3970907"><ele>498.25</ele><time>2026-04-07T09:49:09.841Z</time></trkpt><trkpt lat="42.7157561" lon="12.3972551"><ele>498.5</ele><time>2026-04-07T09:49:10.839Z</time></trkpt><trkpt lat="42.7158182" lon="12.397415"><ele>498.75</ele><time>2026-04-07T09:49:11.847Z</time></trkpt><trkpt lat="42.7158844" lon="12.3975805"><ele>499.0</ele><time>2026-04-07T09:49:12.841Z</time></trkpt><trkpt lat="42.7159541" lon="12.3977448"><ele>499.0</ele><time>2026-04-07T09:49:13.852Z</time></trkpt><trkpt lat="42.716016" lon="12.3979004"><ele>499.0</ele><time>2026-04-07T09:49:14.87Z</time></trkpt><trkpt lat="42.7160766" lon="12.3980483"><ele>499.0</ele><time>2026-04-07T09:49:15.844Z</time></trkpt><trkpt lat="42.7161356" lon="12.3981932"><ele>499.0</ele><time>2026-04-07T09:49:16.843Z</time></trkpt><trkpt lat="42.7161958" lon="12.3983426"><ele>496.75</ele><time>2026-04-07T09:49:17.837Z</time></trkpt><trkpt lat="42.7162573" lon="12.3984921"><ele>494.5</ele><time>2026-04-07T09:49:18.859Z</time></trkpt><trkpt lat="42.7163215" lon="12.3986478"><ele>492.25</ele><time>2026-04-07T09:49:19.841Z</time></trkpt><trkpt lat="42.7163909" lon="12.3988154"><ele>490.0</ele><time>2026-04-07T09:49:20.852Z</time></trkpt><trkpt lat="42.7164656" lon="12.3989904"><ele>490.0</ele><time>2026-04-07T09:49:21.858Z</time></trkpt><trkpt lat="42.7165362" lon="12.3991552"><ele>490.0</ele><time>2026-04-07T09:49:22.856Z</time></trkpt><trkpt lat="42.7165939" lon="12.399308"><ele>490.0</ele><time>2026-04-07T09:49:23.842Z</time></trkpt><trkpt lat="42.7166477" lon="12.3994412"><ele>490.0</ele><time>2026-04-07T09:49:24.855Z</time></trkpt><trkpt lat="42.7166993" lon="12.3995631"><ele>490.1666666666667</ele><time>2026-04-07T09:49:25.847Z</time></trkpt><trkpt lat="42.7167436" lon="12.3996789"><ele>490.33333333333337</ele><time>2026-04-07T09:49:26.838Z</time></trkpt><trkpt lat="42.7167735" lon="12.3997812"><ele>490.5</ele><time>2026-04-07T09:49:27.854Z</time></trkpt><trkpt lat="42.7167935" lon="12.3998744"><ele>490.66666666666663</ele><time>2026-04-07T09:49:28.844Z</time></trkpt><trkpt lat="42.7168033" lon="12.3999753"><ele>490.8333333333333</ele><time>2026-04-07T09:49:29.844Z</time></trkpt><trkpt lat="42.7168001" lon="12.4000915"><ele>491.0</ele><time>2026-04-07T09:49:30.843Z</time></trkpt><trkpt lat="42.716785" lon="12.4002162"><ele>491.0</ele><time>2026-04-07T09:49:31.845Z</time></trkpt><trkpt lat="42.716765" lon="12.4003456"><ele>491.0</ele><time>2026-04-07T09:49:32.852Z</time></trkpt><trkpt lat="42.716734" lon="12.4004735"><ele>491.0</ele><time>2026-04-07T09:49:33.843Z</time></trkpt><trkpt lat="42.716695" lon="12.4006027"><ele>491.0</ele><time>2026-04-07T09:49:34.843Z</time></trkpt><trkpt lat="42.7166654" lon="12.4007356"><ele>491.0</ele><time>2026-04-07T09:49:35.855Z</time></trkpt><trkpt lat="42.7166392" lon="12.4008706"><ele>489.20000000000005</ele><time>2026-04-07T09:49:36.866Z</time></trkpt><trkpt lat="42.7166241" lon="12.4010027"><ele>487.40000000000003</ele><time>2026-04-07T09:49:37.845Z</time></trkpt><trkpt lat="42.7166139" lon="12.4011293"><ele>485.6</ele><time>2026-04-07T09:49:38.841Z</time></trkpt><trkpt lat="42.7165993" lon="12.4012542"><ele>483.8</ele><time>2026-04-07T09:49:39.847Z</time></trkpt><trkpt lat="42.71659" lon="12.4013764"><ele>482.0</ele><time>2026-04-07T09:49:40.84Z</time></trkpt><trkpt lat="42.7165818" lon="12.4014894"><ele>480.16666666666663</ele><time>2026-04-07T09:49:41.843Z</time></trkpt><trkpt lat="42.7165748" lon="12.401587"><ele>478.3333333333333</ele><time>2026-04-07T09:49:42.853Z</time></trkpt><trkpt lat="42.7165588" lon="12.4016739"><ele>476.5</ele><time>2026-04-07T09:49:43.854Z</time></trkpt><trkpt lat="42.716472" lon="12.4017962"><ele>474.66666666666663</ele><time>2026-04-07T09:49:45.851Z</time></trkpt><trkpt lat="42.7164031" lon="12.4018271"><ele>472.8333333333333</ele><time>2026-04-07T09:49:46.84Z</time></trkpt><trkpt lat="42.716319" lon="12.4018474"><ele>471.0</ele><time>2026-04-07T09:49:47.862Z</time></trkpt><trkpt lat="42.7162209" lon="12.4018525"><ele>471.0</ele><time>2026-04-07T09:49:48.829Z</time></trkpt><trkpt lat="42.7161142" lon="12.4018509"><ele>471.0</ele><time>2026-04-07T09:49:49.835Z</time></trkpt><trkpt lat="42.7160054" lon="12.4018454"><ele>471.0</ele><time>2026-04-07T09:49:50.851Z</time></trkpt><trkpt lat="42.7158988" lon="12.4018338"><ele>471.0</ele><time>2026-04-07T09:49:51.844Z</time></trkpt><trkpt lat="42.7158001" lon="12.4018232"><ele>471.0</ele><time>2026-04-07T09:49:52.859Z</time></trkpt><trkpt lat="42.7157047" lon="12.4018105"><ele>471.8</ele><time>2026-04-07T09:49:53.852Z</time></trkpt><trkpt lat="42.7156101" lon="12.4018058"><ele>472.6</ele><time>2026-04-07T09:49:54.854Z</time></trkpt><trkpt lat="42.7155133" lon="12.4018208"><ele>473.4</ele><time>2026-04-07T09:49:55.827Z</time></trkpt><trkpt lat="42.7154174" lon="12.4018439"><ele>474.2</ele><time>2026-04-07T09:49:56.84Z</time></trkpt><trkpt lat="42.7153228" lon="12.4018642"><ele>475.0</ele><time>2026-04-07T09:49:57.849Z</time></trkpt><trkpt lat="42.7152153" lon="12.4018845"><ele>473.50000000000006</ele><time>2026-04-07T09:49:58.843Z</time></trkpt><trkpt lat="42.7151076" lon="12.4019017"><ele>472.0</ele><time>2026-04-07T09:49:59.845Z</time></trkpt><trkpt lat="42.7150131" lon="12.4019181"><ele>470.5</ele><time>2026-04-07T09:50:00.848Z</time></trkpt><trkpt lat="42.7149313" lon="12.4019331"><ele>469.0</ele><time>2026-04-07T09:50:01.846Z</time></trkpt><trkpt lat="42.7148676" lon="12.4019369"><ele>467.50000000000006</ele><time>2026-04-07T09:50:02.856Z</time></trkpt><trkpt lat="42.7147806" lon="12.401894"><ele>466.0</ele><time>2026-04-07T09:50:04.847Z</time></trkpt><trkpt lat="42.7147617" lon="12.4017404"><ele>466.00000000000006</ele><time>2026-04-07T09:50:06.842Z</time></trkpt><trkpt lat="42.7147811" lon="12.4016318"><ele>466.0</ele><time>2026-04-07T09:50:07.838Z</time></trkpt><trkpt lat="42.7148165" lon="12.4015178"><ele>466.0</ele><time>2026-04-07T09:50:08.843Z</time></trkpt><trkpt lat="42.7148598" lon="12.4014075"><ele>466.0</ele><time>2026-04-07T09:50:09.827Z</time></trkpt><trkpt lat="42.7149038" lon="12.4013044"><ele>466.00000000000006</ele><time>2026-04-07T09:50:10.839Z</time></trkpt><trkpt lat="42.714931" lon="12.4011952"><ele>466.0</ele><time>2026-04-07T09:50:11.855Z</time></trkpt><trkpt lat="42.7149426" lon="12.4009798"><ele>466.33333333333337</ele><time>2026-04-07T09:50:13.858Z</time></trkpt><trkpt lat="42.7149208" lon="12.4008786"><ele>466.6666666666667</ele><time>2026-04-07T09:50:14.852Z</time></trkpt><trkpt lat="42.7148878" lon="12.4007914"><ele>467.0</ele><time>2026-04-07T09:50:15.836Z</time></trkpt><trkpt lat="42.7148519" lon="12.4007087"><ele>467.33333333333337</ele><time>2026-04-07T09:50:16.848Z</time></trkpt><trkpt lat="42.7148138" lon="12.4006398"><ele>467.6666666666667</ele><time>2026-04-07T09:50:17.837Z</time></trkpt><trkpt lat="42.7147238" lon="12.4005326"><ele>468.0</ele><time>2026-04-07T09:50:19.829Z</time></trkpt><trkpt lat="42.7146682" lon="12.4004874"><ele>468.0</ele><time>2026-04-07T09:50:20.861Z</time></trkpt><trkpt lat="42.7146048" lon="12.4004528"><ele>468.00000000000006</ele><time>2026-04-07T09:50:21.877Z</time></trkpt><trkpt lat="42.7145403" lon="12.4004511"><ele>468.0</ele><time>2026-04-07T09:50:22.857Z</time></trkpt><trkpt lat="42.7144741" lon="12.4004765"><ele>468.0</ele><time>2026-04-07T09:50:23.834Z</time></trkpt><trkpt lat="42.7144251" lon="12.4005313"><ele>468.00000000000006</ele><time>2026-04-07T09:50:24.83Z</time></trkpt><trkpt lat="42.7143857" lon="12.4006097"><ele>468.0</ele><time>2026-04-07T09:50:25.843Z</time></trkpt><trkpt lat="42.7143512" lon="12.4007116"><ele>468.0</ele><time>2026-04-07T09:50:26.825Z</time></trkpt><trkpt lat="42.7143117" lon="12.4008308"><ele>463.4</ele><time>2026-04-07T09:50:27.835Z</time></trkpt><trkpt lat="42.7142684" lon="12.4009569"><ele>458.79999999999995</ele><time>2026-04-07T09:50:28.846Z</time></trkpt><trkpt lat="42.714227" lon="12.4010863"><ele>454.2</ele><time>2026-04-07T09:50:29.834Z</time></trkpt><trkpt lat="42.7141856" lon="12.4012068"><ele>449.6</ele><time>2026-04-07T09:50:30.829Z</time></trkpt><trkpt lat="42.7141481" lon="12.4013238"><ele>445.0</ele><time>2026-04-07T09:50:31.851Z</time></trkpt><trkpt lat="42.7141098" lon="12.4014434"><ele>445.0</ele><time>2026-04-07T09:50:32.832Z</time></trkpt><trkpt lat="42.714079" lon="12.4015587"><ele>445.0</ele><time>2026-04-07T09:50:33.825Z</time></trkpt><trkpt lat="42.7140515" lon="12.4016611"><ele>445.0</ele><time>2026-04-07T09:50:34.837Z</time></trkpt><trkpt lat="42.7140336" lon="12.4017468"><ele>445.0</ele><time>2026-04-07T09:50:35.832Z</time></trkpt><trkpt lat="42.714035" lon="12.4018332"><ele>445.0</ele><time>2026-04-07T09:50:36.856Z</time></trkpt><trkpt lat="42.7140451" lon="12.4019229"><ele>445.0</ele><time>2026-04-07T09:50:37.826Z</time></trkpt><trkpt lat="42.7140566" lon="12.4020276"><ele>445.0</ele><time>2026-04-07T09:50:38.826Z</time></trkpt><trkpt lat="42.7140733" lon="12.4021301"><ele>444.00000000000006</ele><time>2026-04-07T09:50:39.85Z</time></trkpt><trkpt lat="42.7140896" lon="12.402226"><ele>443.0</ele><time>2026-04-07T09:50:40.836Z</time></trkpt><trkpt lat="42.714106" lon="12.4023301"><ele>442.0</ele><time>2026-04-07T09:50:41.856Z</time></trkpt><trkpt lat="42.7141191" lon="12.4024201"><ele>441.0</ele><time>2026-04-07T09:50:42.834Z</time></trkpt><trkpt lat="42.7141116" lon="12.4025678"><ele>440.00000000000006</ele><time>2026-04-07T09:50:44.846Z</time></trkpt><trkpt lat="42.7140238" lon="12.4026743"><ele>439.0</ele><time>2026-04-07T09:50:46.839Z</time></trkpt><trkpt lat="42.7139587" lon="12.4027211"><ele>439.0</ele><time>2026-04-07T09:50:47.851Z</time></trkpt><trkpt lat="42.7139054" lon="12.4027723"><ele>439.0</ele><time>2026-04-07T09:50:48.857Z</time></trkpt><trkpt lat="42.713852" lon="12.4029068"><ele>439.0</ele><time>2026-04-07T09:50:50.856Z</time></trkpt><trkpt lat="42.7138828" lon="12.4030754"><ele>439.0</ele><time>2026-04-07T09:50:52.837Z</time></trkpt><trkpt lat="42.7139222" lon="12.4031767"><ele>439.0</ele><time>2026-04-07T09:50:53.839Z</time></trkpt><trkpt lat="42.7139684" lon="12.4032816"><ele>437.1666666666667</ele><time>2026-04-07T09:50:54.84Z</time></trkpt><trkpt lat="42.7140144" lon="12.4033847"><ele>435.33333333333337</ele><time>2026-04-07T09:50:55.84Z</time></trkpt><trkpt lat="42.714058" lon="12.4034788"><ele>433.5</ele><time>2026-04-07T09:50:56.839Z</time></trkpt><trkpt lat="42.7141097" lon="12.4035537"><ele>431.66666666666663</ele><time>2026-04-07T09:50:57.839Z</time></trkpt><trkpt lat="42.7141771" lon="12.4036212"><ele>429.8333333333333</ele><time>2026-04-07T09:50:58.841Z</time></trkpt><trkpt lat="42.714249" lon="12.4036937"><ele>428.0</ele><time>2026-04-07T09:50:59.838Z</time></trkpt><trkpt lat="42.7143221" lon="12.403778"><ele>426.8333333333333</ele><time>2026-04-07T09:51:00.85Z</time></trkpt><trkpt lat="42.7143865" lon="12.4038752"><ele>425.66666666666663</ele><time>2026-04-07T09:51:01.839Z</time></trkpt><trkpt lat="42.7144438" lon="12.403973"><ele>424.5</ele><time>2026-04-07T09:51:02.835Z</time></trkpt><trkpt lat="42.7144995" lon="12.4040644"><ele>423.33333333333337</ele><time>2026-04-07T09:51:03.835Z</time></trkpt><trkpt lat="42.7145581" lon="12.4041522"><ele>422.1666666666667</ele><time>2026-04-07T09:51:04.837Z</time></trkpt><trkpt lat="42.7146203" lon="12.404234"><ele>421.0</ele><time>2026-04-07T09:51:05.844Z</time></trkpt><trkpt lat="42.7146848" lon="12.4043142"><ele>421.0</ele><time>2026-04-07T09:51:06.835Z</time></trkpt><trkpt lat="42.71475" lon="12.4043886"><ele>421.0</ele><time>2026-04-07T09:51:07.823Z</time></trkpt><trkpt lat="42.714809" lon="12.4044651"><ele>421.0</ele><time>2026-04-07T09:51:08.827Z</time></trkpt><trkpt lat="42.7148607" lon="12.4045336"><ele>421.0</ele><time>2026-04-07T09:51:09.842Z</time></trkpt><trkpt lat="42.7149259" lon="12.404659"><ele>421.0</ele><time>2026-04-07T09:51:11.838Z</time></trkpt><trkpt lat="42.7148544" lon="12.4047957"><ele>418.83333333333337</ele><time>2026-04-07T09:51:13.839Z</time></trkpt><trkpt lat="42.7147904" lon="12.4048435"><ele>416.6666666666667</ele><time>2026-04-07T09:51:14.846Z</time></trkpt><trkpt lat="42.714716" lon="12.404874"><ele>414.5</ele><time>2026-04-07T09:51:15.835Z</time></trkpt><trkpt lat="42.7146371" lon="12.4048864"><ele>412.33333333333337</ele><time>2026-04-07T09:51:16.834Z</time></trkpt><trkpt lat="42.7145492" lon="12.404896"><ele>410.1666666666667</ele><time>2026-04-07T09:51:17.845Z</time></trkpt><trkpt lat="42.7144599" lon="12.4049011"><ele>408.0</ele><time>2026-04-07T09:51:18.832Z</time></trkpt><trkpt lat="42.7143848" lon="12.4048987"><ele>406.5</ele><time>2026-04-07T09:51:19.827Z</time></trkpt><trkpt lat="42.7143093" lon="12.4048859"><ele>405.0</ele><time>2026-04-07T09:51:20.831Z</time></trkpt><trkpt lat="42.714205" lon="12.4048413"><ele>403.5</ele><time>2026-04-07T09:51:22.835Z</time></trkpt><trkpt lat="42.7141385" lon="12.4048644"><ele>402.0</ele><time>2026-04-07T09:51:24.834Z</time></trkpt><trkpt lat="42.7141114" lon="12.4049577"><ele>400.5</ele><time>2026-04-07T09:51:26.837Z</time></trkpt><trkpt lat="42.7141509" lon="12.4050506"><ele>399.0</ele><time>2026-04-07T09:51:28.837Z</time></trkpt><trkpt lat="42.7142313" lon="12.4051532"><ele>399.0</ele><time>2026-04-07T09:51:30.848Z</time></trkpt><trkpt lat="42.714283" lon="12.4052278"><ele>399.0</ele><time>2026-04-07T09:51:31.834Z</time></trkpt><trkpt lat="42.7143427" lon="12.4052993"><ele>399.0</ele><time>2026-04-07T09:51:32.85Z</time></trkpt><trkpt lat="42.7144037" lon="12.4053675"><ele>399.0</ele><time>2026-04-07T09:51:33.854Z</time></trkpt><trkpt lat="42.7144598" lon="12.4054386"><ele>399.0</ele><time>2026-04-07T09:51:34.828Z</time></trkpt><trkpt lat="42.7145044" lon="12.405507"><ele>399.0</ele><time>2026-04-07T09:51:35.841Z</time></trkpt><trkpt lat="42.7145231" lon="12.4056584"><ele>398.0</ele><time>2026-04-07T09:51:37.833Z</time></trkpt><trkpt lat="42.7144711" lon="12.4058"><ele>397.0</ele><time>2026-04-07T09:51:39.835Z</time></trkpt><trkpt lat="42.7144158" lon="12.4058654"><ele>396.0</ele><time>2026-04-07T09:51:40.835Z</time></trkpt><trkpt lat="42.7143663" lon="12.4059382"><ele>395.0</ele><time>2026-04-07T09:51:41.836Z</time></trkpt><trkpt lat="42.7143252" lon="12.4060222"><ele>394.0</ele><time>2026-04-07T09:51:42.828Z</time></trkpt><trkpt lat="42.7142864" lon="12.4061167"><ele>393.0</ele><time>2026-04-07T09:51:43.835Z</time></trkpt><trkpt lat="42.7142485" lon="12.4062124"><ele>392.1666666666667</ele><time>2026-04-07T09:51:44.837Z</time></trkpt><trkpt lat="42.7142122" lon="12.4063144"><ele>391.33333333333337</ele><time>2026-04-07T09:51:45.842Z</time></trkpt><trkpt lat="42.7141789" lon="12.4064182"><ele>390.5</ele><time>2026-04-07T09:51:46.849Z</time></trkpt><trkpt lat="42.7141505" lon="12.4065244"><ele>389.6666666666667</ele><time>2026-04-07T09:51:47.844Z</time></trkpt><trkpt lat="42.7141214" lon="12.4066318"><ele>388.83333333333337</ele><time>2026-04-07T09:51:48.843Z</time></trkpt><trkpt lat="42.7140943" lon="12.4067357"><ele>388.0</ele><time>2026-04-07T09:51:49.848Z</time></trkpt><trkpt lat="42.7140592" lon="12.4068465"><ele>386.2</ele><time>2026-04-07T09:51:50.836Z</time></trkpt><trkpt lat="42.7140209" lon="12.4069554"><ele>384.4</ele><time>2026-04-07T09:51:51.839Z</time></trkpt><trkpt lat="42.7139765" lon="12.4070442"><ele>382.59999999999997</ele><time>2026-04-07T09:51:52.848Z</time></trkpt><trkpt lat="42.7139329" lon="12.4071159"><ele>380.79999999999995</ele><time>2026-04-07T09:51:53.853Z</time></trkpt><trkpt lat="42.7138649" lon="12.4072436"><ele>379.0</ele><time>2026-04-07T09:51:55.866Z</time></trkpt><trkpt lat="42.7138137" lon="12.4073796"><ele>377.2</ele><time>2026-04-07T09:51:57.838Z</time></trkpt><trkpt lat="42.7137817" lon="12.4075443"><ele>375.4</ele><time>2026-04-07T09:51:59.856Z</time></trkpt><trkpt lat="42.7137663" lon="12.4076288"><ele>373.6</ele><time>2026-04-07T09:52:00.842Z</time></trkpt><trkpt lat="42.7137381" lon="12.4077918"><ele>371.8</ele><time>2026-04-07T09:52:02.845Z</time></trkpt><trkpt lat="42.7137199" lon="12.4078871"><ele>370.0</ele><time>2026-04-07T09:52:03.834Z</time></trkpt><trkpt lat="42.7136969" lon="12.4079862"><ele>369.1428571428571</ele><time>2026-04-07T09:52:04.834Z</time></trkpt><trkpt lat="42.7136769" lon="12.4080796"><ele>368.2857142857143</ele><time>2026-04-07T09:52:05.835Z</time></trkpt><trkpt lat="42.7136558" lon="12.4081737"><ele>367.42857142857144</ele><time>2026-04-07T09:52:06.852Z</time></trkpt><trkpt lat="42.7136356" lon="12.4082687"><ele>366.57142857142856</ele><time>2026-04-07T09:52:07.835Z</time></trkpt><trkpt lat="42.713616" lon="12.4083701"><ele>365.7142857142857</ele><time>2026-04-07T09:52:08.839Z</time></trkpt><trkpt lat="42.7135964" lon="12.4084679"><ele>364.85714285714283</ele><time>2026-04-07T09:52:09.839Z</time></trkpt><trkpt lat="42.7135752" lon="12.4085615"><ele>364.0</ele><time>2026-04-07T09:52:10.834Z</time></trkpt><trkpt lat="42.7135486" lon="12.4086549"><ele>363.16666666666663</ele><time>2026-04-07T09:52:11.834Z</time></trkpt><trkpt lat="42.7135254" lon="12.4087488"><ele>362.3333333333333</ele><time>2026-04-07T09:52:12.862Z</time></trkpt><trkpt lat="42.7135065" lon="12.4088505"><ele>361.5</ele><time>2026-04-07T09:52:13.849Z</time></trkpt><trkpt lat="42.7134938" lon="12.4089516"><ele>360.6666666666667</ele><time>2026-04-07T09:52:14.843Z</time></trkpt><trkpt lat="42.7134768" lon="12.4090481"><ele>359.83333333333337</ele><time>2026-04-07T09:52:15.836Z</time></trkpt><trkpt lat="42.7134491" lon="12.4091528"><ele>359.0</ele><time>2026-04-07T09:52:16.859Z</time></trkpt><trkpt lat="42.7134199" lon="12.4092672"><ele>357.79999999999995</ele><time>2026-04-07T09:52:17.857Z</time></trkpt><trkpt lat="42.7133934" lon="12.4093927"><ele>356.59999999999997</ele><time>2026-04-07T09:52:18.861Z</time></trkpt><trkpt lat="42.7133665" lon="12.4095213"><ele>355.4</ele><time>2026-04-07T09:52:19.84Z</time></trkpt><trkpt lat="42.7133451" lon="12.4096469"><ele>354.2</ele><time>2026-04-07T09:52:20.854Z</time></trkpt><trkpt lat="42.7133219" lon="12.4097649"><ele>353.0</ele><time>2026-04-07T09:52:21.858Z</time></trkpt><trkpt lat="42.7132984" lon="12.4098726"><ele>352.33333333333337</ele><time>2026-04-07T09:52:22.846Z</time></trkpt><trkpt lat="42.713271" lon="12.4099936"><ele>351.6666666666667</ele><time>2026-04-07T09:52:23.844Z</time></trkpt><trkpt lat="42.7132407" lon="12.4101224"><ele>351.0</ele><time>2026-04-07T09:52:24.857Z</time></trkpt><trkpt lat="42.7132178" lon="12.4102447"><ele>350.3333333333333</ele><time>2026-04-07T09:52:25.866Z</time></trkpt><trkpt lat="42.7131963" lon="12.4103485"><ele>349.66666666666663</ele><time>2026-04-07T09:52:26.858Z</time></trkpt><trkpt lat="42.7131808" lon="12.4104401"><ele>349.0</ele><time>2026-04-07T09:52:27.833Z</time></trkpt><trkpt lat="42.7131686" lon="12.4105244"><ele>348.5</ele><time>2026-04-07T09:52:28.836Z</time></trkpt><trkpt lat="42.7131392" lon="12.410641"><ele>348.0</ele><time>2026-04-07T09:52:30.844Z</time></trkpt><trkpt lat="42.7131117" lon="12.4107299"><ele>347.5</ele><time>2026-04-07T09:52:32.839Z</time></trkpt><trkpt lat="42.7130875" lon="12.4108169"><ele>347.0</ele><time>2026-04-07T09:52:34.85Z</time></trkpt><trkpt lat="42.7130668" lon="12.4109295"><ele>346.5</ele><time>2026-04-07T09:52:36.852Z</time></trkpt><trkpt lat="42.7130296" lon="12.4110839"><ele>346.0</ele><time>2026-04-07T09:52:38.852Z</time></trkpt><trkpt lat="42.7130097" lon="12.4111908"><ele>346.0</ele><time>2026-04-07T09:52:39.851Z</time></trkpt><trkpt lat="42.7129898" lon="12.4113163"><ele>346.0</ele><time>2026-04-07T09:52:40.842Z</time></trkpt><trkpt lat="42.7129707" lon="12.411439"><ele>346.0</ele><time>2026-04-07T09:52:41.867Z</time></trkpt><trkpt lat="42.7129517" lon="12.4115535"><ele>346.0</ele><time>2026-04-07T09:52:42.859Z</time></trkpt><trkpt lat="42.7129443" lon="12.4116563"><ele>346.0</ele><time>2026-04-07T09:52:43.853Z</time></trkpt><trkpt lat="42.7129486" lon="12.4117542"><ele>346.0</ele><time>2026-04-07T09:52:44.847Z</time></trkpt><trkpt lat="42.7129641" lon="12.4118499"><ele>346.4285714285714</ele><time>2026-04-07T09:52:45.846Z</time></trkpt><trkpt lat="42.7129862" lon="12.4119391"><ele>346.8571428571429</ele><time>2026-04-07T09:52:46.864Z</time></trkpt><trkpt lat="42.7130156" lon="12.412029"><ele>347.2857142857143</ele><time>2026-04-07T09:52:47.85Z</time></trkpt><trkpt lat="42.713053" lon="12.4121189"><ele>347.71428571428567</ele><time>2026-04-07T09:52:48.846Z</time></trkpt><trkpt lat="42.7130861" lon="12.4122097"><ele>348.1428571428571</ele><time>2026-04-07T09:52:49.85Z</time></trkpt><trkpt lat="42.7130962" lon="12.4123021"><ele>348.57142857142856</ele><time>2026-04-07T09:52:50.842Z</time></trkpt><trkpt lat="42.7130793" lon="12.4124042"><ele>349.0</ele><time>2026-04-07T09:52:51.845Z</time></trkpt><trkpt lat="42.7130472" lon="12.4125223"><ele>349.79999999999995</ele><time>2026-04-07T09:52:52.855Z</time></trkpt><trkpt lat="42.7130211" lon="12.4126491"><ele>350.59999999999997</ele><time>2026-04-07T09:52:53.864Z</time></trkpt><trkpt lat="42.7129928" lon="12.4127765"><ele>351.4</ele><time>2026-04-07T09:52:54.838Z</time></trkpt><trkpt lat="42.7129651" lon="12.4129127"><ele>352.2</ele><time>2026-04-07T09:52:55.849Z</time></trkpt><trkpt lat="42.7129406" lon="12.4130606"><ele>353.0</ele><time>2026-04-07T09:52:56.864Z</time></trkpt><trkpt lat="42.7129192" lon="12.413202"><ele>353.0</ele><time>2026-04-07T09:52:57.852Z</time></trkpt><trkpt lat="42.7128962" lon="12.4133367"><ele>353.0</ele><time>2026-04-07T09:52:58.85Z</time></trkpt><trkpt lat="42.7128692" lon="12.4134725"><ele>353.0</ele><time>2026-04-07T09:52:59.852Z</time></trkpt><trkpt lat="42.712838" lon="12.4136146"><ele>353.0</ele><time>2026-04-07T09:53:00.863Z</time></trkpt><trkpt lat="42.7128108" lon="12.4137581"><ele>353.0</ele><time>2026-04-07T09:53:01.859Z</time></trkpt><trkpt lat="42.712791" lon="12.41389"><ele>353.59999999999997</ele><time>2026-04-07T09:53:02.851Z</time></trkpt><trkpt lat="42.7127795" lon="12.4139956"><ele>354.2</ele><time>2026-04-07T09:53:03.845Z</time></trkpt><trkpt lat="42.7127647" lon="12.4141296"><ele>354.8</ele><time>2026-04-07T09:53:05.849Z</time></trkpt><trkpt lat="42.7127358" lon="12.4142966"><ele>355.4</ele><time>2026-04-07T09:53:07.852Z</time></trkpt><trkpt lat="42.7127178" lon="12.4144448"><ele>356.0</ele><time>2026-04-07T09:53:08.857Z</time></trkpt><trkpt lat="42.7127098" lon="12.4146021"><ele>353.6666666666667</ele><time>2026-04-07T09:53:09.842Z</time></trkpt><trkpt lat="42.7127002" lon="12.4147478"><ele>351.33333333333337</ele><time>2026-04-07T09:53:10.848Z</time></trkpt><trkpt lat="42.7126862" lon="12.4148568"><ele>349.0</ele><time>2026-04-07T09:53:11.835Z</time></trkpt><trkpt lat="42.712662" lon="12.4149515"><ele>346.6666666666667</ele><time>2026-04-07T09:53:12.859Z</time></trkpt><trkpt lat="42.7126165" lon="12.4150298"><ele>344.3333333333333</ele><time>2026-04-07T09:53:13.84Z</time></trkpt><trkpt lat="42.7125473" lon="12.4150928"><ele>342.0</ele><time>2026-04-07T09:53:14.853Z</time></trkpt><trkpt lat="42.7124548" lon="12.4151724"><ele>342.0</ele><time>2026-04-07T09:53:15.842Z</time></trkpt><trkpt lat="42.712357" lon="12.4152419"><ele>342.0</ele><time>2026-04-07T09:53:16.85Z</time></trkpt><trkpt lat="42.7122712" lon="12.4153133"><ele>342.0</ele><time>2026-04-07T09:53:17.855Z</time></trkpt><trkpt lat="42.7122024" lon="12.4153753"><ele>342.0</ele><time>2026-04-07T09:53:18.852Z</time></trkpt><trkpt lat="42.712147" lon="12.4154386"><ele>342.0</ele><time>2026-04-07T09:53:19.85Z</time></trkpt><trkpt lat="42.712103" lon="12.4155057"><ele>342.0</ele><time>2026-04-07T09:53:20.847Z</time></trkpt><trkpt lat="42.7120664" lon="12.415588"><ele>341.0</ele><time>2026-04-07T09:53:21.856Z</time></trkpt><trkpt lat="42.7120474" lon="12.4156765"><ele>340.0</ele><time>2026-04-07T09:53:22.847Z</time></trkpt><trkpt lat="42.7120795" lon="12.415807"><ele>339.0</ele><time>2026-04-07T09:53:24.858Z</time></trkpt><trkpt lat="42.7122104" lon="12.4158285"><ele>338.0</ele><time>2026-04-07T09:53:26.847Z</time></trkpt><trkpt lat="42.7122951" lon="12.4158075"><ele>337.0</ele><time>2026-04-07T09:53:27.836Z</time></trkpt><trkpt lat="42.7123855" lon="12.4157924"><ele>337.00000000000006</ele><time>2026-04-07T09:53:28.834Z</time></trkpt><trkpt lat="42.7124687" lon="12.4157879"><ele>337.0</ele><time>2026-04-07T09:53:29.856Z</time></trkpt><trkpt lat="42.7125365" lon="12.4158132"><ele>337.0</ele><time>2026-04-07T09:53:30.857Z</time></trkpt><trkpt lat="42.7125969" lon="12.4158501"><ele>337.0</ele><time>2026-04-07T09:53:31.851Z</time></trkpt><trkpt lat="42.7126559" lon="12.4158832"><ele>337.0</ele><time>2026-04-07T09:53:32.846Z</time></trkpt><trkpt lat="42.7127235" lon="12.4159192"><ele>337.00000000000006</ele><time>2026-04-07T09:53:33.845Z</time></trkpt><trkpt lat="42.7127887" lon="12.4159683"><ele>337.0</ele><time>2026-04-07T09:53:34.841Z</time></trkpt><trkpt lat="42.7128437" lon="12.4160334"><ele>336.20000000000005</ele><time>2026-04-07T09:53:35.861Z</time></trkpt><trkpt lat="42.7128923" lon="12.4161676"><ele>335.4</ele><time>2026-04-07T09:53:37.834Z</time></trkpt><trkpt lat="42.7128186" lon="12.4163311"><ele>334.6</ele><time>2026-04-07T09:53:39.841Z</time></trkpt><trkpt lat="42.7127525" lon="12.416393"><ele>333.79999999999995</ele><time>2026-04-07T09:53:40.847Z</time></trkpt><trkpt lat="42.7126914" lon="12.4164276"><ele>333.0</ele><time>2026-04-07T09:53:41.832Z</time></trkpt><trkpt lat="42.7125748" lon="12.4163903"><ele>333.6666666666667</ele><time>2026-04-07T09:53:43.833Z</time></trkpt><trkpt lat="42.7125179" lon="12.4163254"><ele>334.3333333333333</ele><time>2026-04-07T09:53:44.841Z</time></trkpt><trkpt lat="42.7124547" lon="12.4162556"><ele>335.0</ele><time>2026-04-07T09:53:45.838Z</time></trkpt><trkpt lat="42.7123919" lon="12.4162262"><ele>335.66666666666663</ele><time>2026-04-07T09:53:46.836Z</time></trkpt><trkpt lat="42.7123146" lon="12.416303"><ele>336.3333333333333</ele><time>2026-04-07T09:53:48.851Z</time></trkpt><trkpt lat="42.7123161" lon="12.4164319"><ele>337.0</ele><time>2026-04-07T09:53:50.83Z</time></trkpt><trkpt lat="42.7123563" lon="12.416511"><ele>334.66666666666663</ele><time>2026-04-07T09:53:51.857Z</time></trkpt><trkpt lat="42.7124097" lon="12.4165946"><ele>332.3333333333333</ele><time>2026-04-07T09:53:52.834Z</time></trkpt><trkpt lat="42.7124512" lon="12.4166849"><ele>330.0</ele><time>2026-04-07T09:53:53.85Z</time></trkpt><trkpt lat="42.7124844" lon="12.4167619"><ele>327.6666666666667</ele><time>2026-04-07T09:53:54.854Z</time></trkpt><trkpt lat="42.7125886" lon="12.4168696"><ele>325.33333333333337</ele><time>2026-04-07T09:53:56.837Z</time></trkpt><trkpt lat="42.7126566" lon="12.4169307"><ele>323.0</ele><time>2026-04-07T09:53:57.827Z</time></trkpt><trkpt lat="42.7127264" lon="12.4170105"><ele>324.6666666666667</ele><time>2026-04-07T09:53:58.845Z</time></trkpt><trkpt lat="42.7127961" lon="12.4171021"><ele>326.33333333333337</ele><time>2026-04-07T09:53:59.835Z</time></trkpt><trkpt lat="42.7128522" lon="12.4172006"><ele>328.0</ele><time>2026-04-07T09:54:00.827Z</time></trkpt><trkpt lat="42.7128908" lon="12.417272"><ele>329.6666666666667</ele><time>2026-04-07T09:54:01.842Z</time></trkpt><trkpt lat="42.7129796" lon="12.4173673"><ele>331.3333333333333</ele><time>2026-04-07T09:54:03.832Z</time></trkpt><trkpt lat="42.7130447" lon="12.4173938"><ele>333.0</ele><time>2026-04-07T09:54:04.83Z</time></trkpt><trkpt lat="42.7131184" lon="12.4174025"><ele>329.6666666666667</ele><time>2026-04-07T09:54:05.849Z</time></trkpt><trkpt lat="42.7131925" lon="12.4173964"><ele>326.3333333333333</ele><time>2026-04-07T09:54:06.84Z</time></trkpt><trkpt lat="42.7132505" lon="12.4174399"><ele>323.0</ele><time>2026-04-07T09:54:07.831Z</time></trkpt><trkpt lat="42.7132969" lon="12.4175306"><ele>319.66666666666663</ele><time>2026-04-07T09:54:08.839Z</time></trkpt><trkpt lat="42.7133449" lon="12.4176133"><ele>316.3333333333333</ele><time>2026-04-07T09:54:09.833Z</time></trkpt><trkpt lat="42.713413" lon="12.4176769"><ele>313.0</ele><time>2026-04-07T09:54:10.842Z</time></trkpt><trkpt lat="42.7134903" lon="12.4177216"><ele>314.3333333333333</ele><time>2026-04-07T09:54:11.829Z</time></trkpt><trkpt lat="42.7135723" lon="12.4177776"><ele>315.66666666666663</ele><time>2026-04-07T09:54:12.827Z</time></trkpt><trkpt lat="42.7136499" lon="12.4178375"><ele>317.0</ele><time>2026-04-07T09:54:13.835Z</time></trkpt><trkpt lat="42.7137195" lon="12.4178877"><ele>318.3333333333333</ele><time>2026-04-07T09:54:14.835Z</time></trkpt><trkpt lat="42.7137839" lon="12.4179336"><ele>319.6666666666667</ele><time>2026-04-07T09:54:15.832Z</time></trkpt><trkpt lat="42.713845" lon="12.4179722"><ele>321.0</ele><time>2026-04-07T09:54:16.831Z</time></trkpt><trkpt lat="42.7139101" lon="12.417984"><ele>316.1666666666667</ele><time>2026-04-07T09:54:17.827Z</time></trkpt><trkpt lat="42.7139761" lon="12.417996"><ele>311.3333333333333</ele><time>2026-04-07T09:54:18.849Z</time></trkpt><trkpt lat="42.7140535" lon="12.4180102"><ele>306.5</ele><time>2026-04-07T09:54:19.852Z</time></trkpt><trkpt lat="42.7141397" lon="12.4180344"><ele>301.66666666666663</ele><time>2026-04-07T09:54:20.848Z</time></trkpt><trkpt lat="42.7142332" lon="12.418063"><ele>296.8333333333333</ele><time>2026-04-07T09:54:21.844Z</time></trkpt><trkpt lat="42.7143421" lon="12.4180811"><ele>292.0</ele><time>2026-04-07T09:54:22.831Z</time></trkpt><trkpt lat="42.714455" lon="12.418123"><ele>290.5</ele><time>2026-04-07T09:54:23.854Z</time></trkpt><trkpt lat="42.7145607" lon="12.4181573"><ele>289.0</ele><time>2026-04-07T09:54:24.89Z</time></trkpt><trkpt lat="42.7147306" lon="12.418206"><ele>287.5</ele><time>2026-04-07T09:54:26.871Z</time></trkpt><trkpt lat="42.7147983" lon="12.4182294"><ele>286.0</ele><time>2026-04-07T09:54:27.851Z</time></trkpt><trkpt lat="42.7149001" lon="12.4182782"><ele>286.0</ele><time>2026-04-07T09:54:29.859Z</time></trkpt><trkpt lat="42.7149784" lon="12.4182868"><ele>286.0</ele><time>2026-04-07T09:54:31.844Z</time></trkpt><trkpt lat="42.7150681" lon="12.4182973"><ele>286.0</ele><time>2026-04-07T09:54:33.84Z</time></trkpt><trkpt lat="42.715101" lon="12.4183828"><ele>286.0</ele><time>2026-04-07T09:54:35.832Z</time></trkpt><trkpt lat="42.7150829" lon="12.4184827"><ele>286.0</ele><time>2026-04-07T09:54:37.842Z</time></trkpt><trkpt lat="42.7150019" lon="12.4185247"><ele>286.0</ele><time>2026-04-07T09:54:39.831Z</time></trkpt><trkpt lat="42.7149046" lon="12.4185298"><ele>286.0</ele><time>2026-04-07T09:54:41.842Z</time></trkpt><trkpt lat="42.7148339" lon="12.4185203"><ele>286.0</ele><time>2026-04-07T09:54:42.848Z</time></trkpt><trkpt lat="42.7147367" lon="12.4184943"><ele>286.0</ele><time>2026-04-07T09:54:43.83Z</time></trkpt><trkpt lat="42.7146463" lon="12.4184672"><ele>286.0</ele><time>2026-04-07T09:54:44.843Z</time></trkpt><trkpt lat="42.7145715" lon="12.4184521"><ele>286.0</ele><time>2026-04-07T09:54:45.844Z</time></trkpt><trkpt lat="42.7144839" lon="12.4184881"><ele>286.0</ele><time>2026-04-07T09:54:47.842Z</time></trkpt><trkpt lat="42.7144449" lon="12.4186153"><ele>286.0</ele><time>2026-04-07T09:54:49.838Z</time></trkpt><trkpt lat="42.7144919" lon="12.4187264"><ele>286.0</ele><time>2026-04-07T09:54:51.827Z</time></trkpt><trkpt lat="42.7146123" lon="12.4188276"><ele>286.0</ele><time>2026-04-07T09:54:53.845Z</time></trkpt><trkpt lat="42.7147093" lon="12.41887"><ele>286.0</ele><time>2026-04-07T09:54:54.843Z</time></trkpt><trkpt lat="42.7148051" lon="12.4189098"><ele>286.0</ele><time>2026-04-07T09:54:55.839Z</time></trkpt><trkpt lat="42.7148798" lon="12.4189484"><ele>283.5</ele><time>2026-04-07T09:54:56.826Z</time></trkpt><trkpt lat="42.7149387" lon="12.4189962"><ele>281.0</ele><time>2026-04-07T09:54:57.835Z</time></trkpt><trkpt lat="42.7149709" lon="12.419091"><ele>278.5</ele><time>2026-04-07T09:54:59.837Z</time></trkpt><trkpt lat="42.714904" lon="12.4192109"><ele>276.0</ele><time>2026-04-07T09:55:01.84Z</time></trkpt><trkpt lat="42.7148561" lon="12.4192741"><ele>273.5</ele><time>2026-04-07T09:55:02.848Z</time></trkpt><trkpt lat="42.7147796" lon="12.4193763"><ele>271.0</ele><time>2026-04-07T09:55:04.838Z</time></trkpt><trkpt lat="42.7147152" lon="12.4194777"><ele>271.0</ele><time>2026-04-07T09:55:06.836Z</time></trkpt><trkpt lat="42.7146499" lon="12.4195533"><ele>271.0</ele><time>2026-04-07T09:55:08.847Z</time></trkpt><trkpt lat="42.714595" lon="12.4196262"><ele>271.0</ele><time>2026-04-07T09:55:10.847Z</time></trkpt><trkpt lat="42.7145351" lon="12.4197152"><ele>271.0</ele><time>2026-04-07T09:55:12.843Z</time></trkpt><trkpt lat="42.7144875" lon="12.4197851"><ele>271.0</ele><time>2026-04-07T09:55:14.838Z</time></trkpt><trkpt lat="42.7144457" lon="12.4198715"><ele>271.0</ele><time>2026-04-07T09:55:16.843Z</time></trkpt><trkpt lat="42.7143825" lon="12.4199154"><ele>270.2</ele><time>2026-04-07T09:55:19.844Z</time></trkpt><trkpt lat="42.7143322" lon="12.4198632"><ele>269.40000000000003</ele><time>2026-04-07T09:55:21.844Z</time></trkpt><trkpt lat="42.714247" lon="12.4197345"><ele>268.6</ele><time>2026-04-07T09:55:23.854Z</time></trkpt><trkpt lat="42.7141772" lon="12.4196564"><ele>267.8</ele><time>2026-04-07T09:55:24.834Z</time></trkpt><trkpt lat="42.7141026" lon="12.4195907"><ele>267.0</ele><time>2026-04-07T09:55:25.833Z</time></trkpt><trkpt lat="42.714012" lon="12.419542"><ele>268.4</ele><time>2026-04-07T09:55:26.85Z</time></trkpt><trkpt lat="42.7138992" lon="12.4195046"><ele>269.79999999999995</ele><time>2026-04-07T09:55:27.846Z</time></trkpt><trkpt lat="42.7137878" lon="12.4194741"><ele>271.2</ele><time>2026-04-07T09:55:28.847Z</time></trkpt><trkpt lat="42.713694" lon="12.4194538"><ele>272.59999999999997</ele><time>2026-04-07T09:55:29.858Z</time></trkpt><trkpt lat="42.7136299" lon="12.4194272"><ele>274.0</ele><time>2026-04-07T09:55:30.841Z</time></trkpt><trkpt lat="42.7135316" lon="12.4193778"><ele>274.0</ele><time>2026-04-07T09:55:32.844Z</time></trkpt><trkpt lat="42.7134457" lon="12.41934"><ele>274.0</ele><time>2026-04-07T09:55:34.85Z</time></trkpt><trkpt lat="42.7133515" lon="12.419302"><ele>274.0</ele><time>2026-04-07T09:55:36.833Z</time></trkpt><trkpt lat="42.7132956" lon="12.4192571"><ele>274.0</ele><time>2026-04-07T09:55:37.844Z</time></trkpt><trkpt lat="42.7132212" lon="12.4192011"><ele>274.0</ele><time>2026-04-07T09:55:38.851Z</time></trkpt><trkpt lat="42.713146" lon="12.4191493"><ele>274.0</ele><time>2026-04-07T09:55:39.858Z</time></trkpt><trkpt lat="42.7130625" lon="12.4190959"><ele>274.0</ele><time>2026-04-07T09:55:40.845Z</time></trkpt><trkpt lat="42.7129706" lon="12.4190587"><ele>274.0</ele><time>2026-04-07T09:55:41.844Z</time></trkpt><trkpt lat="42.7128694" lon="12.4190228"><ele>274.0</ele><time>2026-04-07T09:55:42.852Z</time></trkpt><trkpt lat="42.7127768" lon="12.418974"><ele>274.0</ele><time>2026-04-07T09:55:43.839Z</time></trkpt><trkpt lat="42.7126973" lon="12.4189225"><ele>274.0</ele><time>2026-04-07T09:55:44.836Z</time></trkpt><trkpt lat="42.7126267" lon="12.4188649"><ele>275.3333333333333</ele><time>2026-04-07T09:55:45.84Z</time></trkpt><trkpt lat="42.7125637" lon="12.41881"><ele>276.66666666666663</ele><time>2026-04-07T09:55:46.852Z</time></trkpt><trkpt lat="42.7125029" lon="12.4187575"><ele>278.0</ele><time>2026-04-07T09:55:47.847Z</time></trkpt><trkpt lat="42.7124347" lon="12.4187034"><ele>279.3333333333333</ele><time>2026-04-07T09:55:48.841Z</time></trkpt><trkpt lat="42.7123459" lon="12.4186658"><ele>280.6666666666667</ele><time>2026-04-07T09:55:49.837Z</time></trkpt><trkpt lat="42.7122434" lon="12.4186294"><ele>282.0</ele><time>2026-04-07T09:55:50.856Z</time></trkpt><trkpt lat="42.7121381" lon="12.4185939"><ele>282.0</ele><time>2026-04-07T09:55:51.844Z</time></trkpt><trkpt lat="42.7120413" lon="12.4185567"><ele>282.0</ele><time>2026-04-07T09:55:52.842Z</time></trkpt><trkpt lat="42.7119326" lon="12.4185296"><ele>282.0</ele><time>2026-04-07T09:55:53.842Z</time></trkpt><trkpt lat="42.7118185" lon="12.4185053"><ele>282.0</ele><time>2026-04-07T09:55:54.841Z</time></trkpt><trkpt lat="42.7117203" lon="12.4184817"><ele>282.0</ele><time>2026-04-07T09:55:55.84Z</time></trkpt><trkpt lat="42.7116437" lon="12.4184598"><ele>281.0</ele><time>2026-04-07T09:55:56.842Z</time></trkpt><trkpt lat="42.7115778" lon="12.4184483"><ele>280.0</ele><time>2026-04-07T09:55:57.84Z</time></trkpt><trkpt lat="42.7115008" lon="12.4184709"><ele>279.0</ele><time>2026-04-07T09:55:58.834Z</time></trkpt><trkpt lat="42.7114003" lon="12.4185148"><ele>278.0</ele><time>2026-04-07T09:55:59.85Z</time></trkpt><trkpt lat="42.7113" lon="12.4185507"><ele>277.0</ele><time>2026-04-07T09:56:00.85Z</time></trkpt><trkpt lat="42.7112269" lon="12.4185728"><ele>276.0</ele><time>2026-04-07T09:56:01.844Z</time></trkpt><trkpt lat="42.7111485" lon="12.4185966"><ele>276.2</ele><time>2026-04-07T09:56:03.845Z</time></trkpt><trkpt lat="42.7110708" lon="12.4186012"><ele>276.40000000000003</ele><time>2026-04-07T09:56:06.853Z</time></trkpt><trkpt lat="42.7110056" lon="12.4185227"><ele>276.6</ele><time>2026-04-07T09:56:08.848Z</time></trkpt><trkpt lat="42.7109234" lon="12.4183977"><ele>276.8</ele><time>2026-04-07T09:56:10.843Z</time></trkpt><trkpt lat="42.7108177" lon="12.4183259"><ele>277.0</ele><time>2026-04-07T09:56:12.85Z</time></trkpt><trkpt lat="42.7106801" lon="12.4183124"><ele>277.0</ele><time>2026-04-07T09:56:14.842Z</time></trkpt><trkpt lat="42.7105665" lon="12.4183092"><ele>277.0</ele><time>2026-04-07T09:56:16.839Z</time></trkpt><trkpt lat="42.7104562" lon="12.4183268"><ele>277.0</ele><time>2026-04-07T09:56:18.842Z</time></trkpt><trkpt lat="42.7103391" lon="12.418373"><ele>277.0</ele><time>2026-04-07T09:56:20.845Z</time></trkpt><trkpt lat="42.7102117" lon="12.4183866"><ele>276.8</ele><time>2026-04-07T09:56:22.838Z</time></trkpt><trkpt lat="42.7101237" lon="12.4183803"><ele>276.6</ele><time>2026-04-07T09:56:23.834Z</time></trkpt><trkpt lat="42.7100269" lon="12.4183759"><ele>276.40000000000003</ele><time>2026-04-07T09:56:24.836Z</time></trkpt><trkpt lat="42.7099369" lon="12.4183831"><ele>276.2</ele><time>2026-04-07T09:56:25.836Z</time></trkpt><trkpt lat="42.7098636" lon="12.4183917"><ele>276.0</ele><time>2026-04-07T09:56:26.841Z</time></trkpt><trkpt lat="42.7097638" lon="12.4184198"><ele>276.0</ele><time>2026-04-07T09:56:28.839Z</time></trkpt><trkpt lat="42.7096978" lon="12.4184253"><ele>276.0</ele><time>2026-04-07T09:56:31.842Z</time></trkpt><trkpt lat="42.7096325" lon="12.4184058"><ele>276.0</ele><time>2026-04-07T09:56:36.844Z</time></trkpt><trkpt lat="42.7095527" lon="12.4183603"><ele>276.0</ele><time>2026-04-07T09:56:38.857Z</time></trkpt><trkpt lat="42.7094995" lon="12.4183006"><ele>276.0</ele><time>2026-04-07T09:56:40.852Z</time></trkpt><trkpt lat="42.7094467" lon="12.4182463"><ele>276.0</ele><time>2026-04-07T09:56:42.845Z</time></trkpt><trkpt lat="42.7093901" lon="12.4182032"><ele>276.0</ele><time>2026-04-07T09:56:48.839Z</time></trkpt><trkpt lat="42.7093445" lon="12.4181403"><ele>276.0</ele><time>2026-04-07T09:56:55.826Z</time></trkpt><trkpt lat="42.7093112" lon="12.4180506"><ele>276.0</ele><time>2026-04-07T09:56:57.841Z</time></trkpt><trkpt lat="42.7092801" lon="12.4179136"><ele>276.0</ele><time>2026-04-07T09:56:59.859Z</time></trkpt><trkpt lat="42.7092161" lon="12.4177811"><ele>276.0</ele><time>2026-04-07T09:57:01.839Z</time></trkpt><trkpt lat="42.7091275" lon="12.4176895"><ele>276.0</ele><time>2026-04-07T09:57:03.836Z</time></trkpt><trkpt lat="42.7090685" lon="12.417635"><ele>276.7142857142857</ele><time>2026-04-07T09:57:04.857Z</time></trkpt><trkpt lat="42.7090053" lon="12.4175802"><ele>277.42857142857144</ele><time>2026-04-07T09:57:05.853Z</time></trkpt><trkpt lat="42.7089421" lon="12.4175411"><ele>278.14285714285717</ele><time>2026-04-07T09:57:06.824Z</time></trkpt><trkpt lat="42.7088803" lon="12.4174946"><ele>278.8571428571429</ele><time>2026-04-07T09:57:07.871Z</time></trkpt><trkpt lat="42.708817" lon="12.4174481"><ele>279.57142857142856</ele><time>2026-04-07T09:57:08.835Z</time></trkpt><trkpt lat="42.7087503" lon="12.4174063"><ele>280.28571428571433</ele><time>2026-04-07T09:57:09.858Z</time></trkpt><trkpt lat="42.7086898" lon="12.4173474"><ele>281.0</ele><time>2026-04-07T09:57:10.853Z</time></trkpt><trkpt lat="42.7086328" lon="12.4172786"><ele>282.33333333333337</ele><time>2026-04-07T09:57:11.876Z</time></trkpt><trkpt lat="42.7085734" lon="12.4172057"><ele>283.6666666666667</ele><time>2026-04-07T09:57:12.846Z</time></trkpt><trkpt lat="42.7085086" lon="12.4171316"><ele>285.0</ele><time>2026-04-07T09:57:13.858Z</time></trkpt><trkpt lat="42.7084396" lon="12.4170578"><ele>286.3333333333333</ele><time>2026-04-07T09:57:14.855Z</time></trkpt><trkpt lat="42.7083754" lon="12.4169882"><ele>287.66666666666663</ele><time>2026-04-07T09:57:15.834Z</time></trkpt><trkpt lat="42.7083102" lon="12.416919"><ele>289.0</ele><time>2026-04-07T09:57:16.839Z</time></trkpt><trkpt lat="42.7082475" lon="12.4168448"><ele>289.16666666666663</ele><time>2026-04-07T09:57:17.853Z</time></trkpt><trkpt lat="42.7081816" lon="12.4167784"><ele>289.3333333333333</ele><time>2026-04-07T09:57:18.838Z</time></trkpt><trkpt lat="42.7081147" lon="12.4167105"><ele>289.5</ele><time>2026-04-07T09:57:19.84Z</time></trkpt><trkpt lat="42.7080504" lon="12.4166463"><ele>289.6666666666667</ele><time>2026-04-07T09:57:20.866Z</time></trkpt><trkpt lat="42.707994" lon="12.4165914"><ele>289.83333333333337</ele><time>2026-04-07T09:57:21.834Z</time></trkpt><trkpt lat="42.7078985" lon="12.4165224"><ele>290.0</ele><time>2026-04-07T09:57:23.854Z</time></trkpt><trkpt lat="42.7077392" lon="12.4165111"><ele>290.2</ele><time>2026-04-07T09:57:26.868Z</time></trkpt><trkpt lat="42.7076493" lon="12.4165301"><ele>290.4</ele><time>2026-04-07T09:57:28.856Z</time></trkpt><trkpt lat="42.7075737" lon="12.4165437"><ele>290.6</ele><time>2026-04-07T09:57:31.864Z</time></trkpt><trkpt lat="42.7074858" lon="12.4165374"><ele>290.8</ele><time>2026-04-07T09:57:34.855Z</time></trkpt><trkpt lat="42.7073831" lon="12.41651"><ele>291.0</ele><time>2026-04-07T09:57:36.844Z</time></trkpt><trkpt lat="42.7072584" lon="12.4164707"><ele>291.0</ele><time>2026-04-07T09:57:38.842Z</time></trkpt><trkpt lat="42.7071946" lon="12.4164481"><ele>291.0</ele><time>2026-04-07T09:57:39.84Z</time></trkpt><trkpt lat="42.7071314" lon="12.4164218"><ele>291.0</ele><time>2026-04-07T09:57:40.856Z</time></trkpt><trkpt lat="42.7070158" lon="12.4163842"><ele>291.0</ele><time>2026-04-07T09:57:42.851Z</time></trkpt><trkpt lat="42.7069518" lon="12.4163652"><ele>291.0</ele><time>2026-04-07T09:57:43.855Z</time></trkpt><trkpt lat="42.7068775" lon="12.416349"><ele>291.0</ele><time>2026-04-07T09:57:44.854Z</time></trkpt><trkpt lat="42.7067863" lon="12.4163286"><ele>291.40000000000003</ele><time>2026-04-07T09:57:45.857Z</time></trkpt><trkpt lat="42.7066885" lon="12.4163159"><ele>291.8</ele><time>2026-04-07T09:57:46.838Z</time></trkpt><trkpt lat="42.7065913" lon="12.4163136"><ele>292.20000000000005</ele><time>2026-04-07T09:57:47.837Z</time></trkpt><trkpt lat="42.7064962" lon="12.416306"><ele>292.6</ele><time>2026-04-07T09:57:48.84Z</time></trkpt><trkpt lat="42.7063967" lon="12.4162927"><ele>293.0</ele><time>2026-04-07T09:57:49.839Z</time></trkpt><trkpt lat="42.7062936" lon="12.4162754"><ele>293.0</ele><time>2026-04-07T09:57:50.85Z</time></trkpt><trkpt lat="42.7061903" lon="12.4162614"><ele>293.0</ele><time>2026-04-07T09:57:51.858Z</time></trkpt><trkpt lat="42.7060868" lon="12.416251"><ele>293.0</ele><time>2026-04-07T09:57:52.835Z</time></trkpt><trkpt lat="42.7059863" lon="12.4162377"><ele>293.0</ele><time>2026-04-07T09:57:53.841Z</time></trkpt><trkpt lat="42.7058942" lon="12.4162201"><ele>293.0</ele><time>2026-04-07T09:57:54.854Z</time></trkpt><trkpt lat="42.7058127" lon="12.4161944"><ele>294.1666666666667</ele><time>2026-04-07T09:57:55.845Z</time></trkpt><trkpt lat="42.7057374" lon="12.4161586"><ele>295.33333333333337</ele><time>2026-04-07T09:57:56.841Z</time></trkpt><trkpt lat="42.7056711" lon="12.4161127"><ele>296.5</ele><time>2026-04-07T09:57:57.852Z</time></trkpt><trkpt lat="42.7055952" lon="12.4160314"><ele>297.6666666666667</ele><time>2026-04-07T09:57:59.831Z</time></trkpt><trkpt lat="42.7055363" lon="12.4159716"><ele>298.8333333333333</ele><time>2026-04-07T09:58:01.848Z</time></trkpt><trkpt lat="42.7054518" lon="12.4159856"><ele>300.0</ele><time>2026-04-07T09:58:03.838Z</time></trkpt><trkpt lat="42.7053608" lon="12.4160635"><ele>300.0</ele><time>2026-04-07T09:58:05.835Z</time></trkpt><trkpt lat="42.7052616" lon="12.4160945"><ele>300.0</ele><time>2026-04-07T09:58:07.86Z</time></trkpt><trkpt lat="42.705189" lon="12.4160902"><ele>300.0</ele><time>2026-04-07T09:58:08.84Z</time></trkpt><trkpt lat="42.7051161" lon="12.4160682"><ele>300.0</ele><time>2026-04-07T09:58:09.851Z</time></trkpt><trkpt lat="42.7050509" lon="12.416035"><ele>300.0</ele><time>2026-04-07T09:58:10.854Z</time></trkpt><trkpt lat="42.7049819" lon="12.4159898"><ele>300.0</ele><time>2026-04-07T09:58:11.858Z</time></trkpt><trkpt lat="42.7049202" lon="12.41594"><ele>299.8333333333333</ele><time>2026-04-07T09:58:12.845Z</time></trkpt><trkpt lat="42.704865" lon="12.415889"><ele>299.6666666666667</ele><time>2026-04-07T09:58:13.855Z</time></trkpt><trkpt lat="42.7048112" lon="12.4158367"><ele>299.5</ele><time>2026-04-07T09:58:14.853Z</time></trkpt><trkpt lat="42.7047072" lon="12.4157564"><ele>299.33333333333337</ele><time>2026-04-07T09:58:16.856Z</time></trkpt><trkpt lat="42.7046369" lon="12.4156958"><ele>299.1666666666667</ele><time>2026-04-07T09:58:18.846Z</time></trkpt><trkpt lat="42.7045711" lon="12.4156612"><ele>299.0</ele><time>2026-04-07T09:58:20.829Z</time></trkpt><trkpt lat="42.7045142" lon="12.4156204"><ele>299.0</ele><time>2026-04-07T09:58:22.855Z</time></trkpt><trkpt lat="42.704455" lon="12.4155866"><ele>299.0</ele><time>2026-04-07T09:58:24.855Z</time></trkpt><trkpt lat="42.704364" lon="12.415515"><ele>299.0</ele><time>2026-04-07T09:58:26.844Z</time></trkpt><trkpt lat="42.7042557" lon="12.415457"><ele>299.0</ele><time>2026-04-07T09:58:28.83Z</time></trkpt><trkpt lat="42.7041529" lon="12.4154006"><ele>299.0</ele><time>2026-04-07T09:58:30.853Z</time></trkpt><trkpt lat="42.7040868" lon="12.4153714"><ele>300.33333333333337</ele><time>2026-04-07T09:58:31.84Z</time></trkpt><trkpt lat="42.7040088" lon="12.4153405"><ele>301.6666666666667</ele><time>2026-04-07T09:58:32.853Z</time></trkpt><trkpt lat="42.7039259" lon="12.4153071"><ele>303.0</ele><time>2026-04-07T09:58:33.85Z</time></trkpt><trkpt lat="42.7038459" lon="12.4152707"><ele>304.3333333333333</ele><time>2026-04-07T09:58:34.849Z</time></trkpt><trkpt lat="42.7037665" lon="12.415237"><ele>305.66666666666663</ele><time>2026-04-07T09:58:35.844Z</time></trkpt><trkpt lat="42.7036853" lon="12.4152105"><ele>307.0</ele><time>2026-04-07T09:58:36.846Z</time></trkpt><trkpt lat="42.7036085" lon="12.4151861"><ele>304.5</ele><time>2026-04-07T09:58:37.846Z</time></trkpt><trkpt lat="42.7035396" lon="12.4151609"><ele>302.0</ele><time>2026-04-07T09:58:38.848Z</time></trkpt><trkpt lat="42.7034741" lon="12.4151371"><ele>299.5</ele><time>2026-04-07T09:58:39.85Z</time></trkpt><trkpt lat="42.7034132" lon="12.4151109"><ele>297.0</ele><time>2026-04-07T09:58:40.838Z</time></trkpt><trkpt lat="42.7033054" lon="12.4150331"><ele>294.5</ele><time>2026-04-07T09:58:42.854Z</time></trkpt><trkpt lat="42.7032561" lon="12.4149777"><ele>292.0</ele><time>2026-04-07T09:58:43.843Z</time></trkpt><trkpt lat="42.7031863" lon="12.4148556"><ele>292.0</ele><time>2026-04-07T09:58:45.838Z</time></trkpt><trkpt lat="42.7031466" lon="12.414751"><ele>292.0</ele><time>2026-04-07T09:58:47.848Z</time></trkpt><trkpt lat="42.7030847" lon="12.4146452"><ele>292.0</ele><time>2026-04-07T09:58:49.844Z</time></trkpt><trkpt lat="42.7029652" lon="12.4145361"><ele>292.0</ele><time>2026-04-07T09:58:51.845Z</time></trkpt><trkpt lat="42.7028858" lon="12.4144753"><ele>292.0</ele><time>2026-04-07T09:58:52.864Z</time></trkpt><trkpt lat="42.7028136" lon="12.4144102"><ele>291.66666666666663</ele><time>2026-04-07T09:58:53.84Z</time></trkpt><trkpt lat="42.7027424" lon="12.4143468"><ele>291.3333333333333</ele><time>2026-04-07T09:58:54.857Z</time></trkpt><trkpt lat="42.7026713" lon="12.4142997"><ele>291.0</ele><time>2026-04-07T09:58:55.841Z</time></trkpt><trkpt lat="42.7025952" lon="12.4142612"><ele>290.6666666666667</ele><time>2026-04-07T09:58:56.848Z</time></trkpt><trkpt lat="42.7025198" lon="12.4142132"><ele>290.33333333333337</ele><time>2026-04-07T09:58:57.847Z</time></trkpt><trkpt lat="42.7024446" lon="12.4141652"><ele>290.0</ele><time>2026-04-07T09:58:58.852Z</time></trkpt><trkpt lat="42.7023718" lon="12.4141153"><ele>290.0</ele><time>2026-04-07T09:58:59.851Z</time></trkpt><trkpt lat="42.7023006" lon="12.4140676"><ele>290.0</ele><time>2026-04-07T09:59:00.848Z</time></trkpt><trkpt lat="42.7022379" lon="12.4140183"><ele>290.0</ele><time>2026-04-07T09:59:01.857Z</time></trkpt><trkpt lat="42.7021704" lon="12.4139668"><ele>290.0</ele><time>2026-04-07T09:59:02.846Z</time></trkpt><trkpt lat="42.7020935" lon="12.4139159"><ele>290.0</ele><time>2026-04-07T09:59:03.855Z</time></trkpt><trkpt lat="42.7020139" lon="12.4138703"><ele>290.0</ele><time>2026-04-07T09:59:04.85Z</time></trkpt><trkpt lat="42.7019339" lon="12.4138323"><ele>290.4</ele><time>2026-04-07T09:59:05.853Z</time></trkpt><trkpt lat="42.7018529" lon="12.4138045"><ele>290.8</ele><time>2026-04-07T09:59:06.845Z</time></trkpt><trkpt lat="42.7017722" lon="12.4137674"><ele>291.2</ele><time>2026-04-07T09:59:07.848Z</time></trkpt><trkpt lat="42.7016776" lon="12.4137053"><ele>291.6</ele><time>2026-04-07T09:59:08.848Z</time></trkpt><trkpt lat="42.7015779" lon="12.4136361"><ele>292.0</ele><time>2026-04-07T09:59:09.854Z</time></trkpt><trkpt lat="42.7015111" lon="12.4135683"><ele>292.0</ele><time>2026-04-07T09:59:10.851Z</time></trkpt><trkpt lat="42.7014625" lon="12.4134774"><ele>292.0</ele><time>2026-04-07T09:59:12.869Z</time></trkpt><trkpt lat="42.7013822" lon="12.4134056"><ele>292.0</ele><time>2026-04-07T09:59:15.837Z</time></trkpt><trkpt lat="42.7013023" lon="12.4133128"><ele>292.0</ele><time>2026-04-07T09:59:17.855Z</time></trkpt><trkpt lat="42.7012305" lon="12.413201"><ele>292.0</ele><time>2026-04-07T09:59:19.848Z</time></trkpt><trkpt lat="42.7011796" lon="12.4131431"><ele>292.0</ele><time>2026-04-07T09:59:21.85Z</time></trkpt><trkpt lat="42.7011118" lon="12.4131227"><ele>292.0</ele><time>2026-04-07T09:59:24.84Z</time></trkpt><trkpt lat="42.7010082" lon="12.4130656"><ele>292.0</ele><time>2026-04-07T09:59:27.838Z</time></trkpt><trkpt lat="42.7009409" lon="12.4130327"><ele>292.0</ele><time>2026-04-07T09:59:29.84Z</time></trkpt><trkpt lat="42.7008727" lon="12.412991"><ele>292.0</ele><time>2026-04-07T09:59:34.853Z</time></trkpt><trkpt lat="42.7007913" lon="12.412958"><ele>292.0</ele><time>2026-04-07T09:59:37.856Z</time></trkpt><trkpt lat="42.7006966" lon="12.4129249"><ele>291.5</ele><time>2026-04-07T09:59:39.839Z</time></trkpt><trkpt lat="42.7005814" lon="12.4128721"><ele>291.0</ele><time>2026-04-07T09:59:41.864Z</time></trkpt><trkpt lat="42.7005182" lon="12.4128394"><ele>290.5</ele><time>2026-04-07T09:59:42.855Z</time></trkpt><trkpt lat="42.7004559" lon="12.4128118"><ele>290.0</ele><time>2026-04-07T09:59:43.844Z</time></trkpt><trkpt lat="42.7003911" lon="12.4127895"><ele>289.5</ele><time>2026-04-07T09:59:44.852Z</time></trkpt><trkpt lat="42.7002717" lon="12.4127677"><ele>289.0</ele><time>2026-04-07T09:59:46.85Z</time></trkpt><trkpt lat="42.700204" lon="12.4127585"><ele>289.0</ele><time>2026-04-07T09:59:47.847Z</time></trkpt><trkpt lat="42.7001326" lon="12.4127486"><ele>289.0</ele><time>2026-04-07T09:59:48.863Z</time></trkpt><trkpt lat="42.7000622" lon="12.4127431"><ele>289.0</ele><time>2026-04-07T09:59:49.842Z</time></trkpt><trkpt lat="42.6999991" lon="12.4127291"><ele>289.0</ele><time>2026-04-07T09:59:50.841Z</time></trkpt><trkpt lat="42.6999359" lon="12.4127178"><ele>289.0</ele><time>2026-04-07T09:59:51.851Z</time></trkpt><trkpt lat="42.6998196" lon="12.412708"><ele>289.0</ele><time>2026-04-07T09:59:53.846Z</time></trkpt><trkpt lat="42.6997487" lon="12.4127001"><ele>289.0</ele><time>2026-04-07T09:59:54.845Z</time></trkpt><trkpt lat="42.6996684" lon="12.4126946"><ele>289.0</ele><time>2026-04-07T09:59:55.831Z</time></trkpt><trkpt lat="42.699596" lon="12.4126871"><ele>289.0</ele><time>2026-04-07T09:59:56.848Z</time></trkpt><trkpt lat="42.6995267" lon="12.4126837"><ele>289.0</ele><time>2026-04-07T09:59:57.843Z</time></trkpt><trkpt lat="42.6994636" lon="12.4126822"><ele>289.0</ele><time>2026-04-07T09:59:58.846Z</time></trkpt><trkpt lat="42.6993401" lon="12.4126757"><ele>289.0</ele><time>2026-04-07T10:00:00.842Z</time></trkpt><trkpt lat="42.6992755" lon="12.4126715"><ele>289.66666666666663</ele><time>2026-04-07T10:00:01.848Z</time></trkpt><trkpt lat="42.6992089" lon="12.4126682"><ele>290.3333333333333</ele><time>2026-04-07T10:00:02.852Z</time></trkpt><trkpt lat="42.6991422" lon="12.4126661"><ele>291.0</ele><time>2026-04-07T10:00:03.839Z</time></trkpt><trkpt lat="42.6990757" lon="12.4126611"><ele>291.6666666666667</ele><time>2026-04-07T10:00:04.848Z</time></trkpt><trkpt lat="42.6990118" lon="12.4126592"><ele>292.33333333333337</ele><time>2026-04-07T10:00:05.849Z</time></trkpt><trkpt lat="42.6988953" lon="12.4126385"><ele>293.0</ele><time>2026-04-07T10:00:07.847Z</time></trkpt><trkpt lat="42.6987786" lon="12.4126234"><ele>293.0</ele><time>2026-04-07T10:00:09.858Z</time></trkpt><trkpt lat="42.6986699" lon="12.4126479"><ele>293.0</ele><time>2026-04-07T10:00:11.848Z</time></trkpt><trkpt lat="42.6985731" lon="12.4126795"><ele>293.0</ele><time>2026-04-07T10:00:13.847Z</time></trkpt><trkpt lat="42.6984932" lon="12.4126934"><ele>293.0</ele><time>2026-04-07T10:00:15.848Z</time></trkpt><trkpt lat="42.6984096" lon="12.4126969"><ele>293.0</ele><time>2026-04-07T10:00:17.836Z</time></trkpt><trkpt lat="42.6983121" lon="12.4126949"><ele>294.2</ele><time>2026-04-07T10:00:19.854Z</time></trkpt><trkpt lat="42.6982077" lon="12.4126757"><ele>295.4</ele><time>2026-04-07T10:00:21.843Z</time></trkpt><trkpt lat="42.6980994" lon="12.4126544"><ele>296.59999999999997</ele><time>2026-04-07T10:00:23.848Z</time></trkpt><trkpt lat="42.6979935" lon="12.4126021"><ele>297.8</ele><time>2026-04-07T10:00:25.847Z</time></trkpt><trkpt lat="42.6979154" lon="12.412548"><ele>299.0</ele><time>2026-04-07T10:00:27.846Z</time></trkpt><trkpt lat="42.6978411" lon="12.4124823"><ele>299.0</ele><time>2026-04-07T10:00:29.848Z</time></trkpt><trkpt lat="42.6977606" lon="12.4124209"><ele>299.0</ele><time>2026-04-07T10:00:31.848Z</time></trkpt><trkpt lat="42.6976803" lon="12.4124434"><ele>299.0</ele><time>2026-04-07T10:00:34.839Z</time></trkpt><trkpt lat="42.6976154" lon="12.412467"><ele>299.0</ele><time>2026-04-07T10:00:36.861Z</time></trkpt><trkpt lat="42.6975326" lon="12.4124913"><ele>299.0</ele><time>2026-04-07T10:00:38.847Z</time></trkpt><trkpt lat="42.6974456" lon="12.4125224"><ele>299.0</ele><time>2026-04-07T10:00:40.85Z</time></trkpt><trkpt lat="42.6973426" lon="12.4125687"><ele>298.8</ele><time>2026-04-07T10:00:42.851Z</time></trkpt><trkpt lat="42.6972448" lon="12.4126074"><ele>298.59999999999997</ele><time>2026-04-07T10:00:44.826Z</time></trkpt><trkpt lat="42.6971334" lon="12.4126151"><ele>298.4</ele><time>2026-04-07T10:00:46.87Z</time></trkpt><trkpt lat="42.6970156" lon="12.4125836"><ele>298.2</ele><time>2026-04-07T10:00:48.849Z</time></trkpt><trkpt lat="42.6969022" lon="12.4125647"><ele>298.0</ele><time>2026-04-07T10:00:50.842Z</time></trkpt><trkpt lat="42.696834" lon="12.4125452"><ele>297.8</ele><time>2026-04-07T10:00:51.839Z</time></trkpt><trkpt lat="42.6967652" lon="12.4125227"><ele>297.6</ele><time>2026-04-07T10:00:52.848Z</time></trkpt><trkpt lat="42.6966513" lon="12.4124893"><ele>297.4</ele><time>2026-04-07T10:00:54.844Z</time></trkpt><trkpt lat="42.6965453" lon="12.4124746"><ele>297.2</ele><time>2026-04-07T10:00:56.856Z</time></trkpt><trkpt lat="42.6964453" lon="12.4124547"><ele>297.0</ele><time>2026-04-07T10:00:58.86Z</time></trkpt><trkpt lat="42.6963487" lon="12.4124053"><ele>297.0</ele><time>2026-04-07T10:01:00.851Z</time></trkpt><trkpt lat="42.6962398" lon="12.4124089"><ele>297.0</ele><time>2026-04-07T10:01:02.85Z</time></trkpt><trkpt lat="42.6961782" lon="12.4124409"><ele>297.0</ele><time>2026-04-07T10:01:03.847Z</time></trkpt><trkpt lat="42.6961147" lon="12.4124774"><ele>297.0</ele><time>2026-04-07T10:01:04.829Z</time></trkpt><trkpt lat="42.6960545" lon="12.4125067"><ele>297.0</ele><time>2026-04-07T10:01:05.837Z</time></trkpt><trkpt lat="42.6959386" lon="12.4125152"><ele>297.0</ele><time>2026-04-07T10:01:07.845Z</time></trkpt><trkpt lat="42.6958153" lon="12.4125101"><ele>297.1666666666667</ele><time>2026-04-07T10:01:09.845Z</time></trkpt><trkpt lat="42.6956934" lon="12.4125235"><ele>297.3333333333333</ele><time>2026-04-07T10:01:11.846Z</time></trkpt><trkpt lat="42.6956305" lon="12.4125418"><ele>297.5</ele><time>2026-04-07T10:01:12.872Z</time></trkpt><trkpt lat="42.6955646" lon="12.4125677"><ele>297.66666666666663</ele><time>2026-04-07T10:01:13.85Z</time></trkpt><trkpt lat="42.6954924" lon="12.4125981"><ele>297.8333333333333</ele><time>2026-04-07T10:01:14.835Z</time></trkpt><trkpt lat="42.6954259" lon="12.4126322"><ele>298.0</ele><time>2026-04-07T10:01:15.861Z</time></trkpt><trkpt lat="42.6953135" lon="12.4126849"><ele>299.8</ele><time>2026-04-07T10:01:17.848Z</time></trkpt><trkpt lat="42.6952203" lon="12.412721"><ele>301.6</ele><time>2026-04-07T10:01:19.83Z</time></trkpt><trkpt lat="42.6951316" lon="12.4127384"><ele>303.4</ele><time>2026-04-07T10:01:21.84Z</time></trkpt><trkpt lat="42.6950338" lon="12.4127234"><ele>305.2</ele><time>2026-04-07T10:01:23.852Z</time></trkpt><trkpt lat="42.6949421" lon="12.412683"><ele>307.0</ele><time>2026-04-07T10:01:25.839Z</time></trkpt><trkpt lat="42.6948501" lon="12.4126592"><ele>307.0</ele><time>2026-04-07T10:01:27.847Z</time></trkpt><trkpt lat="42.6947895" lon="12.4126913"><ele>307.0</ele><time>2026-04-07T10:01:29.839Z</time></trkpt><trkpt lat="42.6947498" lon="12.4127819"><ele>307.0</ele><time>2026-04-07T10:01:31.846Z</time></trkpt><trkpt lat="42.6946994" lon="12.4129268"><ele>307.0</ele><time>2026-04-07T10:01:33.848Z</time></trkpt><trkpt lat="42.6946265" lon="12.4130278"><ele>307.0</ele><time>2026-04-07T10:01:35.836Z</time></trkpt><trkpt lat="42.6945299" lon="12.4130944"><ele>305.8</ele><time>2026-04-07T10:01:37.848Z</time></trkpt><trkpt lat="42.6944164" lon="12.4131321"><ele>304.6</ele><time>2026-04-07T10:01:39.852Z</time></trkpt><trkpt lat="42.6943508" lon="12.4131569"><ele>303.40000000000003</ele><time>2026-04-07T10:01:40.857Z</time></trkpt><trkpt lat="42.6942889" lon="12.413179"><ele>302.2</ele><time>2026-04-07T10:01:41.839Z</time></trkpt><trkpt lat="42.6941738" lon="12.4132166"><ele>301.0</ele><time>2026-04-07T10:01:43.836Z</time></trkpt><trkpt lat="42.6940606" lon="12.4132205"><ele>301.0</ele><time>2026-04-07T10:01:45.84Z</time></trkpt><trkpt lat="42.693949" lon="12.413163"><ele>301.0</ele><time>2026-04-07T10:01:47.844Z</time></trkpt><trkpt lat="42.6938453" lon="12.413166"><ele>301.0</ele><time>2026-04-07T10:01:49.846Z</time></trkpt><trkpt lat="42.693742" lon="12.413213"><ele>301.0</ele><time>2026-04-07T10:01:51.842Z</time></trkpt><trkpt lat="42.6936291" lon="12.4132731"><ele>302.3333333333333</ele><time>2026-04-07T10:01:53.831Z</time></trkpt><trkpt lat="42.6935559" lon="12.4132818"><ele>303.66666666666663</ele><time>2026-04-07T10:01:54.833Z</time></trkpt><trkpt lat="42.6934698" lon="12.4132588"><ele>305.0</ele><time>2026-04-07T10:01:55.853Z</time></trkpt><trkpt lat="42.6933847" lon="12.4132192"><ele>306.3333333333333</ele><time>2026-04-07T10:01:56.847Z</time></trkpt><trkpt lat="42.6933096" lon="12.4131868"><ele>307.6666666666667</ele><time>2026-04-07T10:01:57.844Z</time></trkpt><trkpt lat="42.693238" lon="12.4131716"><ele>309.0</ele><time>2026-04-07T10:01:58.842Z</time></trkpt><trkpt lat="42.6931662" lon="12.4131709"><ele>309.0</ele><time>2026-04-07T10:01:59.836Z</time></trkpt><trkpt lat="42.6930886" lon="12.4131782"><ele>309.0</ele><time>2026-04-07T10:02:00.846Z</time></trkpt><trkpt lat="42.6930252" lon="12.413188"><ele>309.0</ele><time>2026-04-07T10:02:01.852Z</time></trkpt><trkpt lat="42.6929197" lon="12.4132086"><ele>309.0</ele><time>2026-04-07T10:02:03.866Z</time></trkpt><trkpt lat="42.6928026" lon="12.4132467"><ele>309.0</ele><time>2026-04-07T10:02:05.851Z</time></trkpt><trkpt lat="42.6927088" lon="12.4133494"><ele>311.1666666666667</ele><time>2026-04-07T10:02:07.844Z</time></trkpt><trkpt lat="42.6926577" lon="12.4134074"><ele>313.3333333333333</ele><time>2026-04-07T10:02:08.849Z</time></trkpt><trkpt lat="42.6925464" lon="12.4134848"><ele>315.5</ele><time>2026-04-07T10:02:10.851Z</time></trkpt><trkpt lat="42.6924805" lon="12.4135351"><ele>317.66666666666663</ele><time>2026-04-07T10:02:11.838Z</time></trkpt><trkpt lat="42.6924071" lon="12.4135863"><ele>319.8333333333333</ele><time>2026-04-07T10:02:12.855Z</time></trkpt><trkpt lat="42.6923393" lon="12.4136366"><ele>322.0</ele><time>2026-04-07T10:02:13.853Z</time></trkpt><trkpt lat="42.6922629" lon="12.4136795"><ele>322.0</ele><time>2026-04-07T10:02:14.839Z</time></trkpt><trkpt lat="42.6921966" lon="12.4137069"><ele>322.0</ele><time>2026-04-07T10:02:15.838Z</time></trkpt><trkpt lat="42.6920781" lon="12.4137795"><ele>322.0</ele><time>2026-04-07T10:02:17.84Z</time></trkpt><trkpt lat="42.6920166" lon="12.4138059"><ele>322.0</ele><time>2026-04-07T10:02:18.828Z</time></trkpt><trkpt lat="42.6919487" lon="12.4138186"><ele>322.0</ele><time>2026-04-07T10:02:19.836Z</time></trkpt><trkpt lat="42.6918682" lon="12.4138209"><ele>322.0</ele><time>2026-04-07T10:02:20.842Z</time></trkpt><trkpt lat="42.6917937" lon="12.4138214"><ele>324.14285714285717</ele><time>2026-04-07T10:02:21.844Z</time></trkpt><trkpt lat="42.6917198" lon="12.4138199"><ele>326.2857142857143</ele><time>2026-04-07T10:02:22.85Z</time></trkpt><trkpt lat="42.6916462" lon="12.4138064"><ele>328.42857142857144</ele><time>2026-04-07T10:02:23.848Z</time></trkpt><trkpt lat="42.6915783" lon="12.4137759"><ele>330.57142857142856</ele><time>2026-04-07T10:02:24.849Z</time></trkpt><trkpt lat="42.6915155" lon="12.4137331"><ele>332.7142857142857</ele><time>2026-04-07T10:02:25.828Z</time></trkpt><trkpt lat="42.6914556" lon="12.4136905"><ele>334.8571428571429</ele><time>2026-04-07T10:02:26.847Z</time></trkpt><trkpt lat="42.6913912" lon="12.4136573"><ele>337.0</ele><time>2026-04-07T10:02:27.846Z</time></trkpt><trkpt lat="42.6913227" lon="12.4136268"><ele>337.0</ele><time>2026-04-07T10:02:28.837Z</time></trkpt><trkpt lat="42.6912499" lon="12.4135944"><ele>337.0</ele><time>2026-04-07T10:02:29.851Z</time></trkpt><trkpt lat="42.6911839" lon="12.4135636"><ele>337.0</ele><time>2026-04-07T10:02:30.854Z</time></trkpt><trkpt lat="42.6911258" lon="12.4135255"><ele>337.0</ele><time>2026-04-07T10:02:31.843Z</time></trkpt><trkpt lat="42.6910201" lon="12.4134582"><ele>337.0</ele><time>2026-04-07T10:02:33.861Z</time></trkpt><trkpt lat="42.6909525" lon="12.4133711"><ele>337.0</ele><time>2026-04-07T10:02:35.854Z</time></trkpt><trkpt lat="42.6908828" lon="12.4133179"><ele>336.16666666666663</ele><time>2026-04-07T10:02:39.854Z</time></trkpt><trkpt lat="42.6908238" lon="12.4132876"><ele>335.3333333333333</ele><time>2026-04-07T10:02:41.854Z</time></trkpt><trkpt lat="42.690762" lon="12.4132267"><ele>334.5</ele><time>2026-04-07T10:02:43.846Z</time></trkpt><trkpt lat="42.6906912" lon="12.4131264"><ele>333.6666666666667</ele><time>2026-04-07T10:02:46.847Z</time></trkpt><trkpt lat="42.6906229" lon="12.4130745"><ele>332.83333333333337</ele><time>2026-04-07T10:02:48.868Z</time></trkpt><trkpt lat="42.6905536" lon="12.4131295"><ele>332.0</ele><time>2026-04-07T10:02:50.842Z</time></trkpt><trkpt lat="42.690494" lon="12.4132555"><ele>332.0</ele><time>2026-04-07T10:02:52.84Z</time></trkpt><trkpt lat="42.6904347" lon="12.4133495"><ele>332.0</ele><time>2026-04-07T10:02:54.846Z</time></trkpt><trkpt lat="42.6904467" lon="12.4134432"><ele>332.0</ele><time>2026-04-07T10:02:56.843Z</time></trkpt><trkpt lat="42.6904618" lon="12.4135898"><ele>332.0</ele><time>2026-04-07T10:02:58.845Z</time></trkpt><trkpt lat="42.6904514" lon="12.413675"><ele>332.0</ele><time>2026-04-07T10:02:59.834Z</time></trkpt><trkpt lat="42.6904398" lon="12.4137667"><ele>332.0</ele><time>2026-04-07T10:03:00.852Z</time></trkpt><trkpt lat="42.6904082" lon="12.4139222"><ele>331.0</ele><time>2026-04-07T10:03:02.84Z</time></trkpt><trkpt lat="42.6903464" lon="12.4140645"><ele>330.0</ele><time>2026-04-07T10:03:04.871Z</time></trkpt><trkpt lat="42.6902636" lon="12.4141519"><ele>329.0</ele><time>2026-04-07T10:03:06.859Z</time></trkpt><trkpt lat="42.6901503" lon="12.4141609"><ele>328.0</ele><time>2026-04-07T10:03:08.837Z</time></trkpt><trkpt lat="42.6900863" lon="12.4141749"><ele>327.0</ele><time>2026-04-07T10:03:09.842Z</time></trkpt><trkpt lat="42.6900237" lon="12.4141925"><ele>330.0</ele><time>2026-04-07T10:03:10.844Z</time></trkpt><trkpt lat="42.6899593" lon="12.4142034"><ele>333.0</ele><time>2026-04-07T10:03:11.845Z</time></trkpt><trkpt lat="42.6898924" lon="12.4142149"><ele>336.0</ele><time>2026-04-07T10:03:12.85Z</time></trkpt><trkpt lat="42.6898287" lon="12.4142341"><ele>339.0</ele><time>2026-04-07T10:03:13.843Z</time></trkpt><trkpt lat="42.6897242" lon="12.4142806"><ele>342.0</ele><time>2026-04-07T10:03:15.841Z</time></trkpt><trkpt lat="42.6896035" lon="12.4142555"><ele>345.0</ele><time>2026-04-07T10:03:17.845Z</time></trkpt><trkpt lat="42.6894772" lon="12.4142228"><ele>348.3333333333333</ele><time>2026-04-07T10:03:19.845Z</time></trkpt><trkpt lat="42.6893839" lon="12.414218"><ele>351.6666666666667</ele><time>2026-04-07T10:03:21.849Z</time></trkpt><trkpt lat="42.6893063" lon="12.4142888"><ele>355.0</ele><time>2026-04-07T10:03:23.845Z</time></trkpt><trkpt lat="42.6892514" lon="12.4143359"><ele>358.33333333333337</ele><time>2026-04-07T10:03:24.852Z</time></trkpt><trkpt lat="42.6891878" lon="12.414386"><ele>361.6666666666667</ele><time>2026-04-07T10:03:25.852Z</time></trkpt><trkpt lat="42.6891146" lon="12.41443"><ele>365.0</ele><time>2026-04-07T10:03:26.842Z</time></trkpt><trkpt lat="42.6890316" lon="12.4144646"><ele>365.0</ele><time>2026-04-07T10:03:27.839Z</time></trkpt><trkpt lat="42.6889554" lon="12.4144848"><ele>365.0</ele><time>2026-04-07T10:03:28.84Z</time></trkpt><trkpt lat="42.6888799" lon="12.414474"><ele>365.0</ele><time>2026-04-07T10:03:29.858Z</time></trkpt><trkpt lat="42.688796" lon="12.4144556"><ele>365.0</ele><time>2026-04-07T10:03:30.838Z</time></trkpt><trkpt lat="42.6887144" lon="12.4144193"><ele>365.0</ele><time>2026-04-07T10:03:31.849Z</time></trkpt><trkpt lat="42.6886258" lon="12.4143786"><ele>365.0</ele><time>2026-04-07T10:03:32.857Z</time></trkpt><trkpt lat="42.6885458" lon="12.4143336"><ele>366.7142857142857</ele><time>2026-04-07T10:03:33.843Z</time></trkpt><trkpt lat="42.6884775" lon="12.4142791"><ele>368.42857142857144</ele><time>2026-04-07T10:03:34.833Z</time></trkpt><trkpt lat="42.688417" lon="12.4142269"><ele>370.1428571428571</ele><time>2026-04-07T10:03:35.847Z</time></trkpt><trkpt lat="42.6883589" lon="12.4141821"><ele>371.8571428571429</ele><time>2026-04-07T10:03:36.858Z</time></trkpt><trkpt lat="42.6882919" lon="12.4141567"><ele>373.57142857142856</ele><time>2026-04-07T10:03:37.846Z</time></trkpt><trkpt lat="42.6882197" lon="12.4141209"><ele>375.2857142857143</ele><time>2026-04-07T10:03:38.847Z</time></trkpt><trkpt lat="42.6881438" lon="12.4140724"><ele>377.0</ele><time>2026-04-07T10:03:39.836Z</time></trkpt><trkpt lat="42.6880572" lon="12.4140283"><ele>377.0</ele><time>2026-04-07T10:03:40.853Z</time></trkpt><trkpt lat="42.6879765" lon="12.4139911"><ele>377.0</ele><time>2026-04-07T10:03:41.856Z</time></trkpt><trkpt lat="42.687907" lon="12.4139737"><ele>377.0</ele><time>2026-04-07T10:03:42.841Z</time></trkpt><trkpt lat="42.687836" lon="12.4139685"><ele>377.0</ele><time>2026-04-07T10:03:43.835Z</time></trkpt><trkpt lat="42.6877556" lon="12.4139754"><ele>377.0</ele><time>2026-04-07T10:03:44.853Z</time></trkpt><trkpt lat="42.6876655" lon="12.4139765"><ele>377.0</ele><time>2026-04-07T10:03:45.854Z</time></trkpt><trkpt lat="42.6875848" lon="12.4139683"><ele>377.40000000000003</ele><time>2026-04-07T10:03:46.852Z</time></trkpt><trkpt lat="42.6875121" lon="12.4139386"><ele>377.8</ele><time>2026-04-07T10:03:47.851Z</time></trkpt><trkpt lat="42.6874177" lon="12.4138755"><ele>378.2</ele><time>2026-04-07T10:03:49.867Z</time></trkpt><trkpt lat="42.6873249" lon="12.4137493"><ele>378.6</ele><time>2026-04-07T10:03:51.854Z</time></trkpt><trkpt lat="42.6872269" lon="12.4136921"><ele>379.0</ele><time>2026-04-07T10:03:53.843Z</time></trkpt><trkpt lat="42.6871167" lon="12.4137448"><ele>379.0</ele><time>2026-04-07T10:03:55.84Z</time></trkpt><trkpt lat="42.6870481" lon="12.4137931"><ele>379.0</ele><time>2026-04-07T10:03:56.849Z</time></trkpt><trkpt lat="42.6869758" lon="12.4138308"><ele>379.0</ele><time>2026-04-07T10:03:57.852Z</time></trkpt><trkpt lat="42.6869101" lon="12.4138596"><ele>379.0</ele><time>2026-04-07T10:03:58.838Z</time></trkpt><trkpt lat="42.6868394" lon="12.4138685"><ele>379.0</ele><time>2026-04-07T10:03:59.859Z</time></trkpt><trkpt lat="42.6867583" lon="12.4138627"><ele>379.0</ele><time>2026-04-07T10:04:00.851Z</time></trkpt><trkpt lat="42.6866798" lon="12.4138573"><ele>381.3333333333333</ele><time>2026-04-07T10:04:01.856Z</time></trkpt><trkpt lat="42.6866009" lon="12.4138491"><ele>383.66666666666663</ele><time>2026-04-07T10:04:02.83Z</time></trkpt><trkpt lat="42.6865221" lon="12.413851"><ele>386.0</ele><time>2026-04-07T10:04:03.847Z</time></trkpt><trkpt lat="42.686441" lon="12.413854"><ele>388.3333333333333</ele><time>2026-04-07T10:04:04.861Z</time></trkpt><trkpt lat="42.6863548" lon="12.4138604"><ele>390.6666666666667</ele><time>2026-04-07T10:04:05.833Z</time></trkpt><trkpt lat="42.6862631" lon="12.4138627"><ele>393.0</ele><time>2026-04-07T10:04:06.838Z</time></trkpt><trkpt lat="42.6861764" lon="12.4138664"><ele>393.0</ele><time>2026-04-07T10:04:07.851Z</time></trkpt><trkpt lat="42.6861014" lon="12.4138798"><ele>393.0</ele><time>2026-04-07T10:04:08.838Z</time></trkpt><trkpt lat="42.6860206" lon="12.4139003"><ele>393.0</ele><time>2026-04-07T10:04:09.857Z</time></trkpt><trkpt lat="42.6859383" lon="12.4139199"><ele>393.0</ele><time>2026-04-07T10:04:10.859Z</time></trkpt><trkpt lat="42.6858568" lon="12.4139459"><ele>393.0</ele><time>2026-04-07T10:04:11.847Z</time></trkpt><trkpt lat="42.6857748" lon="12.4139744"><ele>393.0</ele><time>2026-04-07T10:04:12.839Z</time></trkpt><trkpt lat="42.6856969" lon="12.4140049"><ele>396.6666666666667</ele><time>2026-04-07T10:04:13.851Z</time></trkpt><trkpt lat="42.6856213" lon="12.4140461"><ele>400.33333333333337</ele><time>2026-04-07T10:04:14.852Z</time></trkpt><trkpt lat="42.6855497" lon="12.4140936"><ele>404.0</ele><time>2026-04-07T10:04:15.849Z</time></trkpt><trkpt lat="42.6854755" lon="12.4141455"><ele>407.6666666666667</ele><time>2026-04-07T10:04:16.851Z</time></trkpt><trkpt lat="42.6853994" lon="12.4141833"><ele>411.33333333333337</ele><time>2026-04-07T10:04:17.861Z</time></trkpt><trkpt lat="42.6853221" lon="12.4142135"><ele>415.0</ele><time>2026-04-07T10:04:18.85Z</time></trkpt><trkpt lat="42.6852515" lon="12.4142465"><ele>419.50000000000006</ele><time>2026-04-07T10:04:19.839Z</time></trkpt><trkpt lat="42.6851811" lon="12.4142718"><ele>424.0</ele><time>2026-04-07T10:04:20.839Z</time></trkpt><trkpt lat="42.6851014" lon="12.4142791"><ele>428.5</ele><time>2026-04-07T10:04:21.83Z</time></trkpt><trkpt lat="42.685016" lon="12.414287"><ele>433.0</ele><time>2026-04-07T10:04:22.84Z</time></trkpt><trkpt lat="42.6849322" lon="12.4143092"><ele>437.50000000000006</ele><time>2026-04-07T10:04:23.84Z</time></trkpt><trkpt lat="42.6848546" lon="12.4143284"><ele>442.0</ele><time>2026-04-07T10:04:24.841Z</time></trkpt><trkpt lat="42.6847813" lon="12.4143536"><ele>442.0</ele><time>2026-04-07T10:04:25.839Z</time></trkpt><trkpt lat="42.6847039" lon="12.4143895"><ele>442.00000000000006</ele><time>2026-04-07T10:04:26.859Z</time></trkpt><trkpt lat="42.6846074" lon="12.4144253"><ele>442.00000000000006</ele><time>2026-04-07T10:04:27.851Z</time></trkpt><trkpt lat="42.6845079" lon="12.4144556"><ele>442.0</ele><time>2026-04-07T10:04:28.855Z</time></trkpt><trkpt lat="42.6844192" lon="12.4144869"><ele>442.0</ele><time>2026-04-07T10:04:29.833Z</time></trkpt><trkpt lat="42.6843368" lon="12.4145223"><ele>441.1666666666667</ele><time>2026-04-07T10:04:30.836Z</time></trkpt><trkpt lat="42.6842555" lon="12.4145551"><ele>440.33333333333337</ele><time>2026-04-07T10:04:31.843Z</time></trkpt><trkpt lat="42.6841738" lon="12.4145834"><ele>439.5</ele><time>2026-04-07T10:04:32.849Z</time></trkpt><trkpt lat="42.684097" lon="12.4146172"><ele>438.66666666666663</ele><time>2026-04-07T10:04:33.858Z</time></trkpt><trkpt lat="42.6840236" lon="12.4146447"><ele>437.8333333333333</ele><time>2026-04-07T10:04:34.849Z</time></trkpt><trkpt lat="42.6839494" lon="12.4146691"><ele>437.0</ele><time>2026-04-07T10:04:35.854Z</time></trkpt><trkpt lat="42.6838745" lon="12.4146958"><ele>436.99999999999994</ele><time>2026-04-07T10:04:36.84Z</time></trkpt><trkpt lat="42.6837983" lon="12.4147361"><ele>437.0</ele><time>2026-04-07T10:04:37.834Z</time></trkpt><trkpt lat="42.6837151" lon="12.4147839"><ele>437.0</ele><time>2026-04-07T10:04:38.841Z</time></trkpt><trkpt lat="42.6836248" lon="12.4148239"><ele>437.0</ele><time>2026-04-07T10:04:39.838Z</time></trkpt><trkpt lat="42.6835374" lon="12.4148711"><ele>436.99999999999994</ele><time>2026-04-07T10:04:40.846Z</time></trkpt><trkpt lat="42.6834592" lon="12.4149185"><ele>437.0</ele><time>2026-04-07T10:04:41.837Z</time></trkpt><trkpt lat="42.6833819" lon="12.4149706"><ele>442.3333333333333</ele><time>2026-04-07T10:04:42.863Z</time></trkpt><trkpt lat="42.6833068" lon="12.4150086"><ele>447.66666666666663</ele><time>2026-04-07T10:04:43.835Z</time></trkpt><trkpt lat="42.6832283" lon="12.4150333"><ele>453.0</ele><time>2026-04-07T10:04:44.852Z</time></trkpt><trkpt lat="42.6831537" lon="12.4150513"><ele>458.33333333333337</ele><time>2026-04-07T10:04:45.845Z</time></trkpt><trkpt lat="42.6830761" lon="12.4150658"><ele>463.6666666666667</ele><time>2026-04-07T10:04:46.857Z</time></trkpt><trkpt lat="42.6829929" lon="12.4150707"><ele>469.0</ele><time>2026-04-07T10:04:47.856Z</time></trkpt><trkpt lat="42.6829054" lon="12.4150717"><ele>469.00000000000006</ele><time>2026-04-07T10:04:48.836Z</time></trkpt><trkpt lat="42.6828178" lon="12.4150675"><ele>469.0</ele><time>2026-04-07T10:04:49.849Z</time></trkpt><trkpt lat="42.6827378" lon="12.4150657"><ele>469.0</ele><time>2026-04-07T10:04:50.849Z</time></trkpt><trkpt lat="42.68266" lon="12.4150567"><ele>469.0</ele><time>2026-04-07T10:04:51.86Z</time></trkpt><trkpt lat="42.6825837" lon="12.4150405"><ele>469.00000000000006</ele><time>2026-04-07T10:04:52.835Z</time></trkpt><trkpt lat="42.6825135" lon="12.415016"><ele>469.0</ele><time>2026-04-07T10:04:53.854Z</time></trkpt><trkpt lat="42.6824527" lon="12.4149805"><ele>470.79999999999995</ele><time>2026-04-07T10:04:54.834Z</time></trkpt><trkpt lat="42.6823957" lon="12.4149353"><ele>472.59999999999997</ele><time>2026-04-07T10:04:55.838Z</time></trkpt><trkpt lat="42.6822931" lon="12.4148706"><ele>474.4</ele><time>2026-04-07T10:04:57.845Z</time></trkpt><trkpt lat="42.6822097" lon="12.4148931"><ele>476.2</ele><time>2026-04-07T10:04:59.845Z</time></trkpt><trkpt lat="42.6821214" lon="12.4149944"><ele>478.0</ele><time>2026-04-07T10:05:01.837Z</time></trkpt><trkpt lat="42.6820084" lon="12.4150631"><ele>478.00000000000006</ele><time>2026-04-07T10:05:03.855Z</time></trkpt><trkpt lat="42.6819453" lon="12.4150832"><ele>478.0</ele><time>2026-04-07T10:05:04.823Z</time></trkpt><trkpt lat="42.681875" lon="12.4150933"><ele>478.0</ele><time>2026-04-07T10:05:05.843Z</time></trkpt><trkpt lat="42.6817986" lon="12.4150911"><ele>478.0</ele><time>2026-04-07T10:05:06.838Z</time></trkpt><trkpt lat="42.6817115" lon="12.4150793"><ele>478.00000000000006</ele><time>2026-04-07T10:05:07.833Z</time></trkpt><trkpt lat="42.6816302" lon="12.4150598"><ele>478.0</ele><time>2026-04-07T10:05:08.844Z</time></trkpt><trkpt lat="42.681547" lon="12.415042"><ele>480.0</ele><time>2026-04-07T10:05:09.836Z</time></trkpt><trkpt lat="42.6814683" lon="12.4150353"><ele>481.99999999999994</ele><time>2026-04-07T10:05:10.837Z</time></trkpt><trkpt lat="42.6813469" lon="12.4150643"><ele>483.99999999999994</ele><time>2026-04-07T10:05:12.83Z</time></trkpt><trkpt lat="42.6812176" lon="12.4151076"><ele>486.0</ele><time>2026-04-07T10:05:14.832Z</time></trkpt><trkpt lat="42.6811493" lon="12.4151268"><ele>488.0</ele><time>2026-04-07T10:05:15.834Z</time></trkpt><trkpt lat="42.6810826" lon="12.4151446"><ele>489.66666666666663</ele><time>2026-04-07T10:05:16.841Z</time></trkpt><trkpt lat="42.6810112" lon="12.4151456"><ele>491.3333333333333</ele><time>2026-04-07T10:05:17.844Z</time></trkpt><trkpt lat="42.6809436" lon="12.4151375"><ele>493.0</ele><time>2026-04-07T10:05:18.866Z</time></trkpt><trkpt lat="42.6808295" lon="12.4151179"><ele>494.66666666666663</ele><time>2026-04-07T10:05:20.875Z</time></trkpt><trkpt lat="42.6807377" lon="12.4150733"><ele>496.3333333333333</ele><time>2026-04-07T10:05:22.848Z</time></trkpt><trkpt lat="42.6806654" lon="12.4150389"><ele>498.0</ele><time>2026-04-07T10:05:24.935Z</time></trkpt><trkpt lat="42.6805588" lon="12.4150314"><ele>498.0</ele><time>2026-04-07T10:05:26.866Z</time></trkpt><trkpt lat="42.6804909" lon="12.4150433"><ele>497.99999999999994</ele><time>2026-04-07T10:05:27.831Z</time></trkpt><trkpt lat="42.6804214" lon="12.4150658"><ele>498.0</ele><time>2026-04-07T10:05:28.843Z</time></trkpt><trkpt lat="42.6803571" lon="12.415105"><ele>498.0</ele><time>2026-04-07T10:05:29.838Z</time></trkpt><trkpt lat="42.6802944" lon="12.4151552"><ele>497.99999999999994</ele><time>2026-04-07T10:05:30.834Z</time></trkpt><trkpt lat="42.6802257" lon="12.4152156"><ele>498.0</ele><time>2026-04-07T10:05:31.849Z</time></trkpt><trkpt lat="42.6801666" lon="12.4152865"><ele>498.0</ele><time>2026-04-07T10:05:32.837Z</time></trkpt><trkpt lat="42.6801138" lon="12.4153647"><ele>499.3333333333333</ele><time>2026-04-07T10:05:33.846Z</time></trkpt><trkpt lat="42.6800637" lon="12.4154544"><ele>500.66666666666663</ele><time>2026-04-07T10:05:34.865Z</time></trkpt><trkpt lat="42.6800168" lon="12.4155495"><ele>502.0</ele><time>2026-04-07T10:05:35.85Z</time></trkpt><trkpt lat="42.6799794" lon="12.4156517"><ele>503.3333333333333</ele><time>2026-04-07T10:05:36.852Z</time></trkpt><trkpt lat="42.6799467" lon="12.41576"><ele>504.66666666666663</ele><time>2026-04-07T10:05:37.849Z</time></trkpt><trkpt lat="42.6799162" lon="12.4158836"><ele>506.0</ele><time>2026-04-07T10:05:38.84Z</time></trkpt><trkpt lat="42.6798817" lon="12.4160121"><ele>506.0</ele><time>2026-04-07T10:05:39.9Z</time></trkpt><trkpt lat="42.6798449" lon="12.4161516"><ele>506.0</ele><time>2026-04-07T10:05:40.876Z</time></trkpt><trkpt lat="42.6798056" lon="12.4162935"><ele>506.0</ele><time>2026-04-07T10:05:41.865Z</time></trkpt><trkpt lat="42.679767" lon="12.416439"><ele>506.0</ele><time>2026-04-07T10:05:42.863Z</time></trkpt><trkpt lat="42.679735" lon="12.4165723"><ele>506.0</ele><time>2026-04-07T10:05:43.853Z</time></trkpt><trkpt lat="42.6797135" lon="12.4167016"><ele>506.8333333333333</ele><time>2026-04-07T10:05:44.852Z</time></trkpt><trkpt lat="42.6797004" lon="12.4168278"><ele>507.66666666666663</ele><time>2026-04-07T10:05:45.85Z</time></trkpt><trkpt lat="42.6796945" lon="12.4169567"><ele>508.5</ele><time>2026-04-07T10:05:46.853Z</time></trkpt><trkpt lat="42.6796931" lon="12.4170764"><ele>509.33333333333337</ele><time>2026-04-07T10:05:47.867Z</time></trkpt><trkpt lat="42.6796951" lon="12.4171909"><ele>510.1666666666667</ele><time>2026-04-07T10:05:48.847Z</time></trkpt><trkpt lat="42.6797066" lon="12.4173039"><ele>511.0</ele><time>2026-04-07T10:05:49.842Z</time></trkpt><trkpt lat="42.6797289" lon="12.4174171"><ele>511.8</ele><time>2026-04-07T10:05:50.84Z</time></trkpt><trkpt lat="42.6797646" lon="12.4175083"><ele>512.6</ele><time>2026-04-07T10:05:51.846Z</time></trkpt><trkpt lat="42.679812" lon="12.4175938"><ele>513.4</ele><time>2026-04-07T10:05:52.835Z</time></trkpt><trkpt lat="42.6798691" lon="12.4176818"><ele>514.2</ele><time>2026-04-07T10:05:53.857Z</time></trkpt><trkpt lat="42.6799449" lon="12.4177849"><ele>515.0</ele><time>2026-04-07T10:05:54.854Z</time></trkpt><trkpt lat="42.6800232" lon="12.4178853"><ele>513.25</ele><time>2026-04-07T10:05:55.854Z</time></trkpt><trkpt lat="42.680108" lon="12.4179886"><ele>511.5</ele><time>2026-04-07T10:05:56.845Z</time></trkpt><trkpt lat="42.680201" lon="12.4180863"><ele>509.75</ele><time>2026-04-07T10:05:57.84Z</time></trkpt><trkpt lat="42.6802897" lon="12.4181879"><ele>508.0</ele><time>2026-04-07T10:05:58.845Z</time></trkpt><trkpt lat="42.6803696" lon="12.4182924"><ele>511.0</ele><time>2026-04-07T10:05:59.853Z</time></trkpt><trkpt lat="42.6804313" lon="12.4184085"><ele>514.0</ele><time>2026-04-07T10:06:00.853Z</time></trkpt><trkpt lat="42.6804826" lon="12.4185487"><ele>517.0</ele><time>2026-04-07T10:06:01.858Z</time></trkpt><trkpt lat="42.6805221" lon="12.4187147"><ele>520.0</ele><time>2026-04-07T10:06:02.854Z</time></trkpt><trkpt lat="42.6805538" lon="12.4189168"><ele>520.0</ele><time>2026-04-07T10:06:03.85Z</time></trkpt><trkpt lat="42.6805815" lon="12.4191206"><ele>520.0</ele><time>2026-04-07T10:06:04.853Z</time></trkpt><trkpt lat="42.6806025" lon="12.4193068"><ele>520.0</ele><time>2026-04-07T10:06:05.856Z</time></trkpt><trkpt lat="42.6806081" lon="12.4194759"><ele>520.0</ele><time>2026-04-07T10:06:06.876Z</time></trkpt><trkpt lat="42.6806069" lon="12.4196254"><ele>519.6</ele><time>2026-04-07T10:06:07.852Z</time></trkpt><trkpt lat="42.6806002" lon="12.4197739"><ele>519.2</ele><time>2026-04-07T10:06:08.847Z</time></trkpt><trkpt lat="42.6805855" lon="12.4199277"><ele>518.8</ele><time>2026-04-07T10:06:09.852Z</time></trkpt><trkpt lat="42.6805643" lon="12.4200801"><ele>518.4</ele><time>2026-04-07T10:06:10.848Z</time></trkpt><trkpt lat="42.6805366" lon="12.4202098"><ele>518.0</ele><time>2026-04-07T10:06:11.848Z</time></trkpt><trkpt lat="42.6805122" lon="12.4203247"><ele>518.0</ele><time>2026-04-07T10:06:12.833Z</time></trkpt><trkpt lat="42.6804937" lon="12.4204407"><ele>518.0</ele><time>2026-04-07T10:06:13.847Z</time></trkpt><trkpt lat="42.6804868" lon="12.4205787"><ele>518.0</ele><time>2026-04-07T10:06:14.852Z</time></trkpt><trkpt lat="42.6804852" lon="12.4207309"><ele>518.0</ele><time>2026-04-07T10:06:15.851Z</time></trkpt><trkpt lat="42.680493" lon="12.4208987"><ele>518.0</ele><time>2026-04-07T10:06:16.847Z</time></trkpt><trkpt lat="42.6805139" lon="12.4211065"><ele>514.6666666666666</ele><time>2026-04-07T10:06:17.851Z</time></trkpt><trkpt lat="42.6805427" lon="12.4213446"><ele>511.33333333333337</ele><time>2026-04-07T10:06:18.845Z</time></trkpt><trkpt lat="42.6805771" lon="12.4215776"><ele>508.0</ele><time>2026-04-07T10:06:19.847Z</time></trkpt><trkpt lat="42.6806077" lon="12.421778"><ele>508.0</ele><time>2026-04-07T10:06:20.854Z</time></trkpt><trkpt lat="42.6806428" lon="12.4219665"><ele>508.0</ele><time>2026-04-07T10:06:21.846Z</time></trkpt><trkpt lat="42.6806711" lon="12.4221583"><ele>508.0</ele><time>2026-04-07T10:06:22.849Z</time></trkpt><trkpt lat="42.6806955" lon="12.4223542"><ele>508.0</ele><time>2026-04-07T10:06:23.847Z</time></trkpt><trkpt lat="42.6807169" lon="12.4225534"><ele>507.33333333333337</ele><time>2026-04-07T10:06:24.848Z</time></trkpt><trkpt lat="42.6807327" lon="12.4227676"><ele>506.66666666666663</ele><time>2026-04-07T10:06:25.848Z</time></trkpt><trkpt lat="42.6807437" lon="12.4229723"><ele>506.0</ele><time>2026-04-07T10:06:26.837Z</time></trkpt><trkpt lat="42.6807483" lon="12.4231638"><ele>505.0</ele><time>2026-04-07T10:06:27.856Z</time></trkpt><trkpt lat="42.680753" lon="12.4233421"><ele>504.0</ele><time>2026-04-07T10:06:28.849Z</time></trkpt><trkpt lat="42.6807546" lon="12.4235127"><ele>503.0</ele><time>2026-04-07T10:06:29.841Z</time></trkpt><trkpt lat="42.6807496" lon="12.4236748"><ele>502.0</ele><time>2026-04-07T10:06:30.846Z</time></trkpt><trkpt lat="42.6807403" lon="12.423831"><ele>501.40000000000003</ele><time>2026-04-07T10:06:31.843Z</time></trkpt><trkpt lat="42.6807369" lon="12.4239711"><ele>500.80000000000007</ele><time>2026-04-07T10:06:32.841Z</time></trkpt><trkpt lat="42.680738" lon="12.4241056"><ele>500.2</ele><time>2026-04-07T10:06:33.845Z</time></trkpt><trkpt lat="42.6807443" lon="12.4242371"><ele>499.6</ele><time>2026-04-07T10:06:34.865Z</time></trkpt><trkpt lat="42.6807522" lon="12.4243681"><ele>499.0</ele><time>2026-04-07T10:06:35.845Z</time></trkpt><trkpt lat="42.6807665" lon="12.4245051"><ele>499.0</ele><time>2026-04-07T10:06:36.839Z</time></trkpt><trkpt lat="42.680785" lon="12.4246441"><ele>499.0</ele><time>2026-04-07T10:06:37.879Z</time></trkpt><trkpt lat="42.6808033" lon="12.4247899"><ele>499.0</ele><time>2026-04-07T10:06:38.861Z</time></trkpt><trkpt lat="42.6808103" lon="12.4249398"><ele>499.0</ele><time>2026-04-07T10:06:39.839Z</time></trkpt><trkpt lat="42.6808066" lon="12.4251063"><ele>499.0</ele><time>2026-04-07T10:06:40.84Z</time></trkpt><trkpt lat="42.6807762" lon="12.4252744"><ele>497.33333333333337</ele><time>2026-04-07T10:06:41.847Z</time></trkpt><trkpt lat="42.6807213" lon="12.4254549"><ele>495.66666666666663</ele><time>2026-04-07T10:06:42.871Z</time></trkpt><trkpt lat="42.6806494" lon="12.4256716"><ele>494.0</ele><time>2026-04-07T10:06:43.851Z</time></trkpt><trkpt lat="42.6805783" lon="12.4258996"><ele>492.66666666666663</ele><time>2026-04-07T10:06:44.849Z</time></trkpt><trkpt lat="42.6805178" lon="12.4261102"><ele>491.33333333333337</ele><time>2026-04-07T10:06:45.842Z</time></trkpt><trkpt lat="42.6804664" lon="12.4263025"><ele>490.0</ele><time>2026-04-07T10:06:46.847Z</time></trkpt><trkpt lat="42.6804106" lon="12.4264735"><ele>489.25</ele><time>2026-04-07T10:06:47.849Z</time></trkpt><trkpt lat="42.6803579" lon="12.4266242"><ele>488.5</ele><time>2026-04-07T10:06:48.848Z</time></trkpt><trkpt lat="42.6802975" lon="12.4267723"><ele>487.75</ele><time>2026-04-07T10:06:49.852Z</time></trkpt><trkpt lat="42.6802407" lon="12.4269122"><ele>487.0</ele><time>2026-04-07T10:06:50.85Z</time></trkpt><trkpt lat="42.6801902" lon="12.4270298"><ele>486.5</ele><time>2026-04-07T10:06:51.852Z</time></trkpt><trkpt lat="42.6801461" lon="12.427151"><ele>486.0</ele><time>2026-04-07T10:06:52.847Z</time></trkpt><trkpt lat="42.6800931" lon="12.427288"><ele>485.5</ele><time>2026-04-07T10:06:53.839Z</time></trkpt><trkpt lat="42.6800345" lon="12.4274488"><ele>485.0</ele><time>2026-04-07T10:06:54.854Z</time></trkpt><trkpt lat="42.6799731" lon="12.4276171"><ele>485.0</ele><time>2026-04-07T10:06:55.842Z</time></trkpt><trkpt lat="42.6799045" lon="12.4277942"><ele>485.0</ele><time>2026-04-07T10:06:56.835Z</time></trkpt><trkpt lat="42.6798341" lon="12.4279793"><ele>485.0</ele><time>2026-04-07T10:06:57.862Z</time></trkpt><trkpt lat="42.6797721" lon="12.4281506"><ele>485.0</ele><time>2026-04-07T10:06:58.844Z</time></trkpt><trkpt lat="42.6797095" lon="12.4283146"><ele>483.5</ele><time>2026-04-07T10:06:59.837Z</time></trkpt><trkpt lat="42.6796451" lon="12.4284834"><ele>482.0</ele><time>2026-04-07T10:07:00.836Z</time></trkpt><trkpt lat="42.6795816" lon="12.4286523"><ele>480.5</ele><time>2026-04-07T10:07:01.848Z</time></trkpt><trkpt lat="42.6795238" lon="12.428816"><ele>479.0</ele><time>2026-04-07T10:07:02.834Z</time></trkpt><trkpt lat="42.6794544" lon="12.4289749"><ele>477.0</ele><time>2026-04-07T10:07:03.842Z</time></trkpt><trkpt lat="42.6793619" lon="12.4291465"><ele>475.0</ele><time>2026-04-07T10:07:04.839Z</time></trkpt><trkpt lat="42.679269" lon="12.429322"><ele>473.0</ele><time>2026-04-07T10:07:05.86Z</time></trkpt><trkpt lat="42.6791855" lon="12.4294665"><ele>473.0</ele><time>2026-04-07T10:07:06.845Z</time></trkpt><trkpt lat="42.6791127" lon="12.4295934"><ele>472.99999999999994</ele><time>2026-04-07T10:07:07.848Z</time></trkpt><trkpt lat="42.6790407" lon="12.4297019"><ele>472.99999999999994</ele><time>2026-04-07T10:07:08.843Z</time></trkpt><trkpt lat="42.6789716" lon="12.4298108"><ele>473.0</ele><time>2026-04-07T10:07:09.847Z</time></trkpt><trkpt lat="42.6789064" lon="12.4299323"><ele>473.0</ele><time>2026-04-07T10:07:10.845Z</time></trkpt><trkpt lat="42.6788467" lon="12.4300835"><ele>473.0</ele><time>2026-04-07T10:07:11.842Z</time></trkpt><trkpt lat="42.6787948" lon="12.4302481"><ele>473.0</ele><time>2026-04-07T10:07:12.869Z</time></trkpt><trkpt lat="42.678754" lon="12.4304189"><ele>473.0</ele><time>2026-04-07T10:07:13.844Z</time></trkpt><trkpt lat="42.6787172" lon="12.4306165"><ele>473.0</ele><time>2026-04-07T10:07:14.832Z</time></trkpt><trkpt lat="42.678684" lon="12.4308315"><ele>473.3333333333333</ele><time>2026-04-07T10:07:15.846Z</time></trkpt><trkpt lat="42.6786559" lon="12.4310442"><ele>473.66666666666663</ele><time>2026-04-07T10:07:16.849Z</time></trkpt><trkpt lat="42.6786408" lon="12.4312494"><ele>474.0</ele><time>2026-04-07T10:07:17.858Z</time></trkpt><trkpt lat="42.6786233" lon="12.4314472"><ele>473.0</ele><time>2026-04-07T10:07:18.84Z</time></trkpt><trkpt lat="42.6785997" lon="12.4316416"><ele>472.0</ele><time>2026-04-07T10:07:19.846Z</time></trkpt><trkpt lat="42.6785677" lon="12.4318292"><ele>471.0</ele><time>2026-04-07T10:07:20.846Z</time></trkpt><trkpt lat="42.6785298" lon="12.43201"><ele>470.0</ele><time>2026-04-07T10:07:21.843Z</time></trkpt><trkpt lat="42.6784834" lon="12.4321907"><ele>470.0</ele><time>2026-04-07T10:07:22.849Z</time></trkpt><trkpt lat="42.6784386" lon="12.4323788"><ele>470.0</ele><time>2026-04-07T10:07:23.856Z</time></trkpt><trkpt lat="42.6783915" lon="12.4325715"><ele>470.0</ele><time>2026-04-07T10:07:24.865Z</time></trkpt><trkpt lat="42.6783361" lon="12.4327678"><ele>470.0</ele><time>2026-04-07T10:07:25.84Z</time></trkpt><trkpt lat="42.6782706" lon="12.4329607"><ele>470.3333333333333</ele><time>2026-04-07T10:07:26.857Z</time></trkpt><trkpt lat="42.6781961" lon="12.4331532"><ele>470.66666666666663</ele><time>2026-04-07T10:07:27.859Z</time></trkpt><trkpt lat="42.6781215" lon="12.4333507"><ele>471.0</ele><time>2026-04-07T10:07:28.851Z</time></trkpt><trkpt lat="42.678058" lon="12.4335409"><ele>471.0</ele><time>2026-04-07T10:07:29.85Z</time></trkpt><trkpt lat="42.6780065" lon="12.4337064"><ele>471.0</ele><time>2026-04-07T10:07:30.867Z</time></trkpt><trkpt lat="42.6779611" lon="12.4338599"><ele>471.0</ele><time>2026-04-07T10:07:31.862Z</time></trkpt><trkpt lat="42.6779321" lon="12.4340047"><ele>471.0</ele><time>2026-04-07T10:07:32.842Z</time></trkpt><trkpt lat="42.6779182" lon="12.4341483"><ele>471.8</ele><time>2026-04-07T10:07:33.859Z</time></trkpt><trkpt lat="42.6779113" lon="12.4342925"><ele>472.6</ele><time>2026-04-07T10:07:34.856Z</time></trkpt><trkpt lat="42.6779063" lon="12.434445"><ele>473.4</ele><time>2026-04-07T10:07:35.841Z</time></trkpt><trkpt lat="42.6778966" lon="12.4345936"><ele>474.2</ele><time>2026-04-07T10:07:36.853Z</time></trkpt><trkpt lat="42.6778725" lon="12.434729"><ele>475.0</ele><time>2026-04-07T10:07:37.832Z</time></trkpt><trkpt lat="42.6778408" lon="12.4348615"><ele>474.6</ele><time>2026-04-07T10:07:38.848Z</time></trkpt><trkpt lat="42.6777941" lon="12.4349771"><ele>474.2</ele><time>2026-04-07T10:07:39.853Z</time></trkpt><trkpt lat="42.6777353" lon="12.4350756"><ele>473.79999999999995</ele><time>2026-04-07T10:07:40.857Z</time></trkpt><trkpt lat="42.6776525" lon="12.4351635"><ele>473.4</ele><time>2026-04-07T10:07:41.85Z</time></trkpt><trkpt lat="42.6775643" lon="12.435251"><ele>473.0</ele><time>2026-04-07T10:07:42.854Z</time></trkpt><trkpt lat="42.6774859" lon="12.4353336"><ele>472.99999999999994</ele><time>2026-04-07T10:07:43.863Z</time></trkpt><trkpt lat="42.6774294" lon="12.4354239"><ele>473.0</ele><time>2026-04-07T10:07:44.859Z</time></trkpt><trkpt lat="42.6773752" lon="12.4355123"><ele>473.0</ele><time>2026-04-07T10:07:45.855Z</time></trkpt><trkpt lat="42.6773213" lon="12.4356019"><ele>473.0</ele><time>2026-04-07T10:07:46.854Z</time></trkpt><trkpt lat="42.6772621" lon="12.4356993"><ele>472.99999999999994</ele><time>2026-04-07T10:07:47.86Z</time></trkpt><trkpt lat="42.677202" lon="12.4358046"><ele>473.0</ele><time>2026-04-07T10:07:48.864Z</time></trkpt><trkpt lat="42.6771493" lon="12.4359195"><ele>474.3333333333333</ele><time>2026-04-07T10:07:49.847Z</time></trkpt><trkpt lat="42.677107" lon="12.4360363"><ele>475.66666666666663</ele><time>2026-04-07T10:07:50.848Z</time></trkpt><trkpt lat="42.6770712" lon="12.4361463"><ele>477.0</ele><time>2026-04-07T10:07:51.852Z</time></trkpt><trkpt lat="42.6770472" lon="12.436248"><ele>478.33333333333337</ele><time>2026-04-07T10:07:52.856Z</time></trkpt><trkpt lat="42.6770279" lon="12.4363428"><ele>479.6666666666667</ele><time>2026-04-07T10:07:53.865Z</time></trkpt><trkpt lat="42.6770062" lon="12.4364328"><ele>481.0</ele><time>2026-04-07T10:07:54.845Z</time></trkpt><trkpt lat="42.676962" lon="12.4365322"><ele>481.00000000000006</ele><time>2026-04-07T10:07:56.843Z</time></trkpt><trkpt lat="42.6769243" lon="12.436613"><ele>481.0</ele><time>2026-04-07T10:07:59.856Z</time></trkpt><trkpt lat="42.6769749" lon="12.4365364"><ele>481.0</ele><time>2026-04-07T10:08:03.856Z</time></trkpt><trkpt lat="42.6770003" lon="12.4364414"><ele>481.0</ele><time>2026-04-07T10:08:04.839Z</time></trkpt><trkpt lat="42.6770244" lon="12.4363467"><ele>481.00000000000006</ele><time>2026-04-07T10:08:05.853Z</time></trkpt><trkpt lat="42.6770669" lon="12.4361836"><ele>481.0</ele><time>2026-04-07T10:08:07.845Z</time></trkpt><trkpt lat="42.6770899" lon="12.4360947"><ele>481.0</ele><time>2026-04-07T10:08:08.861Z</time></trkpt><trkpt lat="42.6771409" lon="12.4359406"><ele>481.0</ele><time>2026-04-07T10:08:10.836Z</time></trkpt><trkpt lat="42.6772014" lon="12.4357936"><ele>481.0</ele><time>2026-04-07T10:08:12.856Z</time></trkpt><trkpt lat="42.6772688" lon="12.4356661"><ele>481.0</ele><time>2026-04-07T10:08:14.851Z</time></trkpt><trkpt lat="42.6773504" lon="12.4355467"><ele>479.6666666666667</ele><time>2026-04-07T10:08:16.855Z</time></trkpt><trkpt lat="42.6774377" lon="12.4354249"><ele>478.33333333333337</ele><time>2026-04-07T10:08:18.84Z</time></trkpt><trkpt lat="42.6774864" lon="12.4353599"><ele>477.0</ele><time>2026-04-07T10:08:19.855Z</time></trkpt><trkpt lat="42.6775365" lon="12.4352978"><ele>475.66666666666663</ele><time>2026-04-07T10:08:20.842Z</time></trkpt><trkpt lat="42.6775865" lon="12.4352409"><ele>474.3333333333333</ele><time>2026-04-07T10:08:21.848Z</time></trkpt><trkpt lat="42.6776834" lon="12.4351561"><ele>473.0</ele><time>2026-04-07T10:08:23.837Z</time></trkpt><trkpt lat="42.6777573" lon="12.4350807"><ele>473.4</ele><time>2026-04-07T10:08:25.844Z</time></trkpt><trkpt lat="42.6778273" lon="12.4349565"><ele>473.79999999999995</ele><time>2026-04-07T10:08:27.856Z</time></trkpt><trkpt lat="42.6778549" lon="12.4348542"><ele>474.2</ele><time>2026-04-07T10:08:28.842Z</time></trkpt><trkpt lat="42.6778773" lon="12.4347272"><ele>474.6</ele><time>2026-04-07T10:08:29.843Z</time></trkpt><trkpt lat="42.6778904" lon="12.4345871"><ele>475.0</ele><time>2026-04-07T10:08:30.84Z</time></trkpt><trkpt lat="42.6778956" lon="12.4344417"><ele>475.0</ele><time>2026-04-07T10:08:31.843Z</time></trkpt><trkpt lat="42.677901" lon="12.4342845"><ele>475.0</ele><time>2026-04-07T10:08:32.841Z</time></trkpt><trkpt lat="42.6779109" lon="12.4341363"><ele>475.0</ele><time>2026-04-07T10:08:33.844Z</time></trkpt><trkpt lat="42.6779306" lon="12.4340027"><ele>475.0</ele><time>2026-04-07T10:08:34.831Z</time></trkpt><trkpt lat="42.6779588" lon="12.4338911"><ele>475.0</ele><time>2026-04-07T10:08:35.844Z</time></trkpt><trkpt lat="42.6779895" lon="12.4337701"><ele>474.0</ele><time>2026-04-07T10:08:36.838Z</time></trkpt><trkpt lat="42.6780346" lon="12.4336322"><ele>473.0</ele><time>2026-04-07T10:08:37.832Z</time></trkpt><trkpt lat="42.6780878" lon="12.4334762"><ele>472.0</ele><time>2026-04-07T10:08:38.837Z</time></trkpt><trkpt lat="42.6781446" lon="12.4333117"><ele>471.0</ele><time>2026-04-07T10:08:39.861Z</time></trkpt><trkpt lat="42.6782057" lon="12.4331309"><ele>470.75</ele><time>2026-04-07T10:08:40.858Z</time></trkpt><trkpt lat="42.6782712" lon="12.4329353"><ele>470.5</ele><time>2026-04-07T10:08:41.84Z</time></trkpt><trkpt lat="42.6783285" lon="12.4327471"><ele>470.25</ele><time>2026-04-07T10:08:42.844Z</time></trkpt><trkpt lat="42.6783805" lon="12.4325687"><ele>470.0</ele><time>2026-04-07T10:08:43.84Z</time></trkpt><trkpt lat="42.6784287" lon="12.4324016"><ele>470.0</ele><time>2026-04-07T10:08:44.838Z</time></trkpt><trkpt lat="42.67847" lon="12.4322322"><ele>470.0</ele><time>2026-04-07T10:08:45.859Z</time></trkpt><trkpt lat="42.6785157" lon="12.4320663"><ele>470.0</ele><time>2026-04-07T10:08:46.838Z</time></trkpt><trkpt lat="42.6785561" lon="12.4318924"><ele>470.0</ele><time>2026-04-07T10:08:47.844Z</time></trkpt><trkpt lat="42.6785942" lon="12.4317166"><ele>470.25</ele><time>2026-04-07T10:08:48.846Z</time></trkpt><trkpt lat="42.6786263" lon="12.4315403"><ele>470.5</ele><time>2026-04-07T10:08:49.856Z</time></trkpt><trkpt lat="42.6786427" lon="12.4313465"><ele>470.75</ele><time>2026-04-07T10:08:50.839Z</time></trkpt><trkpt lat="42.6786532" lon="12.4311485"><ele>471.0</ele><time>2026-04-07T10:08:51.857Z</time></trkpt><trkpt lat="42.6786653" lon="12.4309677"><ele>471.5</ele><time>2026-04-07T10:08:52.853Z</time></trkpt><trkpt lat="42.6786862" lon="12.4307971"><ele>472.0</ele><time>2026-04-07T10:08:53.841Z</time></trkpt><trkpt lat="42.678714" lon="12.4306319"><ele>472.5</ele><time>2026-04-07T10:08:54.843Z</time></trkpt><trkpt lat="42.6787447" lon="12.4304739"><ele>473.0</ele><time>2026-04-07T10:08:55.845Z</time></trkpt><trkpt lat="42.6787746" lon="12.4303315"><ele>472.99999999999994</ele><time>2026-04-07T10:08:56.84Z</time></trkpt><trkpt lat="42.6788074" lon="12.4302043"><ele>473.0</ele><time>2026-04-07T10:08:57.843Z</time></trkpt><trkpt lat="42.6788426" lon="12.4300918"><ele>473.0</ele><time>2026-04-07T10:08:58.857Z</time></trkpt><trkpt lat="42.6788799" lon="12.4299939"><ele>473.0</ele><time>2026-04-07T10:08:59.841Z</time></trkpt><trkpt lat="42.678916" lon="12.4299154"><ele>472.99999999999994</ele><time>2026-04-07T10:09:00.838Z</time></trkpt><trkpt lat="42.6789786" lon="12.4297995"><ele>473.0</ele><time>2026-04-07T10:09:02.844Z</time></trkpt><trkpt lat="42.6790595" lon="12.4296665"><ele>473.0</ele><time>2026-04-07T10:09:04.843Z</time></trkpt><trkpt lat="42.679112" lon="12.4295854"><ele>472.99999999999994</ele><time>2026-04-07T10:09:05.849Z</time></trkpt><trkpt lat="42.6791734" lon="12.4294839"><ele>472.99999999999994</ele><time>2026-04-07T10:09:06.837Z</time></trkpt><trkpt lat="42.6792401" lon="12.429365"><ele>473.0</ele><time>2026-04-07T10:09:07.837Z</time></trkpt><trkpt lat="42.6793098" lon="12.4292349"><ele>473.0</ele><time>2026-04-07T10:09:08.854Z</time></trkpt><trkpt lat="42.679387" lon="12.4290976"><ele>472.25</ele><time>2026-04-07T10:09:09.845Z</time></trkpt><trkpt lat="42.679467" lon="12.4289488"><ele>471.5</ele><time>2026-04-07T10:09:10.843Z</time></trkpt><trkpt lat="42.6795384" lon="12.4287921"><ele>470.75</ele><time>2026-04-07T10:09:11.836Z</time></trkpt><trkpt lat="42.6795972" lon="12.4286151"><ele>470.0</ele><time>2026-04-07T10:09:12.836Z</time></trkpt><trkpt lat="42.6796584" lon="12.4284363"><ele>472.25</ele><time>2026-04-07T10:09:13.846Z</time></trkpt><trkpt lat="42.6797294" lon="12.4282702"><ele>474.5</ele><time>2026-04-07T10:09:14.841Z</time></trkpt><trkpt lat="42.6798032" lon="12.4280922"><ele>476.75</ele><time>2026-04-07T10:09:15.837Z</time></trkpt><trkpt lat="42.6798708" lon="12.4279045"><ele>479.0</ele><time>2026-04-07T10:09:16.854Z</time></trkpt><trkpt lat="42.6799343" lon="12.4277271"><ele>480.5</ele><time>2026-04-07T10:09:17.852Z</time></trkpt><trkpt lat="42.6799944" lon="12.4275759"><ele>482.0</ele><time>2026-04-07T10:09:18.861Z</time></trkpt><trkpt lat="42.6800481" lon="12.4274513"><ele>483.5</ele><time>2026-04-07T10:09:19.867Z</time></trkpt><trkpt lat="42.6800982" lon="12.4273257"><ele>485.0</ele><time>2026-04-07T10:09:20.842Z</time></trkpt><trkpt lat="42.680156" lon="12.4271933"><ele>485.5</ele><time>2026-04-07T10:09:21.853Z</time></trkpt><trkpt lat="42.68021" lon="12.4270615"><ele>486.0</ele><time>2026-04-07T10:09:22.847Z</time></trkpt><trkpt lat="42.6802679" lon="12.4269133"><ele>486.5</ele><time>2026-04-07T10:09:23.855Z</time></trkpt><trkpt lat="42.680334" lon="12.4267475"><ele>487.0</ele><time>2026-04-07T10:09:24.838Z</time></trkpt><trkpt lat="42.680402" lon="12.4265605"><ele>487.0</ele><time>2026-04-07T10:09:25.847Z</time></trkpt><trkpt lat="42.6804593" lon="12.4263856"><ele>487.0</ele><time>2026-04-07T10:09:26.845Z</time></trkpt><trkpt lat="42.6805065" lon="12.426229"><ele>487.0</ele><time>2026-04-07T10:09:27.847Z</time></trkpt><trkpt lat="42.6805503" lon="12.4260851"><ele>487.0</ele><time>2026-04-07T10:09:28.85Z</time></trkpt><trkpt lat="42.6805868" lon="12.4259489"><ele>487.6</ele><time>2026-04-07T10:09:29.854Z</time></trkpt><trkpt lat="42.6806271" lon="12.4258187"><ele>488.20000000000005</ele><time>2026-04-07T10:09:30.858Z</time></trkpt><trkpt lat="42.6806716" lon="12.4256799"><ele>488.8</ele><time>2026-04-07T10:09:31.853Z</time></trkpt><trkpt lat="42.6807204" lon="12.4255384"><ele>489.4</ele><time>2026-04-07T10:09:32.836Z</time></trkpt><trkpt lat="42.6807658" lon="12.4254047"><ele>490.0</ele><time>2026-04-07T10:09:33.847Z</time></trkpt><trkpt lat="42.6808027" lon="12.4252773"><ele>490.8</ele><time>2026-04-07T10:09:34.856Z</time></trkpt><trkpt lat="42.6808284" lon="12.4251454"><ele>491.6</ele><time>2026-04-07T10:09:35.841Z</time></trkpt><trkpt lat="42.6808379" lon="12.425005"><ele>492.4</ele><time>2026-04-07T10:09:36.86Z</time></trkpt><trkpt lat="42.6808283" lon="12.4248608"><ele>493.2</ele><time>2026-04-07T10:09:37.858Z</time></trkpt><trkpt lat="42.6808063" lon="12.4247065"><ele>494.0</ele><time>2026-04-07T10:09:38.85Z</time></trkpt><trkpt lat="42.6807834" lon="12.4245489"><ele>495.0</ele><time>2026-04-07T10:09:39.847Z</time></trkpt><trkpt lat="42.6807663" lon="12.4244045"><ele>496.0</ele><time>2026-04-07T10:09:40.844Z</time></trkpt><trkpt lat="42.6807599" lon="12.4242617"><ele>497.0</ele><time>2026-04-07T10:09:41.858Z</time></trkpt><trkpt lat="42.680749" lon="12.4241129"><ele>498.0</ele><time>2026-04-07T10:09:42.854Z</time></trkpt><trkpt lat="42.6807479" lon="12.4239496"><ele>499.0</ele><time>2026-04-07T10:09:43.858Z</time></trkpt><trkpt lat="42.6807535" lon="12.4237773"><ele>499.75</ele><time>2026-04-07T10:09:44.857Z</time></trkpt><trkpt lat="42.6807596" lon="12.423604"><ele>500.5</ele><time>2026-04-07T10:09:45.848Z</time></trkpt><trkpt lat="42.6807615" lon="12.4234401"><ele>501.25</ele><time>2026-04-07T10:09:46.854Z</time></trkpt><trkpt lat="42.6807558" lon="12.4232755"><ele>502.0</ele><time>2026-04-07T10:09:47.858Z</time></trkpt><trkpt lat="42.6807539" lon="12.4231082"><ele>503.0</ele><time>2026-04-07T10:09:48.841Z</time></trkpt><trkpt lat="42.6807486" lon="12.4229413"><ele>504.0</ele><time>2026-04-07T10:09:49.84Z</time></trkpt><trkpt lat="42.6807412" lon="12.4227653"><ele>505.0</ele><time>2026-04-07T10:09:50.858Z</time></trkpt><trkpt lat="42.680726" lon="12.4225811"><ele>506.0</ele><time>2026-04-07T10:09:51.866Z</time></trkpt><trkpt lat="42.6807057" lon="12.4223827"><ele>506.0</ele><time>2026-04-07T10:09:52.837Z</time></trkpt><trkpt lat="42.6806788" lon="12.4221799"><ele>506.0</ele><time>2026-04-07T10:09:53.851Z</time></trkpt><trkpt lat="42.6806486" lon="12.4219896"><ele>506.0</ele><time>2026-04-07T10:09:54.866Z</time></trkpt><trkpt lat="42.6806183" lon="12.4218146"><ele>506.0</ele><time>2026-04-07T10:09:55.854Z</time></trkpt><trkpt lat="42.6805902" lon="12.4216434"><ele>506.4</ele><time>2026-04-07T10:09:56.872Z</time></trkpt><trkpt lat="42.6805658" lon="12.4214893"><ele>506.8</ele><time>2026-04-07T10:09:57.854Z</time></trkpt><trkpt lat="42.680546" lon="12.4213484"><ele>507.19999999999993</ele><time>2026-04-07T10:09:58.851Z</time></trkpt><trkpt lat="42.6805303" lon="12.421206"><ele>507.59999999999997</ele><time>2026-04-07T10:09:59.858Z</time></trkpt><trkpt lat="42.6805123" lon="12.4210638"><ele>508.0</ele><time>2026-04-07T10:10:00.858Z</time></trkpt><trkpt lat="42.6804989" lon="12.4209331"><ele>509.00000000000006</ele><time>2026-04-07T10:10:01.843Z</time></trkpt><trkpt lat="42.6804917" lon="12.4208121"><ele>510.0</ele><time>2026-04-07T10:10:02.855Z</time></trkpt><trkpt lat="42.680486" lon="12.4206903"><ele>511.0</ele><time>2026-04-07T10:10:03.858Z</time></trkpt><trkpt lat="42.6804857" lon="12.420581"><ele>512.0</ele><time>2026-04-07T10:10:04.849Z</time></trkpt><trkpt lat="42.6804906" lon="12.4204877"><ele>513.0</ele><time>2026-04-07T10:10:05.841Z</time></trkpt><trkpt lat="42.6805015" lon="12.4204005"><ele>514.0</ele><time>2026-04-07T10:10:07.858Z</time></trkpt><trkpt lat="42.6805254" lon="12.4203189"><ele>514.6666666666667</ele><time>2026-04-07T10:10:12.841Z</time></trkpt><trkpt lat="42.6805525" lon="12.4202121"><ele>515.3333333333334</ele><time>2026-04-07T10:11:19.836Z</time></trkpt><trkpt lat="42.6805617" lon="12.4201225"><ele>516.0</ele><time>2026-04-07T10:11:20.848Z</time></trkpt><trkpt lat="42.6805763" lon="12.4200211"><ele>516.6666666666666</ele><time>2026-04-07T10:11:21.863Z</time></trkpt><trkpt lat="42.6805908" lon="12.4199077"><ele>517.3333333333333</ele><time>2026-04-07T10:11:22.85Z</time></trkpt><trkpt lat="42.6806024" lon="12.4197829"><ele>518.0</ele><time>2026-04-07T10:11:23.853Z</time></trkpt><trkpt lat="42.680609" lon="12.4196488"><ele>518.4</ele><time>2026-04-07T10:11:24.851Z</time></trkpt><trkpt lat="42.6806099" lon="12.4195189"><ele>518.8</ele><time>2026-04-07T10:11:25.847Z</time></trkpt><trkpt lat="42.6805983" lon="12.419384"><ele>519.2</ele><time>2026-04-07T10:11:26.875Z</time></trkpt><trkpt lat="42.6805837" lon="12.4192556"><ele>519.6</ele><time>2026-04-07T10:11:27.834Z</time></trkpt><trkpt lat="42.6805673" lon="12.4191274"><ele>520.0</ele><time>2026-04-07T10:11:28.848Z</time></trkpt><trkpt lat="42.6805491" lon="12.4190044"><ele>520.0</ele><time>2026-04-07T10:11:29.853Z</time></trkpt><trkpt lat="42.6805346" lon="12.4188838"><ele>520.0</ele><time>2026-04-07T10:11:30.851Z</time></trkpt><trkpt lat="42.6805202" lon="12.4187624"><ele>520.0</ele><time>2026-04-07T10:11:31.853Z</time></trkpt><trkpt lat="42.680497" lon="12.4186345"><ele>520.0</ele><time>2026-04-07T10:11:32.854Z</time></trkpt><trkpt lat="42.6804538" lon="12.4184898"><ele>520.0</ele><time>2026-04-07T10:11:33.855Z</time></trkpt><trkpt lat="42.680395" lon="12.4183407"><ele>520.75</ele><time>2026-04-07T10:11:34.851Z</time></trkpt><trkpt lat="42.6803213" lon="12.4182137"><ele>521.5</ele><time>2026-04-07T10:11:35.849Z</time></trkpt><trkpt lat="42.6802333" lon="12.4181007"><ele>522.25</ele><time>2026-04-07T10:11:36.856Z</time></trkpt><trkpt lat="42.6801409" lon="12.4179936"><ele>523.0</ele><time>2026-04-07T10:11:37.848Z</time></trkpt><trkpt lat="42.6800626" lon="12.4178983"><ele>521.6666666666667</ele><time>2026-04-07T10:11:38.855Z</time></trkpt><trkpt lat="42.6799848" lon="12.4178057"><ele>520.3333333333334</ele><time>2026-04-07T10:11:39.852Z</time></trkpt><trkpt lat="42.6799165" lon="12.4177285"><ele>519.0</ele><time>2026-04-07T10:11:40.861Z</time></trkpt><trkpt lat="42.6798549" lon="12.4176523"><ele>517.6666666666666</ele><time>2026-04-07T10:11:41.852Z</time></trkpt><trkpt lat="42.6797979" lon="12.417572"><ele>516.3333333333333</ele><time>2026-04-07T10:11:42.849Z</time></trkpt><trkpt lat="42.6797527" lon="12.4174863"><ele>515.0</ele><time>2026-04-07T10:11:43.85Z</time></trkpt><trkpt lat="42.679717" lon="12.4173953"><ele>515.0</ele><time>2026-04-07T10:11:44.861Z</time></trkpt><trkpt lat="42.6796974" lon="12.4172864"><ele>515.0</ele><time>2026-04-07T10:11:45.846Z</time></trkpt><trkpt lat="42.6796885" lon="12.417168"><ele>515.0</ele><time>2026-04-07T10:11:46.849Z</time></trkpt><trkpt lat="42.6796872" lon="12.4170441"><ele>515.0</ele><time>2026-04-07T10:11:47.85Z</time></trkpt><trkpt lat="42.6796904" lon="12.4169182"><ele>515.0</ele><time>2026-04-07T10:11:48.861Z</time></trkpt><trkpt lat="42.6797016" lon="12.4167935"><ele>515.0</ele><time>2026-04-07T10:11:49.85Z</time></trkpt><trkpt lat="42.6797201" lon="12.4166826"><ele>514.3333333333333</ele><time>2026-04-07T10:11:50.87Z</time></trkpt><trkpt lat="42.679743" lon="12.4165774"><ele>513.6666666666666</ele><time>2026-04-07T10:11:51.859Z</time></trkpt><trkpt lat="42.6797632" lon="12.4164824"><ele>513.0</ele><time>2026-04-07T10:11:52.854Z</time></trkpt><trkpt lat="42.6798005" lon="12.4163521"><ele>512.3333333333334</ele><time>2026-04-07T10:11:54.865Z</time></trkpt><trkpt lat="42.6798195" lon="12.4162428"><ele>511.6666666666667</ele><time>2026-04-07T10:11:57.859Z</time></trkpt><trkpt lat="42.6797605" lon="12.4163058"><ele>511.0</ele><time>2026-04-07T10:12:02.846Z</time></trkpt><trkpt lat="42.6797506" lon="12.4164461"><ele>511.00000000000006</ele><time>2026-04-07T10:12:04.852Z</time></trkpt><trkpt lat="42.6797251" lon="12.4165403"><ele>511.0</ele><time>2026-04-07T10:12:05.852Z</time></trkpt><trkpt lat="42.6797003" lon="12.4166357"><ele>511.0</ele><time>2026-04-07T10:12:06.845Z</time></trkpt><trkpt lat="42.6796814" lon="12.4167416"><ele>511.0</ele><time>2026-04-07T10:12:07.852Z</time></trkpt><trkpt lat="42.6796739" lon="12.4168584"><ele>511.00000000000006</ele><time>2026-04-07T10:12:08.848Z</time></trkpt><trkpt lat="42.6796685" lon="12.4169795"><ele>511.0</ele><time>2026-04-07T10:12:09.848Z</time></trkpt><trkpt lat="42.679666" lon="12.4170852"><ele>511.6666666666667</ele><time>2026-04-07T10:12:10.852Z</time></trkpt><trkpt lat="42.6796665" lon="12.4171772"><ele>512.3333333333334</ele><time>2026-04-07T10:12:11.836Z</time></trkpt><trkpt lat="42.679693" lon="12.4173501"><ele>513.0</ele><time>2026-04-07T10:12:13.846Z</time></trkpt><trkpt lat="42.6797196" lon="12.4174367"><ele>513.6666666666666</ele><time>2026-04-07T10:12:14.852Z</time></trkpt><trkpt lat="42.6797532" lon="12.4175147"><ele>514.3333333333333</ele><time>2026-04-07T10:12:15.852Z</time></trkpt><trkpt lat="42.6797993" lon="12.4175879"><ele>515.0</ele><time>2026-04-07T10:12:16.854Z</time></trkpt><trkpt lat="42.6798537" lon="12.4176673"><ele>515.0</ele><time>2026-04-07T10:12:17.847Z</time></trkpt><trkpt lat="42.6799218" lon="12.417756"><ele>515.0</ele><time>2026-04-07T10:12:18.853Z</time></trkpt><trkpt lat="42.6799923" lon="12.4178471"><ele>515.0</ele><time>2026-04-07T10:12:19.838Z</time></trkpt><trkpt lat="42.680062" lon="12.4179339"><ele>515.0</ele><time>2026-04-07T10:12:20.851Z</time></trkpt><trkpt lat="42.6801337" lon="12.418016"><ele>515.0</ele><time>2026-04-07T10:12:21.861Z</time></trkpt><trkpt lat="42.6802053" lon="12.4181011"><ele>516.6</ele><time>2026-04-07T10:12:22.843Z</time></trkpt><trkpt lat="42.6802751" lon="12.4181948"><ele>518.2</ele><time>2026-04-07T10:12:23.849Z</time></trkpt><trkpt lat="42.6803444" lon="12.4182877"><ele>519.8</ele><time>2026-04-07T10:12:24.853Z</time></trkpt><trkpt lat="42.6804114" lon="12.4183806"><ele>521.4</ele><time>2026-04-07T10:12:25.852Z</time></trkpt><trkpt lat="42.6804715" lon="12.418506"><ele>523.0</ele><time>2026-04-07T10:12:26.834Z</time></trkpt><trkpt lat="42.6805186" lon="12.4186626"><ele>522.25</ele><time>2026-04-07T10:12:27.851Z</time></trkpt><trkpt lat="42.680546" lon="12.4188214"><ele>521.5</ele><time>2026-04-07T10:12:28.851Z</time></trkpt><trkpt lat="42.6805673" lon="12.4189837"><ele>520.75</ele><time>2026-04-07T10:12:29.847Z</time></trkpt><trkpt lat="42.6805896" lon="12.4191726"><ele>520.0</ele><time>2026-04-07T10:12:30.846Z</time></trkpt><trkpt lat="42.6806046" lon="12.4193462"><ele>520.0</ele><time>2026-04-07T10:12:31.852Z</time></trkpt><trkpt lat="42.6806176" lon="12.4194997"><ele>520.0</ele><time>2026-04-07T10:12:32.853Z</time></trkpt><trkpt lat="42.6806162" lon="12.4196391"><ele>520.0</ele><time>2026-04-07T10:12:33.861Z</time></trkpt><trkpt lat="42.6806035" lon="12.4197538"><ele>520.0</ele><time>2026-04-07T10:12:34.85Z</time></trkpt><trkpt lat="42.6805896" lon="12.4198523"><ele>520.0</ele><time>2026-04-07T10:12:35.837Z</time></trkpt><trkpt lat="42.6805784" lon="12.4199419"><ele>520.0</ele><time>2026-04-07T10:12:36.85Z</time></trkpt><trkpt lat="42.6805543" lon="12.4200886"><ele>519.6</ele><time>2026-04-07T10:12:38.85Z</time></trkpt><trkpt lat="42.6805357" lon="12.4202081"><ele>519.2</ele><time>2026-04-07T10:12:40.855Z</time></trkpt><trkpt lat="42.6805838" lon="12.4203138"><ele>518.8</ele><time>2026-04-07T10:12:43.841Z</time></trkpt><trkpt lat="42.6807002" lon="12.420363"><ele>518.4</ele><time>2026-04-07T10:12:45.847Z</time></trkpt><trkpt lat="42.680783" lon="12.4203885"><ele>518.0</ele><time>2026-04-07T10:12:46.85Z</time></trkpt><trkpt lat="42.6808763" lon="12.4204094"><ele>518.0</ele><time>2026-04-07T10:12:47.852Z</time></trkpt><trkpt lat="42.6809777" lon="12.4204382"><ele>518.0</ele><time>2026-04-07T10:12:48.861Z</time></trkpt><trkpt lat="42.6810828" lon="12.4204762"><ele>518.0</ele><time>2026-04-07T10:12:49.851Z</time></trkpt><trkpt lat="42.6811892" lon="12.4205192"><ele>518.0</ele><time>2026-04-07T10:12:50.848Z</time></trkpt><trkpt lat="42.6812904" lon="12.4205571"><ele>518.0</ele><time>2026-04-07T10:12:51.853Z</time></trkpt><trkpt lat="42.6813832" lon="12.4205726"><ele>517.7142857142857</ele><time>2026-04-07T10:12:52.854Z</time></trkpt><trkpt lat="42.6814705" lon="12.4205561"><ele>517.4285714285714</ele><time>2026-04-07T10:12:53.835Z</time></trkpt><trkpt lat="42.6815492" lon="12.4205236"><ele>517.1428571428571</ele><time>2026-04-07T10:12:54.852Z</time></trkpt><trkpt lat="42.6816121" lon="12.4204808"><ele>516.8571428571429</ele><time>2026-04-07T10:12:55.849Z</time></trkpt><trkpt lat="42.6816738" lon="12.4204265"><ele>516.5714285714286</ele><time>2026-04-07T10:12:56.847Z</time></trkpt><trkpt lat="42.6817274" lon="12.4203727"><ele>516.2857142857142</ele><time>2026-04-07T10:12:57.844Z</time></trkpt><trkpt lat="42.6817768" lon="12.4203078"><ele>516.0</ele><time>2026-04-07T10:12:58.849Z</time></trkpt><trkpt lat="42.6818207" lon="12.4202366"><ele>515.4</ele><time>2026-04-07T10:12:59.843Z</time></trkpt><trkpt lat="42.6818626" lon="12.4201513"><ele>514.8</ele><time>2026-04-07T10:13:00.849Z</time></trkpt><trkpt lat="42.6819034" lon="12.4200469"><ele>514.1999999999999</ele><time>2026-04-07T10:13:01.862Z</time></trkpt><trkpt lat="42.6819512" lon="12.4199127"><ele>513.6</ele><time>2026-04-07T10:13:02.863Z</time></trkpt><trkpt lat="42.6820067" lon="12.4197426"><ele>513.0</ele><time>2026-04-07T10:13:03.849Z</time></trkpt><trkpt lat="42.6820656" lon="12.4195676"><ele>513.0</ele><time>2026-04-07T10:13:04.862Z</time></trkpt><trkpt lat="42.6821239" lon="12.4194268"><ele>513.0</ele><time>2026-04-07T10:13:05.852Z</time></trkpt><trkpt lat="42.6821843" lon="12.4193159"><ele>513.0</ele><time>2026-04-07T10:13:06.844Z</time></trkpt><trkpt lat="42.6822503" lon="12.4192345"><ele>513.0</ele><time>2026-04-07T10:13:07.843Z</time></trkpt><trkpt lat="42.6823233" lon="12.4191699"><ele>513.0</ele><time>2026-04-07T10:13:08.842Z</time></trkpt><trkpt lat="42.6824027" lon="12.4191241"><ele>513.0</ele><time>2026-04-07T10:13:09.851Z</time></trkpt><trkpt lat="42.6824973" lon="12.4191011"><ele>513.0</ele><time>2026-04-07T10:13:10.844Z</time></trkpt><trkpt lat="42.6826084" lon="12.4190936"><ele>513.0</ele><time>2026-04-07T10:13:11.853Z</time></trkpt><trkpt lat="42.6827481" lon="12.4191035"><ele>513.0</ele><time>2026-04-07T10:13:12.85Z</time></trkpt><trkpt lat="42.6829018" lon="12.4191031"><ele>511.0</ele><time>2026-04-07T10:13:13.846Z</time></trkpt><trkpt lat="42.6830701" lon="12.4191022"><ele>509.0</ele><time>2026-04-07T10:13:14.836Z</time></trkpt><trkpt lat="42.6832252" lon="12.4190979"><ele>507.0</ele><time>2026-04-07T10:13:15.841Z</time></trkpt><trkpt lat="42.6833483" lon="12.419088"><ele>505.0</ele><time>2026-04-07T10:13:16.864Z</time></trkpt><trkpt lat="42.683443" lon="12.4190927"><ele>505.00000000000006</ele><time>2026-04-07T10:13:17.842Z</time></trkpt><trkpt lat="42.6835187" lon="12.4191115"><ele>505.0</ele><time>2026-04-07T10:13:18.848Z</time></trkpt><trkpt lat="42.6835927" lon="12.4191468"><ele>505.0</ele><time>2026-04-07T10:13:19.847Z</time></trkpt><trkpt lat="42.6836656" lon="12.4192"><ele>505.0</ele><time>2026-04-07T10:13:20.85Z</time></trkpt><trkpt lat="42.6837431" lon="12.4192596"><ele>505.00000000000006</ele><time>2026-04-07T10:13:21.849Z</time></trkpt><trkpt lat="42.6838241" lon="12.4193125"><ele>505.0</ele><time>2026-04-07T10:13:22.835Z</time></trkpt><trkpt lat="42.6839008" lon="12.4193454"><ele>504.00000000000006</ele><time>2026-04-07T10:13:23.839Z</time></trkpt><trkpt lat="42.6839785" lon="12.4193753"><ele>503.0</ele><time>2026-04-07T10:13:24.847Z</time></trkpt><trkpt lat="42.6840564" lon="12.4194029"><ele>502.0</ele><time>2026-04-07T10:13:25.844Z</time></trkpt><trkpt lat="42.6841334" lon="12.419441"><ele>501.0</ele><time>2026-04-07T10:13:26.848Z</time></trkpt><trkpt lat="42.6842012" lon="12.4194859"><ele>500.00000000000006</ele><time>2026-04-07T10:13:27.867Z</time></trkpt><trkpt lat="42.6842452" lon="12.4195474"><ele>499.0</ele><time>2026-04-07T10:13:28.859Z</time></trkpt><trkpt lat="42.6843013" lon="12.4196914"><ele>498.33333333333337</ele><time>2026-04-07T10:13:30.85Z</time></trkpt><trkpt lat="42.6843306" lon="12.419856"><ele>497.6666666666667</ele><time>2026-04-07T10:13:32.849Z</time></trkpt><trkpt lat="42.684332" lon="12.4199427"><ele>497.0</ele><time>2026-04-07T10:13:33.847Z</time></trkpt><trkpt lat="42.6843313" lon="12.420041"><ele>496.33333333333337</ele><time>2026-04-07T10:13:34.844Z</time></trkpt><trkpt lat="42.6843244" lon="12.4201405"><ele>495.6666666666667</ele><time>2026-04-07T10:13:35.846Z</time></trkpt><trkpt lat="42.6842876" lon="12.4202435"><ele>495.0</ele><time>2026-04-07T10:13:36.847Z</time></trkpt><trkpt lat="42.6842453" lon="12.4203428"><ele>495.0</ele><time>2026-04-07T10:13:37.837Z</time></trkpt><trkpt lat="42.6842034" lon="12.4204448"><ele>495.0</ele><time>2026-04-07T10:13:38.856Z</time></trkpt><trkpt lat="42.6841675" lon="12.4205443"><ele>495.0</ele><time>2026-04-07T10:13:39.851Z</time></trkpt><trkpt lat="42.684144" lon="12.4206345"><ele>495.0</ele><time>2026-04-07T10:13:40.857Z</time></trkpt><trkpt lat="42.6841214" lon="12.4207644"><ele>495.0</ele><time>2026-04-07T10:13:42.85Z</time></trkpt><trkpt lat="42.684155" lon="12.4208956"><ele>495.0</ele><time>2026-04-07T10:13:44.845Z</time></trkpt><trkpt lat="42.6841988" lon="12.420979"><ele>493.1428571428571</ele><time>2026-04-07T10:13:45.852Z</time></trkpt><trkpt lat="42.6842533" lon="12.4210602"><ele>491.2857142857143</ele><time>2026-04-07T10:13:46.847Z</time></trkpt><trkpt lat="42.6843039" lon="12.4211355"><ele>489.42857142857144</ele><time>2026-04-07T10:13:47.847Z</time></trkpt><trkpt lat="42.684358" lon="12.4212011"><ele>487.57142857142856</ele><time>2026-04-07T10:13:48.856Z</time></trkpt><trkpt lat="42.6844071" lon="12.4212566"><ele>485.7142857142858</ele><time>2026-04-07T10:13:49.846Z</time></trkpt><trkpt lat="42.6844552" lon="12.4213371"><ele>483.8571428571429</ele><time>2026-04-07T10:13:51.844Z</time></trkpt><trkpt lat="42.6844922" lon="12.4214228"><ele>482.0</ele><time>2026-04-07T10:13:54.859Z</time></trkpt><trkpt lat="42.6845651" lon="12.4214571"><ele>480.20000000000005</ele><time>2026-04-07T10:13:56.846Z</time></trkpt><trkpt lat="42.6846282" lon="12.4213889"><ele>478.40000000000003</ele><time>2026-04-07T10:13:58.833Z</time></trkpt><trkpt lat="42.684687" lon="12.4212509"><ele>476.59999999999997</ele><time>2026-04-07T10:14:00.849Z</time></trkpt><trkpt lat="42.6847104" lon="12.4211273"><ele>474.79999999999995</ele><time>2026-04-07T10:14:01.867Z</time></trkpt><trkpt lat="42.6847548" lon="12.421002"><ele>473.0</ele><time>2026-04-07T10:14:02.866Z</time></trkpt><trkpt lat="42.6848126" lon="12.4208977"><ele>473.4</ele><time>2026-04-07T10:14:03.851Z</time></trkpt><trkpt lat="42.6848707" lon="12.4207964"><ele>473.79999999999995</ele><time>2026-04-07T10:14:04.843Z</time></trkpt><trkpt lat="42.6849227" lon="12.4206961"><ele>474.2</ele><time>2026-04-07T10:14:05.848Z</time></trkpt><trkpt lat="42.6849769" lon="12.4205914"><ele>474.6</ele><time>2026-04-07T10:14:06.849Z</time></trkpt><trkpt lat="42.6850346" lon="12.4204866"><ele>475.0</ele><time>2026-04-07T10:14:07.838Z</time></trkpt><trkpt lat="42.6850935" lon="12.4203964"><ele>475.00000000000006</ele><time>2026-04-07T10:14:08.876Z</time></trkpt><trkpt lat="42.6851646" lon="12.420328"><ele>475.0</ele><time>2026-04-07T10:14:09.834Z</time></trkpt><trkpt lat="42.6852359" lon="12.4202719"><ele>475.0</ele><time>2026-04-07T10:14:10.844Z</time></trkpt><trkpt lat="42.6853095" lon="12.4202231"><ele>475.0</ele><time>2026-04-07T10:14:11.837Z</time></trkpt><trkpt lat="42.6853831" lon="12.4201806"><ele>475.00000000000006</ele><time>2026-04-07T10:14:12.846Z</time></trkpt><trkpt lat="42.6854491" lon="12.4201419"><ele>475.0</ele><time>2026-04-07T10:14:13.858Z</time></trkpt><trkpt lat="42.6855042" lon="12.4200932"><ele>469.0</ele><time>2026-04-07T10:14:14.855Z</time></trkpt><trkpt lat="42.6855785" lon="12.4199794"><ele>463.0</ele><time>2026-04-07T10:14:16.847Z</time></trkpt><trkpt lat="42.6856105" lon="12.4198134"><ele>457.0</ele><time>2026-04-07T10:14:18.848Z</time></trkpt><trkpt lat="42.6856182" lon="12.4197029"><ele>451.0</ele><time>2026-04-07T10:14:19.843Z</time></trkpt><trkpt lat="42.6856276" lon="12.4195931"><ele>445.0</ele><time>2026-04-07T10:14:20.861Z</time></trkpt><trkpt lat="42.6856296" lon="12.4194856"><ele>444.00000000000006</ele><time>2026-04-07T10:14:21.846Z</time></trkpt><trkpt lat="42.6856299" lon="12.4193714"><ele>443.0</ele><time>2026-04-07T10:14:22.848Z</time></trkpt><trkpt lat="42.6856233" lon="12.4192603"><ele>442.0</ele><time>2026-04-07T10:14:23.859Z</time></trkpt><trkpt lat="42.6856121" lon="12.4191476"><ele>441.0</ele><time>2026-04-07T10:14:24.845Z</time></trkpt><trkpt lat="42.6855993" lon="12.4190283"><ele>440.00000000000006</ele><time>2026-04-07T10:14:25.844Z</time></trkpt><trkpt lat="42.685593" lon="12.4189064"><ele>439.0</ele><time>2026-04-07T10:14:26.834Z</time></trkpt><trkpt lat="42.6855864" lon="12.4187801"><ele>437.79999999999995</ele><time>2026-04-07T10:14:27.86Z</time></trkpt><trkpt lat="42.6855885" lon="12.4186442"><ele>436.59999999999997</ele><time>2026-04-07T10:14:28.837Z</time></trkpt><trkpt lat="42.6856004" lon="12.4185111"><ele>435.4</ele><time>2026-04-07T10:14:29.857Z</time></trkpt><trkpt lat="42.6856141" lon="12.4183787"><ele>434.2</ele><time>2026-04-07T10:14:30.85Z</time></trkpt><trkpt lat="42.6856279" lon="12.4182569"><ele>433.0</ele><time>2026-04-07T10:14:31.839Z</time></trkpt><trkpt lat="42.6856441" lon="12.4181408"><ele>433.00000000000006</ele><time>2026-04-07T10:14:32.846Z</time></trkpt><trkpt lat="42.6856568" lon="12.4180249"><ele>433.0</ele><time>2026-04-07T10:14:33.843Z</time></trkpt><trkpt lat="42.6856688" lon="12.4179145"><ele>433.0</ele><time>2026-04-07T10:14:34.835Z</time></trkpt><trkpt lat="42.6856813" lon="12.4178282"><ele>433.0</ele><time>2026-04-07T10:14:35.856Z</time></trkpt><trkpt lat="42.6857374" lon="12.4176934"><ele>433.00000000000006</ele><time>2026-04-07T10:14:37.844Z</time></trkpt><trkpt lat="42.6858271" lon="12.4176595"><ele>433.0</ele><time>2026-04-07T10:14:39.845Z</time></trkpt><trkpt lat="42.685938" lon="12.4176989"><ele>433.50000000000006</ele><time>2026-04-07T10:14:41.848Z</time></trkpt><trkpt lat="42.686004" lon="12.4177128"><ele>434.0</ele><time>2026-04-07T10:14:42.862Z</time></trkpt><trkpt lat="42.686074" lon="12.4177243"><ele>434.5</ele><time>2026-04-07T10:14:43.859Z</time></trkpt><trkpt lat="42.6861453" lon="12.4177314"><ele>435.0</ele><time>2026-04-07T10:14:44.844Z</time></trkpt><trkpt lat="42.686213" lon="12.4177273"><ele>435.50000000000006</ele><time>2026-04-07T10:14:45.839Z</time></trkpt><trkpt lat="42.6863144" lon="12.4176644"><ele>436.0</ele><time>2026-04-07T10:14:47.845Z</time></trkpt><trkpt lat="42.6863555" lon="12.4175953"><ele>431.50000000000006</ele><time>2026-04-07T10:14:48.844Z</time></trkpt><trkpt lat="42.6863954" lon="12.41752"><ele>427.0</ele><time>2026-04-07T10:14:49.835Z</time></trkpt><trkpt lat="42.6864304" lon="12.4174412"><ele>422.5</ele><time>2026-04-07T10:14:50.859Z</time></trkpt><trkpt lat="42.6864666" lon="12.4173596"><ele>418.0</ele><time>2026-04-07T10:14:51.844Z</time></trkpt><trkpt lat="42.686503" lon="12.4172795"><ele>413.50000000000006</ele><time>2026-04-07T10:14:52.842Z</time></trkpt><trkpt lat="42.6865328" lon="12.4171058"><ele>409.0</ele><time>2026-04-07T10:14:54.907Z</time></trkpt><trkpt lat="42.6865279" lon="12.4170161"><ele>407.83333333333337</ele><time>2026-04-07T10:14:55.862Z</time></trkpt><trkpt lat="42.6865137" lon="12.4169229"><ele>406.6666666666667</ele><time>2026-04-07T10:14:56.831Z</time></trkpt><trkpt lat="42.6864909" lon="12.4168237"><ele>405.5</ele><time>2026-04-07T10:14:57.841Z</time></trkpt><trkpt lat="42.6864664" lon="12.4167167"><ele>404.33333333333337</ele><time>2026-04-07T10:14:58.853Z</time></trkpt><trkpt lat="42.6864426" lon="12.4166038"><ele>403.1666666666667</ele><time>2026-04-07T10:14:59.855Z</time></trkpt><trkpt lat="42.6864184" lon="12.4164899"><ele>402.0</ele><time>2026-04-07T10:15:00.861Z</time></trkpt><trkpt lat="42.6863929" lon="12.4163672"><ele>399.3333333333333</ele><time>2026-04-07T10:15:01.844Z</time></trkpt><trkpt lat="42.6863608" lon="12.4162446"><ele>396.66666666666663</ele><time>2026-04-07T10:15:02.839Z</time></trkpt><trkpt lat="42.6863315" lon="12.4161339"><ele>394.0</ele><time>2026-04-07T10:15:03.849Z</time></trkpt><trkpt lat="42.6862935" lon="12.416023"><ele>391.3333333333333</ele><time>2026-04-07T10:15:04.867Z</time></trkpt><trkpt lat="42.6862513" lon="12.4159154"><ele>388.66666666666663</ele><time>2026-04-07T10:15:05.84Z</time></trkpt><trkpt lat="42.686205" lon="12.4158242"><ele>386.0</ele><time>2026-04-07T10:15:06.833Z</time></trkpt><trkpt lat="42.6861479" lon="12.4157497"><ele>386.99999999999994</ele><time>2026-04-07T10:15:07.84Z</time></trkpt><trkpt lat="42.6860885" lon="12.4156761"><ele>388.0</ele><time>2026-04-07T10:15:08.834Z</time></trkpt><trkpt lat="42.6860247" lon="12.4156096"><ele>389.0</ele><time>2026-04-07T10:15:09.847Z</time></trkpt><trkpt lat="42.6859592" lon="12.415546"><ele>390.0</ele><time>2026-04-07T10:15:10.857Z</time></trkpt><trkpt lat="42.6858857" lon="12.4154819"><ele>390.99999999999994</ele><time>2026-04-07T10:15:11.856Z</time></trkpt><trkpt lat="42.6858119" lon="12.415434"><ele>392.0</ele><time>2026-04-07T10:15:12.848Z</time></trkpt><trkpt lat="42.6857324" lon="12.4153948"><ele>391.99999999999994</ele><time>2026-04-07T10:15:13.85Z</time></trkpt><trkpt lat="42.6856661" lon="12.4153629"><ele>392.0</ele><time>2026-04-07T10:15:14.838Z</time></trkpt><trkpt lat="42.685574" lon="12.4152844"><ele>392.0</ele><time>2026-04-07T10:15:16.841Z</time></trkpt><trkpt lat="42.6855706" lon="12.4151836"><ele>392.0</ele><time>2026-04-07T10:15:18.855Z</time></trkpt><trkpt lat="42.6856276" lon="12.415102"><ele>391.99999999999994</ele><time>2026-04-07T10:15:21.832Z</time></trkpt><trkpt lat="42.6857242" lon="12.4150984"><ele>392.0</ele><time>2026-04-07T10:15:23.84Z</time></trkpt><trkpt lat="42.6858318" lon="12.4150876"><ele>391.99999999999994</ele><time>2026-04-07T10:15:25.843Z</time></trkpt><trkpt lat="42.6859565" lon="12.4150545"><ele>392.0</ele><time>2026-04-07T10:15:27.848Z</time></trkpt><trkpt lat="42.6860209" lon="12.4150339"><ele>392.0</ele><time>2026-04-07T10:15:28.832Z</time></trkpt><trkpt lat="42.6860874" lon="12.4150192"><ele>392.0</ele><time>2026-04-07T10:15:29.837Z</time></trkpt><trkpt lat="42.6861562" lon="12.4150031"><ele>391.99999999999994</ele><time>2026-04-07T10:15:30.834Z</time></trkpt><trkpt lat="42.6862214" lon="12.4149851"><ele>392.0</ele><time>2026-04-07T10:15:31.838Z</time></trkpt><trkpt lat="42.686341" lon="12.4149513"><ele>388.66666666666663</ele><time>2026-04-07T10:15:33.842Z</time></trkpt><trkpt lat="42.6864042" lon="12.4149481"><ele>385.3333333333333</ele><time>2026-04-07T10:15:34.854Z</time></trkpt><trkpt lat="42.6865241" lon="12.4149473"><ele>382.0</ele><time>2026-04-07T10:15:36.865Z</time></trkpt><trkpt lat="42.6865915" lon="12.4149576"><ele>378.66666666666663</ele><time>2026-04-07T10:15:37.831Z</time></trkpt><trkpt lat="42.6866664" lon="12.4149726"><ele>375.3333333333333</ele><time>2026-04-07T10:15:38.84Z</time></trkpt><trkpt lat="42.6867459" lon="12.4149916"><ele>372.0</ele><time>2026-04-07T10:15:39.837Z</time></trkpt><trkpt lat="42.6868333" lon="12.415031"><ele>372.0</ele><time>2026-04-07T10:15:40.831Z</time></trkpt><trkpt lat="42.6869162" lon="12.4150819"><ele>372.0</ele><time>2026-04-07T10:15:41.846Z</time></trkpt><trkpt lat="42.6870002" lon="12.4151339"><ele>372.0</ele><time>2026-04-07T10:15:42.844Z</time></trkpt><trkpt lat="42.6870788" lon="12.4151842"><ele>372.0</ele><time>2026-04-07T10:15:43.856Z</time></trkpt><trkpt lat="42.6871554" lon="12.4152334"><ele>372.0</ele><time>2026-04-07T10:15:44.841Z</time></trkpt><trkpt lat="42.687227" lon="12.41528"><ele>372.0</ele><time>2026-04-07T10:15:45.837Z</time></trkpt><trkpt lat="42.6873017" lon="12.4153296"><ele>369.8333333333333</ele><time>2026-04-07T10:15:46.842Z</time></trkpt><trkpt lat="42.687378" lon="12.4153761"><ele>367.6666666666667</ele><time>2026-04-07T10:15:47.825Z</time></trkpt><trkpt lat="42.6874435" lon="12.4154228"><ele>365.5</ele><time>2026-04-07T10:15:48.84Z</time></trkpt><trkpt lat="42.687535" lon="12.4154842"><ele>363.33333333333337</ele><time>2026-04-07T10:15:50.852Z</time></trkpt><trkpt lat="42.6875921" lon="12.4155335"><ele>361.1666666666667</ele><time>2026-04-07T10:15:53.839Z</time></trkpt><trkpt lat="42.687668" lon="12.4155835"><ele>359.0</ele><time>2026-04-07T10:15:55.85Z</time></trkpt><trkpt lat="42.6877563" lon="12.4156291"><ele>355.6666666666667</ele><time>2026-04-07T10:15:57.841Z</time></trkpt><trkpt lat="42.6878535" lon="12.4156393"><ele>352.33333333333337</ele><time>2026-04-07T10:15:59.836Z</time></trkpt><trkpt lat="42.6879375" lon="12.4156489"><ele>349.0</ele><time>2026-04-07T10:16:01.845Z</time></trkpt><trkpt lat="42.6880117" lon="12.4156681"><ele>345.6666666666667</ele><time>2026-04-07T10:16:03.834Z</time></trkpt><trkpt lat="42.6880881" lon="12.4156934"><ele>342.3333333333333</ele><time>2026-04-07T10:16:06.846Z</time></trkpt><trkpt lat="42.6881548" lon="12.4157291"><ele>339.0</ele><time>2026-04-07T10:16:10.846Z</time></trkpt><trkpt lat="42.6882157" lon="12.4156869"><ele>339.0</ele><time>2026-04-07T10:16:16.856Z</time></trkpt><trkpt lat="42.6881328" lon="12.4156684"><ele>339.0</ele><time>2026-04-07T10:16:43.852Z</time></trkpt><trkpt lat="42.6880358" lon="12.4156311"><ele>339.0</ele><time>2026-04-07T10:16:45.851Z</time></trkpt><trkpt lat="42.6879403" lon="12.4155932"><ele>339.0</ele><time>2026-04-07T10:16:47.868Z</time></trkpt><trkpt lat="42.6878183" lon="12.4155538"><ele>339.0</ele><time>2026-04-07T10:16:49.855Z</time></trkpt><trkpt lat="42.6877409" lon="12.4155324"><ele>342.0</ele><time>2026-04-07T10:16:50.85Z</time></trkpt><trkpt lat="42.6876639" lon="12.4154932"><ele>345.0</ele><time>2026-04-07T10:16:51.847Z</time></trkpt><trkpt lat="42.6875748" lon="12.4154343"><ele>348.0</ele><time>2026-04-07T10:16:52.853Z</time></trkpt><trkpt lat="42.6874686" lon="12.4153594"><ele>351.0</ele><time>2026-04-07T10:16:53.839Z</time></trkpt><trkpt lat="42.6873548" lon="12.4152864"><ele>354.0</ele><time>2026-04-07T10:16:54.841Z</time></trkpt><trkpt lat="42.6872336" lon="12.4152057"><ele>354.0</ele><time>2026-04-07T10:16:55.848Z</time></trkpt><trkpt lat="42.687128" lon="12.4151349"><ele>354.0</ele><time>2026-04-07T10:16:56.85Z</time></trkpt><trkpt lat="42.6870275" lon="12.415065"><ele>354.0</ele><time>2026-04-07T10:16:57.824Z</time></trkpt><trkpt lat="42.6869256" lon="12.4149957"><ele>354.0</ele><time>2026-04-07T10:16:58.859Z</time></trkpt><trkpt lat="42.6868282" lon="12.4149327"><ele>357.6</ele><time>2026-04-07T10:16:59.838Z</time></trkpt><trkpt lat="42.6867323" lon="12.4148935"><ele>361.2</ele><time>2026-04-07T10:17:00.85Z</time></trkpt><trkpt lat="42.6866352" lon="12.4148712"><ele>364.8</ele><time>2026-04-07T10:17:01.839Z</time></trkpt><trkpt lat="42.6865408" lon="12.4148545"><ele>368.40000000000003</ele><time>2026-04-07T10:17:02.853Z</time></trkpt><trkpt lat="42.6864345" lon="12.4148619"><ele>372.0</ele><time>2026-04-07T10:17:03.841Z</time></trkpt><trkpt lat="42.6863162" lon="12.4148951"><ele>372.0</ele><time>2026-04-07T10:17:04.836Z</time></trkpt><trkpt lat="42.6861814" lon="12.4149337"><ele>372.0</ele><time>2026-04-07T10:17:05.838Z</time></trkpt><trkpt lat="42.6860354" lon="12.4149705"><ele>372.0</ele><time>2026-04-07T10:17:06.832Z</time></trkpt><trkpt lat="42.6859002" lon="12.4150097"><ele>372.0</ele><time>2026-04-07T10:17:07.848Z</time></trkpt><trkpt lat="42.6857862" lon="12.4150436"><ele>376.0</ele><time>2026-04-07T10:17:08.837Z</time></trkpt><trkpt lat="42.6857114" lon="12.4150642"><ele>380.0</ele><time>2026-04-07T10:17:09.838Z</time></trkpt><trkpt lat="42.6856138" lon="12.4150839"><ele>384.0</ele><time>2026-04-07T10:17:11.833Z</time></trkpt><trkpt lat="42.6855935" lon="12.415192"><ele>388.0</ele><time>2026-04-07T10:17:13.828Z</time></trkpt><trkpt lat="42.6856381" lon="12.4153189"><ele>392.0</ele><time>2026-04-07T10:17:15.833Z</time></trkpt><trkpt lat="42.685728" lon="12.4153949"><ele>391.99999999999994</ele><time>2026-04-07T10:17:17.83Z</time></trkpt><trkpt lat="42.6857925" lon="12.4154307"><ele>392.0</ele><time>2026-04-07T10:17:18.842Z</time></trkpt><trkpt lat="42.6858748" lon="12.4154804"><ele>392.0</ele><time>2026-04-07T10:17:19.838Z</time></trkpt><trkpt lat="42.6859631" lon="12.4155386"><ele>392.0</ele><time>2026-04-07T10:17:20.837Z</time></trkpt><trkpt lat="42.6860424" lon="12.4156098"><ele>391.99999999999994</ele><time>2026-04-07T10:17:21.849Z</time></trkpt><trkpt lat="42.6861168" lon="12.4156868"><ele>392.0</ele><time>2026-04-07T10:17:22.841Z</time></trkpt><trkpt lat="42.6861836" lon="12.4157782"><ele>390.8</ele><time>2026-04-07T10:17:23.836Z</time></trkpt><trkpt lat="42.6862405" lon="12.4158816"><ele>389.6</ele><time>2026-04-07T10:17:24.86Z</time></trkpt><trkpt lat="42.686287" lon="12.416014"><ele>388.40000000000003</ele><time>2026-04-07T10:17:25.847Z</time></trkpt><trkpt lat="42.6863374" lon="12.4161519"><ele>387.20000000000005</ele><time>2026-04-07T10:17:26.859Z</time></trkpt><trkpt lat="42.6863827" lon="12.4162956"><ele>386.0</ele><time>2026-04-07T10:17:27.848Z</time></trkpt><trkpt lat="42.6864246" lon="12.4164538"><ele>389.20000000000005</ele><time>2026-04-07T10:17:28.855Z</time></trkpt><trkpt lat="42.6864603" lon="12.4166194"><ele>392.40000000000003</ele><time>2026-04-07T10:17:29.85Z</time></trkpt><trkpt lat="42.6864911" lon="12.4167751"><ele>395.6</ele><time>2026-04-07T10:17:30.848Z</time></trkpt><trkpt lat="42.686509" lon="12.4168987"><ele>398.8</ele><time>2026-04-07T10:17:31.841Z</time></trkpt><trkpt lat="42.6865123" lon="12.4170088"><ele>402.0</ele><time>2026-04-07T10:17:32.872Z</time></trkpt><trkpt lat="42.6865104" lon="12.4171286"><ele>403.1666666666667</ele><time>2026-04-07T10:17:33.847Z</time></trkpt><trkpt lat="42.6864976" lon="12.4172381"><ele>404.33333333333337</ele><time>2026-04-07T10:17:34.858Z</time></trkpt><trkpt lat="42.6864744" lon="12.4173424"><ele>405.5</ele><time>2026-04-07T10:17:35.849Z</time></trkpt><trkpt lat="42.6864453" lon="12.4174461"><ele>406.6666666666667</ele><time>2026-04-07T10:17:36.831Z</time></trkpt><trkpt lat="42.6864011" lon="12.4175482"><ele>407.83333333333337</ele><time>2026-04-07T10:17:37.856Z</time></trkpt><trkpt lat="42.6863555" lon="12.4176321"><ele>409.0</ele><time>2026-04-07T10:17:38.839Z</time></trkpt><trkpt lat="42.6862499" lon="12.4177062"><ele>409.00000000000006</ele><time>2026-04-07T10:17:40.842Z</time></trkpt><trkpt lat="42.6861864" lon="12.4177181"><ele>409.0</ele><time>2026-04-07T10:17:41.85Z</time></trkpt><trkpt lat="42.686108" lon="12.4177204"><ele>409.0</ele><time>2026-04-07T10:17:42.839Z</time></trkpt><trkpt lat="42.6860265" lon="12.4176963"><ele>409.0</ele><time>2026-04-07T10:17:43.867Z</time></trkpt><trkpt lat="42.6859377" lon="12.417663"><ele>409.00000000000006</ele><time>2026-04-07T10:17:44.842Z</time></trkpt><trkpt lat="42.6858641" lon="12.4176453"><ele>409.0</ele><time>2026-04-07T10:17:45.849Z</time></trkpt><trkpt lat="42.6857462" lon="12.4176593"><ele>413.79999999999995</ele><time>2026-04-07T10:17:47.854Z</time></trkpt><trkpt lat="42.6856556" lon="12.4177522"><ele>418.59999999999997</ele><time>2026-04-07T10:17:49.855Z</time></trkpt><trkpt lat="42.6856419" lon="12.4178651"><ele>423.4</ele><time>2026-04-07T10:17:50.841Z</time></trkpt><trkpt lat="42.6856287" lon="12.4180122"><ele>428.2</ele><time>2026-04-07T10:17:51.858Z</time></trkpt><trkpt lat="42.6856125" lon="12.4181809"><ele>433.0</ele><time>2026-04-07T10:17:52.852Z</time></trkpt><trkpt lat="42.6855863" lon="12.4183619"><ele>433.0</ele><time>2026-04-07T10:17:53.838Z</time></trkpt><trkpt lat="42.685562" lon="12.4185545"><ele>433.0</ele><time>2026-04-07T10:17:54.853Z</time></trkpt><trkpt lat="42.6855484" lon="12.4187444"><ele>433.0</ele><time>2026-04-07T10:17:55.839Z</time></trkpt><trkpt lat="42.6855519" lon="12.4189223"><ele>433.0</ele><time>2026-04-07T10:17:56.867Z</time></trkpt><trkpt lat="42.6855607" lon="12.4191017"><ele>434.5</ele><time>2026-04-07T10:17:57.84Z</time></trkpt><trkpt lat="42.6855789" lon="12.419274"><ele>436.0</ele><time>2026-04-07T10:17:58.856Z</time></trkpt><trkpt lat="42.6855865" lon="12.4194625"><ele>437.5</ele><time>2026-04-07T10:17:59.837Z</time></trkpt><trkpt lat="42.6855891" lon="12.4196436"><ele>439.0</ele><time>2026-04-07T10:18:00.848Z</time></trkpt><trkpt lat="42.6855848" lon="12.4197994"><ele>440.2</ele><time>2026-04-07T10:18:01.835Z</time></trkpt><trkpt lat="42.6855633" lon="12.4199156"><ele>441.4</ele><time>2026-04-07T10:18:02.855Z</time></trkpt><trkpt lat="42.6855386" lon="12.4199988"><ele>442.6</ele><time>2026-04-07T10:18:03.852Z</time></trkpt><trkpt lat="42.6854392" lon="12.4201104"><ele>443.8</ele><time>2026-04-07T10:18:05.852Z</time></trkpt><trkpt lat="42.6853508" lon="12.4201691"><ele>445.0</ele><time>2026-04-07T10:18:06.853Z</time></trkpt><trkpt lat="42.6852538" lon="12.4202367"><ele>449.4</ele><time>2026-04-07T10:18:07.838Z</time></trkpt><trkpt lat="42.6851581" lon="12.4203117"><ele>453.8</ele><time>2026-04-07T10:18:08.844Z</time></trkpt><trkpt lat="42.6850732" lon="12.4204023"><ele>458.20000000000005</ele><time>2026-04-07T10:18:09.857Z</time></trkpt><trkpt lat="42.6850078" lon="12.4205086"><ele>462.6</ele><time>2026-04-07T10:18:10.845Z</time></trkpt><trkpt lat="42.6849423" lon="12.4206241"><ele>467.0</ele><time>2026-04-07T10:18:11.849Z</time></trkpt><trkpt lat="42.6848727" lon="12.420753"><ele>467.0</ele><time>2026-04-07T10:18:12.829Z</time></trkpt><trkpt lat="42.6848028" lon="12.4208729"><ele>467.00000000000006</ele><time>2026-04-07T10:18:13.849Z</time></trkpt><trkpt lat="42.6847418" lon="12.4209942"><ele>467.00000000000006</ele><time>2026-04-07T10:18:14.839Z</time></trkpt><trkpt lat="42.6846989" lon="12.4211159"><ele>467.0</ele><time>2026-04-07T10:18:15.863Z</time></trkpt><trkpt lat="42.6846718" lon="12.4212466"><ele>467.0</ele><time>2026-04-07T10:18:16.841Z</time></trkpt><trkpt lat="42.684642" lon="12.4213559"><ele>467.99999999999994</ele><time>2026-04-07T10:18:17.841Z</time></trkpt><trkpt lat="42.6846025" lon="12.4214228"><ele>469.0</ele><time>2026-04-07T10:18:18.857Z</time></trkpt><trkpt lat="42.6845126" lon="12.4214699"><ele>470.0</ele><time>2026-04-07T10:18:20.841Z</time></trkpt><trkpt lat="42.684439" lon="12.4213774"><ele>471.0</ele><time>2026-04-07T10:18:22.847Z</time></trkpt><trkpt lat="42.684397" lon="12.421296"><ele>471.99999999999994</ele><time>2026-04-07T10:18:23.843Z</time></trkpt><trkpt lat="42.6843423" lon="12.4211996"><ele>473.0</ele><time>2026-04-07T10:18:24.839Z</time></trkpt><trkpt lat="42.6842812" lon="12.421097"><ele>474.79999999999995</ele><time>2026-04-07T10:18:25.839Z</time></trkpt><trkpt lat="42.6842121" lon="12.4209862"><ele>476.59999999999997</ele><time>2026-04-07T10:18:26.867Z</time></trkpt><trkpt lat="42.6841511" lon="12.4208708"><ele>478.40000000000003</ele><time>2026-04-07T10:18:27.843Z</time></trkpt><trkpt lat="42.6841219" lon="12.420793"><ele>480.20000000000005</ele><time>2026-04-07T10:18:28.869Z</time></trkpt><trkpt lat="42.6841308" lon="12.4206604"><ele>482.0</ele><time>2026-04-07T10:18:30.84Z</time></trkpt><trkpt lat="42.6841995" lon="12.4204913"><ele>484.16666666666663</ele><time>2026-04-07T10:18:32.827Z</time></trkpt><trkpt lat="42.6842476" lon="12.42039"><ele>486.3333333333333</ele><time>2026-04-07T10:18:33.843Z</time></trkpt><trkpt lat="42.6842905" lon="12.4202933"><ele>488.5</ele><time>2026-04-07T10:18:34.841Z</time></trkpt><trkpt lat="42.6843218" lon="12.4202013"><ele>490.66666666666663</ele><time>2026-04-07T10:18:35.839Z</time></trkpt><trkpt lat="42.68434" lon="12.4201106"><ele>492.8333333333333</ele><time>2026-04-07T10:18:36.863Z</time></trkpt><trkpt lat="42.6843458" lon="12.4200226"><ele>495.0</ele><time>2026-04-07T10:18:37.845Z</time></trkpt><trkpt lat="42.6843482" lon="12.4199152"><ele>495.0</ele><time>2026-04-07T10:18:38.851Z</time></trkpt><trkpt lat="42.6843376" lon="12.4197978"><ele>495.0</ele><time>2026-04-07T10:18:39.839Z</time></trkpt><trkpt lat="42.6843141" lon="12.4197081"><ele>495.0</ele><time>2026-04-07T10:18:40.856Z</time></trkpt><trkpt lat="42.6842759" lon="12.4196363"><ele>495.0</ele><time>2026-04-07T10:18:41.843Z</time></trkpt><trkpt lat="42.6842339" lon="12.4195596"><ele>495.0</ele><time>2026-04-07T10:18:42.851Z</time></trkpt><trkpt lat="42.6841788" lon="12.4194872"><ele>495.0</ele><time>2026-04-07T10:18:43.848Z</time></trkpt><trkpt lat="42.6841068" lon="12.4194265"><ele>495.8</ele><time>2026-04-07T10:18:44.85Z</time></trkpt><trkpt lat="42.6840177" lon="12.4193775"><ele>496.6</ele><time>2026-04-07T10:18:45.844Z</time></trkpt><trkpt lat="42.6839304" lon="12.4193347"><ele>497.4</ele><time>2026-04-07T10:18:46.847Z</time></trkpt><trkpt lat="42.6838363" lon="12.4192849"><ele>498.2</ele><time>2026-04-07T10:18:47.855Z</time></trkpt><trkpt lat="42.6837293" lon="12.4192275"><ele>499.0</ele><time>2026-04-07T10:18:48.85Z</time></trkpt><trkpt lat="42.6836349" lon="12.4191531"><ele>500.00000000000006</ele><time>2026-04-07T10:18:49.852Z</time></trkpt><trkpt lat="42.6835551" lon="12.4190978"><ele>501.0</ele><time>2026-04-07T10:18:50.845Z</time></trkpt><trkpt lat="42.6834796" lon="12.4190669"><ele>502.0</ele><time>2026-04-07T10:18:51.839Z</time></trkpt><trkpt lat="42.6833976" lon="12.4190543"><ele>503.0</ele><time>2026-04-07T10:18:52.856Z</time></trkpt><trkpt lat="42.6833129" lon="12.4190609"><ele>504.00000000000006</ele><time>2026-04-07T10:18:53.857Z</time></trkpt><trkpt lat="42.6832128" lon="12.4190681"><ele>505.0</ele><time>2026-04-07T10:18:54.851Z</time></trkpt><trkpt lat="42.6830706" lon="12.419068"><ele>505.0</ele><time>2026-04-07T10:18:55.882Z</time></trkpt><trkpt lat="42.6829002" lon="12.4190658"><ele>505.0</ele><time>2026-04-07T10:18:56.848Z</time></trkpt><trkpt lat="42.6827492" lon="12.4190658"><ele>505.0</ele><time>2026-04-07T10:18:57.862Z</time></trkpt><trkpt lat="42.6826152" lon="12.4190586"><ele>506.6</ele><time>2026-04-07T10:18:58.849Z</time></trkpt><trkpt lat="42.6824991" lon="12.4190647"><ele>508.2</ele><time>2026-04-07T10:18:59.857Z</time></trkpt><trkpt lat="42.6823962" lon="12.4190852"><ele>509.79999999999995</ele><time>2026-04-07T10:19:00.854Z</time></trkpt><trkpt lat="42.6823057" lon="12.4191366"><ele>511.4</ele><time>2026-04-07T10:19:01.859Z</time></trkpt><trkpt lat="42.6822269" lon="12.4192175"><ele>513.0</ele><time>2026-04-07T10:19:02.86Z</time></trkpt><trkpt lat="42.6821494" lon="12.4193318"><ele>513.0</ele><time>2026-04-07T10:19:03.855Z</time></trkpt><trkpt lat="42.6820791" lon="12.4194966"><ele>513.0</ele><time>2026-04-07T10:19:04.845Z</time></trkpt><trkpt lat="42.6820129" lon="12.4196736"><ele>513.0</ele><time>2026-04-07T10:19:05.85Z</time></trkpt><trkpt lat="42.6819494" lon="12.4198553"><ele>513.0</ele><time>2026-04-07T10:19:06.855Z</time></trkpt><trkpt lat="42.6818988" lon="12.4200068"><ele>513.5</ele><time>2026-04-07T10:19:07.851Z</time></trkpt><trkpt lat="42.6818509" lon="12.420123"><ele>514.0</ele><time>2026-04-07T10:19:08.853Z</time></trkpt><trkpt lat="42.681805" lon="12.4202201"><ele>514.5</ele><time>2026-04-07T10:19:09.852Z</time></trkpt><trkpt lat="42.6817614" lon="12.4203008"><ele>515.0</ele><time>2026-04-07T10:19:10.845Z</time></trkpt><trkpt lat="42.6817077" lon="12.4203646"><ele>515.5</ele><time>2026-04-07T10:19:11.837Z</time></trkpt><trkpt lat="42.6816492" lon="12.4204276"><ele>516.0</ele><time>2026-04-07T10:19:12.853Z</time></trkpt><trkpt lat="42.6815802" lon="12.4204911"><ele>516.0</ele><time>2026-04-07T10:19:13.86Z</time></trkpt><trkpt lat="42.6814963" lon="12.4205386"><ele>516.0</ele><time>2026-04-07T10:19:14.846Z</time></trkpt><trkpt lat="42.6814116" lon="12.4205578"><ele>516.0</ele><time>2026-04-07T10:19:15.853Z</time></trkpt><trkpt lat="42.6813232" lon="12.4205496"><ele>516.0</ele><time>2026-04-07T10:19:16.846Z</time></trkpt><trkpt lat="42.6812293" lon="12.4205313"><ele>516.0</ele><time>2026-04-07T10:19:17.858Z</time></trkpt><trkpt lat="42.6811311" lon="12.4204909"><ele>516.4</ele><time>2026-04-07T10:19:18.84Z</time></trkpt><trkpt lat="42.6810325" lon="12.4204512"><ele>516.8</ele><time>2026-04-07T10:19:19.843Z</time></trkpt><trkpt lat="42.6809413" lon="12.4204206"><ele>517.1999999999999</ele><time>2026-04-07T10:19:20.844Z</time></trkpt><trkpt lat="42.6808607" lon="12.4203863"><ele>517.6</ele><time>2026-04-07T10:19:21.86Z</time></trkpt><trkpt lat="42.6807894" lon="12.420355"><ele>518.0</ele><time>2026-04-07T10:19:22.848Z</time></trkpt><trkpt lat="42.6806804" lon="12.4203128"><ele>518.0</ele><time>2026-04-07T10:19:24.85Z</time></trkpt><trkpt lat="42.6805901" lon="12.4203109"><ele>518.0</ele><time>2026-04-07T10:19:26.847Z</time></trkpt><trkpt lat="42.6805268" lon="12.4203712"><ele>518.0</ele><time>2026-04-07T10:19:28.846Z</time></trkpt><trkpt lat="42.6804764" lon="12.4205235"><ele>518.0</ele><time>2026-04-07T10:19:30.848Z</time></trkpt><trkpt lat="42.6804609" lon="12.4206227"><ele>518.0</ele><time>2026-04-07T10:19:31.844Z</time></trkpt><trkpt lat="42.6804658" lon="12.4207365"><ele>518.0</ele><time>2026-04-07T10:19:32.846Z</time></trkpt><trkpt lat="42.680486" lon="12.4208678"><ele>517.1999999999999</ele><time>2026-04-07T10:19:33.863Z</time></trkpt><trkpt lat="42.6805038" lon="12.4210029"><ele>516.4</ele><time>2026-04-07T10:19:34.846Z</time></trkpt><trkpt lat="42.6805235" lon="12.4211483"><ele>515.5999999999999</ele><time>2026-04-07T10:19:35.843Z</time></trkpt><trkpt lat="42.680541" lon="12.4212888"><ele>514.8</ele><time>2026-04-07T10:19:36.846Z</time></trkpt><trkpt lat="42.6805586" lon="12.4214302"><ele>514.0</ele><time>2026-04-07T10:19:37.842Z</time></trkpt><trkpt lat="42.6805765" lon="12.4215734"><ele>512.5</ele><time>2026-04-07T10:19:38.848Z</time></trkpt><trkpt lat="42.6805979" lon="12.4217136"><ele>511.0</ele><time>2026-04-07T10:19:39.843Z</time></trkpt><trkpt lat="42.6806249" lon="12.4218582"><ele>509.5</ele><time>2026-04-07T10:19:40.848Z</time></trkpt><trkpt lat="42.6806561" lon="12.4220139"><ele>508.0</ele><time>2026-04-07T10:19:41.844Z</time></trkpt><trkpt lat="42.6806851" lon="12.422178"><ele>507.5</ele><time>2026-04-07T10:19:42.848Z</time></trkpt><trkpt lat="42.6807084" lon="12.4223391"><ele>507.0</ele><time>2026-04-07T10:19:43.841Z</time></trkpt><trkpt lat="42.6807258" lon="12.4224962"><ele>506.5</ele><time>2026-04-07T10:19:44.853Z</time></trkpt><trkpt lat="42.6807399" lon="12.4226591"><ele>506.0</ele><time>2026-04-07T10:19:45.849Z</time></trkpt><trkpt lat="42.6807504" lon="12.4228253"><ele>505.0</ele><time>2026-04-07T10:19:46.85Z</time></trkpt><trkpt lat="42.6807557" lon="12.4229855"><ele>504.0</ele><time>2026-04-07T10:19:47.842Z</time></trkpt><trkpt lat="42.680758" lon="12.4231373"><ele>503.0</ele><time>2026-04-07T10:19:48.849Z</time></trkpt><trkpt lat="42.6807643" lon="12.4232872"><ele>502.0</ele><time>2026-04-07T10:19:49.856Z</time></trkpt><trkpt lat="42.6807666" lon="12.4234365"><ele>502.0</ele><time>2026-04-07T10:19:50.848Z</time></trkpt><trkpt lat="42.6807633" lon="12.4235845"><ele>502.00000000000006</ele><time>2026-04-07T10:19:51.849Z</time></trkpt><trkpt lat="42.6807554" lon="12.4237283"><ele>502.00000000000006</ele><time>2026-04-07T10:19:52.848Z</time></trkpt><trkpt lat="42.6807478" lon="12.4238673"><ele>502.0</ele><time>2026-04-07T10:19:53.849Z</time></trkpt><trkpt lat="42.6807416" lon="12.4240057"><ele>502.0</ele><time>2026-04-07T10:19:54.85Z</time></trkpt><trkpt lat="42.6807387" lon="12.4241371"><ele>501.50000000000006</ele><time>2026-04-07T10:19:55.853Z</time></trkpt><trkpt lat="42.6807421" lon="12.4242561"><ele>501.0</ele><time>2026-04-07T10:19:56.852Z</time></trkpt><trkpt lat="42.6807497" lon="12.4243693"><ele>500.5</ele><time>2026-04-07T10:19:57.848Z</time></trkpt><trkpt lat="42.6807626" lon="12.4244772"><ele>500.0</ele><time>2026-04-07T10:19:58.854Z</time></trkpt><trkpt lat="42.6807824" lon="12.4245929"><ele>499.50000000000006</ele><time>2026-04-07T10:19:59.859Z</time></trkpt><trkpt lat="42.6808028" lon="12.424725"><ele>499.0</ele><time>2026-04-07T10:20:00.852Z</time></trkpt><trkpt lat="42.6808211" lon="12.4248597"><ele>498.0</ele><time>2026-04-07T10:20:01.84Z</time></trkpt><trkpt lat="42.680819" lon="12.424995"><ele>497.0</ele><time>2026-04-07T10:20:02.848Z</time></trkpt><trkpt lat="42.6808075" lon="12.4251334"><ele>496.0</ele><time>2026-04-07T10:20:03.836Z</time></trkpt><trkpt lat="42.6807827" lon="12.4252721"><ele>495.0</ele><time>2026-04-07T10:20:04.844Z</time></trkpt><trkpt lat="42.680747" lon="12.4254086"><ele>494.0</ele><time>2026-04-07T10:20:05.858Z</time></trkpt><trkpt lat="42.6807019" lon="12.4255595"><ele>493.0</ele><time>2026-04-07T10:20:06.846Z</time></trkpt><trkpt lat="42.6806532" lon="12.4257123"><ele>492.0</ele><time>2026-04-07T10:20:07.849Z</time></trkpt><trkpt lat="42.6806032" lon="12.4258683"><ele>491.0</ele><time>2026-04-07T10:20:08.857Z</time></trkpt><trkpt lat="42.6805558" lon="12.4260292"><ele>490.0</ele><time>2026-04-07T10:20:09.84Z</time></trkpt><trkpt lat="42.6805095" lon="12.4261915"><ele>489.25</ele><time>2026-04-07T10:20:10.845Z</time></trkpt><trkpt lat="42.6804615" lon="12.4263468"><ele>488.5</ele><time>2026-04-07T10:20:11.845Z</time></trkpt><trkpt lat="42.6804136" lon="12.426494"><ele>487.75</ele><time>2026-04-07T10:20:12.842Z</time></trkpt><trkpt lat="42.6803613" lon="12.4266355"><ele>487.0</ele><time>2026-04-07T10:20:13.838Z</time></trkpt><trkpt lat="42.6803067" lon="12.4267715"><ele>487.0</ele><time>2026-04-07T10:20:14.859Z</time></trkpt><trkpt lat="42.6802518" lon="12.426911"><ele>487.00000000000006</ele><time>2026-04-07T10:20:15.86Z</time></trkpt><trkpt lat="42.6802004" lon="12.4270345"><ele>487.00000000000006</ele><time>2026-04-07T10:20:16.842Z</time></trkpt><trkpt lat="42.6801504" lon="12.4271458"><ele>487.0</ele><time>2026-04-07T10:20:17.843Z</time></trkpt><trkpt lat="42.6800996" lon="12.4272634"><ele>487.0</ele><time>2026-04-07T10:20:18.847Z</time></trkpt><trkpt lat="42.6800488" lon="12.4273909"><ele>486.5</ele><time>2026-04-07T10:20:19.848Z</time></trkpt><trkpt lat="42.6799976" lon="12.4275294"><ele>486.0</ele><time>2026-04-07T10:20:20.861Z</time></trkpt><trkpt lat="42.679947" lon="12.4276702"><ele>485.5</ele><time>2026-04-07T10:20:21.848Z</time></trkpt><trkpt lat="42.6798959" lon="12.4278044"><ele>485.0</ele><time>2026-04-07T10:20:22.862Z</time></trkpt><trkpt lat="42.6798493" lon="12.427941"><ele>483.5</ele><time>2026-04-07T10:20:23.851Z</time></trkpt><trkpt lat="42.6797979" lon="12.4280759"><ele>482.0</ele><time>2026-04-07T10:20:24.861Z</time></trkpt><trkpt lat="42.6797424" lon="12.4282113"><ele>480.5</ele><time>2026-04-07T10:20:25.852Z</time></trkpt><trkpt lat="42.679686" lon="12.4283519"><ele>479.0</ele><time>2026-04-07T10:20:26.845Z</time></trkpt><trkpt lat="42.6796343" lon="12.4284919"><ele>479.0</ele><time>2026-04-07T10:20:27.854Z</time></trkpt><trkpt lat="42.6795871" lon="12.4286314"><ele>479.0</ele><time>2026-04-07T10:20:28.849Z</time></trkpt><trkpt lat="42.6795419" lon="12.428772"><ele>479.0</ele><time>2026-04-07T10:20:29.835Z</time></trkpt><trkpt lat="42.679488" lon="12.4289063"><ele>479.0</ele><time>2026-04-07T10:20:30.853Z</time></trkpt><trkpt lat="42.6794279" lon="12.4290349"><ele>477.5</ele><time>2026-04-07T10:20:31.848Z</time></trkpt><trkpt lat="42.6793615" lon="12.4291707"><ele>476.0</ele><time>2026-04-07T10:20:32.844Z</time></trkpt><trkpt lat="42.679285" lon="12.4293103"><ele>474.5</ele><time>2026-04-07T10:20:33.849Z</time></trkpt><trkpt lat="42.6792108" lon="12.4294365"><ele>473.0</ele><time>2026-04-07T10:20:34.839Z</time></trkpt><trkpt lat="42.6791422" lon="12.4295506"><ele>473.0</ele><time>2026-04-07T10:20:35.844Z</time></trkpt><trkpt lat="42.6790751" lon="12.429663"><ele>472.99999999999994</ele><time>2026-04-07T10:20:36.84Z</time></trkpt><trkpt lat="42.679005" lon="12.429775"><ele>472.99999999999994</ele><time>2026-04-07T10:20:37.856Z</time></trkpt><trkpt lat="42.6789363" lon="12.4298941"><ele>473.0</ele><time>2026-04-07T10:20:38.843Z</time></trkpt><trkpt lat="42.6788765" lon="12.4300182"><ele>473.0</ele><time>2026-04-07T10:20:39.852Z</time></trkpt><trkpt lat="42.6788195" lon="12.4301584"><ele>473.0</ele><time>2026-04-07T10:20:40.853Z</time></trkpt><trkpt lat="42.6787731" lon="12.430316"><ele>473.0</ele><time>2026-04-07T10:20:41.85Z</time></trkpt><trkpt lat="42.6787351" lon="12.4304858"><ele>473.0</ele><time>2026-04-07T10:20:42.858Z</time></trkpt><trkpt lat="42.6787074" lon="12.4306554"><ele>473.0</ele><time>2026-04-07T10:20:43.841Z</time></trkpt><trkpt lat="42.6786856" lon="12.4308218"><ele>473.25</ele><time>2026-04-07T10:20:44.845Z</time></trkpt><trkpt lat="42.6786651" lon="12.430989"><ele>473.5</ele><time>2026-04-07T10:20:45.855Z</time></trkpt><trkpt lat="42.6786494" lon="12.4311634"><ele>473.75</ele><time>2026-04-07T10:20:46.85Z</time></trkpt><trkpt lat="42.6786369" lon="12.4313391"><ele>474.0</ele><time>2026-04-07T10:20:47.844Z</time></trkpt><trkpt lat="42.6786188" lon="12.4315206"><ele>473.0</ele><time>2026-04-07T10:20:48.849Z</time></trkpt><trkpt lat="42.6785946" lon="12.4317033"><ele>472.0</ele><time>2026-04-07T10:20:49.848Z</time></trkpt><trkpt lat="42.6785608" lon="12.4318831"><ele>471.0</ele><time>2026-04-07T10:20:50.862Z</time></trkpt><trkpt lat="42.6785129" lon="12.4320655"><ele>470.0</ele><time>2026-04-07T10:20:51.847Z</time></trkpt><trkpt lat="42.6784616" lon="12.4322559"><ele>470.0</ele><time>2026-04-07T10:20:52.857Z</time></trkpt><trkpt lat="42.6784134" lon="12.4324513"><ele>470.0</ele><time>2026-04-07T10:20:53.847Z</time></trkpt><trkpt lat="42.6783642" lon="12.4326457"><ele>470.0</ele><time>2026-04-07T10:20:54.847Z</time></trkpt><trkpt lat="42.6783065" lon="12.4328376"><ele>470.3333333333333</ele><time>2026-04-07T10:20:55.846Z</time></trkpt><trkpt lat="42.6782431" lon="12.4330286"><ele>470.66666666666663</ele><time>2026-04-07T10:20:56.846Z</time></trkpt><trkpt lat="42.6781753" lon="12.4332253"><ele>471.0</ele><time>2026-04-07T10:20:57.845Z</time></trkpt><trkpt lat="42.6781088" lon="12.4334148"><ele>471.0</ele><time>2026-04-07T10:20:58.848Z</time></trkpt><trkpt lat="42.6780503" lon="12.4335883"><ele>471.0</ele><time>2026-04-07T10:20:59.848Z</time></trkpt><trkpt lat="42.6780034" lon="12.4337401"><ele>471.0</ele><time>2026-04-07T10:21:00.841Z</time></trkpt><trkpt lat="42.6779637" lon="12.4338874"><ele>471.0</ele><time>2026-04-07T10:21:01.848Z</time></trkpt><trkpt lat="42.6779374" lon="12.4340354"><ele>472.0</ele><time>2026-04-07T10:21:02.852Z</time></trkpt><trkpt lat="42.6779216" lon="12.4341878"><ele>473.0</ele><time>2026-04-07T10:21:03.844Z</time></trkpt><trkpt lat="42.6779135" lon="12.4343511"><ele>474.0</ele><time>2026-04-07T10:21:04.848Z</time></trkpt><trkpt lat="42.6779039" lon="12.4345128"><ele>475.0</ele><time>2026-04-07T10:21:05.862Z</time></trkpt><trkpt lat="42.6778846" lon="12.4346619"><ele>474.6</ele><time>2026-04-07T10:21:06.846Z</time></trkpt><trkpt lat="42.6778563" lon="12.4347994"><ele>474.2</ele><time>2026-04-07T10:21:07.846Z</time></trkpt><trkpt lat="42.677819" lon="12.4349168"><ele>473.79999999999995</ele><time>2026-04-07T10:21:08.859Z</time></trkpt><trkpt lat="42.677767" lon="12.4350263"><ele>473.4</ele><time>2026-04-07T10:21:09.853Z</time></trkpt><trkpt lat="42.6776991" lon="12.435118"><ele>473.0</ele><time>2026-04-07T10:21:10.846Z</time></trkpt><trkpt lat="42.6776099" lon="12.4352015"><ele>473.0</ele><time>2026-04-07T10:21:11.842Z</time></trkpt><trkpt lat="42.6775027" lon="12.4352831"><ele>473.0</ele><time>2026-04-07T10:21:12.844Z</time></trkpt><trkpt lat="42.6773864" lon="12.4353565"><ele>473.0</ele><time>2026-04-07T10:21:13.839Z</time></trkpt><trkpt lat="42.6772581" lon="12.4354258"><ele>473.0</ele><time>2026-04-07T10:21:14.864Z</time></trkpt><trkpt lat="42.677128" lon="12.4354947"><ele>474.25</ele><time>2026-04-07T10:21:15.853Z</time></trkpt><trkpt lat="42.6769994" lon="12.4355681"><ele>475.5</ele><time>2026-04-07T10:21:16.851Z</time></trkpt><trkpt lat="42.6768681" lon="12.435654"><ele>476.75</ele><time>2026-04-07T10:21:17.848Z</time></trkpt><trkpt lat="42.6767337" lon="12.4357304"><ele>478.0</ele><time>2026-04-07T10:21:18.85Z</time></trkpt><trkpt lat="42.6765998" lon="12.4357947"><ele>478.0</ele><time>2026-04-07T10:21:19.847Z</time></trkpt><trkpt lat="42.6764703" lon="12.4358518"><ele>478.0</ele><time>2026-04-07T10:21:20.832Z</time></trkpt><trkpt lat="42.6763424" lon="12.4358976"><ele>478.0</ele><time>2026-04-07T10:21:21.841Z</time></trkpt><trkpt lat="42.6762139" lon="12.435933"><ele>478.0</ele><time>2026-04-07T10:21:22.841Z</time></trkpt><trkpt lat="42.6760886" lon="12.4359591"><ele>477.79999999999995</ele><time>2026-04-07T10:21:23.847Z</time></trkpt><trkpt lat="42.6759693" lon="12.4359839"><ele>477.59999999999997</ele><time>2026-04-07T10:21:24.863Z</time></trkpt><trkpt lat="42.6758629" lon="12.4360049"><ele>477.40000000000003</ele><time>2026-04-07T10:21:25.849Z</time></trkpt><trkpt lat="42.6757657" lon="12.4360261"><ele>477.20000000000005</ele><time>2026-04-07T10:21:26.867Z</time></trkpt><trkpt lat="42.6756747" lon="12.436052"><ele>477.0</ele><time>2026-04-07T10:21:27.849Z</time></trkpt><trkpt lat="42.6756057" lon="12.4360753"><ele>477.0</ele><time>2026-04-07T10:21:28.852Z</time></trkpt><trkpt lat="42.6755456" lon="12.4361237"><ele>477.0</ele><time>2026-04-07T10:21:29.848Z</time></trkpt><trkpt lat="42.6754908" lon="12.4362045"><ele>477.0</ele><time>2026-04-07T10:21:30.851Z</time></trkpt><trkpt lat="42.6754503" lon="12.4363072"><ele>477.0</ele><time>2026-04-07T10:21:31.855Z</time></trkpt><trkpt lat="42.675429" lon="12.4364146"><ele>477.0</ele><time>2026-04-07T10:21:32.855Z</time></trkpt><trkpt lat="42.6754073" lon="12.4365201"><ele>477.0</ele><time>2026-04-07T10:21:33.833Z</time></trkpt><trkpt lat="42.675387" lon="12.4366104"><ele>477.0</ele><time>2026-04-07T10:21:34.848Z</time></trkpt><trkpt lat="42.6753639" lon="12.4367529"><ele>477.00000000000006</ele><time>2026-04-07T10:21:36.844Z</time></trkpt><trkpt lat="42.6753811" lon="12.4368764"><ele>477.00000000000006</ele><time>2026-04-07T10:21:38.858Z</time></trkpt><trkpt lat="42.6754626" lon="12.436977"><ele>477.0</ele><time>2026-04-07T10:21:40.854Z</time></trkpt><trkpt lat="42.6755854" lon="12.4369928"><ele>477.0</ele><time>2026-04-07T10:21:42.84Z</time></trkpt><trkpt lat="42.675652" lon="12.4369934"><ele>477.0</ele><time>2026-04-07T10:21:43.847Z</time></trkpt><trkpt lat="42.6757229" lon="12.437015"><ele>476.99999999999994</ele><time>2026-04-07T10:21:44.841Z</time></trkpt><trkpt lat="42.6757943" lon="12.4370416"><ele>477.0</ele><time>2026-04-07T10:21:45.846Z</time></trkpt><trkpt lat="42.6758631" lon="12.4370759"><ele>477.0</ele><time>2026-04-07T10:21:46.852Z</time></trkpt><trkpt lat="42.6759198" lon="12.4371193"><ele>476.99999999999994</ele><time>2026-04-07T10:21:47.844Z</time></trkpt><trkpt lat="42.6759704" lon="12.4371745"><ele>477.0</ele><time>2026-04-07T10:21:48.854Z</time></trkpt><trkpt lat="42.6760075" lon="12.4372459"><ele>477.0</ele><time>2026-04-07T10:21:49.858Z</time></trkpt><trkpt lat="42.6760417" lon="12.4373369"><ele>476.4285714285714</ele><time>2026-04-07T10:21:50.854Z</time></trkpt><trkpt lat="42.676072" lon="12.4374342"><ele>475.8571428571428</ele><time>2026-04-07T10:21:51.839Z</time></trkpt><trkpt lat="42.6760961" lon="12.4375369"><ele>475.2857142857143</ele><time>2026-04-07T10:21:52.882Z</time></trkpt><trkpt lat="42.6761231" lon="12.4376295"><ele>474.71428571428567</ele><time>2026-04-07T10:21:53.84Z</time></trkpt><trkpt lat="42.6761503" lon="12.4377174"><ele>474.1428571428571</ele><time>2026-04-07T10:21:54.845Z</time></trkpt><trkpt lat="42.6761781" lon="12.4378013"><ele>473.57142857142856</ele><time>2026-04-07T10:21:55.846Z</time></trkpt><trkpt lat="42.6762129" lon="12.4378769"><ele>473.0</ele><time>2026-04-07T10:21:56.844Z</time></trkpt><trkpt lat="42.6762614" lon="12.4379438"><ele>470.59999999999997</ele><time>2026-04-07T10:21:57.846Z</time></trkpt><trkpt lat="42.6763156" lon="12.437997"><ele>468.19999999999993</ele><time>2026-04-07T10:21:58.841Z</time></trkpt><trkpt lat="42.6764237" lon="12.438082"><ele>465.8</ele><time>2026-04-07T10:22:00.847Z</time></trkpt><trkpt lat="42.6765185" lon="12.438175"><ele>463.4</ele><time>2026-04-07T10:22:02.835Z</time></trkpt><trkpt lat="42.6765443" lon="12.438337"><ele>461.0</ele><time>2026-04-07T10:22:04.842Z</time></trkpt><trkpt lat="42.6765061" lon="12.4384907"><ele>460.99999999999994</ele><time>2026-04-07T10:22:06.86Z</time></trkpt><trkpt lat="42.676466" lon="12.4385623"><ele>461.0</ele><time>2026-04-07T10:22:07.837Z</time></trkpt><trkpt lat="42.6764251" lon="12.4386426"><ele>461.0</ele><time>2026-04-07T10:22:08.858Z</time></trkpt><trkpt lat="42.676382" lon="12.4387358"><ele>461.0</ele><time>2026-04-07T10:22:09.845Z</time></trkpt><trkpt lat="42.6763376" lon="12.4388487"><ele>460.99999999999994</ele><time>2026-04-07T10:22:10.847Z</time></trkpt><trkpt lat="42.6762959" lon="12.4389841"><ele>461.0</ele><time>2026-04-07T10:22:11.849Z</time></trkpt><trkpt lat="42.6762546" lon="12.4391194"><ele>459.6</ele><time>2026-04-07T10:22:12.846Z</time></trkpt><trkpt lat="42.6762185" lon="12.4392467"><ele>458.20000000000005</ele><time>2026-04-07T10:22:13.862Z</time></trkpt><trkpt lat="42.6761815" lon="12.4393445"><ele>456.79999999999995</ele><time>2026-04-07T10:22:14.862Z</time></trkpt><trkpt lat="42.6761433" lon="12.4394218"><ele>455.4</ele><time>2026-04-07T10:22:15.864Z</time></trkpt><trkpt lat="42.6760646" lon="12.4395278"><ele>454.0</ele><time>2026-04-07T10:22:17.845Z</time></trkpt><trkpt lat="42.6759666" lon="12.4396343"><ele>453.33333333333337</ele><time>2026-04-07T10:22:19.843Z</time></trkpt><trkpt lat="42.6759012" lon="12.4396952"><ele>452.6666666666667</ele><time>2026-04-07T10:22:20.855Z</time></trkpt><trkpt lat="42.6758313" lon="12.4397626"><ele>452.0</ele><time>2026-04-07T10:22:21.841Z</time></trkpt><trkpt lat="42.6757583" lon="12.4398329"><ele>451.33333333333337</ele><time>2026-04-07T10:22:22.844Z</time></trkpt><trkpt lat="42.6756802" lon="12.4398939"><ele>450.6666666666667</ele><time>2026-04-07T10:22:23.854Z</time></trkpt><trkpt lat="42.6755891" lon="12.4399498"><ele>450.0</ele><time>2026-04-07T10:22:24.845Z</time></trkpt><trkpt lat="42.6754833" lon="12.4400099"><ele>450.0</ele><time>2026-04-07T10:22:25.859Z</time></trkpt><trkpt lat="42.6753746" lon="12.4400534"><ele>450.0</ele><time>2026-04-07T10:22:26.844Z</time></trkpt><trkpt lat="42.6752726" lon="12.4400914"><ele>450.0</ele><time>2026-04-07T10:22:27.84Z</time></trkpt><trkpt lat="42.6751744" lon="12.4401312"><ele>450.0</ele><time>2026-04-07T10:22:28.859Z</time></trkpt><trkpt lat="42.6750867" lon="12.4401666"><ele>450.0</ele><time>2026-04-07T10:22:29.837Z</time></trkpt><trkpt lat="42.6750026" lon="12.440201"><ele>450.1666666666667</ele><time>2026-04-07T10:22:30.864Z</time></trkpt><trkpt lat="42.6749282" lon="12.4402368"><ele>450.33333333333337</ele><time>2026-04-07T10:22:31.844Z</time></trkpt><trkpt lat="42.6748608" lon="12.440269"><ele>450.5</ele><time>2026-04-07T10:22:32.843Z</time></trkpt><trkpt lat="42.6747633" lon="12.4403283"><ele>450.6666666666667</ele><time>2026-04-07T10:22:34.851Z</time></trkpt><trkpt lat="42.6747001" lon="12.4403728"><ele>450.83333333333337</ele><time>2026-04-07T10:22:36.857Z</time></trkpt><trkpt lat="42.6746254" lon="12.4404396"><ele>451.0</ele><time>2026-04-07T10:22:40.84Z</time></trkpt><trkpt lat="42.6746481" lon="12.4405519"><ele>449.6666666666667</ele><time>2026-04-07T10:22:43.864Z</time></trkpt><trkpt lat="42.6747007" lon="12.4406453"><ele>448.33333333333337</ele><time>2026-04-07T10:22:45.86Z</time></trkpt><trkpt lat="42.6747751" lon="12.4407642"><ele>447.0</ele><time>2026-04-07T10:22:47.859Z</time></trkpt><trkpt lat="42.6748202" lon="12.4408337"><ele>445.66666666666663</ele><time>2026-04-07T10:22:48.839Z</time></trkpt><trkpt lat="42.6748627" lon="12.4409101"><ele>444.3333333333333</ele><time>2026-04-07T10:22:49.843Z</time></trkpt><trkpt lat="42.674908" lon="12.4409834"><ele>443.0</ele><time>2026-04-07T10:22:50.846Z</time></trkpt><trkpt lat="42.674957" lon="12.441054"><ele>443.0</ele><time>2026-04-07T10:22:51.842Z</time></trkpt><trkpt lat="42.6750041" lon="12.4411212"><ele>443.0</ele><time>2026-04-07T10:22:52.844Z</time></trkpt><trkpt lat="42.6750531" lon="12.4411957"><ele>443.0</ele><time>2026-04-07T10:22:53.84Z</time></trkpt><trkpt lat="42.6751012" lon="12.4412733"><ele>443.0</ele><time>2026-04-07T10:22:54.845Z</time></trkpt><trkpt lat="42.6751425" lon="12.4413546"><ele>443.0</ele><time>2026-04-07T10:22:55.858Z</time></trkpt><trkpt lat="42.6751827" lon="12.4414373"><ele>443.0</ele><time>2026-04-07T10:22:56.844Z</time></trkpt><trkpt lat="42.6752242" lon="12.4415182"><ele>443.0</ele><time>2026-04-07T10:22:57.86Z</time></trkpt><trkpt lat="42.6752631" lon="12.4416038"><ele>441.3333333333333</ele><time>2026-04-07T10:22:58.852Z</time></trkpt><trkpt lat="42.6753023" lon="12.4416929"><ele>439.66666666666663</ele><time>2026-04-07T10:22:59.845Z</time></trkpt><trkpt lat="42.6753417" lon="12.4417915"><ele>438.0</ele><time>2026-04-07T10:23:00.858Z</time></trkpt><trkpt lat="42.6753843" lon="12.4418942"><ele>436.33333333333337</ele><time>2026-04-07T10:23:01.843Z</time></trkpt><trkpt lat="42.675428" lon="12.442"><ele>434.6666666666667</ele><time>2026-04-07T10:23:02.845Z</time></trkpt><trkpt lat="42.6754703" lon="12.4421059"><ele>433.0</ele><time>2026-04-07T10:23:03.857Z</time></trkpt><trkpt lat="42.6755176" lon="12.4422162"><ele>431.6666666666667</ele><time>2026-04-07T10:23:04.849Z</time></trkpt><trkpt lat="42.6755647" lon="12.4423274"><ele>430.33333333333337</ele><time>2026-04-07T10:23:05.86Z</time></trkpt><trkpt lat="42.6756122" lon="12.4424266"><ele>429.0</ele><time>2026-04-07T10:23:06.852Z</time></trkpt><trkpt lat="42.6756599" lon="12.4425176"><ele>427.66666666666663</ele><time>2026-04-07T10:23:07.864Z</time></trkpt><trkpt lat="42.6757091" lon="12.4425925"><ele>426.3333333333333</ele><time>2026-04-07T10:23:08.843Z</time></trkpt><trkpt lat="42.6757659" lon="12.4426442"><ele>425.0</ele><time>2026-04-07T10:23:09.852Z</time></trkpt><trkpt lat="42.6758199" lon="12.4426975"><ele>425.0</ele><time>2026-04-07T10:23:10.837Z</time></trkpt><trkpt lat="42.6758682" lon="12.442759"><ele>425.0</ele><time>2026-04-07T10:23:11.839Z</time></trkpt><trkpt lat="42.6759074" lon="12.4428293"><ele>425.0</ele><time>2026-04-07T10:23:12.862Z</time></trkpt><trkpt lat="42.6759431" lon="12.4429073"><ele>425.0</ele><time>2026-04-07T10:23:13.84Z</time></trkpt><trkpt lat="42.6759795" lon="12.4429926"><ele>425.0</ele><time>2026-04-07T10:23:14.859Z</time></trkpt><trkpt lat="42.6760132" lon="12.4430749"><ele>425.0</ele><time>2026-04-07T10:23:15.845Z</time></trkpt><trkpt lat="42.676053" lon="12.4431534"><ele>425.0</ele><time>2026-04-07T10:23:16.845Z</time></trkpt><trkpt lat="42.6761039" lon="12.4432262"><ele>424.49999999999994</ele><time>2026-04-07T10:23:17.844Z</time></trkpt><trkpt lat="42.67615" lon="12.4432922"><ele>424.0</ele><time>2026-04-07T10:23:18.844Z</time></trkpt><trkpt lat="42.6762267" lon="12.4434274"><ele>423.5</ele><time>2026-04-07T10:23:20.843Z</time></trkpt><trkpt lat="42.6762732" lon="12.4435046"><ele>423.0</ele><time>2026-04-07T10:23:21.846Z</time></trkpt><trkpt lat="42.6763273" lon="12.4435862"><ele>422.49999999999994</ele><time>2026-04-07T10:23:22.841Z</time></trkpt><trkpt lat="42.6763857" lon="12.4436603"><ele>422.0</ele><time>2026-04-07T10:23:23.845Z</time></trkpt><trkpt lat="42.6764401" lon="12.4437289"><ele>420.8333333333333</ele><time>2026-04-07T10:23:24.858Z</time></trkpt><trkpt lat="42.6765027" lon="12.4437984"><ele>419.66666666666663</ele><time>2026-04-07T10:23:25.84Z</time></trkpt><trkpt lat="42.6765758" lon="12.4438708"><ele>418.5</ele><time>2026-04-07T10:23:26.859Z</time></trkpt><trkpt lat="42.6766443" lon="12.4439345"><ele>417.33333333333337</ele><time>2026-04-07T10:23:27.85Z</time></trkpt><trkpt lat="42.6767094" lon="12.4440001"><ele>416.1666666666667</ele><time>2026-04-07T10:23:28.841Z</time></trkpt><trkpt lat="42.6767746" lon="12.4440754"><ele>415.0</ele><time>2026-04-07T10:23:29.868Z</time></trkpt><trkpt lat="42.6768247" lon="12.4441624"><ele>415.00000000000006</ele><time>2026-04-07T10:23:30.84Z</time></trkpt><trkpt lat="42.6768638" lon="12.4442606"><ele>415.0</ele><time>2026-04-07T10:23:31.848Z</time></trkpt><trkpt lat="42.6769063" lon="12.4443635"><ele>415.0</ele><time>2026-04-07T10:23:32.841Z</time></trkpt><trkpt lat="42.676952" lon="12.4444733"><ele>415.0</ele><time>2026-04-07T10:23:33.841Z</time></trkpt><trkpt lat="42.6769959" lon="12.4445814"><ele>415.00000000000006</ele><time>2026-04-07T10:23:34.843Z</time></trkpt><trkpt lat="42.6770478" lon="12.4446762"><ele>415.0</ele><time>2026-04-07T10:23:35.84Z</time></trkpt><trkpt lat="42.6771004" lon="12.4447618"><ele>413.83333333333337</ele><time>2026-04-07T10:23:36.841Z</time></trkpt><trkpt lat="42.6771443" lon="12.4448435"><ele>412.6666666666667</ele><time>2026-04-07T10:23:37.851Z</time></trkpt><trkpt lat="42.6771901" lon="12.4449317"><ele>411.5</ele><time>2026-04-07T10:23:38.841Z</time></trkpt><trkpt lat="42.6772333" lon="12.4450273"><ele>410.33333333333337</ele><time>2026-04-07T10:23:39.848Z</time></trkpt><trkpt lat="42.6772708" lon="12.445124"><ele>409.1666666666667</ele><time>2026-04-07T10:23:40.843Z</time></trkpt><trkpt lat="42.677306" lon="12.4452184"><ele>408.0</ele><time>2026-04-07T10:23:41.842Z</time></trkpt><trkpt lat="42.6773418" lon="12.4453087"><ele>408.0</ele><time>2026-04-07T10:23:42.861Z</time></trkpt><trkpt lat="42.6773852" lon="12.4453977"><ele>408.0</ele><time>2026-04-07T10:23:43.859Z</time></trkpt><trkpt lat="42.677448" lon="12.4454997"><ele>408.0</ele><time>2026-04-07T10:23:44.859Z</time></trkpt><trkpt lat="42.677525" lon="12.4456024"><ele>408.0</ele><time>2026-04-07T10:23:45.841Z</time></trkpt><trkpt lat="42.6776" lon="12.4457206"><ele>408.0</ele><time>2026-04-07T10:23:46.852Z</time></trkpt><trkpt lat="42.6776699" lon="12.4458529"><ele>407.6666666666667</ele><time>2026-04-07T10:23:47.859Z</time></trkpt><trkpt lat="42.6777306" lon="12.4459617"><ele>407.33333333333337</ele><time>2026-04-07T10:23:48.868Z</time></trkpt><trkpt lat="42.6777838" lon="12.4460465"><ele>407.0</ele><time>2026-04-07T10:23:49.845Z</time></trkpt><trkpt lat="42.6778405" lon="12.4461032"><ele>406.6666666666667</ele><time>2026-04-07T10:23:50.86Z</time></trkpt><trkpt lat="42.67791" lon="12.446147"><ele>406.33333333333337</ele><time>2026-04-07T10:23:51.84Z</time></trkpt><trkpt lat="42.677982" lon="12.4461947"><ele>406.0</ele><time>2026-04-07T10:23:52.853Z</time></trkpt><trkpt lat="42.6780542" lon="12.4462583"><ele>405.1666666666667</ele><time>2026-04-07T10:23:53.868Z</time></trkpt><trkpt lat="42.6781166" lon="12.4463271"><ele>404.33333333333337</ele><time>2026-04-07T10:23:54.843Z</time></trkpt><trkpt lat="42.6781707" lon="12.4463956"><ele>403.5</ele><time>2026-04-07T10:23:55.843Z</time></trkpt><trkpt lat="42.6782217" lon="12.4464709"><ele>402.66666666666663</ele><time>2026-04-07T10:23:56.838Z</time></trkpt><trkpt lat="42.6782746" lon="12.4465521"><ele>401.8333333333333</ele><time>2026-04-07T10:23:57.847Z</time></trkpt><trkpt lat="42.6783219" lon="12.4466443"><ele>401.0</ele><time>2026-04-07T10:23:58.864Z</time></trkpt><trkpt lat="42.6783606" lon="12.4467415"><ele>401.0</ele><time>2026-04-07T10:23:59.866Z</time></trkpt><trkpt lat="42.6784051" lon="12.4468359"><ele>401.0</ele><time>2026-04-07T10:24:00.857Z</time></trkpt><trkpt lat="42.6784585" lon="12.4469415"><ele>401.0</ele><time>2026-04-07T10:24:01.851Z</time></trkpt><trkpt lat="42.6785189" lon="12.4470524"><ele>401.0</ele><time>2026-04-07T10:24:02.848Z</time></trkpt><trkpt lat="42.6785793" lon="12.44717"><ele>401.0</ele><time>2026-04-07T10:24:03.853Z</time></trkpt><trkpt lat="42.6786442" lon="12.4472811"><ele>399.8</ele><time>2026-04-07T10:24:04.866Z</time></trkpt><trkpt lat="42.6787027" lon="12.4473829"><ele>398.6</ele><time>2026-04-07T10:24:05.837Z</time></trkpt><trkpt lat="42.67876" lon="12.4474759"><ele>397.4</ele><time>2026-04-07T10:24:06.849Z</time></trkpt><trkpt lat="42.6788247" lon="12.4475744"><ele>396.2</ele><time>2026-04-07T10:24:07.833Z</time></trkpt><trkpt lat="42.6788935" lon="12.4476637"><ele>395.0</ele><time>2026-04-07T10:24:08.856Z</time></trkpt><trkpt lat="42.6789637" lon="12.4477499"><ele>395.0</ele><time>2026-04-07T10:24:09.841Z</time></trkpt><trkpt lat="42.679037" lon="12.4478388"><ele>395.0</ele><time>2026-04-07T10:24:10.857Z</time></trkpt><trkpt lat="42.6791145" lon="12.4479263"><ele>395.0</ele><time>2026-04-07T10:24:11.853Z</time></trkpt><trkpt lat="42.6791953" lon="12.4480078"><ele>395.0</ele><time>2026-04-07T10:24:12.834Z</time></trkpt><trkpt lat="42.6792774" lon="12.448082"><ele>395.0</ele><time>2026-04-07T10:24:13.854Z</time></trkpt><trkpt lat="42.6793636" lon="12.4481574"><ele>394.2</ele><time>2026-04-07T10:24:14.84Z</time></trkpt><trkpt lat="42.6794567" lon="12.4482416"><ele>393.4</ele><time>2026-04-07T10:24:15.846Z</time></trkpt><trkpt lat="42.6795519" lon="12.4483265"><ele>392.6</ele><time>2026-04-07T10:24:16.852Z</time></trkpt><trkpt lat="42.6796343" lon="12.4484052"><ele>391.8</ele><time>2026-04-07T10:24:17.844Z</time></trkpt><trkpt lat="42.6797025" lon="12.4484723"><ele>391.0</ele><time>2026-04-07T10:24:18.862Z</time></trkpt><trkpt lat="42.6797665" lon="12.4485355"><ele>391.00000000000006</ele><time>2026-04-07T10:24:19.847Z</time></trkpt><trkpt lat="42.6798312" lon="12.4485992"><ele>391.0</ele><time>2026-04-07T10:24:20.855Z</time></trkpt><trkpt lat="42.6798975" lon="12.4486701"><ele>391.0</ele><time>2026-04-07T10:24:21.854Z</time></trkpt><trkpt lat="42.6799627" lon="12.4487441"><ele>391.0</ele><time>2026-04-07T10:24:22.852Z</time></trkpt><trkpt lat="42.6800249" lon="12.4488071"><ele>391.00000000000006</ele><time>2026-04-07T10:24:23.865Z</time></trkpt><trkpt lat="42.6800706" lon="12.4488676"><ele>391.0</ele><time>2026-04-07T10:24:24.866Z</time></trkpt><trkpt lat="42.6801303" lon="12.4490029"><ele>391.1666666666667</ele><time>2026-04-07T10:24:26.863Z</time></trkpt><trkpt lat="42.6801932" lon="12.4491449"><ele>391.33333333333337</ele><time>2026-04-07T10:24:28.854Z</time></trkpt><trkpt lat="42.6802245" lon="12.4492338"><ele>391.5</ele><time>2026-04-07T10:24:29.852Z</time></trkpt><trkpt lat="42.6802616" lon="12.4493358"><ele>391.66666666666663</ele><time>2026-04-07T10:24:30.854Z</time></trkpt><trkpt lat="42.6802975" lon="12.4494347"><ele>391.8333333333333</ele><time>2026-04-07T10:24:31.852Z</time></trkpt><trkpt lat="42.6803282" lon="12.4495213"><ele>392.0</ele><time>2026-04-07T10:24:32.855Z</time></trkpt><trkpt lat="42.6803754" lon="12.449653"><ele>392.0</ele><time>2026-04-07T10:24:34.849Z</time></trkpt><trkpt lat="42.6803971" lon="12.4497595"><ele>392.0</ele><time>2026-04-07T10:24:36.853Z</time></trkpt><trkpt lat="42.6803919" lon="12.449663"><ele>392.0</ele><time>2026-04-07T10:25:01.848Z</time></trkpt><trkpt lat="42.6803543" lon="12.4495834"><ele>392.0</ele><time>2026-04-07T10:25:02.852Z</time></trkpt><trkpt lat="42.6803005" lon="12.4494356"><ele>392.0</ele><time>2026-04-07T10:25:04.846Z</time></trkpt><trkpt lat="42.6802497" lon="12.449278"><ele>391.99999999999994</ele><time>2026-04-07T10:25:06.845Z</time></trkpt><trkpt lat="42.6802195" lon="12.4491937"><ele>392.0</ele><time>2026-04-07T10:25:07.839Z</time></trkpt><trkpt lat="42.6801845" lon="12.4491098"><ele>392.0</ele><time>2026-04-07T10:25:08.856Z</time></trkpt><trkpt lat="42.68015" lon="12.4490339"><ele>392.0</ele><time>2026-04-07T10:25:09.848Z</time></trkpt><trkpt lat="42.6801028" lon="12.4489316"><ele>391.99999999999994</ele><time>2026-04-07T10:25:11.839Z</time></trkpt><trkpt lat="42.6801379" lon="12.4488494"><ele>392.0</ele><time>2026-04-07T10:25:18.836Z</time></trkpt><trkpt lat="42.6802252" lon="12.4489001"><ele>392.40000000000003</ele><time>2026-04-07T10:25:20.841Z</time></trkpt><trkpt lat="42.6803236" lon="12.4489924"><ele>392.8</ele><time>2026-04-07T10:25:22.853Z</time></trkpt><trkpt lat="42.6803982" lon="12.4490299"><ele>393.2</ele><time>2026-04-07T10:25:23.854Z</time></trkpt><trkpt lat="42.6804891" lon="12.4490821"><ele>393.6</ele><time>2026-04-07T10:25:24.853Z</time></trkpt><trkpt lat="42.680582" lon="12.4491371"><ele>394.0</ele><time>2026-04-07T10:25:25.839Z</time></trkpt><trkpt lat="42.6806723" lon="12.4491715"><ele>394.0</ele><time>2026-04-07T10:25:26.865Z</time></trkpt><trkpt lat="42.680753" lon="12.4491992"><ele>394.0</ele><time>2026-04-07T10:25:27.846Z</time></trkpt><trkpt lat="42.6808278" lon="12.4492274"><ele>394.0</ele><time>2026-04-07T10:25:28.861Z</time></trkpt><trkpt lat="42.6808975" lon="12.4492417"><ele>394.0</ele><time>2026-04-07T10:25:29.839Z</time></trkpt><trkpt lat="42.6809601" lon="12.4492553"><ele>394.0</ele><time>2026-04-07T10:25:30.856Z</time></trkpt><trkpt lat="42.6810225" lon="12.4492843"><ele>394.0</ele><time>2026-04-07T10:25:31.848Z</time></trkpt><trkpt lat="42.6810971" lon="12.4493286"><ele>394.0</ele><time>2026-04-07T10:25:32.865Z</time></trkpt><trkpt lat="42.6811893" lon="12.4493678"><ele>393.83333333333337</ele><time>2026-04-07T10:25:33.834Z</time></trkpt><trkpt lat="42.6812793" lon="12.4494161"><ele>393.6666666666667</ele><time>2026-04-07T10:25:34.847Z</time></trkpt><trkpt lat="42.6813679" lon="12.4494608"><ele>393.5</ele><time>2026-04-07T10:25:35.839Z</time></trkpt><trkpt lat="42.6814549" lon="12.4495035"><ele>393.33333333333337</ele><time>2026-04-07T10:25:36.839Z</time></trkpt><trkpt lat="42.6815299" lon="12.4495503"><ele>393.1666666666667</ele><time>2026-04-07T10:25:37.864Z</time></trkpt><trkpt lat="42.6815979" lon="12.4495985"><ele>393.0</ele><time>2026-04-07T10:25:38.842Z</time></trkpt><trkpt lat="42.681665" lon="12.4496539"><ele>393.0</ele><time>2026-04-07T10:25:39.857Z</time></trkpt><trkpt lat="42.6817333" lon="12.4497069"><ele>393.0</ele><time>2026-04-07T10:25:40.843Z</time></trkpt><trkpt lat="42.6818056" lon="12.4497559"><ele>393.0</ele><time>2026-04-07T10:25:41.865Z</time></trkpt><trkpt lat="42.681882" lon="12.4498158"><ele>393.0</ele><time>2026-04-07T10:25:42.856Z</time></trkpt><trkpt lat="42.6819583" lon="12.4498787"><ele>393.0</ele><time>2026-04-07T10:25:43.837Z</time></trkpt><trkpt lat="42.6820333" lon="12.4499375"><ele>393.0</ele><time>2026-04-07T10:25:44.835Z</time></trkpt><trkpt lat="42.6821091" lon="12.4499941"><ele>391.8333333333333</ele><time>2026-04-07T10:25:45.85Z</time></trkpt><trkpt lat="42.6821911" lon="12.4500548"><ele>390.66666666666663</ele><time>2026-04-07T10:25:46.84Z</time></trkpt><trkpt lat="42.6822741" lon="12.4501111"><ele>389.5</ele><time>2026-04-07T10:25:47.848Z</time></trkpt><trkpt lat="42.6823501" lon="12.4501654"><ele>388.3333333333333</ele><time>2026-04-07T10:25:48.853Z</time></trkpt><trkpt lat="42.6824197" lon="12.4502189"><ele>387.16666666666663</ele><time>2026-04-07T10:25:49.84Z</time></trkpt><trkpt lat="42.6824847" lon="12.4502694"><ele>386.0</ele><time>2026-04-07T10:25:50.869Z</time></trkpt><trkpt lat="42.6825468" lon="12.4503144"><ele>385.99999999999994</ele><time>2026-04-07T10:25:51.84Z</time></trkpt><trkpt lat="42.6826109" lon="12.4503655"><ele>386.0</ele><time>2026-04-07T10:25:52.855Z</time></trkpt><trkpt lat="42.6826757" lon="12.4504221"><ele>386.0</ele><time>2026-04-07T10:25:53.85Z</time></trkpt><trkpt lat="42.6827385" lon="12.4504689"><ele>386.0</ele><time>2026-04-07T10:25:54.848Z</time></trkpt><trkpt lat="42.6827997" lon="12.4505154"><ele>385.99999999999994</ele><time>2026-04-07T10:25:55.849Z</time></trkpt><trkpt lat="42.6828944" lon="12.4506112"><ele>386.0</ele><time>2026-04-07T10:25:57.84Z</time></trkpt><trkpt lat="42.6829678" lon="12.4507146"><ele>385.3333333333333</ele><time>2026-04-07T10:25:59.865Z</time></trkpt><trkpt lat="42.683074" lon="12.4508308"><ele>384.66666666666663</ele><time>2026-04-07T10:26:01.851Z</time></trkpt><trkpt lat="42.683133" lon="12.4508924"><ele>384.0</ele><time>2026-04-07T10:26:02.848Z</time></trkpt><trkpt lat="42.6831893" lon="12.4509547"><ele>383.3333333333333</ele><time>2026-04-07T10:26:03.845Z</time></trkpt><trkpt lat="42.6832392" lon="12.4510157"><ele>382.66666666666663</ele><time>2026-04-07T10:26:04.848Z</time></trkpt><trkpt lat="42.6832882" lon="12.4510731"><ele>382.0</ele><time>2026-04-07T10:26:05.842Z</time></trkpt><trkpt lat="42.6833391" lon="12.4511311"><ele>382.0</ele><time>2026-04-07T10:26:06.849Z</time></trkpt><trkpt lat="42.6833887" lon="12.4511963"><ele>382.0</ele><time>2026-04-07T10:26:07.849Z</time></trkpt><trkpt lat="42.6834503" lon="12.4512646"><ele>382.0</ele><time>2026-04-07T10:26:08.855Z</time></trkpt><trkpt lat="42.6835243" lon="12.4513475"><ele>382.0</ele><time>2026-04-07T10:26:09.856Z</time></trkpt><trkpt lat="42.6835946" lon="12.4514304"><ele>382.0</ele><time>2026-04-07T10:26:10.849Z</time></trkpt><trkpt lat="42.6836611" lon="12.451513"><ele>382.0</ele><time>2026-04-07T10:26:11.853Z</time></trkpt><trkpt lat="42.6837202" lon="12.4515999"><ele>381.20000000000005</ele><time>2026-04-07T10:26:12.853Z</time></trkpt><trkpt lat="42.6837792" lon="12.4516831"><ele>380.4</ele><time>2026-04-07T10:26:13.849Z</time></trkpt><trkpt lat="42.6838422" lon="12.4517741"><ele>379.6</ele><time>2026-04-07T10:26:14.848Z</time></trkpt><trkpt lat="42.6839068" lon="12.4518715"><ele>378.79999999999995</ele><time>2026-04-07T10:26:15.845Z</time></trkpt><trkpt lat="42.6839722" lon="12.4519698"><ele>378.0</ele><time>2026-04-07T10:26:16.847Z</time></trkpt><trkpt lat="42.6840321" lon="12.4520639"><ele>377.0</ele><time>2026-04-07T10:26:17.848Z</time></trkpt><trkpt lat="42.6840834" lon="12.4521534"><ele>376.0</ele><time>2026-04-07T10:26:18.872Z</time></trkpt><trkpt lat="42.6841276" lon="12.4522391"><ele>375.0</ele><time>2026-04-07T10:26:19.851Z</time></trkpt><trkpt lat="42.6841682" lon="12.4523212"><ele>374.0</ele><time>2026-04-07T10:26:20.862Z</time></trkpt><trkpt lat="42.6842084" lon="12.452393"><ele>373.0</ele><time>2026-04-07T10:26:21.835Z</time></trkpt><trkpt lat="42.6842522" lon="12.4524615"><ele>372.0</ele><time>2026-04-07T10:26:22.849Z</time></trkpt><trkpt lat="42.6842977" lon="12.4525279"><ele>371.0</ele><time>2026-04-07T10:26:23.846Z</time></trkpt><trkpt lat="42.6843405" lon="12.4525942"><ele>371.0</ele><time>2026-04-07T10:26:24.845Z</time></trkpt><trkpt lat="42.6844176" lon="12.4527097"><ele>371.0</ele><time>2026-04-07T10:26:26.848Z</time></trkpt><trkpt lat="42.6844581" lon="12.4527773"><ele>371.0</ele><time>2026-04-07T10:26:27.86Z</time></trkpt><trkpt lat="42.6845419" lon="12.4529019"><ele>371.0</ele><time>2026-04-07T10:26:29.845Z</time></trkpt><trkpt lat="42.6845893" lon="12.4529585"><ele>371.0</ele><time>2026-04-07T10:26:30.839Z</time></trkpt><trkpt lat="42.6846456" lon="12.452999"><ele>371.0</ele><time>2026-04-07T10:26:31.851Z</time></trkpt><trkpt lat="42.684707" lon="12.4530358"><ele>368.5</ele><time>2026-04-07T10:26:32.849Z</time></trkpt><trkpt lat="42.6847794" lon="12.4530748"><ele>366.0</ele><time>2026-04-07T10:26:33.847Z</time></trkpt><trkpt lat="42.6848548" lon="12.4531238"><ele>363.5</ele><time>2026-04-07T10:26:34.854Z</time></trkpt><trkpt lat="42.6849311" lon="12.4531837"><ele>361.0</ele><time>2026-04-07T10:26:35.848Z</time></trkpt><trkpt lat="42.6850154" lon="12.4532478"><ele>358.5</ele><time>2026-04-07T10:26:36.85Z</time></trkpt><trkpt lat="42.6850973" lon="12.4533154"><ele>356.0</ele><time>2026-04-07T10:26:37.836Z</time></trkpt><trkpt lat="42.6851818" lon="12.4533892"><ele>355.6</ele><time>2026-04-07T10:26:38.852Z</time></trkpt><trkpt lat="42.6852656" lon="12.45346"><ele>355.20000000000005</ele><time>2026-04-07T10:26:39.84Z</time></trkpt><trkpt lat="42.6853488" lon="12.4535312"><ele>354.79999999999995</ele><time>2026-04-07T10:26:40.848Z</time></trkpt><trkpt lat="42.6854278" lon="12.4535981"><ele>354.4</ele><time>2026-04-07T10:26:41.847Z</time></trkpt><trkpt lat="42.6855042" lon="12.4536654"><ele>354.0</ele><time>2026-04-07T10:26:42.857Z</time></trkpt><trkpt lat="42.6855776" lon="12.453728"><ele>352.6</ele><time>2026-04-07T10:26:43.846Z</time></trkpt><trkpt lat="42.6856495" lon="12.4537939"><ele>351.2</ele><time>2026-04-07T10:26:44.848Z</time></trkpt><trkpt lat="42.6857264" lon="12.4538556"><ele>349.8</ele><time>2026-04-07T10:26:45.852Z</time></trkpt><trkpt lat="42.6858097" lon="12.4539078"><ele>348.40000000000003</ele><time>2026-04-07T10:26:46.843Z</time></trkpt><trkpt lat="42.6858956" lon="12.4539632"><ele>347.0</ele><time>2026-04-07T10:26:47.842Z</time></trkpt><trkpt lat="42.6859837" lon="12.4540145"><ele>347.0</ele><time>2026-04-07T10:26:48.844Z</time></trkpt><trkpt lat="42.6860719" lon="12.4540575"><ele>347.0</ele><time>2026-04-07T10:26:49.849Z</time></trkpt><trkpt lat="42.6861564" lon="12.4541002"><ele>347.0</ele><time>2026-04-07T10:26:50.852Z</time></trkpt><trkpt lat="42.686243" lon="12.4541406"><ele>347.0</ele><time>2026-04-07T10:26:51.873Z</time></trkpt><trkpt lat="42.686321" lon="12.4541871"><ele>347.0</ele><time>2026-04-07T10:26:52.853Z</time></trkpt><trkpt lat="42.6863938" lon="12.4542396"><ele>347.0</ele><time>2026-04-07T10:26:53.834Z</time></trkpt><trkpt lat="42.6864668" lon="12.4542828"><ele>346.0</ele><time>2026-04-07T10:26:54.854Z</time></trkpt><trkpt lat="42.6865369" lon="12.4543139"><ele>345.0</ele><time>2026-04-07T10:26:55.86Z</time></trkpt><trkpt lat="42.6866033" lon="12.4543241"><ele>344.0</ele><time>2026-04-07T10:26:56.851Z</time></trkpt><trkpt lat="42.6866719" lon="12.4543215"><ele>343.0</ele><time>2026-04-07T10:26:57.849Z</time></trkpt><trkpt lat="42.6867509" lon="12.4543132"><ele>342.0</ele><time>2026-04-07T10:26:58.841Z</time></trkpt><trkpt lat="42.6868465" lon="12.4542953"><ele>341.0</ele><time>2026-04-07T10:26:59.849Z</time></trkpt><trkpt lat="42.6869447" lon="12.4542714"><ele>339.0</ele><time>2026-04-07T10:27:00.853Z</time></trkpt><trkpt lat="42.6870384" lon="12.4542533"><ele>337.0</ele><time>2026-04-07T10:27:01.844Z</time></trkpt><trkpt lat="42.6871194" lon="12.454252"><ele>335.0</ele><time>2026-04-07T10:27:02.839Z</time></trkpt><trkpt lat="42.6871849" lon="12.4542751"><ele>333.0</ele><time>2026-04-07T10:27:03.848Z</time></trkpt><trkpt lat="42.6873026" lon="12.4543223"><ele>331.0</ele><time>2026-04-07T10:27:05.847Z</time></trkpt><trkpt lat="42.6874035" lon="12.4543511"><ele>331.0</ele><time>2026-04-07T10:27:07.86Z</time></trkpt><trkpt lat="42.6874888" lon="12.4543374"><ele>331.0</ele><time>2026-04-07T10:27:09.849Z</time></trkpt><trkpt lat="42.6875656" lon="12.4542994"><ele>331.0</ele><time>2026-04-07T10:27:11.85Z</time></trkpt><trkpt lat="42.6876735" lon="12.4542288"><ele>331.0</ele><time>2026-04-07T10:27:13.859Z</time></trkpt><trkpt lat="42.6877419" lon="12.4541863"><ele>331.0</ele><time>2026-04-07T10:27:14.846Z</time></trkpt><trkpt lat="42.6878108" lon="12.4541366"><ele>331.0</ele><time>2026-04-07T10:27:15.841Z</time></trkpt><trkpt lat="42.6878872" lon="12.4540801"><ele>330.8</ele><time>2026-04-07T10:27:16.842Z</time></trkpt><trkpt lat="42.6879721" lon="12.4540239"><ele>330.6</ele><time>2026-04-07T10:27:17.844Z</time></trkpt><trkpt lat="42.6880551" lon="12.4539601"><ele>330.4</ele><time>2026-04-07T10:27:18.855Z</time></trkpt><trkpt lat="42.6881379" lon="12.4538954"><ele>330.2</ele><time>2026-04-07T10:27:19.847Z</time></trkpt><trkpt lat="42.6882271" lon="12.4538259"><ele>330.0</ele><time>2026-04-07T10:27:20.842Z</time></trkpt><trkpt lat="42.6883197" lon="12.4537499"><ele>330.0</ele><time>2026-04-07T10:27:21.852Z</time></trkpt><trkpt lat="42.6884144" lon="12.4536825"><ele>330.0</ele><time>2026-04-07T10:27:22.845Z</time></trkpt><trkpt lat="42.6885025" lon="12.4536239"><ele>330.0</ele><time>2026-04-07T10:27:23.848Z</time></trkpt><trkpt lat="42.6885909" lon="12.4535723"><ele>330.0</ele><time>2026-04-07T10:27:24.851Z</time></trkpt><trkpt lat="42.6886676" lon="12.453526"><ele>330.0</ele><time>2026-04-07T10:27:25.853Z</time></trkpt><trkpt lat="42.6887409" lon="12.4534907"><ele>328.6</ele><time>2026-04-07T10:27:26.847Z</time></trkpt><trkpt lat="42.688801" lon="12.4534516"><ele>327.2</ele><time>2026-04-07T10:27:27.843Z</time></trkpt><trkpt lat="42.6889037" lon="12.4533643"><ele>325.79999999999995</ele><time>2026-04-07T10:27:29.844Z</time></trkpt><trkpt lat="42.6889569" lon="12.4533085"><ele>324.4</ele><time>2026-04-07T10:27:30.849Z</time></trkpt><trkpt lat="42.6890219" lon="12.4531762"><ele>323.0</ele><time>2026-04-07T10:27:32.862Z</time></trkpt><trkpt lat="42.6890614" lon="12.453055"><ele>323.0</ele><time>2026-04-07T10:27:34.856Z</time></trkpt><trkpt lat="42.6891185" lon="12.4530095"><ele>323.0</ele><time>2026-04-07T10:27:37.853Z</time></trkpt><trkpt lat="42.6891979" lon="12.453051"><ele>323.0</ele><time>2026-04-07T10:27:39.855Z</time></trkpt><trkpt lat="42.6892611" lon="12.4531063"><ele>323.0</ele><time>2026-04-07T10:27:40.842Z</time></trkpt><trkpt lat="42.6893353" lon="12.4531525"><ele>323.0</ele><time>2026-04-07T10:27:41.852Z</time></trkpt><trkpt lat="42.6894218" lon="12.4531893"><ele>323.0</ele><time>2026-04-07T10:27:42.84Z</time></trkpt><trkpt lat="42.6895136" lon="12.4532214"><ele>322.83333333333337</ele><time>2026-04-07T10:27:43.843Z</time></trkpt><trkpt lat="42.6896011" lon="12.4532555"><ele>322.6666666666667</ele><time>2026-04-07T10:27:44.858Z</time></trkpt><trkpt lat="42.6896847" lon="12.4532935"><ele>322.5</ele><time>2026-04-07T10:27:45.851Z</time></trkpt><trkpt lat="42.6897674" lon="12.4533256"><ele>322.3333333333333</ele><time>2026-04-07T10:27:46.842Z</time></trkpt><trkpt lat="42.6898423" lon="12.4533516"><ele>322.16666666666663</ele><time>2026-04-07T10:27:47.847Z</time></trkpt><trkpt lat="42.6899184" lon="12.4533846"><ele>322.0</ele><time>2026-04-07T10:27:48.85Z</time></trkpt><trkpt lat="42.6900071" lon="12.4534032"><ele>322.0</ele><time>2026-04-07T10:27:49.846Z</time></trkpt><trkpt lat="42.6901072" lon="12.4534183"><ele>322.0</ele><time>2026-04-07T10:27:50.849Z</time></trkpt><trkpt lat="42.6902248" lon="12.453425"><ele>322.0</ele><time>2026-04-07T10:27:51.845Z</time></trkpt><trkpt lat="42.6903544" lon="12.4534131"><ele>322.0</ele><time>2026-04-07T10:27:52.856Z</time></trkpt><trkpt lat="42.6905054" lon="12.4533803"><ele>324.3333333333333</ele><time>2026-04-07T10:27:53.84Z</time></trkpt><trkpt lat="42.6906737" lon="12.4533276"><ele>326.6666666666667</ele><time>2026-04-07T10:27:54.85Z</time></trkpt><trkpt lat="42.69085" lon="12.453256"><ele>329.0</ele><time>2026-04-07T10:27:55.836Z</time></trkpt><trkpt lat="42.691038" lon="12.4531753"><ele>331.6666666666667</ele><time>2026-04-07T10:27:56.845Z</time></trkpt><trkpt lat="42.6912393" lon="12.4530949"><ele>334.3333333333333</ele><time>2026-04-07T10:27:57.854Z</time></trkpt><trkpt lat="42.6914428" lon="12.4530308"><ele>337.0</ele><time>2026-04-07T10:27:58.845Z</time></trkpt><trkpt lat="42.69164" lon="12.4529948"><ele>337.0</ele><time>2026-04-07T10:27:59.844Z</time></trkpt><trkpt lat="42.6918376" lon="12.4529854"><ele>337.0</ele><time>2026-04-07T10:28:00.845Z</time></trkpt><trkpt lat="42.6920345" lon="12.4530163"><ele>337.0</ele><time>2026-04-07T10:28:01.832Z</time></trkpt><trkpt lat="42.6922314" lon="12.4530674"><ele>339.0</ele><time>2026-04-07T10:28:02.853Z</time></trkpt><trkpt lat="42.6924245" lon="12.453111"><ele>341.0</ele><time>2026-04-07T10:28:03.848Z</time></trkpt><trkpt lat="42.6926098" lon="12.4531511"><ele>343.0</ele><time>2026-04-07T10:28:04.853Z</time></trkpt><trkpt lat="42.6927887" lon="12.4531945"><ele>346.66666666666663</ele><time>2026-04-07T10:28:05.851Z</time></trkpt><trkpt lat="42.6929646" lon="12.4532409"><ele>350.3333333333333</ele><time>2026-04-07T10:28:06.851Z</time></trkpt><trkpt lat="42.6931286" lon="12.4533235"><ele>354.0</ele><time>2026-04-07T10:28:07.847Z</time></trkpt><trkpt lat="42.693278" lon="12.4534313"><ele>354.0</ele><time>2026-04-07T10:28:08.838Z</time></trkpt><trkpt lat="42.693407" lon="12.4535802"><ele>354.0</ele><time>2026-04-07T10:28:09.874Z</time></trkpt><trkpt lat="42.6935264" lon="12.4537681"><ele>354.0</ele><time>2026-04-07T10:28:10.84Z</time></trkpt><trkpt lat="42.6936479" lon="12.4539786"><ele>358.0</ele><time>2026-04-07T10:28:11.852Z</time></trkpt><trkpt lat="42.6937752" lon="12.45418"><ele>362.0</ele><time>2026-04-07T10:28:12.853Z</time></trkpt><trkpt lat="42.6938996" lon="12.454381"><ele>366.0</ele><time>2026-04-07T10:28:13.844Z</time></trkpt><trkpt lat="42.694013" lon="12.4545724"><ele>369.6666666666667</ele><time>2026-04-07T10:28:14.852Z</time></trkpt><trkpt lat="42.6941241" lon="12.454754"><ele>373.33333333333337</ele><time>2026-04-07T10:28:15.845Z</time></trkpt><trkpt lat="42.6942312" lon="12.4549215"><ele>377.0</ele><time>2026-04-07T10:28:16.847Z</time></trkpt><trkpt lat="42.6943278" lon="12.4550711"><ele>377.0</ele><time>2026-04-07T10:28:17.847Z</time></trkpt><trkpt lat="42.6944186" lon="12.4552073"><ele>377.0</ele><time>2026-04-07T10:28:18.847Z</time></trkpt><trkpt lat="42.6945039" lon="12.4553306"><ele>377.0</ele><time>2026-04-07T10:28:19.832Z</time></trkpt><trkpt lat="42.6945917" lon="12.4554437"><ele>377.0</ele><time>2026-04-07T10:28:20.846Z</time></trkpt><trkpt lat="42.6946881" lon="12.4555526"><ele>378.6</ele><time>2026-04-07T10:28:21.84Z</time></trkpt><trkpt lat="42.6947916" lon="12.4556534"><ele>380.20000000000005</ele><time>2026-04-07T10:28:22.848Z</time></trkpt><trkpt lat="42.6948866" lon="12.4557441"><ele>381.8</ele><time>2026-04-07T10:28:23.851Z</time></trkpt><trkpt lat="42.6949616" lon="12.4558277"><ele>383.4</ele><time>2026-04-07T10:28:24.848Z</time></trkpt><trkpt lat="42.6950173" lon="12.4559213"><ele>385.0</ele><time>2026-04-07T10:28:25.846Z</time></trkpt><trkpt lat="42.6950653" lon="12.45602"><ele>385.0</ele><time>2026-04-07T10:28:26.835Z</time></trkpt><trkpt lat="42.6951116" lon="12.4561211"><ele>385.0</ele><time>2026-04-07T10:28:27.842Z</time></trkpt><trkpt lat="42.6951672" lon="12.4562325"><ele>385.0</ele><time>2026-04-07T10:28:28.84Z</time></trkpt><trkpt lat="42.6952377" lon="12.4563455"><ele>385.0</ele><time>2026-04-07T10:28:29.842Z</time></trkpt><trkpt lat="42.6953044" lon="12.4564526"><ele>385.0</ele><time>2026-04-07T10:28:30.871Z</time></trkpt><trkpt lat="42.6953657" lon="12.4565604"><ele>385.25</ele><time>2026-04-07T10:28:31.862Z</time></trkpt><trkpt lat="42.6954495" lon="12.4566703"><ele>385.5</ele><time>2026-04-07T10:28:32.86Z</time></trkpt><trkpt lat="42.6955574" lon="12.4567797"><ele>385.75</ele><time>2026-04-07T10:28:33.848Z</time></trkpt><trkpt lat="42.6956834" lon="12.4568966"><ele>386.0</ele><time>2026-04-07T10:28:34.845Z</time></trkpt><trkpt lat="42.6958192" lon="12.4570248"><ele>385.75</ele><time>2026-04-07T10:28:35.842Z</time></trkpt><trkpt lat="42.6959368" lon="12.4571567"><ele>385.5</ele><time>2026-04-07T10:28:36.849Z</time></trkpt><trkpt lat="42.6960314" lon="12.4572879"><ele>385.25</ele><time>2026-04-07T10:28:37.855Z</time></trkpt><trkpt lat="42.6961413" lon="12.4574279"><ele>385.0</ele><time>2026-04-07T10:28:38.862Z</time></trkpt><trkpt lat="42.696271" lon="12.4575683"><ele>385.0</ele><time>2026-04-07T10:28:39.845Z</time></trkpt><trkpt lat="42.6964115" lon="12.45771"><ele>385.0</ele><time>2026-04-07T10:28:40.834Z</time></trkpt><trkpt lat="42.6965336" lon="12.4578463"><ele>385.0</ele><time>2026-04-07T10:28:41.853Z</time></trkpt><trkpt lat="42.6966444" lon="12.4579788"><ele>385.0</ele><time>2026-04-07T10:28:42.852Z</time></trkpt><trkpt lat="42.69674" lon="12.4580964"><ele>385.0</ele><time>2026-04-07T10:28:43.851Z</time></trkpt><trkpt lat="42.6968367" lon="12.4582119"><ele>385.0</ele><time>2026-04-07T10:28:44.858Z</time></trkpt><trkpt lat="42.6969328" lon="12.4583238"><ele>385.0</ele><time>2026-04-07T10:28:45.838Z</time></trkpt><trkpt lat="42.697053" lon="12.4584456"><ele>385.0</ele><time>2026-04-07T10:28:46.84Z</time></trkpt><trkpt lat="42.6971962" lon="12.4585546"><ele>385.0</ele><time>2026-04-07T10:28:47.856Z</time></trkpt><trkpt lat="42.6973414" lon="12.4586649"><ele>385.0</ele><time>2026-04-07T10:28:48.853Z</time></trkpt><trkpt lat="42.6974733" lon="12.4587898"><ele>384.6666666666667</ele><time>2026-04-07T10:28:49.854Z</time></trkpt><trkpt lat="42.6975932" lon="12.4589394"><ele>384.33333333333337</ele><time>2026-04-07T10:28:50.856Z</time></trkpt><trkpt lat="42.697704" lon="12.4591085"><ele>384.0</ele><time>2026-04-07T10:28:51.836Z</time></trkpt><trkpt lat="42.6977931" lon="12.4592572"><ele>385.1666666666667</ele><time>2026-04-07T10:28:52.851Z</time></trkpt><trkpt lat="42.697842" lon="12.4593742"><ele>386.33333333333337</ele><time>2026-04-07T10:28:53.84Z</time></trkpt><trkpt lat="42.6978774" lon="12.459464"><ele>387.5</ele><time>2026-04-07T10:28:54.839Z</time></trkpt><trkpt lat="42.697926" lon="12.4595558"><ele>388.6666666666667</ele><time>2026-04-07T10:28:56.844Z</time></trkpt><trkpt lat="42.6980015" lon="12.4596019"><ele>389.83333333333337</ele><time>2026-04-07T10:28:58.855Z</time></trkpt><trkpt lat="42.6980727" lon="12.4596302"><ele>391.0</ele><time>2026-04-07T10:28:59.84Z</time></trkpt><trkpt lat="42.6981498" lon="12.4596788"><ele>391.00000000000006</ele><time>2026-04-07T10:29:00.851Z</time></trkpt><trkpt lat="42.6982083" lon="12.4597352"><ele>391.0</ele><time>2026-04-07T10:29:01.847Z</time></trkpt><trkpt lat="42.6982721" lon="12.4598079"><ele>391.0</ele><time>2026-04-07T10:29:03.849Z</time></trkpt><trkpt lat="42.6983465" lon="12.459896"><ele>391.0</ele><time>2026-04-07T10:29:05.842Z</time></trkpt><trkpt lat="42.6984351" lon="12.4599606"><ele>391.00000000000006</ele><time>2026-04-07T10:29:07.866Z</time></trkpt><trkpt lat="42.6985156" lon="12.4599908"><ele>391.0</ele><time>2026-04-07T10:29:08.835Z</time></trkpt><trkpt lat="42.6986306" lon="12.4600384"><ele>389.0</ele><time>2026-04-07T10:29:09.84Z</time></trkpt><trkpt lat="42.6987579" lon="12.4600981"><ele>387.0</ele><time>2026-04-07T10:29:10.846Z</time></trkpt><trkpt lat="42.698875" lon="12.4601673"><ele>385.0</ele><time>2026-04-07T10:29:11.853Z</time></trkpt><trkpt lat="42.6989833" lon="12.4602437"><ele>383.0</ele><time>2026-04-07T10:29:12.836Z</time></trkpt><trkpt lat="42.6990915" lon="12.4603197"><ele>383.0</ele><time>2026-04-07T10:29:13.862Z</time></trkpt><trkpt lat="42.6992039" lon="12.4603927"><ele>383.0</ele><time>2026-04-07T10:29:14.846Z</time></trkpt><trkpt lat="42.6993152" lon="12.4604699"><ele>383.0</ele><time>2026-04-07T10:29:15.84Z</time></trkpt><trkpt lat="42.6994174" lon="12.460552"><ele>383.0</ele><time>2026-04-07T10:29:16.843Z</time></trkpt><trkpt lat="42.6995185" lon="12.460629"><ele>378.5</ele><time>2026-04-07T10:29:17.839Z</time></trkpt><trkpt lat="42.6996189" lon="12.4607201"><ele>374.0</ele><time>2026-04-07T10:29:18.856Z</time></trkpt><trkpt lat="42.6997101" lon="12.4608366"><ele>369.5</ele><time>2026-04-07T10:29:19.839Z</time></trkpt><trkpt lat="42.6998041" lon="12.4609568"><ele>365.0</ele><time>2026-04-07T10:29:20.841Z</time></trkpt><trkpt lat="42.6999069" lon="12.4610926"><ele>365.0</ele><time>2026-04-07T10:29:21.874Z</time></trkpt><trkpt lat="42.7000147" lon="12.4612356"><ele>365.0</ele><time>2026-04-07T10:29:22.837Z</time></trkpt><trkpt lat="42.7001336" lon="12.4613931"><ele>365.0</ele><time>2026-04-07T10:29:23.865Z</time></trkpt><trkpt lat="42.7002457" lon="12.4615525"><ele>364.0</ele><time>2026-04-07T10:29:24.853Z</time></trkpt><trkpt lat="42.7003473" lon="12.4616958"><ele>363.0</ele><time>2026-04-07T10:29:25.843Z</time></trkpt><trkpt lat="42.7004441" lon="12.4618306"><ele>362.0</ele><time>2026-04-07T10:29:26.847Z</time></trkpt><trkpt lat="42.7005516" lon="12.4619644"><ele>361.0</ele><time>2026-04-07T10:29:27.854Z</time></trkpt><trkpt lat="42.7006696" lon="12.4620888"><ele>363.3333333333333</ele><time>2026-04-07T10:29:28.853Z</time></trkpt><trkpt lat="42.7007939" lon="12.4622062"><ele>365.6666666666667</ele><time>2026-04-07T10:29:29.839Z</time></trkpt><trkpt lat="42.7009204" lon="12.4623208"><ele>368.0</ele><time>2026-04-07T10:29:30.856Z</time></trkpt><trkpt lat="42.7010525" lon="12.4624273"><ele>366.5</ele><time>2026-04-07T10:29:31.856Z</time></trkpt><trkpt lat="42.7011757" lon="12.4625222"><ele>365.0</ele><time>2026-04-07T10:29:32.849Z</time></trkpt><trkpt lat="42.7012952" lon="12.4626067"><ele>363.5</ele><time>2026-04-07T10:29:33.833Z</time></trkpt><trkpt lat="42.7014195" lon="12.4626894"><ele>362.0</ele><time>2026-04-07T10:29:34.856Z</time></trkpt><trkpt lat="42.701553" lon="12.4627702"><ele>362.0</ele><time>2026-04-07T10:29:35.859Z</time></trkpt><trkpt lat="42.7016781" lon="12.462845"><ele>362.0</ele><time>2026-04-07T10:29:36.855Z</time></trkpt><trkpt lat="42.7017899" lon="12.46291"><ele>362.0</ele><time>2026-04-07T10:29:37.852Z</time></trkpt><trkpt lat="42.7019083" lon="12.4629657"><ele>362.0</ele><time>2026-04-07T10:29:38.83Z</time></trkpt><trkpt lat="42.7020244" lon="12.4630163"><ele>362.20000000000005</ele><time>2026-04-07T10:29:39.857Z</time></trkpt><trkpt lat="42.7021343" lon="12.4630641"><ele>362.4</ele><time>2026-04-07T10:29:40.853Z</time></trkpt><trkpt lat="42.7022374" lon="12.4630968"><ele>362.6</ele><time>2026-04-07T10:29:41.851Z</time></trkpt><trkpt lat="42.702334" lon="12.463109"><ele>362.79999999999995</ele><time>2026-04-07T10:29:42.848Z</time></trkpt><trkpt lat="42.7024442" lon="12.4631087"><ele>363.0</ele><time>2026-04-07T10:29:43.868Z</time></trkpt><trkpt lat="42.7025668" lon="12.4631091"><ele>363.0</ele><time>2026-04-07T10:29:44.856Z</time></trkpt><trkpt lat="42.7026982" lon="12.4631011"><ele>363.0</ele><time>2026-04-07T10:29:45.855Z</time></trkpt><trkpt lat="42.702842" lon="12.4630945"><ele>363.0</ele><time>2026-04-07T10:29:46.848Z</time></trkpt><trkpt lat="42.702998" lon="12.4630962"><ele>363.0</ele><time>2026-04-07T10:29:47.846Z</time></trkpt><trkpt lat="42.7031598" lon="12.4631009"><ele>361.5</ele><time>2026-04-07T10:29:48.856Z</time></trkpt><trkpt lat="42.7033108" lon="12.4631056"><ele>360.0</ele><time>2026-04-07T10:29:49.849Z</time></trkpt><trkpt lat="42.7034552" lon="12.4631064"><ele>358.5</ele><time>2026-04-07T10:29:50.835Z</time></trkpt><trkpt lat="42.7035993" lon="12.4631038"><ele>357.0</ele><time>2026-04-07T10:29:51.835Z</time></trkpt><trkpt lat="42.7037376" lon="12.4630971"><ele>355.25</ele><time>2026-04-07T10:29:52.842Z</time></trkpt><trkpt lat="42.7038626" lon="12.463095"><ele>353.5</ele><time>2026-04-07T10:29:53.837Z</time></trkpt><trkpt lat="42.703983" lon="12.4630893"><ele>351.75</ele><time>2026-04-07T10:29:54.854Z</time></trkpt><trkpt lat="42.7041021" lon="12.463088"><ele>350.0</ele><time>2026-04-07T10:29:55.842Z</time></trkpt><trkpt lat="42.7042197" lon="12.4630832"><ele>350.0</ele><time>2026-04-07T10:29:56.848Z</time></trkpt><trkpt lat="42.7043264" lon="12.4630834"><ele>350.0</ele><time>2026-04-07T10:29:57.843Z</time></trkpt><trkpt lat="42.704424" lon="12.4630872"><ele>350.0</ele><time>2026-04-07T10:29:58.856Z</time></trkpt><trkpt lat="42.7045104" lon="12.4630894"><ele>350.0</ele><time>2026-04-07T10:29:59.853Z</time></trkpt><trkpt lat="42.7045905" lon="12.4630901"><ele>350.0</ele><time>2026-04-07T10:30:00.855Z</time></trkpt><trkpt lat="42.7046628" lon="12.463089"><ele>350.0</ele><time>2026-04-07T10:30:01.857Z</time></trkpt><trkpt lat="42.7047706" lon="12.4630881"><ele>348.6666666666667</ele><time>2026-04-07T10:30:03.854Z</time></trkpt><trkpt lat="42.7048633" lon="12.4630849"><ele>347.33333333333337</ele><time>2026-04-07T10:30:05.845Z</time></trkpt><trkpt lat="42.7049544" lon="12.4631249"><ele>346.0</ele><time>2026-04-07T10:30:07.857Z</time></trkpt><trkpt lat="42.7050174" lon="12.4631662"><ele>344.6666666666667</ele><time>2026-04-07T10:30:08.847Z</time></trkpt><trkpt lat="42.7050793" lon="12.4632228"><ele>343.3333333333333</ele><time>2026-04-07T10:30:09.868Z</time></trkpt><trkpt lat="42.70514" lon="12.4632901"><ele>342.0</ele><time>2026-04-07T10:30:10.857Z</time></trkpt><trkpt lat="42.7052071" lon="12.4633758"><ele>339.6</ele><time>2026-04-07T10:30:11.855Z</time></trkpt><trkpt lat="42.7052831" lon="12.4634693"><ele>337.20000000000005</ele><time>2026-04-07T10:30:12.86Z</time></trkpt><trkpt lat="42.705356" lon="12.4635566"><ele>334.8</ele><time>2026-04-07T10:30:13.839Z</time></trkpt><trkpt lat="42.7054247" lon="12.4636365"><ele>332.4</ele><time>2026-04-07T10:30:14.844Z</time></trkpt><trkpt lat="42.7054957" lon="12.4637058"><ele>330.0</ele><time>2026-04-07T10:30:15.856Z</time></trkpt><trkpt lat="42.7055652" lon="12.4637716"><ele>330.5</ele><time>2026-04-07T10:30:16.851Z</time></trkpt><trkpt lat="42.7056322" lon="12.4638364"><ele>331.0</ele><time>2026-04-07T10:30:17.853Z</time></trkpt><trkpt lat="42.7056951" lon="12.4639003"><ele>331.5</ele><time>2026-04-07T10:30:18.865Z</time></trkpt><trkpt lat="42.7057537" lon="12.4639706"><ele>332.0</ele><time>2026-04-07T10:30:19.84Z</time></trkpt><trkpt lat="42.7058084" lon="12.4640431"><ele>332.5</ele><time>2026-04-07T10:30:20.859Z</time></trkpt><trkpt lat="42.7058726" lon="12.4641089"><ele>333.0</ele><time>2026-04-07T10:30:21.842Z</time></trkpt><trkpt lat="42.7059443" lon="12.4641759"><ele>333.0</ele><time>2026-04-07T10:30:22.856Z</time></trkpt><trkpt lat="42.7060112" lon="12.464236"><ele>333.0</ele><time>2026-04-07T10:30:23.842Z</time></trkpt><trkpt lat="42.7060643" lon="12.4643084"><ele>333.0</ele><time>2026-04-07T10:30:24.858Z</time></trkpt><trkpt lat="42.7061215" lon="12.4643964"><ele>333.0</ele><time>2026-04-07T10:30:25.844Z</time></trkpt><trkpt lat="42.7061858" lon="12.4644902"><ele>333.0</ele><time>2026-04-07T10:30:26.855Z</time></trkpt><trkpt lat="42.7062471" lon="12.464571"><ele>333.0</ele><time>2026-04-07T10:30:27.859Z</time></trkpt><trkpt lat="42.7063069" lon="12.4646437"><ele>331.1666666666667</ele><time>2026-04-07T10:30:28.889Z</time></trkpt><trkpt lat="42.7063564" lon="12.4647048"><ele>329.3333333333333</ele><time>2026-04-07T10:30:29.841Z</time></trkpt><trkpt lat="42.7064053" lon="12.4647687"><ele>327.5</ele><time>2026-04-07T10:30:30.847Z</time></trkpt><trkpt lat="42.7064497" lon="12.4648411"><ele>325.66666666666663</ele><time>2026-04-07T10:30:31.839Z</time></trkpt><trkpt lat="42.7064937" lon="12.4649128"><ele>323.8333333333333</ele><time>2026-04-07T10:30:32.859Z</time></trkpt><trkpt lat="42.7065859" lon="12.46503"><ele>322.0</ele><time>2026-04-07T10:30:34.852Z</time></trkpt><trkpt lat="42.7066374" lon="12.4650929"><ele>322.0</ele><time>2026-04-07T10:30:35.838Z</time></trkpt><trkpt lat="42.7066937" lon="12.4651714"><ele>322.0</ele><time>2026-04-07T10:30:36.84Z</time></trkpt><trkpt lat="42.7067501" lon="12.4652605"><ele>322.0</ele><time>2026-04-07T10:30:37.835Z</time></trkpt><trkpt lat="42.7068046" lon="12.4653602"><ele>322.0</ele><time>2026-04-07T10:30:38.852Z</time></trkpt><trkpt lat="42.7068601" lon="12.4654621"><ele>322.0</ele><time>2026-04-07T10:30:39.846Z</time></trkpt><trkpt lat="42.706914" lon="12.4655552"><ele>322.0</ele><time>2026-04-07T10:30:40.853Z</time></trkpt><trkpt lat="42.7069739" lon="12.4656498"><ele>320.20000000000005</ele><time>2026-04-07T10:30:41.863Z</time></trkpt><trkpt lat="42.7070424" lon="12.4657516"><ele>318.40000000000003</ele><time>2026-04-07T10:30:42.851Z</time></trkpt><trkpt lat="42.7071205" lon="12.4658465"><ele>316.6</ele><time>2026-04-07T10:30:43.853Z</time></trkpt><trkpt lat="42.7071894" lon="12.4659359"><ele>314.8</ele><time>2026-04-07T10:30:44.862Z</time></trkpt><trkpt lat="42.7072528" lon="12.4660156"><ele>313.0</ele><time>2026-04-07T10:30:45.853Z</time></trkpt><trkpt lat="42.7073198" lon="12.4660792"><ele>313.0</ele><time>2026-04-07T10:30:46.851Z</time></trkpt><trkpt lat="42.7073928" lon="12.4661391"><ele>313.0</ele><time>2026-04-07T10:30:47.843Z</time></trkpt><trkpt lat="42.707476" lon="12.466201"><ele>313.0</ele><time>2026-04-07T10:30:48.857Z</time></trkpt><trkpt lat="42.7075581" lon="12.4662722"><ele>313.0</ele><time>2026-04-07T10:30:49.854Z</time></trkpt><trkpt lat="42.7076355" lon="12.4663387"><ele>313.0</ele><time>2026-04-07T10:30:50.849Z</time></trkpt><trkpt lat="42.7077107" lon="12.4664069"><ele>312.66666666666663</ele><time>2026-04-07T10:30:51.849Z</time></trkpt><trkpt lat="42.7077809" lon="12.4664842"><ele>312.3333333333333</ele><time>2026-04-07T10:30:52.84Z</time></trkpt><trkpt lat="42.7078509" lon="12.4665636"><ele>312.0</ele><time>2026-04-07T10:30:53.85Z</time></trkpt><trkpt lat="42.707918" lon="12.4666407"><ele>311.6666666666667</ele><time>2026-04-07T10:30:54.872Z</time></trkpt><trkpt lat="42.7079788" lon="12.4667218"><ele>311.33333333333337</ele><time>2026-04-07T10:30:55.86Z</time></trkpt><trkpt lat="42.7080397" lon="12.4668094"><ele>311.0</ele><time>2026-04-07T10:30:56.849Z</time></trkpt><trkpt lat="42.708112" lon="12.4668979"><ele>311.0</ele><time>2026-04-07T10:30:57.838Z</time></trkpt><trkpt lat="42.7081796" lon="12.4669842"><ele>311.0</ele><time>2026-04-07T10:30:58.846Z</time></trkpt><trkpt lat="42.7082386" lon="12.4670643"><ele>311.0</ele><time>2026-04-07T10:30:59.848Z</time></trkpt><trkpt lat="42.7083002" lon="12.4671425"><ele>311.0</ele><time>2026-04-07T10:31:00.854Z</time></trkpt><trkpt lat="42.7083683" lon="12.4672129"><ele>311.0</ele><time>2026-04-07T10:31:01.85Z</time></trkpt><trkpt lat="42.7084354" lon="12.467274"><ele>311.0</ele><time>2026-04-07T10:31:02.863Z</time></trkpt><trkpt lat="42.7084994" lon="12.4673351"><ele>310.6666666666667</ele><time>2026-04-07T10:31:03.855Z</time></trkpt><trkpt lat="42.7085629" lon="12.467388"><ele>310.33333333333337</ele><time>2026-04-07T10:31:04.859Z</time></trkpt><trkpt lat="42.7086362" lon="12.4674268"><ele>310.0</ele><time>2026-04-07T10:31:05.846Z</time></trkpt><trkpt lat="42.7087102" lon="12.4674655"><ele>309.6666666666667</ele><time>2026-04-07T10:31:06.834Z</time></trkpt><trkpt lat="42.7087812" lon="12.4675121"><ele>309.3333333333333</ele><time>2026-04-07T10:31:07.87Z</time></trkpt><trkpt lat="42.7088462" lon="12.4675638"><ele>309.0</ele><time>2026-04-07T10:31:08.843Z</time></trkpt><trkpt lat="42.7089156" lon="12.4676126"><ele>307.2</ele><time>2026-04-07T10:31:09.842Z</time></trkpt><trkpt lat="42.7090044" lon="12.4676632"><ele>305.4</ele><time>2026-04-07T10:31:10.844Z</time></trkpt><trkpt lat="42.7091032" lon="12.4677212"><ele>303.6</ele><time>2026-04-07T10:31:11.854Z</time></trkpt><trkpt lat="42.7092076" lon="12.4677935"><ele>301.8</ele><time>2026-04-07T10:31:12.85Z</time></trkpt><trkpt lat="42.7093133" lon="12.4678781"><ele>300.0</ele><time>2026-04-07T10:31:13.851Z</time></trkpt><trkpt lat="42.709415" lon="12.467957"><ele>298.8</ele><time>2026-04-07T10:31:14.851Z</time></trkpt><trkpt lat="42.7095118" lon="12.4680327"><ele>297.6</ele><time>2026-04-07T10:31:15.851Z</time></trkpt><trkpt lat="42.709607" lon="12.4680939"><ele>296.4</ele><time>2026-04-07T10:31:16.851Z</time></trkpt><trkpt lat="42.7097002" lon="12.4681545"><ele>295.2</ele><time>2026-04-07T10:31:17.84Z</time></trkpt><trkpt lat="42.7098054" lon="12.4682172"><ele>294.0</ele><time>2026-04-07T10:31:18.854Z</time></trkpt><trkpt lat="42.7099208" lon="12.4682898"><ele>294.0</ele><time>2026-04-07T10:31:19.869Z</time></trkpt><trkpt lat="42.7100353" lon="12.4683705"><ele>294.0</ele><time>2026-04-07T10:31:20.842Z</time></trkpt><trkpt lat="42.7101305" lon="12.468453"><ele>294.0</ele><time>2026-04-07T10:31:21.856Z</time></trkpt><trkpt lat="42.7102109" lon="12.4685306"><ele>294.0</ele><time>2026-04-07T10:31:22.849Z</time></trkpt><trkpt lat="42.7102872" lon="12.4686005"><ele>294.0</ele><time>2026-04-07T10:31:23.863Z</time></trkpt><trkpt lat="42.7103681" lon="12.4686635"><ele>292.4</ele><time>2026-04-07T10:31:24.836Z</time></trkpt><trkpt lat="42.710453" lon="12.4687257"><ele>290.79999999999995</ele><time>2026-04-07T10:31:25.842Z</time></trkpt><trkpt lat="42.7105465" lon="12.4687946"><ele>289.20000000000005</ele><time>2026-04-07T10:31:26.856Z</time></trkpt><trkpt lat="42.7106468" lon="12.468867"><ele>287.6</ele><time>2026-04-07T10:31:27.848Z</time></trkpt><trkpt lat="42.7107489" lon="12.4689383"><ele>286.0</ele><time>2026-04-07T10:31:28.856Z</time></trkpt><trkpt lat="42.7108516" lon="12.4690109"><ele>285.8</ele><time>2026-04-07T10:31:29.856Z</time></trkpt><trkpt lat="42.7109527" lon="12.469086"><ele>285.6</ele><time>2026-04-07T10:31:30.836Z</time></trkpt><trkpt lat="42.7110511" lon="12.4691552"><ele>285.4</ele><time>2026-04-07T10:31:31.864Z</time></trkpt><trkpt lat="42.7111518" lon="12.4692303"><ele>285.2</ele><time>2026-04-07T10:31:32.851Z</time></trkpt><trkpt lat="42.7112456" lon="12.4692993"><ele>285.0</ele><time>2026-04-07T10:31:33.85Z</time></trkpt><trkpt lat="42.7113299" lon="12.4693692"><ele>284.2</ele><time>2026-04-07T10:31:34.855Z</time></trkpt><trkpt lat="42.7114009" lon="12.4694494"><ele>283.4</ele><time>2026-04-07T10:31:35.841Z</time></trkpt><trkpt lat="42.7114567" lon="12.4695413"><ele>282.6</ele><time>2026-04-07T10:31:36.847Z</time></trkpt><trkpt lat="42.7115189" lon="12.4696631"><ele>281.8</ele><time>2026-04-07T10:31:37.843Z</time></trkpt><trkpt lat="42.7115782" lon="12.469792"><ele>281.0</ele><time>2026-04-07T10:31:38.836Z</time></trkpt><trkpt lat="42.7116374" lon="12.4698956"><ele>281.0</ele><time>2026-04-07T10:31:39.84Z</time></trkpt><trkpt lat="42.7117049" lon="12.4699894"><ele>281.0</ele><time>2026-04-07T10:31:40.856Z</time></trkpt><trkpt lat="42.71179" lon="12.4700855"><ele>281.0</ele><time>2026-04-07T10:31:41.851Z</time></trkpt><trkpt lat="42.7118864" lon="12.4701915"><ele>281.0</ele><time>2026-04-07T10:31:42.857Z</time></trkpt><trkpt lat="42.7119874" lon="12.4702807"><ele>281.0</ele><time>2026-04-07T10:31:43.867Z</time></trkpt><trkpt lat="42.7120905" lon="12.470365"><ele>281.0</ele><time>2026-04-07T10:31:44.871Z</time></trkpt><trkpt lat="42.7122038" lon="12.4704554"><ele>281.0</ele><time>2026-04-07T10:31:45.851Z</time></trkpt><trkpt lat="42.7123133" lon="12.4705551"><ele>281.0</ele><time>2026-04-07T10:31:46.852Z</time></trkpt><trkpt lat="42.7124172" lon="12.4706576"><ele>281.0</ele><time>2026-04-07T10:31:47.852Z</time></trkpt><trkpt lat="42.7125119" lon="12.4707588"><ele>281.0</ele><time>2026-04-07T10:31:48.847Z</time></trkpt><trkpt lat="42.7125965" lon="12.4708524"><ele>281.0</ele><time>2026-04-07T10:31:49.848Z</time></trkpt><trkpt lat="42.7126766" lon="12.4709437"><ele>281.0</ele><time>2026-04-07T10:31:50.851Z</time></trkpt><trkpt lat="42.7127529" lon="12.4710441"><ele>281.0</ele><time>2026-04-07T10:31:51.853Z</time></trkpt><trkpt lat="42.7128308" lon="12.4711352"><ele>281.0</ele><time>2026-04-07T10:31:52.852Z</time></trkpt><trkpt lat="42.7129009" lon="12.4712068"><ele>281.0</ele><time>2026-04-07T10:31:53.856Z</time></trkpt><trkpt lat="42.7129672" lon="12.4712638"><ele>281.0</ele><time>2026-04-07T10:31:54.854Z</time></trkpt><trkpt lat="42.7130523" lon="12.4713147"><ele>281.0</ele><time>2026-04-07T10:31:55.848Z</time></trkpt><trkpt lat="42.7131497" lon="12.4713606"><ele>281.0</ele><time>2026-04-07T10:31:56.847Z</time></trkpt><trkpt lat="42.7132467" lon="12.4714082"><ele>281.0</ele><time>2026-04-07T10:31:57.847Z</time></trkpt><trkpt lat="42.713333" lon="12.4714642"><ele>281.0</ele><time>2026-04-07T10:31:58.84Z</time></trkpt><trkpt lat="42.7134071" lon="12.471531"><ele>281.0</ele><time>2026-04-07T10:31:59.851Z</time></trkpt><trkpt lat="42.7134708" lon="12.4715946"><ele>281.0</ele><time>2026-04-07T10:32:00.854Z</time></trkpt><trkpt lat="42.7135313" lon="12.4716645"><ele>281.0</ele><time>2026-04-07T10:32:01.847Z</time></trkpt><trkpt lat="42.7135973" lon="12.4717475"><ele>281.0</ele><time>2026-04-07T10:32:02.856Z</time></trkpt><trkpt lat="42.7136656" lon="12.4718383"><ele>280.75</ele><time>2026-04-07T10:32:03.845Z</time></trkpt><trkpt lat="42.7137559" lon="12.4719324"><ele>280.5</ele><time>2026-04-07T10:32:04.855Z</time></trkpt><trkpt lat="42.7138562" lon="12.4720259"><ele>280.25</ele><time>2026-04-07T10:32:05.852Z</time></trkpt><trkpt lat="42.7139665" lon="12.4721274"><ele>280.0</ele><time>2026-04-07T10:32:06.86Z</time></trkpt><trkpt lat="42.7140822" lon="12.4722421"><ele>280.0</ele><time>2026-04-07T10:32:07.849Z</time></trkpt><trkpt lat="42.7142002" lon="12.4723534"><ele>280.0</ele><time>2026-04-07T10:32:08.847Z</time></trkpt><trkpt lat="42.7143062" lon="12.4724593"><ele>280.0</ele><time>2026-04-07T10:32:09.838Z</time></trkpt><trkpt lat="42.7143988" lon="12.4725577"><ele>280.0</ele><time>2026-04-07T10:32:10.837Z</time></trkpt><trkpt lat="42.714485" lon="12.4726511"><ele>279.8</ele><time>2026-04-07T10:32:11.855Z</time></trkpt><trkpt lat="42.7145661" lon="12.4727281"><ele>279.6</ele><time>2026-04-07T10:32:12.851Z</time></trkpt><trkpt lat="42.7146435" lon="12.4727897"><ele>279.4</ele><time>2026-04-07T10:32:13.845Z</time></trkpt><trkpt lat="42.7147145" lon="12.472846"><ele>279.2</ele><time>2026-04-07T10:32:14.841Z</time></trkpt><trkpt lat="42.7147879" lon="12.4729071"><ele>279.0</ele><time>2026-04-07T10:32:15.855Z</time></trkpt><trkpt lat="42.7148833" lon="12.4729601"><ele>278.25</ele><time>2026-04-07T10:32:16.854Z</time></trkpt><trkpt lat="42.7149964" lon="12.4730044"><ele>277.5</ele><time>2026-04-07T10:32:17.852Z</time></trkpt><trkpt lat="42.7151029" lon="12.4730441"><ele>276.75</ele><time>2026-04-07T10:32:18.855Z</time></trkpt><trkpt lat="42.7152101" lon="12.4730731"><ele>276.0</ele><time>2026-04-07T10:32:19.837Z</time></trkpt><trkpt lat="42.7153374" lon="12.4731043"><ele>274.75</ele><time>2026-04-07T10:32:20.841Z</time></trkpt><trkpt lat="42.7154878" lon="12.4731307"><ele>273.5</ele><time>2026-04-07T10:32:21.842Z</time></trkpt><trkpt lat="42.7156353" lon="12.473157"><ele>272.25</ele><time>2026-04-07T10:32:22.846Z</time></trkpt><trkpt lat="42.7157679" lon="12.4731811"><ele>271.0</ele><time>2026-04-07T10:32:23.849Z</time></trkpt><trkpt lat="42.7158912" lon="12.4732048"><ele>271.0</ele><time>2026-04-07T10:32:24.835Z</time></trkpt><trkpt lat="42.7160097" lon="12.473218"><ele>271.0</ele><time>2026-04-07T10:32:25.863Z</time></trkpt><trkpt lat="42.7161258" lon="12.4732242"><ele>271.0</ele><time>2026-04-07T10:32:26.855Z</time></trkpt><trkpt lat="42.7162385" lon="12.4732302"><ele>271.0</ele><time>2026-04-07T10:32:27.84Z</time></trkpt><trkpt lat="42.7163483" lon="12.4732384"><ele>269.8</ele><time>2026-04-07T10:32:28.848Z</time></trkpt><trkpt lat="42.7164549" lon="12.4732458"><ele>268.6</ele><time>2026-04-07T10:32:29.845Z</time></trkpt><trkpt lat="42.7165633" lon="12.4732606"><ele>267.4</ele><time>2026-04-07T10:32:30.854Z</time></trkpt><trkpt lat="42.7166749" lon="12.473282"><ele>266.2</ele><time>2026-04-07T10:32:31.851Z</time></trkpt><trkpt lat="42.7167855" lon="12.4733171"><ele>265.0</ele><time>2026-04-07T10:32:32.841Z</time></trkpt><trkpt lat="42.7168923" lon="12.4733739"><ele>262.4</ele><time>2026-04-07T10:32:33.866Z</time></trkpt><trkpt lat="42.7169904" lon="12.4734428"><ele>259.8</ele><time>2026-04-07T10:32:34.844Z</time></trkpt><trkpt lat="42.717087" lon="12.4735102"><ele>257.2</ele><time>2026-04-07T10:32:35.829Z</time></trkpt><trkpt lat="42.7171766" lon="12.4735761"><ele>254.6</ele><time>2026-04-07T10:32:36.837Z</time></trkpt><trkpt lat="42.7172632" lon="12.4736367"><ele>252.0</ele><time>2026-04-07T10:32:37.835Z</time></trkpt><trkpt lat="42.7173521" lon="12.4736825"><ele>252.0</ele><time>2026-04-07T10:32:38.848Z</time></trkpt><trkpt lat="42.717442" lon="12.4737115"><ele>252.0</ele><time>2026-04-07T10:32:39.866Z</time></trkpt><trkpt lat="42.7175395" lon="12.4737099"><ele>252.0</ele><time>2026-04-07T10:32:40.834Z</time></trkpt><trkpt lat="42.7176473" lon="12.4736963"><ele>252.0</ele><time>2026-04-07T10:32:41.863Z</time></trkpt><trkpt lat="42.7177596" lon="12.4736701"><ele>252.0</ele><time>2026-04-07T10:32:42.841Z</time></trkpt><trkpt lat="42.7178681" lon="12.4736485"><ele>250.2</ele><time>2026-04-07T10:32:43.856Z</time></trkpt><trkpt lat="42.7179746" lon="12.4736373"><ele>248.39999999999998</ele><time>2026-04-07T10:32:44.851Z</time></trkpt><trkpt lat="42.7180751" lon="12.4736401"><ele>246.60000000000002</ele><time>2026-04-07T10:32:45.844Z</time></trkpt><trkpt lat="42.7181819" lon="12.4736522"><ele>244.8</ele><time>2026-04-07T10:32:46.85Z</time></trkpt><trkpt lat="42.7182873" lon="12.4736753"><ele>243.0</ele><time>2026-04-07T10:32:47.843Z</time></trkpt><trkpt lat="42.7183943" lon="12.4736986"><ele>243.0</ele><time>2026-04-07T10:32:48.842Z</time></trkpt><trkpt lat="42.7185131" lon="12.4737216"><ele>243.0</ele><time>2026-04-07T10:32:49.861Z</time></trkpt><trkpt lat="42.7186325" lon="12.4737445"><ele>243.0</ele><time>2026-04-07T10:32:50.852Z</time></trkpt><trkpt lat="42.7187475" lon="12.4737616"><ele>243.0</ele><time>2026-04-07T10:32:51.851Z</time></trkpt><trkpt lat="42.7188577" lon="12.4737764"><ele>241.60000000000002</ele><time>2026-04-07T10:32:52.849Z</time></trkpt><trkpt lat="42.7189652" lon="12.473786"><ele>240.20000000000002</ele><time>2026-04-07T10:32:53.854Z</time></trkpt><trkpt lat="42.7190677" lon="12.4738063"><ele>238.8</ele><time>2026-04-07T10:32:54.855Z</time></trkpt><trkpt lat="42.7191641" lon="12.4738274"><ele>237.4</ele><time>2026-04-07T10:32:55.854Z</time></trkpt><trkpt lat="42.7192627" lon="12.4738621"><ele>236.0</ele><time>2026-04-07T10:32:56.85Z</time></trkpt><trkpt lat="42.7193564" lon="12.4739066"><ele>234.20000000000002</ele><time>2026-04-07T10:32:57.863Z</time></trkpt><trkpt lat="42.7194492" lon="12.4739623"><ele>232.40000000000003</ele><time>2026-04-07T10:32:58.844Z</time></trkpt><trkpt lat="42.7195418" lon="12.4740232"><ele>230.6</ele><time>2026-04-07T10:32:59.847Z</time></trkpt><trkpt lat="42.7196323" lon="12.4740858"><ele>228.8</ele><time>2026-04-07T10:33:00.848Z</time></trkpt><trkpt lat="42.7197272" lon="12.4741508"><ele>227.0</ele><time>2026-04-07T10:33:01.851Z</time></trkpt><trkpt lat="42.7198235" lon="12.474217"><ele>227.0</ele><time>2026-04-07T10:33:02.857Z</time></trkpt><trkpt lat="42.7199214" lon="12.4742831"><ele>227.0</ele><time>2026-04-07T10:33:03.842Z</time></trkpt><trkpt lat="42.7200186" lon="12.4743476"><ele>227.0</ele><time>2026-04-07T10:33:04.855Z</time></trkpt><trkpt lat="42.7201178" lon="12.4744132"><ele>227.0</ele><time>2026-04-07T10:33:05.846Z</time></trkpt><trkpt lat="42.7202224" lon="12.4744787"><ele>227.0</ele><time>2026-04-07T10:33:06.864Z</time></trkpt><trkpt lat="42.720338" lon="12.4745472"><ele>223.0</ele><time>2026-04-07T10:33:07.848Z</time></trkpt><trkpt lat="42.7204541" lon="12.4746161"><ele>219.0</ele><time>2026-04-07T10:33:08.861Z</time></trkpt><trkpt lat="42.7205649" lon="12.4746878"><ele>215.0</ele><time>2026-04-07T10:33:09.84Z</time></trkpt><trkpt lat="42.7206774" lon="12.4747631"><ele>211.0</ele><time>2026-04-07T10:33:10.856Z</time></trkpt><trkpt lat="42.7207857" lon="12.4748472"><ele>211.0</ele><time>2026-04-07T10:33:11.853Z</time></trkpt><trkpt lat="42.7208853" lon="12.47494"><ele>211.0</ele><time>2026-04-07T10:33:12.837Z</time></trkpt><trkpt lat="42.7209828" lon="12.4750428"><ele>211.0</ele><time>2026-04-07T10:33:13.853Z</time></trkpt><trkpt lat="42.7210805" lon="12.4751455"><ele>211.0</ele><time>2026-04-07T10:33:14.846Z</time></trkpt><trkpt lat="42.7211782" lon="12.4752365"><ele>209.25</ele><time>2026-04-07T10:33:15.852Z</time></trkpt><trkpt lat="42.7212766" lon="12.4753168"><ele>207.5</ele><time>2026-04-07T10:33:16.861Z</time></trkpt><trkpt lat="42.7213767" lon="12.4753972"><ele>205.75</ele><time>2026-04-07T10:33:17.843Z</time></trkpt><trkpt lat="42.7214828" lon="12.475477"><ele>204.0</ele><time>2026-04-07T10:33:18.856Z</time></trkpt><trkpt lat="42.7216007" lon="12.4755556"><ele>203.0</ele><time>2026-04-07T10:33:19.853Z</time></trkpt><trkpt lat="42.7217216" lon="12.475631"><ele>202.0</ele><time>2026-04-07T10:33:20.848Z</time></trkpt><trkpt lat="42.7218406" lon="12.4756925"><ele>201.0</ele><time>2026-04-07T10:33:21.847Z</time></trkpt><trkpt lat="42.7219666" lon="12.4757441"><ele>200.0</ele><time>2026-04-07T10:33:22.852Z</time></trkpt><trkpt lat="42.7220888" lon="12.4757898"><ele>198.75</ele><time>2026-04-07T10:33:23.846Z</time></trkpt><trkpt lat="42.7222102" lon="12.4758324"><ele>197.5</ele><time>2026-04-07T10:33:24.853Z</time></trkpt><trkpt lat="42.7223358" lon="12.4758669"><ele>196.25</ele><time>2026-04-07T10:33:25.854Z</time></trkpt><trkpt lat="42.722463" lon="12.4758776"><ele>195.0</ele><time>2026-04-07T10:33:26.847Z</time></trkpt><trkpt lat="42.7225828" lon="12.4758801"><ele>195.0</ele><time>2026-04-07T10:33:27.858Z</time></trkpt><trkpt lat="42.7226872" lon="12.4758616"><ele>195.0</ele><time>2026-04-07T10:33:28.835Z</time></trkpt><trkpt lat="42.7227831" lon="12.4758243"><ele>195.0</ele><time>2026-04-07T10:33:29.849Z</time></trkpt><trkpt lat="42.7228869" lon="12.4757624"><ele>195.0</ele><time>2026-04-07T10:33:30.842Z</time></trkpt><trkpt lat="42.7230116" lon="12.4756628"><ele>195.0</ele><time>2026-04-07T10:33:31.848Z</time></trkpt><trkpt lat="42.7231511" lon="12.4755173"><ele>195.0</ele><time>2026-04-07T10:33:32.85Z</time></trkpt><trkpt lat="42.7232931" lon="12.475354"><ele>195.0</ele><time>2026-04-07T10:33:33.835Z</time></trkpt><trkpt lat="42.7234228" lon="12.4752001"><ele>194.66666666666669</ele><time>2026-04-07T10:33:34.841Z</time></trkpt><trkpt lat="42.7235375" lon="12.4750442"><ele>194.33333333333334</ele><time>2026-04-07T10:33:35.845Z</time></trkpt><trkpt lat="42.7236473" lon="12.4748879"><ele>194.0</ele><time>2026-04-07T10:33:36.857Z</time></trkpt><trkpt lat="42.7237571" lon="12.4747209"><ele>193.66666666666669</ele><time>2026-04-07T10:33:37.842Z</time></trkpt><trkpt lat="42.7238667" lon="12.4745607"><ele>193.33333333333331</ele><time>2026-04-07T10:33:38.852Z</time></trkpt><trkpt lat="42.7239698" lon="12.474409"><ele>193.0</ele><time>2026-04-07T10:33:39.824Z</time></trkpt><trkpt lat="42.7240737" lon="12.4742468"><ele>193.0</ele><time>2026-04-07T10:33:40.846Z</time></trkpt><trkpt lat="42.7241842" lon="12.4740844"><ele>193.0</ele><time>2026-04-07T10:33:41.856Z</time></trkpt><trkpt lat="42.7242863" lon="12.4739426"><ele>193.0</ele><time>2026-04-07T10:33:42.849Z</time></trkpt><trkpt lat="42.7243757" lon="12.4738085"><ele>193.0</ele><time>2026-04-07T10:33:43.845Z</time></trkpt><trkpt lat="42.7244639" lon="12.4736632"><ele>193.0</ele><time>2026-04-07T10:33:44.848Z</time></trkpt><trkpt lat="42.724552" lon="12.4735111"><ele>193.0</ele><time>2026-04-07T10:33:45.83Z</time></trkpt><trkpt lat="42.7246352" lon="12.4733295"><ele>193.0</ele><time>2026-04-07T10:33:46.843Z</time></trkpt><trkpt lat="42.7247169" lon="12.4730959"><ele>193.0</ele><time>2026-04-07T10:33:47.846Z</time></trkpt><trkpt lat="42.7247998" lon="12.4728416"><ele>193.0</ele><time>2026-04-07T10:33:48.839Z</time></trkpt><trkpt lat="42.7248756" lon="12.4725974"><ele>193.0</ele><time>2026-04-07T10:33:49.846Z</time></trkpt><trkpt lat="42.7249442" lon="12.4723747"><ele>193.0</ele><time>2026-04-07T10:33:50.848Z</time></trkpt><trkpt lat="42.7250106" lon="12.472168"><ele>193.0</ele><time>2026-04-07T10:33:51.846Z</time></trkpt><trkpt lat="42.7250711" lon="12.4719872"><ele>193.0</ele><time>2026-04-07T10:33:52.867Z</time></trkpt><trkpt lat="42.7251324" lon="12.4718248"><ele>193.0</ele><time>2026-04-07T10:33:53.836Z</time></trkpt><trkpt lat="42.7251834" lon="12.4716933"><ele>193.2</ele><time>2026-04-07T10:33:54.862Z</time></trkpt><trkpt lat="42.725233" lon="12.4716007"><ele>193.4</ele><time>2026-04-07T10:33:55.842Z</time></trkpt><trkpt lat="42.7252805" lon="12.4715288"><ele>193.6</ele><time>2026-04-07T10:33:56.833Z</time></trkpt><trkpt lat="42.7253293" lon="12.4714694"><ele>193.79999999999998</ele><time>2026-04-07T10:33:57.849Z</time></trkpt><trkpt lat="42.7254293" lon="12.4714026"><ele>194.0</ele><time>2026-04-07T10:33:59.854Z</time></trkpt><trkpt lat="42.7255561" lon="12.4714"><ele>194.00000000000003</ele><time>2026-04-07T10:34:01.833Z</time></trkpt><trkpt lat="42.7256288" lon="12.4714141"><ele>194.0</ele><time>2026-04-07T10:34:02.855Z</time></trkpt><trkpt lat="42.7257094" lon="12.4714404"><ele>194.0</ele><time>2026-04-07T10:34:03.862Z</time></trkpt><trkpt lat="42.725795" lon="12.4714605"><ele>194.0</ele><time>2026-04-07T10:34:04.853Z</time></trkpt><trkpt lat="42.7258744" lon="12.4714783"><ele>194.00000000000003</ele><time>2026-04-07T10:34:05.848Z</time></trkpt><trkpt lat="42.7259482" lon="12.4714859"><ele>194.0</ele><time>2026-04-07T10:34:06.857Z</time></trkpt><trkpt lat="42.726065" lon="12.471512"><ele>194.39999999999998</ele><time>2026-04-07T10:34:08.86Z</time></trkpt><trkpt lat="42.7261775" lon="12.4715306"><ele>194.8</ele><time>2026-04-07T10:34:10.862Z</time></trkpt><trkpt lat="42.7262733" lon="12.4715536"><ele>195.2</ele><time>2026-04-07T10:34:12.845Z</time></trkpt><trkpt lat="42.7263611" lon="12.4715747"><ele>195.60000000000002</ele><time>2026-04-07T10:34:14.849Z</time></trkpt><trkpt lat="42.726457" lon="12.4716115"><ele>196.0</ele><time>2026-04-07T10:34:16.843Z</time></trkpt><trkpt lat="42.7265207" lon="12.471682"><ele>195.99999999999997</ele><time>2026-04-07T10:34:18.851Z</time></trkpt><trkpt lat="42.7265021" lon="12.4717764"><ele>196.0</ele><time>2026-04-07T10:34:20.847Z</time></trkpt><trkpt lat="42.7264517" lon="12.4719076"><ele>196.0</ele><time>2026-04-07T10:34:22.848Z</time></trkpt><trkpt lat="42.7264321" lon="12.4719951"><ele>196.0</ele><time>2026-04-07T10:34:23.868Z</time></trkpt><trkpt lat="42.7264088" lon="12.4720993"><ele>195.99999999999997</ele><time>2026-04-07T10:34:24.85Z</time></trkpt><trkpt lat="42.7263861" lon="12.4722038"><ele>196.0</ele><time>2026-04-07T10:34:25.845Z</time></trkpt><trkpt lat="42.7263634" lon="12.472307"><ele>196.16666666666666</ele><time>2026-04-07T10:34:26.844Z</time></trkpt><trkpt lat="42.7263383" lon="12.4724117"><ele>196.33333333333331</ele><time>2026-04-07T10:34:27.828Z</time></trkpt><trkpt lat="42.7263147" lon="12.4725199"><ele>196.5</ele><time>2026-04-07T10:34:28.84Z</time></trkpt><trkpt lat="42.7262864" lon="12.4726344"><ele>196.66666666666669</ele><time>2026-04-07T10:34:29.843Z</time></trkpt><trkpt lat="42.7262591" lon="12.4727554"><ele>196.83333333333334</ele><time>2026-04-07T10:34:30.852Z</time></trkpt><trkpt lat="42.7262307" lon="12.4728883"><ele>197.0</ele><time>2026-04-07T10:34:31.843Z</time></trkpt><trkpt lat="42.726199" lon="12.4730302"><ele>196.8</ele><time>2026-04-07T10:34:32.84Z</time></trkpt><trkpt lat="42.7261676" lon="12.4731799"><ele>196.6</ele><time>2026-04-07T10:34:33.844Z</time></trkpt><trkpt lat="42.726139" lon="12.4733218"><ele>196.4</ele><time>2026-04-07T10:34:34.841Z</time></trkpt><trkpt lat="42.7261086" lon="12.473465"><ele>196.20000000000002</ele><time>2026-04-07T10:34:35.849Z</time></trkpt><trkpt lat="42.7260753" lon="12.4736126"><ele>196.0</ele><time>2026-04-07T10:34:36.84Z</time></trkpt><trkpt lat="42.726041" lon="12.4737648"><ele>196.4</ele><time>2026-04-07T10:34:37.846Z</time></trkpt><trkpt lat="42.7260082" lon="12.4739258"><ele>196.8</ele><time>2026-04-07T10:34:38.844Z</time></trkpt><trkpt lat="42.725977" lon="12.4740781"><ele>197.20000000000002</ele><time>2026-04-07T10:34:39.844Z</time></trkpt><trkpt lat="42.7259459" lon="12.4742152"><ele>197.60000000000002</ele><time>2026-04-07T10:34:40.84Z</time></trkpt><trkpt lat="42.7259211" lon="12.4743453"><ele>198.0</ele><time>2026-04-07T10:34:41.841Z</time></trkpt><trkpt lat="42.7259008" lon="12.4744804"><ele>198.8</ele><time>2026-04-07T10:34:42.844Z</time></trkpt><trkpt lat="42.7258911" lon="12.4746196"><ele>199.60000000000002</ele><time>2026-04-07T10:34:43.859Z</time></trkpt><trkpt lat="42.7258911" lon="12.474766"><ele>200.39999999999998</ele><time>2026-04-07T10:34:44.846Z</time></trkpt><trkpt lat="42.7259027" lon="12.4749017"><ele>201.2</ele><time>2026-04-07T10:34:45.846Z</time></trkpt><trkpt lat="42.7258989" lon="12.4750177"><ele>202.0</ele><time>2026-04-07T10:34:46.827Z</time></trkpt><trkpt lat="42.7258789" lon="12.4751104"><ele>201.99999999999997</ele><time>2026-04-07T10:34:47.826Z</time></trkpt><trkpt lat="42.7258555" lon="12.4752062"><ele>202.0</ele><time>2026-04-07T10:34:48.855Z</time></trkpt><trkpt lat="42.7258156" lon="12.4752964"><ele>202.0</ele><time>2026-04-07T10:34:49.841Z</time></trkpt><trkpt lat="42.7257973" lon="12.4754148"><ele>202.0</ele><time>2026-04-07T10:34:50.83Z</time></trkpt><trkpt lat="42.7257786" lon="12.4755291"><ele>201.99999999999997</ele><time>2026-04-07T10:34:51.845Z</time></trkpt><trkpt lat="42.7257406" lon="12.4756362"><ele>202.0</ele><time>2026-04-07T10:34:52.838Z</time></trkpt><trkpt lat="42.7257129" lon="12.47574"><ele>202.16666666666666</ele><time>2026-04-07T10:34:53.843Z</time></trkpt><trkpt lat="42.7256861" lon="12.4758444"><ele>202.33333333333331</ele><time>2026-04-07T10:34:54.855Z</time></trkpt><trkpt lat="42.7256614" lon="12.475952"><ele>202.5</ele><time>2026-04-07T10:34:55.852Z</time></trkpt><trkpt lat="42.7256332" lon="12.4760669"><ele>202.66666666666669</ele><time>2026-04-07T10:34:56.848Z</time></trkpt><trkpt lat="42.7255993" lon="12.4761758"><ele>202.83333333333334</ele><time>2026-04-07T10:34:57.854Z</time></trkpt><trkpt lat="42.7255775" lon="12.4762778"><ele>203.0</ele><time>2026-04-07T10:34:58.844Z</time></trkpt><trkpt lat="42.7255604" lon="12.4763842"><ele>203.00000000000003</ele><time>2026-04-07T10:34:59.854Z</time></trkpt><trkpt lat="42.7255438" lon="12.4764979"><ele>203.0</ele><time>2026-04-07T10:35:00.846Z</time></trkpt><trkpt lat="42.725525" lon="12.4766085"><ele>203.0</ele><time>2026-04-07T10:35:01.848Z</time></trkpt><trkpt lat="42.7255034" lon="12.4767122"><ele>203.0</ele><time>2026-04-07T10:35:02.83Z</time></trkpt><trkpt lat="42.7254839" lon="12.4768072"><ele>203.00000000000003</ele><time>2026-04-07T10:35:03.843Z</time></trkpt><trkpt lat="42.725458" lon="12.4769316"><ele>203.0</ele><time>2026-04-07T10:35:05.842Z</time></trkpt><trkpt lat="42.7254325" lon="12.4770377"><ele>203.2</ele><time>2026-04-07T10:35:07.851Z</time></trkpt><trkpt lat="42.7254165" lon="12.4771642"><ele>203.4</ele><time>2026-04-07T10:35:09.857Z</time></trkpt><trkpt lat="42.7254068" lon="12.4772497"><ele>203.6</ele><time>2026-04-07T10:35:10.848Z</time></trkpt><trkpt lat="42.7253964" lon="12.4774157"><ele>203.79999999999998</ele><time>2026-04-07T10:35:12.851Z</time></trkpt><trkpt lat="42.7254011" lon="12.4775905"><ele>204.0</ele><time>2026-04-07T10:35:14.858Z</time></trkpt><trkpt lat="42.7254031" lon="12.4776791"><ele>204.0</ele><time>2026-04-07T10:35:15.856Z</time></trkpt><trkpt lat="42.7254084" lon="12.4778411"><ele>204.0</ele><time>2026-04-07T10:35:17.842Z</time></trkpt><trkpt lat="42.7254222" lon="12.4780199"><ele>204.0</ele><time>2026-04-07T10:35:19.856Z</time></trkpt><trkpt lat="42.7254279" lon="12.4781434"><ele>204.0</ele><time>2026-04-07T10:35:20.857Z</time></trkpt><trkpt lat="42.7254347" lon="12.4782586"><ele>204.0</ele><time>2026-04-07T10:35:21.857Z</time></trkpt><trkpt lat="42.7254471" lon="12.4783504"><ele>203.83333333333334</ele><time>2026-04-07T10:35:22.841Z</time></trkpt><trkpt lat="42.7254604" lon="12.4784575"><ele>203.66666666666669</ele><time>2026-04-07T10:35:23.861Z</time></trkpt><trkpt lat="42.7254762" lon="12.4785631"><ele>203.5</ele><time>2026-04-07T10:35:24.858Z</time></trkpt><trkpt lat="42.7254875" lon="12.4786477"><ele>203.33333333333334</ele><time>2026-04-07T10:35:25.855Z</time></trkpt><trkpt lat="42.7255138" lon="12.4788115"><ele>203.16666666666669</ele><time>2026-04-07T10:35:27.848Z</time></trkpt><trkpt lat="42.7255189" lon="12.4788994"><ele>203.0</ele><time>2026-04-07T10:35:28.87Z</time></trkpt><trkpt lat="42.7255245" lon="12.479001"><ele>203.00000000000003</ele><time>2026-04-07T10:35:29.863Z</time></trkpt><trkpt lat="42.7255355" lon="12.4791113"><ele>203.0</ele><time>2026-04-07T10:35:30.841Z</time></trkpt><trkpt lat="42.7255412" lon="12.4792093"><ele>203.0</ele><time>2026-04-07T10:35:31.85Z</time></trkpt><trkpt lat="42.7255514" lon="12.4793613"><ele>203.0</ele><time>2026-04-07T10:35:33.852Z</time></trkpt><trkpt lat="42.7255633" lon="12.4794842"><ele>203.00000000000003</ele><time>2026-04-07T10:35:35.852Z</time></trkpt><trkpt lat="42.7255772" lon="12.4795698"><ele>203.0</ele><time>2026-04-07T10:35:36.839Z</time></trkpt><trkpt lat="42.725599" lon="12.4796893"><ele>202.66666666666669</ele><time>2026-04-07T10:35:37.838Z</time></trkpt><trkpt lat="42.7256215" lon="12.4798151"><ele>202.33333333333334</ele><time>2026-04-07T10:35:38.853Z</time></trkpt><trkpt lat="42.7256352" lon="12.4799237"><ele>202.0</ele><time>2026-04-07T10:35:39.849Z</time></trkpt><trkpt lat="42.7256489" lon="12.480024"><ele>201.66666666666669</ele><time>2026-04-07T10:35:40.853Z</time></trkpt><trkpt lat="42.7256664" lon="12.480124"><ele>201.33333333333334</ele><time>2026-04-07T10:35:41.858Z</time></trkpt><trkpt lat="42.7256829" lon="12.4802122"><ele>201.0</ele><time>2026-04-07T10:35:42.851Z</time></trkpt><trkpt lat="42.7257002" lon="12.4802967"><ele>201.0</ele><time>2026-04-07T10:35:43.85Z</time></trkpt><trkpt lat="42.7257182" lon="12.4803799"><ele>201.0</ele><time>2026-04-07T10:35:44.851Z</time></trkpt><trkpt lat="42.7257573" lon="12.4805358"><ele>201.0</ele><time>2026-04-07T10:35:46.849Z</time></trkpt><trkpt lat="42.7257844" lon="12.4806296"><ele>201.0</ele><time>2026-04-07T10:35:47.849Z</time></trkpt><trkpt lat="42.7258154" lon="12.4807203"><ele>201.0</ele><time>2026-04-07T10:35:48.845Z</time></trkpt><trkpt lat="42.7258416" lon="12.4808079"><ele>201.0</ele><time>2026-04-07T10:35:49.85Z</time></trkpt><trkpt lat="42.7258665" lon="12.4808985"><ele>200.83333333333334</ele><time>2026-04-07T10:35:50.851Z</time></trkpt><trkpt lat="42.725894" lon="12.4809912"><ele>200.66666666666669</ele><time>2026-04-07T10:35:51.853Z</time></trkpt><trkpt lat="42.7259218" lon="12.4811045"><ele>200.5</ele><time>2026-04-07T10:35:52.854Z</time></trkpt><trkpt lat="42.7259519" lon="12.481233"><ele>200.33333333333334</ele><time>2026-04-07T10:35:53.84Z</time></trkpt><trkpt lat="42.7259825" lon="12.4813567"><ele>200.16666666666669</ele><time>2026-04-07T10:35:54.841Z</time></trkpt><trkpt lat="42.7260066" lon="12.4814705"><ele>200.0</ele><time>2026-04-07T10:35:55.842Z</time></trkpt><trkpt lat="42.7260219" lon="12.4815661"><ele>199.66666666666669</ele><time>2026-04-07T10:35:56.835Z</time></trkpt><trkpt lat="42.7260428" lon="12.481723"><ele>199.33333333333334</ele><time>2026-04-07T10:35:58.853Z</time></trkpt><trkpt lat="42.7260716" lon="12.4818677"><ele>199.0</ele><time>2026-04-07T10:36:00.837Z</time></trkpt><trkpt lat="42.7260884" lon="12.4819736"><ele>198.66666666666669</ele><time>2026-04-07T10:36:02.849Z</time></trkpt><trkpt lat="42.7261066" lon="12.4820625"><ele>198.33333333333334</ele><time>2026-04-07T10:36:33.841Z</time></trkpt><trkpt lat="42.7261173" lon="12.4821536"><ele>198.0</ele><time>2026-04-07T10:36:44.835Z</time></trkpt><trkpt lat="42.726146" lon="12.4822585"><ele>199.16666666666666</ele><time>2026-04-07T10:36:46.84Z</time></trkpt><trkpt lat="42.7261662" lon="12.4823575"><ele>200.33333333333331</ele><time>2026-04-07T10:36:48.868Z</time></trkpt><trkpt lat="42.7261755" lon="12.4824621"><ele>201.5</ele><time>2026-04-07T10:36:50.859Z</time></trkpt><trkpt lat="42.726194" lon="12.4825826"><ele>202.66666666666666</ele><time>2026-04-07T10:36:52.85Z</time></trkpt><trkpt lat="42.72623" lon="12.4826855"><ele>203.83333333333331</ele><time>2026-04-07T10:36:54.859Z</time></trkpt><trkpt lat="42.726267" lon="12.4828158"><ele>205.0</ele><time>2026-04-07T10:36:56.854Z</time></trkpt><trkpt lat="42.726289" lon="12.4828983"><ele>204.49999999999997</ele><time>2026-04-07T10:36:57.845Z</time></trkpt><trkpt lat="42.7263096" lon="12.4829856"><ele>204.0</ele><time>2026-04-07T10:36:58.85Z</time></trkpt><trkpt lat="42.7263327" lon="12.4830845"><ele>203.5</ele><time>2026-04-07T10:36:59.852Z</time></trkpt><trkpt lat="42.7263581" lon="12.4831878"><ele>203.0</ele><time>2026-04-07T10:37:00.835Z</time></trkpt><trkpt lat="42.7263746" lon="12.4832826"><ele>202.49999999999997</ele><time>2026-04-07T10:37:01.855Z</time></trkpt><trkpt lat="42.726391" lon="12.4834325"><ele>202.0</ele><time>2026-04-07T10:37:03.859Z</time></trkpt><trkpt lat="42.726371" lon="12.4835395"><ele>201.99999999999997</ele><time>2026-04-07T10:37:05.846Z</time></trkpt><trkpt lat="42.7262881" lon="12.4835749"><ele>202.0</ele><time>2026-04-07T10:37:08.849Z</time></trkpt><trkpt lat="42.7262259" lon="12.4835592"><ele>202.0</ele><time>2026-04-07T10:37:10.839Z</time></trkpt><trkpt lat="42.7261509" lon="12.4835206"><ele>202.0</ele><time>2026-04-07T10:37:12.853Z</time></trkpt><trkpt lat="42.7260639" lon="12.4834846"><ele>201.99999999999997</ele><time>2026-04-07T10:37:14.849Z</time></trkpt><trkpt lat="42.7259834" lon="12.4834919"><ele>202.0</ele><time>2026-04-07T10:37:16.867Z</time></trkpt><trkpt lat="42.7259301" lon="12.4835724"><ele>202.0</ele><time>2026-04-07T10:37:19.838Z</time></trkpt><trkpt lat="42.7259362" lon="12.4836721"><ele>202.0</ele><time>2026-04-07T10:37:22.843Z</time></trkpt><trkpt lat="42.7259514" lon="12.4837697"><ele>202.0</ele><time>2026-04-07T10:37:27.854Z</time></trkpt><trkpt lat="42.7259973" lon="12.483865"><ele>202.0</ele><time>2026-04-07T10:37:35.848Z</time></trkpt><trkpt lat="42.7260443" lon="12.4839451"><ele>202.0</ele><time>2026-04-07T10:37:37.853Z</time></trkpt><trkpt lat="42.7260758" lon="12.4840361"><ele>202.0</ele><time>2026-04-07T10:37:39.851Z</time></trkpt><trkpt lat="42.7260601" lon="12.4841276"><ele>202.0</ele><time>2026-04-07T10:37:41.849Z</time></trkpt><trkpt lat="42.725984" lon="12.4842194"><ele>201.2</ele><time>2026-04-07T10:37:43.853Z</time></trkpt><trkpt lat="42.7258858" lon="12.4842909"><ele>200.39999999999998</ele><time>2026-04-07T10:37:45.849Z</time></trkpt><trkpt lat="42.7257871" lon="12.4843636"><ele>199.60000000000002</ele><time>2026-04-07T10:37:47.841Z</time></trkpt><trkpt lat="42.7257156" lon="12.4844679"><ele>198.8</ele><time>2026-04-07T10:37:49.857Z</time></trkpt><trkpt lat="42.7256374" lon="12.4845906"><ele>198.0</ele><time>2026-04-07T10:37:51.854Z</time></trkpt><trkpt lat="42.7255774" lon="12.4847031"><ele>197.83333333333334</ele><time>2026-04-07T10:37:53.857Z</time></trkpt><trkpt lat="42.7255428" lon="12.4847839"><ele>197.66666666666669</ele><time>2026-04-07T10:37:55.865Z</time></trkpt><trkpt lat="42.7254887" lon="12.4848884"><ele>197.5</ele><time>2026-04-07T10:38:08.854Z</time></trkpt><trkpt lat="42.7254619" lon="12.4850231"><ele>197.33333333333334</ele><time>2026-04-07T10:38:10.848Z</time></trkpt><trkpt lat="42.7254473" lon="12.4851347"><ele>197.16666666666669</ele><time>2026-04-07T10:38:12.864Z</time></trkpt><trkpt lat="42.7254234" lon="12.4852591"><ele>197.0</ele><time>2026-04-07T10:38:14.849Z</time></trkpt><trkpt lat="42.7253853" lon="12.485412"><ele>197.16666666666669</ele><time>2026-04-07T10:38:16.843Z</time></trkpt><trkpt lat="42.7253579" lon="12.4854988"><ele>197.33333333333334</ele><time>2026-04-07T10:38:17.858Z</time></trkpt><trkpt lat="42.7253322" lon="12.4855937"><ele>197.5</ele><time>2026-04-07T10:38:18.85Z</time></trkpt><trkpt lat="42.7253072" lon="12.4856993"><ele>197.66666666666669</ele><time>2026-04-07T10:38:19.861Z</time></trkpt><trkpt lat="42.725277" lon="12.4857937"><ele>197.83333333333334</ele><time>2026-04-07T10:38:20.836Z</time></trkpt><trkpt lat="42.7252453" lon="12.4858844"><ele>198.0</ele><time>2026-04-07T10:38:21.849Z</time></trkpt><trkpt lat="42.7252121" lon="12.4859768"><ele>198.0</ele><time>2026-04-07T10:38:22.853Z</time></trkpt><trkpt lat="42.7251791" lon="12.4860726"><ele>198.0</ele><time>2026-04-07T10:38:23.854Z</time></trkpt><trkpt lat="42.7251473" lon="12.486157"><ele>198.0</ele><time>2026-04-07T10:38:24.84Z</time></trkpt><trkpt lat="42.7251079" lon="12.486226"><ele>198.0</ele><time>2026-04-07T10:38:25.848Z</time></trkpt><trkpt lat="42.7250581" lon="12.4863548"><ele>198.0</ele><time>2026-04-07T10:38:27.85Z</time></trkpt><trkpt lat="42.7250258" lon="12.486513"><ele>198.0</ele><time>2026-04-07T10:38:29.857Z</time></trkpt><trkpt lat="42.72501" lon="12.4866038"><ele>198.0</ele><time>2026-04-07T10:38:30.855Z</time></trkpt><trkpt lat="42.7249974" lon="12.4867045"><ele>198.0</ele><time>2026-04-07T10:38:31.843Z</time></trkpt><trkpt lat="42.7249817" lon="12.4868195"><ele>198.0</ele><time>2026-04-07T10:38:32.838Z</time></trkpt><trkpt lat="42.7249597" lon="12.4869388"><ele>198.0</ele><time>2026-04-07T10:38:33.84Z</time></trkpt><trkpt lat="42.7249453" lon="12.4870517"><ele>198.0</ele><time>2026-04-07T10:38:34.856Z</time></trkpt><trkpt lat="42.7249375" lon="12.4871543"><ele>198.0</ele><time>2026-04-07T10:38:35.861Z</time></trkpt><trkpt lat="42.724934" lon="12.4872422"><ele>198.16666666666666</ele><time>2026-04-07T10:38:36.842Z</time></trkpt><trkpt lat="42.7249293" lon="12.4873645"><ele>198.33333333333331</ele><time>2026-04-07T10:38:38.838Z</time></trkpt><trkpt lat="42.7249213" lon="12.4874721"><ele>198.5</ele><time>2026-04-07T10:38:41.837Z</time></trkpt><trkpt lat="42.72489" lon="12.4875791"><ele>198.66666666666666</ele><time>2026-04-07T10:38:44.85Z</time></trkpt><trkpt lat="42.7248749" lon="12.48769"><ele>198.83333333333331</ele><time>2026-04-07T10:38:46.848Z</time></trkpt><trkpt lat="42.7248596" lon="12.4878399"><ele>199.0</ele><time>2026-04-07T10:38:48.853Z</time></trkpt><trkpt lat="42.7248429" lon="12.4880014"><ele>198.99999999999997</ele><time>2026-04-07T10:38:50.844Z</time></trkpt><trkpt lat="42.7248409" lon="12.4880928"><ele>199.0</ele><time>2026-04-07T10:38:51.836Z</time></trkpt><trkpt lat="42.7248372" lon="12.4881883"><ele>199.0</ele><time>2026-04-07T10:38:52.852Z</time></trkpt><trkpt lat="42.7248332" lon="12.4882938"><ele>199.0</ele><time>2026-04-07T10:38:53.836Z</time></trkpt><trkpt lat="42.7248127" lon="12.4884399"><ele>198.99999999999997</ele><time>2026-04-07T10:38:55.845Z</time></trkpt><trkpt lat="42.7247587" lon="12.4884986"><ele>199.0</ele><time>2026-04-07T10:39:02.838Z</time></trkpt><trkpt lat="42.7247165" lon="12.4885655"><ele>199.0</ele><time>2026-04-07T10:39:04.857Z</time></trkpt><trkpt lat="42.7246539" lon="12.4887108"><ele>199.0</ele><time>2026-04-07T10:39:06.852Z</time></trkpt><trkpt lat="42.7246032" lon="12.488855"><ele>199.0</ele><time>2026-04-07T10:39:08.85Z</time></trkpt><trkpt lat="42.7245577" lon="12.4890037"><ele>199.0</ele><time>2026-04-07T10:39:10.848Z</time></trkpt><trkpt lat="42.724514" lon="12.4891027"><ele>199.0</ele><time>2026-04-07T10:39:12.844Z</time></trkpt><trkpt lat="42.7244677" lon="12.4892058"><ele>199.0</ele><time>2026-04-07T10:39:14.85Z</time></trkpt><trkpt lat="42.7244261" lon="12.4892901"><ele>199.0</ele><time>2026-04-07T10:39:16.836Z</time></trkpt><trkpt lat="42.7243503" lon="12.489346"><ele>199.0</ele><time>2026-04-07T10:39:26.859Z</time></trkpt><trkpt lat="42.7242364" lon="12.4893462"><ele>199.0</ele><time>2026-04-07T10:39:28.85Z</time></trkpt><trkpt lat="42.7241208" lon="12.4893672"><ele>199.0</ele><time>2026-04-07T10:39:30.855Z</time></trkpt><trkpt lat="42.7240022" lon="12.4893898"><ele>198.79999999999998</ele><time>2026-04-07T10:39:32.834Z</time></trkpt><trkpt lat="42.7239202" lon="12.4893947"><ele>198.6</ele><time>2026-04-07T10:39:34.857Z</time></trkpt><trkpt lat="42.7240193" lon="12.48939"><ele>198.4</ele><time>2026-04-07T10:39:58.849Z</time></trkpt><trkpt lat="42.7241299" lon="12.4893714"><ele>198.2</ele><time>2026-04-07T10:40:00.854Z</time></trkpt><trkpt lat="42.7242424" lon="12.4893454"><ele>198.0</ele><time>2026-04-07T10:40:02.852Z</time></trkpt><trkpt lat="42.7243481" lon="12.4893356"><ele>198.16666666666666</ele><time>2026-04-07T10:40:04.842Z</time></trkpt><trkpt lat="42.7244333" lon="12.4893376"><ele>198.33333333333331</ele><time>2026-04-07T10:40:06.837Z</time></trkpt><trkpt lat="42.7245083" lon="12.4893334"><ele>198.5</ele><time>2026-04-07T10:40:08.846Z</time></trkpt><trkpt lat="42.7245801" lon="12.4893316"><ele>198.66666666666666</ele><time>2026-04-07T10:40:10.846Z</time></trkpt><trkpt lat="42.7246789" lon="12.4893074"><ele>198.83333333333331</ele><time>2026-04-07T10:40:12.848Z</time></trkpt><trkpt lat="42.7247372" lon="12.4892706"><ele>199.0</ele><time>2026-04-07T10:40:13.845Z</time></trkpt><trkpt lat="42.724789" lon="12.489213"><ele>198.99999999999997</ele><time>2026-04-07T10:40:14.851Z</time></trkpt><trkpt lat="42.7248349" lon="12.4891537"><ele>199.0</ele><time>2026-04-07T10:40:15.857Z</time></trkpt><trkpt lat="42.72493" lon="12.4891062"><ele>199.0</ele><time>2026-04-07T10:40:17.854Z</time></trkpt><trkpt lat="42.7250509" lon="12.4891048"><ele>199.0</ele><time>2026-04-07T10:40:19.865Z</time></trkpt><trkpt lat="42.7251237" lon="12.4891053"><ele>198.99999999999997</ele><time>2026-04-07T10:40:20.864Z</time></trkpt><trkpt lat="42.7251946" lon="12.4891125"><ele>199.0</ele><time>2026-04-07T10:40:21.837Z</time></trkpt><trkpt lat="42.7252608" lon="12.489133"><ele>199.83333333333331</ele><time>2026-04-07T10:40:22.864Z</time></trkpt><trkpt lat="42.7253298" lon="12.4891651"><ele>200.66666666666666</ele><time>2026-04-07T10:40:23.851Z</time></trkpt><trkpt lat="42.7253924" lon="12.4892147"><ele>201.5</ele><time>2026-04-07T10:40:24.86Z</time></trkpt><trkpt lat="42.7254399" lon="12.4892792"><ele>202.33333333333331</ele><time>2026-04-07T10:40:25.861Z</time></trkpt><trkpt lat="42.7254744" lon="12.4894429"><ele>203.16666666666666</ele><time>2026-04-07T10:40:27.852Z</time></trkpt><trkpt lat="42.7254766" lon="12.4895339"><ele>204.0</ele><time>2026-04-07T10:40:28.854Z</time></trkpt><trkpt lat="42.7254805" lon="12.4896291"><ele>204.0</ele><time>2026-04-07T10:40:29.863Z</time></trkpt><trkpt lat="42.7254825" lon="12.4897448"><ele>204.0</ele><time>2026-04-07T10:40:30.852Z</time></trkpt><trkpt lat="42.7254822" lon="12.4898608"><ele>204.0</ele><time>2026-04-07T10:40:31.879Z</time></trkpt><trkpt lat="42.7254861" lon="12.4899847"><ele>204.0</ele><time>2026-04-07T10:40:32.848Z</time></trkpt><trkpt lat="42.7254861" lon="12.4901057"><ele>204.0</ele><time>2026-04-07T10:40:33.843Z</time></trkpt><trkpt lat="42.7254864" lon="12.4902338"><ele>204.0</ele><time>2026-04-07T10:40:34.835Z</time></trkpt><trkpt lat="42.7254883" lon="12.4903706"><ele>204.0</ele><time>2026-04-07T10:40:35.845Z</time></trkpt><trkpt lat="42.7254855" lon="12.4905054"><ele>204.0</ele><time>2026-04-07T10:40:36.858Z</time></trkpt><trkpt lat="42.7254868" lon="12.490633"><ele>204.0</ele><time>2026-04-07T10:40:37.847Z</time></trkpt><trkpt lat="42.7254892" lon="12.4907617"><ele>204.0</ele><time>2026-04-07T10:40:38.863Z</time></trkpt><trkpt lat="42.7254902" lon="12.4908847"><ele>204.0</ele><time>2026-04-07T10:40:39.86Z</time></trkpt><trkpt lat="42.7254934" lon="12.4910109"><ele>204.0</ele><time>2026-04-07T10:40:40.859Z</time></trkpt><trkpt lat="42.7254909" lon="12.4911373"><ele>204.0</ele><time>2026-04-07T10:40:41.834Z</time></trkpt><trkpt lat="42.7254912" lon="12.491263"><ele>204.0</ele><time>2026-04-07T10:40:42.839Z</time></trkpt><trkpt lat="42.7254943" lon="12.491384"><ele>204.0</ele><time>2026-04-07T10:40:43.86Z</time></trkpt><trkpt lat="42.725495" lon="12.4914932"><ele>204.0</ele><time>2026-04-07T10:40:44.847Z</time></trkpt><trkpt lat="42.7254976" lon="12.4915925"><ele>204.0</ele><time>2026-04-07T10:40:45.845Z</time></trkpt><trkpt lat="42.7255" lon="12.4916917"><ele>204.0</ele><time>2026-04-07T10:40:46.845Z</time></trkpt><trkpt lat="42.7254991" lon="12.4917935"><ele>204.0</ele><time>2026-04-07T10:40:47.847Z</time></trkpt><trkpt lat="42.7254975" lon="12.4919127"><ele>204.0</ele><time>2026-04-07T10:40:48.858Z</time></trkpt><trkpt lat="42.725497" lon="12.4920403"><ele>204.0</ele><time>2026-04-07T10:40:49.849Z</time></trkpt><trkpt lat="42.7254959" lon="12.4921706"><ele>204.0</ele><time>2026-04-07T10:40:50.838Z</time></trkpt><trkpt lat="42.7254982" lon="12.4923106"><ele>204.0</ele><time>2026-04-07T10:40:51.863Z</time></trkpt><trkpt lat="42.7254994" lon="12.4924588"><ele>204.0</ele><time>2026-04-07T10:40:52.849Z</time></trkpt><trkpt lat="42.7254948" lon="12.4926146"><ele>204.0</ele><time>2026-04-07T10:40:53.86Z</time></trkpt><trkpt lat="42.7254898" lon="12.4927743"><ele>204.0</ele><time>2026-04-07T10:40:54.855Z</time></trkpt><trkpt lat="42.7254882" lon="12.4929345"><ele>204.6</ele><time>2026-04-07T10:40:55.855Z</time></trkpt><trkpt lat="42.7254878" lon="12.4930889"><ele>205.2</ele><time>2026-04-07T10:40:56.86Z</time></trkpt><trkpt lat="42.7254857" lon="12.4932274"><ele>205.79999999999998</ele><time>2026-04-07T10:40:57.84Z</time></trkpt><trkpt lat="42.7254823" lon="12.4933453"><ele>206.39999999999998</ele><time>2026-04-07T10:40:58.849Z</time></trkpt><trkpt lat="42.7254836" lon="12.4934512"><ele>207.0</ele><time>2026-04-07T10:40:59.864Z</time></trkpt><trkpt lat="42.7254899" lon="12.4935619"><ele>207.0</ele><time>2026-04-07T10:41:00.834Z</time></trkpt><trkpt lat="42.7255006" lon="12.4936803"><ele>207.0</ele><time>2026-04-07T10:41:01.846Z</time></trkpt><trkpt lat="42.7255132" lon="12.4938028"><ele>207.0</ele><time>2026-04-07T10:41:02.844Z</time></trkpt><trkpt lat="42.7255287" lon="12.493926"><ele>207.0</ele><time>2026-04-07T10:41:03.84Z</time></trkpt><trkpt lat="42.7255431" lon="12.4940511"><ele>207.0</ele><time>2026-04-07T10:41:04.875Z</time></trkpt><trkpt lat="42.7255564" lon="12.494163"><ele>207.0</ele><time>2026-04-07T10:41:05.842Z</time></trkpt><trkpt lat="42.7255708" lon="12.4942696"><ele>207.16666666666666</ele><time>2026-04-07T10:41:06.848Z</time></trkpt><trkpt lat="42.7255858" lon="12.4943663"><ele>207.33333333333331</ele><time>2026-04-07T10:41:07.884Z</time></trkpt><trkpt lat="42.7255976" lon="12.4944592"><ele>207.5</ele><time>2026-04-07T10:41:08.865Z</time></trkpt><trkpt lat="42.7256055" lon="12.4945568"><ele>207.66666666666666</ele><time>2026-04-07T10:41:09.857Z</time></trkpt><trkpt lat="42.7256097" lon="12.4946617"><ele>207.83333333333331</ele><time>2026-04-07T10:41:10.857Z</time></trkpt><trkpt lat="42.7256091" lon="12.4947766"><ele>208.0</ele><time>2026-04-07T10:41:11.854Z</time></trkpt><trkpt lat="42.7256204" lon="12.4948922"><ele>207.60000000000002</ele><time>2026-04-07T10:41:12.837Z</time></trkpt><trkpt lat="42.7256492" lon="12.4950098"><ele>207.20000000000002</ele><time>2026-04-07T10:41:13.853Z</time></trkpt><trkpt lat="42.7256765" lon="12.4951369"><ele>206.8</ele><time>2026-04-07T10:41:14.85Z</time></trkpt><trkpt lat="42.7257038" lon="12.4952792"><ele>206.4</ele><time>2026-04-07T10:41:15.854Z</time></trkpt><trkpt lat="42.7257341" lon="12.4954336"><ele>206.0</ele><time>2026-04-07T10:41:16.842Z</time></trkpt><trkpt lat="42.7257619" lon="12.4955839"><ele>205.75</ele><time>2026-04-07T10:41:17.854Z</time></trkpt><trkpt lat="42.7257871" lon="12.4957461"><ele>205.5</ele><time>2026-04-07T10:41:18.85Z</time></trkpt><trkpt lat="42.725817" lon="12.495911"><ele>205.25</ele><time>2026-04-07T10:41:19.856Z</time></trkpt><trkpt lat="42.7258425" lon="12.4960733"><ele>205.0</ele><time>2026-04-07T10:41:20.845Z</time></trkpt><trkpt lat="42.7258712" lon="12.496238"><ele>204.5</ele><time>2026-04-07T10:41:21.849Z</time></trkpt><trkpt lat="42.7258996" lon="12.4964022"><ele>204.0</ele><time>2026-04-07T10:41:22.852Z</time></trkpt><trkpt lat="42.7259255" lon="12.4965675"><ele>203.5</ele><time>2026-04-07T10:41:23.843Z</time></trkpt><trkpt lat="42.7259482" lon="12.4967514"><ele>203.0</ele><time>2026-04-07T10:41:24.877Z</time></trkpt><trkpt lat="42.7259684" lon="12.4969349"><ele>203.2</ele><time>2026-04-07T10:41:25.859Z</time></trkpt><trkpt lat="42.7259778" lon="12.4970987"><ele>203.4</ele><time>2026-04-07T10:41:26.85Z</time></trkpt><trkpt lat="42.7259778" lon="12.4972523"><ele>203.6</ele><time>2026-04-07T10:41:27.857Z</time></trkpt><trkpt lat="42.7259704" lon="12.4973798"><ele>203.79999999999998</ele><time>2026-04-07T10:41:28.852Z</time></trkpt><trkpt lat="42.7259541" lon="12.4974818"><ele>204.0</ele><time>2026-04-07T10:41:29.845Z</time></trkpt><trkpt lat="42.7259424" lon="12.4976169"><ele>204.0</ele><time>2026-04-07T10:41:31.845Z</time></trkpt><trkpt lat="42.7259871" lon="12.4976902"><ele>204.0</ele><time>2026-04-07T10:41:33.845Z</time></trkpt><trkpt lat="42.726059" lon="12.4977246"><ele>204.0</ele><time>2026-04-07T10:41:35.854Z</time></trkpt><trkpt lat="42.726158" lon="12.4976917"><ele>204.0</ele><time>2026-04-07T10:41:37.839Z</time></trkpt><trkpt lat="42.7262063" lon="12.4975546"><ele>204.0</ele><time>2026-04-07T10:41:39.844Z</time></trkpt><trkpt lat="42.7262264" lon="12.4974191"><ele>204.66666666666666</ele><time>2026-04-07T10:41:41.84Z</time></trkpt><trkpt lat="42.7262947" lon="12.4974059"><ele>205.33333333333331</ele><time>2026-04-07T10:41:46.843Z</time></trkpt><trkpt lat="42.7262935" lon="12.4975449"><ele>206.0</ele><time>2026-04-07T10:41:48.858Z</time></trkpt><trkpt lat="42.7262778" lon="12.4977195"><ele>206.66666666666666</ele><time>2026-04-07T10:41:50.852Z</time></trkpt><trkpt lat="42.7262722" lon="12.4978161"><ele>207.33333333333331</ele><time>2026-04-07T10:41:51.852Z</time></trkpt><trkpt lat="42.7262687" lon="12.497913"><ele>208.0</ele><time>2026-04-07T10:41:52.851Z</time></trkpt><trkpt lat="42.7262638" lon="12.4980057"><ele>208.0</ele><time>2026-04-07T10:41:53.857Z</time></trkpt><trkpt lat="42.7262525" lon="12.4980937"><ele>208.0</ele><time>2026-04-07T10:41:54.85Z</time></trkpt><trkpt lat="42.7262389" lon="12.4981875"><ele>208.0</ele><time>2026-04-07T10:41:55.845Z</time></trkpt><trkpt lat="42.7262394" lon="12.4983505"><ele>208.0</ele><time>2026-04-07T10:41:57.846Z</time></trkpt><trkpt lat="42.7262799" lon="12.4985156"><ele>208.0</ele><time>2026-04-07T10:41:59.859Z</time></trkpt><trkpt lat="42.7263124" lon="12.4985948"><ele>207.99999999999997</ele><time>2026-04-07T10:42:00.862Z</time></trkpt><trkpt lat="42.7263571" lon="12.498674"><ele>208.0</ele><time>2026-04-07T10:42:01.849Z</time></trkpt><trkpt lat="42.7264057" lon="12.4987503"><ele>208.0</ele><time>2026-04-07T10:42:02.848Z</time></trkpt><trkpt lat="42.7264672" lon="12.4988227"><ele>208.0</ele><time>2026-04-07T10:42:03.859Z</time></trkpt><trkpt lat="42.7265375" lon="12.4988753"><ele>207.99999999999997</ele><time>2026-04-07T10:42:04.856Z</time></trkpt><trkpt lat="42.7266185" lon="12.4989293"><ele>208.0</ele><time>2026-04-07T10:42:05.846Z</time></trkpt><trkpt lat="42.7267038" lon="12.4989814"><ele>208.16666666666666</ele><time>2026-04-07T10:42:06.853Z</time></trkpt><trkpt lat="42.7267846" lon="12.4990267"><ele>208.33333333333331</ele><time>2026-04-07T10:42:07.848Z</time></trkpt><trkpt lat="42.726856" lon="12.4990454"><ele>208.5</ele><time>2026-04-07T10:42:08.866Z</time></trkpt><trkpt lat="42.7269336" lon="12.4990194"><ele>208.66666666666669</ele><time>2026-04-07T10:42:09.832Z</time></trkpt><trkpt lat="42.7270104" lon="12.498957"><ele>208.83333333333334</ele><time>2026-04-07T10:42:10.855Z</time></trkpt><trkpt lat="42.7270762" lon="12.4988548"><ele>209.0</ele><time>2026-04-07T10:42:11.849Z</time></trkpt><trkpt lat="42.7271372" lon="12.4987384"><ele>210.79999999999998</ele><time>2026-04-07T10:42:12.856Z</time></trkpt><trkpt lat="42.7271988" lon="12.4986268"><ele>212.6</ele><time>2026-04-07T10:42:13.848Z</time></trkpt><trkpt lat="42.7272505" lon="12.49851"><ele>214.4</ele><time>2026-04-07T10:42:14.868Z</time></trkpt><trkpt lat="42.7272672" lon="12.498381"><ele>216.2</ele><time>2026-04-07T10:42:15.838Z</time></trkpt><trkpt lat="42.7272594" lon="12.4982394"><ele>218.0</ele><time>2026-04-07T10:42:16.856Z</time></trkpt><trkpt lat="42.7272287" lon="12.4980909"><ele>218.0</ele><time>2026-04-07T10:42:17.842Z</time></trkpt><trkpt lat="42.7272016" lon="12.4979373"><ele>218.0</ele><time>2026-04-07T10:42:18.877Z</time></trkpt><trkpt lat="42.7271932" lon="12.4978042"><ele>218.0</ele><time>2026-04-07T10:42:19.859Z</time></trkpt><trkpt lat="42.7272089" lon="12.4977045"><ele>218.0</ele><time>2026-04-07T10:42:20.854Z</time></trkpt><trkpt lat="42.7272752" lon="12.4975999"><ele>218.0</ele><time>2026-04-07T10:42:22.848Z</time></trkpt><trkpt lat="42.7274072" lon="12.4976003"><ele>219.0</ele><time>2026-04-07T10:42:24.849Z</time></trkpt><trkpt lat="42.7274998" lon="12.4976328"><ele>220.0</ele><time>2026-04-07T10:42:25.844Z</time></trkpt><trkpt lat="42.7276047" lon="12.4976696"><ele>221.0</ele><time>2026-04-07T10:42:26.854Z</time></trkpt><trkpt lat="42.7277183" lon="12.4977001"><ele>222.0</ele><time>2026-04-07T10:42:27.848Z</time></trkpt><trkpt lat="42.7278367" lon="12.4977121"><ele>223.0</ele><time>2026-04-07T10:42:28.859Z</time></trkpt><trkpt lat="42.7279567" lon="12.4976833"><ele>225.5</ele><time>2026-04-07T10:42:29.85Z</time></trkpt><trkpt lat="42.7280621" lon="12.4976008"><ele>228.0</ele><time>2026-04-07T10:42:30.844Z</time></trkpt><trkpt lat="42.7281557" lon="12.4974755"><ele>230.5</ele><time>2026-04-07T10:42:31.848Z</time></trkpt><trkpt lat="42.7282366" lon="12.4973526"><ele>233.0</ele><time>2026-04-07T10:42:32.847Z</time></trkpt><trkpt lat="42.7283133" lon="12.4972637"><ele>233.0</ele><time>2026-04-07T10:42:33.865Z</time></trkpt><trkpt lat="42.7283929" lon="12.4972182"><ele>233.0</ele><time>2026-04-07T10:42:34.855Z</time></trkpt><trkpt lat="42.7284793" lon="12.4972017"><ele>233.0</ele><time>2026-04-07T10:42:35.859Z</time></trkpt><trkpt lat="42.7285809" lon="12.4971885"><ele>233.0</ele><time>2026-04-07T10:42:36.844Z</time></trkpt><trkpt lat="42.72869" lon="12.4971418"><ele>233.0</ele><time>2026-04-07T10:42:37.843Z</time></trkpt><trkpt lat="42.7287973" lon="12.4970616"><ele>236.75</ele><time>2026-04-07T10:42:38.854Z</time></trkpt><trkpt lat="42.7288829" lon="12.4969472"><ele>240.5</ele><time>2026-04-07T10:42:39.85Z</time></trkpt><trkpt lat="42.7289364" lon="12.4968153"><ele>244.25</ele><time>2026-04-07T10:42:40.843Z</time></trkpt><trkpt lat="42.7289614" lon="12.4966574"><ele>248.0</ele><time>2026-04-07T10:42:41.861Z</time></trkpt><trkpt lat="42.7289604" lon="12.4965012"><ele>248.0</ele><time>2026-04-07T10:42:42.845Z</time></trkpt><trkpt lat="42.7289583" lon="12.4963669"><ele>248.0</ele><time>2026-04-07T10:42:43.86Z</time></trkpt><trkpt lat="42.7289735" lon="12.4962477"><ele>248.0</ele><time>2026-04-07T10:42:44.843Z</time></trkpt><trkpt lat="42.7290047" lon="12.4961416"><ele>248.0</ele><time>2026-04-07T10:42:45.853Z</time></trkpt><trkpt lat="42.7290657" lon="12.49603"><ele>248.0</ele><time>2026-04-07T10:42:46.86Z</time></trkpt><trkpt lat="42.7291441" lon="12.4958895"><ele>249.0</ele><time>2026-04-07T10:42:47.849Z</time></trkpt><trkpt lat="42.7292263" lon="12.4957335"><ele>250.0</ele><time>2026-04-07T10:42:48.844Z</time></trkpt><trkpt lat="42.7293159" lon="12.495554"><ele>251.0</ele><time>2026-04-07T10:42:49.851Z</time></trkpt><trkpt lat="42.7294152" lon="12.4953597"><ele>254.0</ele><time>2026-04-07T10:42:50.849Z</time></trkpt><trkpt lat="42.7295059" lon="12.4951671"><ele>257.0</ele><time>2026-04-07T10:42:51.864Z</time></trkpt><trkpt lat="42.7295859" lon="12.4950009"><ele>260.0</ele><time>2026-04-07T10:42:52.855Z</time></trkpt><trkpt lat="42.7296592" lon="12.4948448"><ele>260.0</ele><time>2026-04-07T10:42:53.862Z</time></trkpt><trkpt lat="42.7297459" lon="12.4947265"><ele>260.0</ele><time>2026-04-07T10:42:54.853Z</time></trkpt><trkpt lat="42.7298516" lon="12.4946518"><ele>260.0</ele><time>2026-04-07T10:42:55.848Z</time></trkpt><trkpt lat="42.7299722" lon="12.4945814"><ele>260.0</ele><time>2026-04-07T10:42:56.868Z</time></trkpt><trkpt lat="42.7300796" lon="12.4944939"><ele>261.0</ele><time>2026-04-07T10:42:57.836Z</time></trkpt><trkpt lat="42.7301501" lon="12.4943819"><ele>262.0</ele><time>2026-04-07T10:42:58.851Z</time></trkpt><trkpt lat="42.7302187" lon="12.4942877"><ele>263.0</ele><time>2026-04-07T10:42:59.849Z</time></trkpt><trkpt lat="42.7303078" lon="12.4942431"><ele>264.0</ele><time>2026-04-07T10:43:00.858Z</time></trkpt><trkpt lat="42.7304224" lon="12.4942205"><ele>265.0</ele><time>2026-04-07T10:43:01.851Z</time></trkpt><trkpt lat="42.7305463" lon="12.4942036"><ele>265.0</ele><time>2026-04-07T10:43:02.851Z</time></trkpt><trkpt lat="42.7306746" lon="12.4941948"><ele>265.0</ele><time>2026-04-07T10:43:03.856Z</time></trkpt><trkpt lat="42.7308059" lon="12.4941968"><ele>265.0</ele><time>2026-04-07T10:43:04.847Z</time></trkpt><trkpt lat="42.7309296" lon="12.4942012"><ele>265.0</ele><time>2026-04-07T10:43:05.847Z</time></trkpt><trkpt lat="42.7310522" lon="12.4942137"><ele>266.25</ele><time>2026-04-07T10:43:06.842Z</time></trkpt><trkpt lat="42.7311734" lon="12.4942267"><ele>267.5</ele><time>2026-04-07T10:43:07.86Z</time></trkpt><trkpt lat="42.7312973" lon="12.4942105"><ele>268.75</ele><time>2026-04-07T10:43:08.845Z</time></trkpt><trkpt lat="42.7314268" lon="12.4941742"><ele>270.0</ele><time>2026-04-07T10:43:09.852Z</time></trkpt><trkpt lat="42.7315742" lon="12.4940939"><ele>270.0</ele><time>2026-04-07T10:43:10.856Z</time></trkpt><trkpt lat="42.7317402" lon="12.4939852"><ele>270.0</ele><time>2026-04-07T10:43:11.847Z</time></trkpt><trkpt lat="42.7319155" lon="12.4938751"><ele>270.0</ele><time>2026-04-07T10:43:12.844Z</time></trkpt><trkpt lat="42.7321045" lon="12.4937539"><ele>274.5</ele><time>2026-04-07T10:43:13.844Z</time></trkpt><trkpt lat="42.7323201" lon="12.4936171"><ele>279.0</ele><time>2026-04-07T10:43:14.843Z</time></trkpt><trkpt lat="42.7325315" lon="12.4934817"><ele>280.6666666666667</ele><time>2026-04-07T10:43:15.843Z</time></trkpt><trkpt lat="42.7327252" lon="12.4933671"><ele>282.33333333333337</ele><time>2026-04-07T10:43:16.855Z</time></trkpt><trkpt lat="42.7328965" lon="12.4932626"><ele>284.0</ele><time>2026-04-07T10:43:17.848Z</time></trkpt><trkpt lat="42.7330447" lon="12.4931765"><ele>284.0</ele><time>2026-04-07T10:43:18.85Z</time></trkpt><trkpt lat="42.7331739" lon="12.4930959"><ele>284.0</ele><time>2026-04-07T10:43:19.851Z</time></trkpt><trkpt lat="42.7332816" lon="12.4930331"><ele>284.0</ele><time>2026-04-07T10:43:20.872Z</time></trkpt><trkpt lat="42.7333781" lon="12.4929895"><ele>284.0</ele><time>2026-04-07T10:43:21.846Z</time></trkpt><trkpt lat="42.7334903" lon="12.4929618"><ele>285.33333333333337</ele><time>2026-04-07T10:43:22.854Z</time></trkpt><trkpt lat="42.7336242" lon="12.4929728"><ele>286.6666666666667</ele><time>2026-04-07T10:43:23.85Z</time></trkpt><trkpt lat="42.7337891" lon="12.4930085"><ele>288.0</ele><time>2026-04-07T10:43:24.851Z</time></trkpt><trkpt lat="42.7339731" lon="12.4930784"><ele>288.0</ele><time>2026-04-07T10:43:25.843Z</time></trkpt><trkpt lat="42.7341438" lon="12.4931441"><ele>288.0</ele><time>2026-04-07T10:43:26.864Z</time></trkpt><trkpt lat="42.7342991" lon="12.4931913"><ele>288.0</ele><time>2026-04-07T10:43:27.855Z</time></trkpt><trkpt lat="42.7344176" lon="12.4932236"><ele>288.5</ele><time>2026-04-07T10:43:28.84Z</time></trkpt><trkpt lat="42.73454" lon="12.4932543"><ele>289.0</ele><time>2026-04-07T10:43:29.834Z</time></trkpt><trkpt lat="42.7346577" lon="12.4932813"><ele>289.5</ele><time>2026-04-07T10:43:30.857Z</time></trkpt><trkpt lat="42.7347789" lon="12.4932874"><ele>290.0</ele><time>2026-04-07T10:43:31.84Z</time></trkpt><trkpt lat="42.7348978" lon="12.4932658"><ele>290.0</ele><time>2026-04-07T10:43:32.861Z</time></trkpt><trkpt lat="42.7350074" lon="12.493218"><ele>290.0</ele><time>2026-04-07T10:43:33.835Z</time></trkpt><trkpt lat="42.7351067" lon="12.4931522"><ele>290.0</ele><time>2026-04-07T10:43:34.858Z</time></trkpt><trkpt lat="42.7351957" lon="12.4930466"><ele>290.0</ele><time>2026-04-07T10:43:35.849Z</time></trkpt><trkpt lat="42.7352851" lon="12.4929139"><ele>289.0</ele><time>2026-04-07T10:43:36.856Z</time></trkpt><trkpt lat="42.7353823" lon="12.4927837"><ele>288.0</ele><time>2026-04-07T10:43:37.845Z</time></trkpt><trkpt lat="42.7354863" lon="12.4926632"><ele>287.0</ele><time>2026-04-07T10:43:38.864Z</time></trkpt><trkpt lat="42.7356046" lon="12.4925539"><ele>286.0</ele><time>2026-04-07T10:43:39.852Z</time></trkpt><trkpt lat="42.7357302" lon="12.4924544"><ele>286.0</ele><time>2026-04-07T10:43:40.839Z</time></trkpt><trkpt lat="42.7358726" lon="12.4923711"><ele>286.0</ele><time>2026-04-07T10:43:41.86Z</time></trkpt><trkpt lat="42.7360241" lon="12.4923016"><ele>286.0</ele><time>2026-04-07T10:43:42.865Z</time></trkpt><trkpt lat="42.7361799" lon="12.492241"><ele>286.25</ele><time>2026-04-07T10:43:43.856Z</time></trkpt><trkpt lat="42.7363288" lon="12.4921805"><ele>286.5</ele><time>2026-04-07T10:43:44.838Z</time></trkpt><trkpt lat="42.736468" lon="12.4921169"><ele>286.75</ele><time>2026-04-07T10:43:45.846Z</time></trkpt><trkpt lat="42.7366053" lon="12.4920504"><ele>287.0</ele><time>2026-04-07T10:43:46.842Z</time></trkpt><trkpt lat="42.7367388" lon="12.4919753"><ele>287.0</ele><time>2026-04-07T10:43:47.856Z</time></trkpt><trkpt lat="42.7368641" lon="12.4918956"><ele>287.0</ele><time>2026-04-07T10:43:48.859Z</time></trkpt><trkpt lat="42.7369814" lon="12.4918147"><ele>287.0</ele><time>2026-04-07T10:43:49.866Z</time></trkpt><trkpt lat="42.737098" lon="12.4917241"><ele>287.0</ele><time>2026-04-07T10:43:50.837Z</time></trkpt><trkpt lat="42.7372167" lon="12.4916288"><ele>287.0</ele><time>2026-04-07T10:43:51.856Z</time></trkpt><trkpt lat="42.73733" lon="12.4915319"><ele>287.0</ele><time>2026-04-07T10:43:52.854Z</time></trkpt><trkpt lat="42.7374351" lon="12.4914431"><ele>287.0</ele><time>2026-04-07T10:43:53.856Z</time></trkpt><trkpt lat="42.737537" lon="12.4913532"><ele>287.0</ele><time>2026-04-07T10:43:54.844Z</time></trkpt><trkpt lat="42.7376238" lon="12.4912682"><ele>288.75</ele><time>2026-04-07T10:43:55.852Z</time></trkpt><trkpt lat="42.7377145" lon="12.491176"><ele>290.5</ele><time>2026-04-07T10:43:56.856Z</time></trkpt><trkpt lat="42.7378129" lon="12.4910723"><ele>292.25</ele><time>2026-04-07T10:43:57.853Z</time></trkpt><trkpt lat="42.7379181" lon="12.4909626"><ele>294.0</ele><time>2026-04-07T10:43:58.851Z</time></trkpt><trkpt lat="42.7380198" lon="12.4908461"><ele>294.2</ele><time>2026-04-07T10:43:59.847Z</time></trkpt><trkpt lat="42.7381118" lon="12.4907318"><ele>294.4</ele><time>2026-04-07T10:44:00.849Z</time></trkpt><trkpt lat="42.7381938" lon="12.4906396"><ele>294.6</ele><time>2026-04-07T10:44:01.843Z</time></trkpt><trkpt lat="42.7382803" lon="12.4905566"><ele>294.8</ele><time>2026-04-07T10:44:02.849Z</time></trkpt><trkpt lat="42.7383746" lon="12.4904767"><ele>295.0</ele><time>2026-04-07T10:44:03.874Z</time></trkpt><trkpt lat="42.7384664" lon="12.4903935"><ele>298.25</ele><time>2026-04-07T10:44:04.859Z</time></trkpt><trkpt lat="42.7385599" lon="12.4903127"><ele>301.5</ele><time>2026-04-07T10:44:05.844Z</time></trkpt><trkpt lat="42.7386659" lon="12.49023"><ele>304.75</ele><time>2026-04-07T10:44:06.859Z</time></trkpt><trkpt lat="42.7387784" lon="12.4901321"><ele>308.0</ele><time>2026-04-07T10:44:07.841Z</time></trkpt><trkpt lat="42.7388879" lon="12.490037"><ele>308.0</ele><time>2026-04-07T10:44:08.854Z</time></trkpt><trkpt lat="42.7389902" lon="12.489946"><ele>308.0</ele><time>2026-04-07T10:44:09.851Z</time></trkpt><trkpt lat="42.7390823" lon="12.4898698"><ele>308.0</ele><time>2026-04-07T10:44:10.863Z</time></trkpt><trkpt lat="42.7391726" lon="12.489806"><ele>308.0</ele><time>2026-04-07T10:44:11.866Z</time></trkpt><trkpt lat="42.7392683" lon="12.4897417"><ele>308.0</ele><time>2026-04-07T10:44:12.863Z</time></trkpt><trkpt lat="42.7393643" lon="12.4896852"><ele>309.5</ele><time>2026-04-07T10:44:13.859Z</time></trkpt><trkpt lat="42.7394689" lon="12.4896377"><ele>311.0</ele><time>2026-04-07T10:44:14.844Z</time></trkpt><trkpt lat="42.7395838" lon="12.4896013"><ele>312.5</ele><time>2026-04-07T10:44:15.84Z</time></trkpt><trkpt lat="42.7397029" lon="12.4895843"><ele>314.0</ele><time>2026-04-07T10:44:16.868Z</time></trkpt><trkpt lat="42.7398193" lon="12.4895732"><ele>314.59999999999997</ele><time>2026-04-07T10:44:17.867Z</time></trkpt><trkpt lat="42.7399331" lon="12.4895695"><ele>315.2</ele><time>2026-04-07T10:44:18.863Z</time></trkpt><trkpt lat="42.7400445" lon="12.4895655"><ele>315.79999999999995</ele><time>2026-04-07T10:44:19.857Z</time></trkpt><trkpt lat="42.7401514" lon="12.4895562"><ele>316.4</ele><time>2026-04-07T10:44:20.855Z</time></trkpt><trkpt lat="42.7402609" lon="12.4895486"><ele>317.0</ele><time>2026-04-07T10:44:21.841Z</time></trkpt><trkpt lat="42.7403762" lon="12.4895489"><ele>317.33333333333337</ele><time>2026-04-07T10:44:22.853Z</time></trkpt><trkpt lat="42.7404851" lon="12.4895537"><ele>317.6666666666667</ele><time>2026-04-07T10:44:23.853Z</time></trkpt><trkpt lat="42.7405826" lon="12.4895461"><ele>318.0</ele><time>2026-04-07T10:44:24.853Z</time></trkpt><trkpt lat="42.7406678" lon="12.4895308"><ele>318.3333333333333</ele><time>2026-04-07T10:44:25.864Z</time></trkpt><trkpt lat="42.7407393" lon="12.4895081"><ele>318.66666666666663</ele><time>2026-04-07T10:44:26.85Z</time></trkpt><trkpt lat="42.7408093" lon="12.489482"><ele>319.0</ele><time>2026-04-07T10:44:27.859Z</time></trkpt><trkpt lat="42.7408778" lon="12.4894443"><ele>319.0</ele><time>2026-04-07T10:44:28.846Z</time></trkpt><trkpt lat="42.7409444" lon="12.4893764"><ele>319.0</ele><time>2026-04-07T10:44:29.855Z</time></trkpt><trkpt lat="42.741011" lon="12.4892784"><ele>319.0</ele><time>2026-04-07T10:44:30.858Z</time></trkpt><trkpt lat="42.7410742" lon="12.4891786"><ele>319.0</ele><time>2026-04-07T10:44:31.853Z</time></trkpt><trkpt lat="42.741139" lon="12.4890724"><ele>319.0</ele><time>2026-04-07T10:44:32.863Z</time></trkpt><trkpt lat="42.7412013" lon="12.4889766"><ele>319.79999999999995</ele><time>2026-04-07T10:44:33.852Z</time></trkpt><trkpt lat="42.7412617" lon="12.4888776"><ele>320.59999999999997</ele><time>2026-04-07T10:44:34.861Z</time></trkpt><trkpt lat="42.7413128" lon="12.4887727"><ele>321.4</ele><time>2026-04-07T10:44:35.862Z</time></trkpt><trkpt lat="42.7413606" lon="12.4886577"><ele>322.2</ele><time>2026-04-07T10:44:36.854Z</time></trkpt><trkpt lat="42.7414078" lon="12.4885312"><ele>323.0</ele><time>2026-04-07T10:44:37.855Z</time></trkpt><trkpt lat="42.7414537" lon="12.4884074"><ele>323.0</ele><time>2026-04-07T10:44:38.863Z</time></trkpt><trkpt lat="42.7415016" lon="12.4882847"><ele>323.0</ele><time>2026-04-07T10:44:39.842Z</time></trkpt><trkpt lat="42.7415523" lon="12.4881715"><ele>323.0</ele><time>2026-04-07T10:44:40.849Z</time></trkpt><trkpt lat="42.741612" lon="12.4880653"><ele>323.0</ele><time>2026-04-07T10:44:41.855Z</time></trkpt><trkpt lat="42.7416617" lon="12.4879707"><ele>323.0</ele><time>2026-04-07T10:44:42.841Z</time></trkpt><trkpt lat="42.7417043" lon="12.4878847"><ele>322.83333333333337</ele><time>2026-04-07T10:44:43.847Z</time></trkpt><trkpt lat="42.7417362" lon="12.4877971"><ele>322.6666666666667</ele><time>2026-04-07T10:44:44.85Z</time></trkpt><trkpt lat="42.7417602" lon="12.4877112"><ele>322.5</ele><time>2026-04-07T10:44:45.862Z</time></trkpt><trkpt lat="42.741786" lon="12.487628"><ele>322.3333333333333</ele><time>2026-04-07T10:44:46.844Z</time></trkpt><trkpt lat="42.7418489" lon="12.4874976"><ele>322.16666666666663</ele><time>2026-04-07T10:44:48.861Z</time></trkpt><trkpt lat="42.7419019" lon="12.48744"><ele>322.0</ele><time>2026-04-07T10:44:49.868Z</time></trkpt><trkpt lat="42.7419663" lon="12.4873753"><ele>322.0</ele><time>2026-04-07T10:44:50.844Z</time></trkpt><trkpt lat="42.7420475" lon="12.4872905"><ele>322.0</ele><time>2026-04-07T10:44:51.852Z</time></trkpt><trkpt lat="42.7421385" lon="12.4872026"><ele>322.0</ele><time>2026-04-07T10:44:52.853Z</time></trkpt><trkpt lat="42.7422511" lon="12.4871"><ele>322.0</ele><time>2026-04-07T10:44:53.85Z</time></trkpt><trkpt lat="42.7423809" lon="12.4869785"><ele>322.0</ele><time>2026-04-07T10:44:54.846Z</time></trkpt><trkpt lat="42.7425297" lon="12.4868491"><ele>322.0</ele><time>2026-04-07T10:44:55.854Z</time></trkpt><trkpt lat="42.7426996" lon="12.4867093"><ele>322.0</ele><time>2026-04-07T10:44:56.857Z</time></trkpt><trkpt lat="42.7428856" lon="12.4865561"><ele>323.0</ele><time>2026-04-07T10:44:57.855Z</time></trkpt><trkpt lat="42.7430737" lon="12.4863926"><ele>324.0</ele><time>2026-04-07T10:44:58.858Z</time></trkpt><trkpt lat="42.7432485" lon="12.4862378"><ele>325.0</ele><time>2026-04-07T10:44:59.856Z</time></trkpt><trkpt lat="42.7434086" lon="12.4860917"><ele>328.0</ele><time>2026-04-07T10:45:00.855Z</time></trkpt><trkpt lat="42.743566" lon="12.4859565"><ele>331.0</ele><time>2026-04-07T10:45:01.836Z</time></trkpt><trkpt lat="42.7437165" lon="12.485824"><ele>334.0</ele><time>2026-04-07T10:45:02.853Z</time></trkpt><trkpt lat="42.743861" lon="12.4856906"><ele>334.0</ele><time>2026-04-07T10:45:03.859Z</time></trkpt><trkpt lat="42.7440011" lon="12.4855823"><ele>334.0</ele><time>2026-04-07T10:45:04.85Z</time></trkpt><trkpt lat="42.7441546" lon="12.4854947"><ele>334.0</ele><time>2026-04-07T10:45:05.845Z</time></trkpt><trkpt lat="42.7443095" lon="12.4854053"><ele>335.66666666666663</ele><time>2026-04-07T10:45:06.851Z</time></trkpt><trkpt lat="42.7444625" lon="12.485325"><ele>337.3333333333333</ele><time>2026-04-07T10:45:07.852Z</time></trkpt><trkpt lat="42.7446034" lon="12.485263"><ele>339.0</ele><time>2026-04-07T10:45:08.857Z</time></trkpt><trkpt lat="42.7447502" lon="12.485214"><ele>339.0</ele><time>2026-04-07T10:45:09.856Z</time></trkpt><trkpt lat="42.7449052" lon="12.4851651"><ele>339.0</ele><time>2026-04-07T10:45:10.87Z</time></trkpt><trkpt lat="42.7450771" lon="12.485108"><ele>339.0</ele><time>2026-04-07T10:45:11.865Z</time></trkpt><trkpt lat="42.7452442" lon="12.4850425"><ele>341.75</ele><time>2026-04-07T10:45:12.836Z</time></trkpt><trkpt lat="42.745392" lon="12.4849782"><ele>344.5</ele><time>2026-04-07T10:45:13.856Z</time></trkpt><trkpt lat="42.7455159" lon="12.48492"><ele>347.25</ele><time>2026-04-07T10:45:14.838Z</time></trkpt><trkpt lat="42.7456237" lon="12.4848485"><ele>350.0</ele><time>2026-04-07T10:45:15.845Z</time></trkpt><trkpt lat="42.7457131" lon="12.484781"><ele>350.0</ele><time>2026-04-07T10:45:16.836Z</time></trkpt><trkpt lat="42.7457945" lon="12.4847377"><ele>350.0</ele><time>2026-04-07T10:45:17.842Z</time></trkpt><trkpt lat="42.7458691" lon="12.4847386"><ele>350.0</ele><time>2026-04-07T10:45:18.845Z</time></trkpt><trkpt lat="42.7459531" lon="12.4847444"><ele>350.0</ele><time>2026-04-07T10:45:19.852Z</time></trkpt><trkpt lat="42.7460564" lon="12.4847634"><ele>350.0</ele><time>2026-04-07T10:45:20.848Z</time></trkpt><trkpt lat="42.7461633" lon="12.4847971"><ele>349.0</ele><time>2026-04-07T10:45:21.855Z</time></trkpt><trkpt lat="42.7462617" lon="12.4848387"><ele>348.0</ele><time>2026-04-07T10:45:22.856Z</time></trkpt><trkpt lat="42.7463599" lon="12.4848958"><ele>347.0</ele><time>2026-04-07T10:45:23.858Z</time></trkpt><trkpt lat="42.746445" lon="12.4849601"><ele>346.0</ele><time>2026-04-07T10:45:24.855Z</time></trkpt><trkpt lat="42.746517" lon="12.4850346"><ele>345.0</ele><time>2026-04-07T10:45:25.854Z</time></trkpt><trkpt lat="42.7465802" lon="12.4851116"><ele>345.0</ele><time>2026-04-07T10:45:26.848Z</time></trkpt><trkpt lat="42.7466344" lon="12.4851811"><ele>345.0</ele><time>2026-04-07T10:45:27.849Z</time></trkpt><trkpt lat="42.746684" lon="12.4852386"><ele>345.0</ele><time>2026-04-07T10:45:28.86Z</time></trkpt><trkpt lat="42.7467345" lon="12.4852933"><ele>345.0</ele><time>2026-04-07T10:45:31.872Z</time></trkpt><trkpt lat="42.7467734" lon="12.4854214"><ele>345.0</ele><time>2026-04-07T10:45:49.854Z</time></trkpt><trkpt lat="42.7468148" lon="12.4855415"><ele>345.0</ele><time>2026-04-07T10:45:51.864Z</time></trkpt><trkpt lat="42.7468436" lon="12.4856242"><ele>345.6</ele><time>2026-04-07T10:45:52.831Z</time></trkpt><trkpt lat="42.7468664" lon="12.485725"><ele>346.2</ele><time>2026-04-07T10:45:53.838Z</time></trkpt><trkpt lat="42.7468962" lon="12.4858498"><ele>346.79999999999995</ele><time>2026-04-07T10:45:54.841Z</time></trkpt><trkpt lat="42.7469242" lon="12.4859918"><ele>347.4</ele><time>2026-04-07T10:45:55.848Z</time></trkpt><trkpt lat="42.7469443" lon="12.486148"><ele>348.0</ele><time>2026-04-07T10:45:56.827Z</time></trkpt><trkpt lat="42.7469596" lon="12.4863105"><ele>343.0</ele><time>2026-04-07T10:45:57.854Z</time></trkpt><trkpt lat="42.7469785" lon="12.486486"><ele>338.0</ele><time>2026-04-07T10:45:58.847Z</time></trkpt><trkpt lat="42.7470137" lon="12.4866802"><ele>333.0</ele><time>2026-04-07T10:45:59.848Z</time></trkpt><trkpt lat="42.74706" lon="12.486868"><ele>328.0</ele><time>2026-04-07T10:46:00.845Z</time></trkpt><trkpt lat="42.7471208" lon="12.4870569"><ele>330.0</ele><time>2026-04-07T10:46:01.866Z</time></trkpt><trkpt lat="42.7471951" lon="12.4872425"><ele>332.0</ele><time>2026-04-07T10:46:02.848Z</time></trkpt><trkpt lat="42.7472812" lon="12.4874127"><ele>334.0</ele><time>2026-04-07T10:46:03.853Z</time></trkpt><trkpt lat="42.7473746" lon="12.4875827"><ele>334.0</ele><time>2026-04-07T10:46:04.864Z</time></trkpt><trkpt lat="42.7474808" lon="12.4877502"><ele>334.0</ele><time>2026-04-07T10:46:05.856Z</time></trkpt><trkpt lat="42.7476151" lon="12.487912"><ele>334.0</ele><time>2026-04-07T10:46:06.84Z</time></trkpt><trkpt lat="42.7477695" lon="12.4880694"><ele>335.0</ele><time>2026-04-07T10:46:07.833Z</time></trkpt><trkpt lat="42.7479306" lon="12.4882239"><ele>336.0</ele><time>2026-04-07T10:46:08.848Z</time></trkpt><trkpt lat="42.7480901" lon="12.4883746"><ele>337.0</ele><time>2026-04-07T10:46:09.847Z</time></trkpt><trkpt lat="42.7482444" lon="12.4885157"><ele>337.0</ele><time>2026-04-07T10:46:10.838Z</time></trkpt><trkpt lat="42.7483994" lon="12.4886578"><ele>337.0</ele><time>2026-04-07T10:46:11.844Z</time></trkpt><trkpt lat="42.7485582" lon="12.4888051"><ele>337.0</ele><time>2026-04-07T10:46:12.858Z</time></trkpt><trkpt lat="42.7487202" lon="12.4889539"><ele>337.3333333333333</ele><time>2026-04-07T10:46:13.849Z</time></trkpt><trkpt lat="42.7488866" lon="12.489103"><ele>337.6666666666667</ele><time>2026-04-07T10:46:14.852Z</time></trkpt><trkpt lat="42.7490597" lon="12.4892599"><ele>338.0</ele><time>2026-04-07T10:46:15.846Z</time></trkpt><trkpt lat="42.7492318" lon="12.4894139"><ele>337.33333333333337</ele><time>2026-04-07T10:46:16.836Z</time></trkpt><trkpt lat="42.7494028" lon="12.4895696"><ele>336.6666666666667</ele><time>2026-04-07T10:46:17.872Z</time></trkpt><trkpt lat="42.7495708" lon="12.4897295"><ele>336.0</ele><time>2026-04-07T10:46:18.854Z</time></trkpt><trkpt lat="42.7497424" lon="12.4898901"><ele>336.0</ele><time>2026-04-07T10:46:19.865Z</time></trkpt><trkpt lat="42.7499098" lon="12.4900465"><ele>336.0</ele><time>2026-04-07T10:46:20.836Z</time></trkpt><trkpt lat="42.7500697" lon="12.4901951"><ele>336.0</ele><time>2026-04-07T10:46:21.852Z</time></trkpt><trkpt lat="42.7502242" lon="12.4903409"><ele>337.6666666666667</ele><time>2026-04-07T10:46:22.861Z</time></trkpt><trkpt lat="42.7503677" lon="12.4904729"><ele>339.33333333333337</ele><time>2026-04-07T10:46:23.85Z</time></trkpt><trkpt lat="42.7504993" lon="12.490598"><ele>341.0</ele><time>2026-04-07T10:46:24.847Z</time></trkpt><trkpt lat="42.7506219" lon="12.4907124"><ele>341.0</ele><time>2026-04-07T10:46:25.856Z</time></trkpt><trkpt lat="42.7507437" lon="12.4908238"><ele>341.0</ele><time>2026-04-07T10:46:26.856Z</time></trkpt><trkpt lat="42.7508636" lon="12.4909286"><ele>341.0</ele><time>2026-04-07T10:46:27.858Z</time></trkpt><trkpt lat="42.7509744" lon="12.4910328"><ele>341.0</ele><time>2026-04-07T10:46:28.868Z</time></trkpt><trkpt lat="42.7510793" lon="12.4911273"><ele>341.25</ele><time>2026-04-07T10:46:29.858Z</time></trkpt><trkpt lat="42.7511858" lon="12.4912208"><ele>341.5</ele><time>2026-04-07T10:46:30.846Z</time></trkpt><trkpt lat="42.751289" lon="12.4913094"><ele>341.75</ele><time>2026-04-07T10:46:31.849Z</time></trkpt><trkpt lat="42.7513824" lon="12.4913967"><ele>342.0</ele><time>2026-04-07T10:46:32.851Z</time></trkpt><trkpt lat="42.7514691" lon="12.4914897"><ele>342.8</ele><time>2026-04-07T10:46:33.843Z</time></trkpt><trkpt lat="42.7515505" lon="12.4915971"><ele>343.6</ele><time>2026-04-07T10:46:34.849Z</time></trkpt><trkpt lat="42.7516184" lon="12.4917056"><ele>344.40000000000003</ele><time>2026-04-07T10:46:35.843Z</time></trkpt><trkpt lat="42.7516794" lon="12.4918026"><ele>345.20000000000005</ele><time>2026-04-07T10:46:36.861Z</time></trkpt><trkpt lat="42.7517349" lon="12.4918954"><ele>346.0</ele><time>2026-04-07T10:46:37.853Z</time></trkpt><trkpt lat="42.7517953" lon="12.4919874"><ele>345.75</ele><time>2026-04-07T10:46:38.843Z</time></trkpt><trkpt lat="42.7518571" lon="12.4920971"><ele>345.5</ele><time>2026-04-07T10:46:39.838Z</time></trkpt><trkpt lat="42.7519111" lon="12.4922441"><ele>345.25</ele><time>2026-04-07T10:46:40.845Z</time></trkpt><trkpt lat="42.7519693" lon="12.492417"><ele>345.0</ele><time>2026-04-07T10:46:41.847Z</time></trkpt><trkpt lat="42.7520354" lon="12.4925954"><ele>347.6666666666667</ele><time>2026-04-07T10:46:42.832Z</time></trkpt><trkpt lat="42.7521073" lon="12.492792"><ele>350.33333333333337</ele><time>2026-04-07T10:46:43.851Z</time></trkpt><trkpt lat="42.7521935" lon="12.4930123"><ele>353.0</ele><time>2026-04-07T10:46:44.868Z</time></trkpt><trkpt lat="42.7522897" lon="12.4932414"><ele>353.0</ele><time>2026-04-07T10:46:45.851Z</time></trkpt><trkpt lat="42.7524102" lon="12.4934798"><ele>353.0</ele><time>2026-04-07T10:46:46.834Z</time></trkpt><trkpt lat="42.7525414" lon="12.4937158"><ele>353.0</ele><time>2026-04-07T10:46:47.851Z</time></trkpt><trkpt lat="42.7526766" lon="12.4939567"><ele>351.5</ele><time>2026-04-07T10:46:48.854Z</time></trkpt><trkpt lat="42.7528229" lon="12.4942176"><ele>350.0</ele><time>2026-04-07T10:46:49.842Z</time></trkpt><trkpt lat="42.752987" lon="12.4945097"><ele>351.0</ele><time>2026-04-07T10:46:50.854Z</time></trkpt><trkpt lat="42.7531571" lon="12.4947905"><ele>352.0</ele><time>2026-04-07T10:46:51.85Z</time></trkpt><trkpt lat="42.7533301" lon="12.4950672"><ele>352.0</ele><time>2026-04-07T10:46:52.855Z</time></trkpt><trkpt lat="42.75352" lon="12.4953725"><ele>352.0</ele><time>2026-04-07T10:46:53.843Z</time></trkpt><trkpt lat="42.7537171" lon="12.4956848"><ele>353.5</ele><time>2026-04-07T10:46:54.852Z</time></trkpt><trkpt lat="42.7538979" lon="12.4959796"><ele>355.0</ele><time>2026-04-07T10:46:55.846Z</time></trkpt><trkpt lat="42.754062" lon="12.4962427"><ele>355.0</ele><time>2026-04-07T10:46:56.854Z</time></trkpt><trkpt lat="42.7542071" lon="12.4964861"><ele>355.0</ele><time>2026-04-07T10:46:57.855Z</time></trkpt><trkpt lat="42.7543426" lon="12.4967246"><ele>355.0</ele><time>2026-04-07T10:46:58.851Z</time></trkpt><trkpt lat="42.7544768" lon="12.4969729"><ele>355.0</ele><time>2026-04-07T10:46:59.853Z</time></trkpt><trkpt lat="42.7546228" lon="12.4972455"><ele>354.5</ele><time>2026-04-07T10:47:00.848Z</time></trkpt><trkpt lat="42.7547756" lon="12.4975314"><ele>354.0</ele><time>2026-04-07T10:47:01.853Z</time></trkpt><trkpt lat="42.7549333" lon="12.497831"><ele>353.5</ele><time>2026-04-07T10:47:02.86Z</time></trkpt><trkpt lat="42.7550908" lon="12.4981131"><ele>353.0</ele><time>2026-04-07T10:47:03.855Z</time></trkpt><trkpt lat="42.7552427" lon="12.4983838"><ele>354.5</ele><time>2026-04-07T10:47:04.862Z</time></trkpt><trkpt lat="42.7553932" lon="12.4986443"><ele>356.0</ele><time>2026-04-07T10:47:05.83Z</time></trkpt><trkpt lat="42.7555518" lon="12.4988975"><ele>356.0</ele><time>2026-04-07T10:47:06.852Z</time></trkpt><trkpt lat="42.7557205" lon="12.4991298"><ele>356.0</ele><time>2026-04-07T10:47:07.843Z</time></trkpt><trkpt lat="42.7558986" lon="12.4993489"><ele>357.0</ele><time>2026-04-07T10:47:08.866Z</time></trkpt><trkpt lat="42.7560798" lon="12.4995574"><ele>358.0</ele><time>2026-04-07T10:47:09.862Z</time></trkpt><trkpt lat="42.7562705" lon="12.4997436"><ele>358.0</ele><time>2026-04-07T10:47:10.847Z</time></trkpt><trkpt lat="42.7564619" lon="12.499908"><ele>358.0</ele><time>2026-04-07T10:47:11.866Z</time></trkpt><trkpt lat="42.7566468" lon="12.5000552"><ele>358.0</ele><time>2026-04-07T10:47:12.848Z</time></trkpt><trkpt lat="42.7568255" lon="12.5001852"><ele>357.66666666666663</ele><time>2026-04-07T10:47:13.862Z</time></trkpt><trkpt lat="42.7570135" lon="12.5002895"><ele>357.3333333333333</ele><time>2026-04-07T10:47:14.851Z</time></trkpt><trkpt lat="42.7572176" lon="12.5003595"><ele>357.0</ele><time>2026-04-07T10:47:15.855Z</time></trkpt><trkpt lat="42.7574313" lon="12.5004081"><ele>358.0</ele><time>2026-04-07T10:47:16.866Z</time></trkpt><trkpt lat="42.7576593" lon="12.5004383"><ele>359.0</ele><time>2026-04-07T10:47:17.853Z</time></trkpt><trkpt lat="42.7578904" lon="12.5004694"><ele>359.0</ele><time>2026-04-07T10:47:18.85Z</time></trkpt><trkpt lat="42.7581199" lon="12.5005073"><ele>359.0</ele><time>2026-04-07T10:47:19.844Z</time></trkpt><trkpt lat="42.7583462" lon="12.5005464"><ele>359.0</ele><time>2026-04-07T10:47:20.846Z</time></trkpt><trkpt lat="42.7585757" lon="12.5005809"><ele>359.0</ele><time>2026-04-07T10:47:21.846Z</time></trkpt><trkpt lat="42.7588016" lon="12.5006164"><ele>359.0</ele><time>2026-04-07T10:47:22.838Z</time></trkpt><trkpt lat="42.7590279" lon="12.5006524"><ele>359.0</ele><time>2026-04-07T10:47:23.847Z</time></trkpt><trkpt lat="42.7592633" lon="12.5006913"><ele>358.0</ele><time>2026-04-07T10:47:24.864Z</time></trkpt><trkpt lat="42.7595006" lon="12.5007327"><ele>357.0</ele><time>2026-04-07T10:47:25.87Z</time></trkpt><trkpt lat="42.7597403" lon="12.5007736"><ele>357.0</ele><time>2026-04-07T10:47:26.849Z</time></trkpt><trkpt lat="42.7599813" lon="12.5008153"><ele>357.0</ele><time>2026-04-07T10:47:27.851Z</time></trkpt><trkpt lat="42.7602268" lon="12.5008572"><ele>356.0</ele><time>2026-04-07T10:47:28.867Z</time></trkpt><trkpt lat="42.7604763" lon="12.5008985"><ele>355.0</ele><time>2026-04-07T10:47:29.843Z</time></trkpt><trkpt lat="42.7607249" lon="12.500937"><ele>355.0</ele><time>2026-04-07T10:47:30.854Z</time></trkpt><trkpt lat="42.760975" lon="12.5009775"><ele>355.0</ele><time>2026-04-07T10:47:31.849Z</time></trkpt><trkpt lat="42.7612257" lon="12.5010192"><ele>355.5</ele><time>2026-04-07T10:47:32.862Z</time></trkpt><trkpt lat="42.7614724" lon="12.501057"><ele>356.0</ele><time>2026-04-07T10:47:33.866Z</time></trkpt><trkpt lat="42.7617215" lon="12.5010964"><ele>357.0</ele><time>2026-04-07T10:47:34.848Z</time></trkpt><trkpt lat="42.7619707" lon="12.5011386"><ele>358.0</ele><time>2026-04-07T10:47:35.848Z</time></trkpt><trkpt lat="42.762222" lon="12.5011787"><ele>358.0</ele><time>2026-04-07T10:47:36.851Z</time></trkpt><trkpt lat="42.7624706" lon="12.5012212"><ele>358.0</ele><time>2026-04-07T10:47:37.848Z</time></trkpt><trkpt lat="42.7627193" lon="12.5012642"><ele>353.5</ele><time>2026-04-07T10:47:38.843Z</time></trkpt><trkpt lat="42.7629705" lon="12.5013035"><ele>349.0</ele><time>2026-04-07T10:47:39.842Z</time></trkpt><trkpt lat="42.7632177" lon="12.5013418"><ele>349.0</ele><time>2026-04-07T10:47:40.856Z</time></trkpt><trkpt lat="42.7634665" lon="12.5013787"><ele>349.0</ele><time>2026-04-07T10:47:41.85Z</time></trkpt><trkpt lat="42.7637146" lon="12.5014177"><ele>349.5</ele><time>2026-04-07T10:47:42.846Z</time></trkpt><trkpt lat="42.7639628" lon="12.5014545"><ele>350.0</ele><time>2026-04-07T10:47:43.843Z</time></trkpt><trkpt lat="42.7642111" lon="12.5014925"><ele>352.0</ele><time>2026-04-07T10:47:44.866Z</time></trkpt><trkpt lat="42.7644601" lon="12.5015279"><ele>354.0</ele><time>2026-04-07T10:47:45.848Z</time></trkpt><trkpt lat="42.764703" lon="12.5015694"><ele>354.0</ele><time>2026-04-07T10:47:46.85Z</time></trkpt><trkpt lat="42.7649392" lon="12.5016115"><ele>354.0</ele><time>2026-04-07T10:47:47.869Z</time></trkpt><trkpt lat="42.765171" lon="12.5016525"><ele>353.5</ele><time>2026-04-07T10:47:48.847Z</time></trkpt><trkpt lat="42.7654031" lon="12.5016826"><ele>353.0</ele><time>2026-04-07T10:47:49.854Z</time></trkpt><trkpt lat="42.7656346" lon="12.5017088"><ele>353.0</ele><time>2026-04-07T10:47:50.843Z</time></trkpt><trkpt lat="42.7658678" lon="12.5017262"><ele>353.0</ele><time>2026-04-07T10:47:51.85Z</time></trkpt><trkpt lat="42.7660998" lon="12.5017415"><ele>353.5</ele><time>2026-04-07T10:47:52.859Z</time></trkpt><trkpt lat="42.7663347" lon="12.5017514"><ele>354.0</ele><time>2026-04-07T10:47:53.861Z</time></trkpt><trkpt lat="42.766568" lon="12.5017592"><ele>354.0</ele><time>2026-04-07T10:47:54.853Z</time></trkpt><trkpt lat="42.7667912" lon="12.5017669"><ele>354.0</ele><time>2026-04-07T10:47:55.843Z</time></trkpt><trkpt lat="42.7669989" lon="12.5017802"><ele>354.0</ele><time>2026-04-07T10:47:56.842Z</time></trkpt><trkpt lat="42.7671999" lon="12.5017907"><ele>354.0</ele><time>2026-04-07T10:47:57.84Z</time></trkpt><trkpt lat="42.7674003" lon="12.5017989"><ele>354.0</ele><time>2026-04-07T10:47:58.84Z</time></trkpt><trkpt lat="42.7676148" lon="12.5018083"><ele>354.0</ele><time>2026-04-07T10:47:59.851Z</time></trkpt><trkpt lat="42.7678504" lon="12.5018231"><ele>354.5</ele><time>2026-04-07T10:48:00.86Z</time></trkpt><trkpt lat="42.7680978" lon="12.5018433"><ele>355.0</ele><time>2026-04-07T10:48:01.838Z</time></trkpt><trkpt lat="42.7683487" lon="12.5018699"><ele>354.5</ele><time>2026-04-07T10:48:02.852Z</time></trkpt><trkpt lat="42.7685979" lon="12.5018933"><ele>354.0</ele><time>2026-04-07T10:48:03.848Z</time></trkpt><trkpt lat="42.7688411" lon="12.5019179"><ele>354.0</ele><time>2026-04-07T10:48:04.847Z</time></trkpt><trkpt lat="42.7690803" lon="12.5019362"><ele>354.0</ele><time>2026-04-07T10:48:05.836Z</time></trkpt><trkpt lat="42.769309" lon="12.5019534"><ele>353.6666666666667</ele><time>2026-04-07T10:48:06.848Z</time></trkpt><trkpt lat="42.7695299" lon="12.501974"><ele>353.33333333333337</ele><time>2026-04-07T10:48:07.859Z</time></trkpt><trkpt lat="42.7697469" lon="12.5019996"><ele>353.0</ele><time>2026-04-07T10:48:08.856Z</time></trkpt><trkpt lat="42.7699658" lon="12.5020476"><ele>355.5</ele><time>2026-04-07T10:48:09.853Z</time></trkpt><trkpt lat="42.7701864" lon="12.5021191"><ele>358.0</ele><time>2026-04-07T10:48:10.846Z</time></trkpt><trkpt lat="42.7704133" lon="12.5022161"><ele>359.0</ele><time>2026-04-07T10:48:11.843Z</time></trkpt><trkpt lat="42.7706491" lon="12.5023221"><ele>360.0</ele><time>2026-04-07T10:48:12.855Z</time></trkpt><trkpt lat="42.7708893" lon="12.5024308"><ele>360.0</ele><time>2026-04-07T10:48:13.86Z</time></trkpt><trkpt lat="42.7711345" lon="12.5025413"><ele>360.0</ele><time>2026-04-07T10:48:14.838Z</time></trkpt><trkpt lat="42.7713799" lon="12.5026514"><ele>360.0</ele><time>2026-04-07T10:48:15.844Z</time></trkpt><trkpt lat="42.7716246" lon="12.5027624"><ele>360.0</ele><time>2026-04-07T10:48:16.857Z</time></trkpt><trkpt lat="42.7718627" lon="12.5028739"><ele>364.5</ele><time>2026-04-07T10:48:17.843Z</time></trkpt><trkpt lat="42.7720966" lon="12.5029801"><ele>369.0</ele><time>2026-04-07T10:48:18.859Z</time></trkpt><trkpt lat="42.7723327" lon="12.5030732"><ele>369.0</ele><time>2026-04-07T10:48:19.852Z</time></trkpt><trkpt lat="42.7725694" lon="12.5031543"><ele>369.0</ele><time>2026-04-07T10:48:20.859Z</time></trkpt><trkpt lat="42.7728142" lon="12.5032225"><ele>369.5</ele><time>2026-04-07T10:48:21.853Z</time></trkpt><trkpt lat="42.7730681" lon="12.5032751"><ele>370.0</ele><time>2026-04-07T10:48:22.837Z</time></trkpt><trkpt lat="42.7733266" lon="12.5033231"><ele>370.0</ele><time>2026-04-07T10:48:23.843Z</time></trkpt><trkpt lat="42.7735855" lon="12.503371"><ele>370.0</ele><time>2026-04-07T10:48:24.845Z</time></trkpt><trkpt lat="42.7738399" lon="12.5034208"><ele>370.0</ele><time>2026-04-07T10:48:25.847Z</time></trkpt><trkpt lat="42.7740886" lon="12.5034657"><ele>370.0</ele><time>2026-04-07T10:48:26.853Z</time></trkpt><trkpt lat="42.7743357" lon="12.5035125"><ele>370.5</ele><time>2026-04-07T10:48:27.833Z</time></trkpt><trkpt lat="42.7745797" lon="12.5035605"><ele>371.0</ele><time>2026-04-07T10:48:28.845Z</time></trkpt><trkpt lat="42.7748146" lon="12.5036098"><ele>371.0</ele><time>2026-04-07T10:48:29.851Z</time></trkpt><trkpt lat="42.7750476" lon="12.5036523"><ele>371.0</ele><time>2026-04-07T10:48:30.846Z</time></trkpt><trkpt lat="42.7752654" lon="12.5036923"><ele>371.6666666666667</ele><time>2026-04-07T10:48:31.842Z</time></trkpt><trkpt lat="42.7754609" lon="12.5037274"><ele>372.3333333333333</ele><time>2026-04-07T10:48:32.837Z</time></trkpt><trkpt lat="42.7756369" lon="12.5037596"><ele>373.0</ele><time>2026-04-07T10:48:33.853Z</time></trkpt><trkpt lat="42.7757941" lon="12.5037944"><ele>374.0</ele><time>2026-04-07T10:48:34.851Z</time></trkpt><trkpt lat="42.7759368" lon="12.5038245"><ele>375.0</ele><time>2026-04-07T10:48:35.868Z</time></trkpt><trkpt lat="42.7760613" lon="12.5038584"><ele>376.0</ele><time>2026-04-07T10:48:36.844Z</time></trkpt><trkpt lat="42.7761671" lon="12.5039269"><ele>377.0</ele><time>2026-04-07T10:48:37.847Z</time></trkpt><trkpt lat="42.776252" lon="12.5040402"><ele>379.25</ele><time>2026-04-07T10:48:38.845Z</time></trkpt><trkpt lat="42.7763011" lon="12.5041812"><ele>381.5</ele><time>2026-04-07T10:48:39.849Z</time></trkpt><trkpt lat="42.7763139" lon="12.5043574"><ele>383.75</ele><time>2026-04-07T10:48:40.852Z</time></trkpt><trkpt lat="42.7762849" lon="12.5045666"><ele>386.0</ele><time>2026-04-07T10:48:41.855Z</time></trkpt><trkpt lat="42.7762515" lon="12.5048056"><ele>386.3333333333333</ele><time>2026-04-07T10:48:42.845Z</time></trkpt><trkpt lat="42.7762221" lon="12.5050457"><ele>386.66666666666663</ele><time>2026-04-07T10:48:43.843Z</time></trkpt><trkpt lat="42.7761962" lon="12.5052521"><ele>387.0</ele><time>2026-04-07T10:48:44.864Z</time></trkpt><trkpt lat="42.7761874" lon="12.5054348"><ele>386.5</ele><time>2026-04-07T10:48:45.877Z</time></trkpt><trkpt lat="42.7762159" lon="12.5056293"><ele>386.0</ele><time>2026-04-07T10:48:46.864Z</time></trkpt><trkpt lat="42.77628" lon="12.505811"><ele>385.5</ele><time>2026-04-07T10:48:47.846Z</time></trkpt><trkpt lat="42.7763868" lon="12.505963"><ele>385.0</ele><time>2026-04-07T10:48:48.844Z</time></trkpt><trkpt lat="42.7765196" lon="12.5061097"><ele>383.6666666666667</ele><time>2026-04-07T10:48:49.848Z</time></trkpt><trkpt lat="42.7766795" lon="12.5062745"><ele>382.33333333333337</ele><time>2026-04-07T10:48:50.852Z</time></trkpt><trkpt lat="42.7768423" lon="12.5064682"><ele>381.0</ele><time>2026-04-07T10:48:51.846Z</time></trkpt><trkpt lat="42.7770195" lon="12.5066797"><ele>383.33333333333337</ele><time>2026-04-07T10:48:52.871Z</time></trkpt><trkpt lat="42.7771962" lon="12.5068841"><ele>385.6666666666667</ele><time>2026-04-07T10:48:53.845Z</time></trkpt><trkpt lat="42.7773594" lon="12.5070727"><ele>388.0</ele><time>2026-04-07T10:48:54.851Z</time></trkpt><trkpt lat="42.7774989" lon="12.5072402"><ele>388.0</ele><time>2026-04-07T10:48:55.853Z</time></trkpt><trkpt lat="42.7776426" lon="12.5073883"><ele>388.0</ele><time>2026-04-07T10:48:56.849Z</time></trkpt><trkpt lat="42.7777947" lon="12.5075129"><ele>388.0</ele><time>2026-04-07T10:48:57.836Z</time></trkpt><trkpt lat="42.7779546" lon="12.5075943"><ele>390.6666666666667</ele><time>2026-04-07T10:48:58.856Z</time></trkpt><trkpt lat="42.7781358" lon="12.5076139"><ele>393.33333333333337</ele><time>2026-04-07T10:48:59.842Z</time></trkpt><trkpt lat="42.7783319" lon="12.5075779"><ele>396.0</ele><time>2026-04-07T10:49:00.841Z</time></trkpt><trkpt lat="42.7785509" lon="12.5075251"><ele>397.0</ele><time>2026-04-07T10:49:01.872Z</time></trkpt><trkpt lat="42.778785" lon="12.5074704"><ele>398.0</ele><time>2026-04-07T10:49:02.847Z</time></trkpt><trkpt lat="42.7790248" lon="12.507424"><ele>398.0</ele><time>2026-04-07T10:49:03.852Z</time></trkpt><trkpt lat="42.7792764" lon="12.5074073"><ele>398.0</ele><time>2026-04-07T10:49:04.86Z</time></trkpt><trkpt lat="42.7795307" lon="12.5074189"><ele>402.0</ele><time>2026-04-07T10:49:05.845Z</time></trkpt><trkpt lat="42.7797976" lon="12.5074714"><ele>406.0</ele><time>2026-04-07T10:49:06.855Z</time></trkpt><trkpt lat="42.7800724" lon="12.5075384"><ele>407.0</ele><time>2026-04-07T10:49:07.861Z</time></trkpt><trkpt lat="42.7803547" lon="12.5076015"><ele>408.0</ele><time>2026-04-07T10:49:08.85Z</time></trkpt><trkpt lat="42.7806333" lon="12.5076493"><ele>408.0</ele><time>2026-04-07T10:49:09.863Z</time></trkpt><trkpt lat="42.7809006" lon="12.5076895"><ele>408.0</ele><time>2026-04-07T10:49:10.859Z</time></trkpt><trkpt lat="42.7811505" lon="12.5077222"><ele>409.0</ele><time>2026-04-07T10:49:11.863Z</time></trkpt><trkpt lat="42.7813969" lon="12.5077426"><ele>410.0</ele><time>2026-04-07T10:49:12.859Z</time></trkpt><trkpt lat="42.7816426" lon="12.5077456"><ele>411.5</ele><time>2026-04-07T10:49:13.854Z</time></trkpt><trkpt lat="42.78189" lon="12.5077332"><ele>413.0</ele><time>2026-04-07T10:49:14.858Z</time></trkpt><trkpt lat="42.7821255" lon="12.5077048"><ele>413.0</ele><time>2026-04-07T10:49:15.864Z</time></trkpt><trkpt lat="42.7823466" lon="12.5076594"><ele>413.0</ele><time>2026-04-07T10:49:16.85Z</time></trkpt><trkpt lat="42.7825549" lon="12.5076051"><ele>413.0</ele><time>2026-04-07T10:49:17.86Z</time></trkpt><trkpt lat="42.7827464" lon="12.5075066"><ele>414.3333333333333</ele><time>2026-04-07T10:49:18.854Z</time></trkpt><trkpt lat="42.7829292" lon="12.5073661"><ele>415.66666666666663</ele><time>2026-04-07T10:49:19.842Z</time></trkpt><trkpt lat="42.7831203" lon="12.5071985"><ele>417.0</ele><time>2026-04-07T10:49:20.846Z</time></trkpt><trkpt lat="42.7833222" lon="12.5070262"><ele>417.5</ele><time>2026-04-07T10:49:21.847Z</time></trkpt><trkpt lat="42.7835378" lon="12.5068514"><ele>418.0</ele><time>2026-04-07T10:49:22.836Z</time></trkpt><trkpt lat="42.7837535" lon="12.5066702"><ele>418.0</ele><time>2026-04-07T10:49:23.844Z</time></trkpt><trkpt lat="42.7839757" lon="12.5064893"><ele>418.0</ele><time>2026-04-07T10:49:24.86Z</time></trkpt><trkpt lat="42.7842049" lon="12.5063071"><ele>422.0</ele><time>2026-04-07T10:49:25.845Z</time></trkpt><trkpt lat="42.7844374" lon="12.5061256"><ele>426.0</ele><time>2026-04-07T10:49:26.858Z</time></trkpt><trkpt lat="42.7846685" lon="12.50594"><ele>426.0</ele><time>2026-04-07T10:49:27.854Z</time></trkpt><trkpt lat="42.7848961" lon="12.5057665"><ele>426.0</ele><time>2026-04-07T10:49:28.836Z</time></trkpt><trkpt lat="42.7851266" lon="12.5055853"><ele>425.5</ele><time>2026-04-07T10:49:29.848Z</time></trkpt><trkpt lat="42.7853573" lon="12.505402"><ele>425.0</ele><time>2026-04-07T10:49:30.861Z</time></trkpt><trkpt lat="42.7855909" lon="12.5052146"><ele>425.0</ele><time>2026-04-07T10:49:31.846Z</time></trkpt><trkpt lat="42.7858237" lon="12.5050262"><ele>425.0</ele><time>2026-04-07T10:49:32.857Z</time></trkpt><trkpt lat="42.7860549" lon="12.5048315"><ele>426.0</ele><time>2026-04-07T10:49:33.858Z</time></trkpt><trkpt lat="42.7862826" lon="12.5046304"><ele>427.0</ele><time>2026-04-07T10:49:34.865Z</time></trkpt><trkpt lat="42.7865062" lon="12.5044234"><ele>427.5</ele><time>2026-04-07T10:49:35.85Z</time></trkpt><trkpt lat="42.786724" lon="12.5042043"><ele>428.0</ele><time>2026-04-07T10:49:36.866Z</time></trkpt><trkpt lat="42.7869406" lon="12.5039789"><ele>430.0</ele><time>2026-04-07T10:49:37.842Z</time></trkpt><trkpt lat="42.7871556" lon="12.503751"><ele>432.0</ele><time>2026-04-07T10:49:38.846Z</time></trkpt><trkpt lat="42.7873746" lon="12.5035306"><ele>432.0</ele><time>2026-04-07T10:49:39.837Z</time></trkpt><trkpt lat="42.7875945" lon="12.503316"><ele>432.0</ele><time>2026-04-07T10:49:40.857Z</time></trkpt><trkpt lat="42.7878175" lon="12.5031006"><ele>434.0</ele><time>2026-04-07T10:49:41.848Z</time></trkpt><trkpt lat="42.788037" lon="12.5028928"><ele>436.0</ele><time>2026-04-07T10:49:42.842Z</time></trkpt><trkpt lat="42.7882539" lon="12.5026827"><ele>436.0</ele><time>2026-04-07T10:49:43.867Z</time></trkpt><trkpt lat="42.7884642" lon="12.5024804"><ele>436.0</ele><time>2026-04-07T10:49:44.862Z</time></trkpt><trkpt lat="42.7886708" lon="12.502283"><ele>436.5</ele><time>2026-04-07T10:49:45.856Z</time></trkpt><trkpt lat="42.7888753" lon="12.5020878"><ele>437.0</ele><time>2026-04-07T10:49:46.851Z</time></trkpt><trkpt lat="42.7890802" lon="12.5018947"><ele>437.0</ele><time>2026-04-07T10:49:47.845Z</time></trkpt><trkpt lat="42.7892872" lon="12.5017107"><ele>437.0</ele><time>2026-04-07T10:49:48.85Z</time></trkpt><trkpt lat="42.789503" lon="12.5015345"><ele>437.5</ele><time>2026-04-07T10:49:49.858Z</time></trkpt><trkpt lat="42.7897313" lon="12.5013737"><ele>438.0</ele><time>2026-04-07T10:49:50.86Z</time></trkpt><trkpt lat="42.7899715" lon="12.5012175"><ele>439.5</ele><time>2026-04-07T10:49:51.848Z</time></trkpt><trkpt lat="42.7902058" lon="12.5010724"><ele>441.0</ele><time>2026-04-07T10:49:52.854Z</time></trkpt><trkpt lat="42.7904315" lon="12.5009411"><ele>441.0</ele><time>2026-04-07T10:49:53.844Z</time></trkpt><trkpt lat="42.7906469" lon="12.5008229"><ele>441.0</ele><time>2026-04-07T10:49:54.846Z</time></trkpt><trkpt lat="42.7908568" lon="12.5007206"><ele>441.0</ele><time>2026-04-07T10:49:55.856Z</time></trkpt><trkpt lat="42.7910757" lon="12.500647"><ele>441.0</ele><time>2026-04-07T10:49:56.836Z</time></trkpt><trkpt lat="42.7913025" lon="12.5005976"><ele>441.0</ele><time>2026-04-07T10:49:57.851Z</time></trkpt><trkpt lat="42.7915429" lon="12.500563"><ele>441.0</ele><time>2026-04-07T10:49:58.844Z</time></trkpt><trkpt lat="42.7917943" lon="12.5005249"><ele>443.5</ele><time>2026-04-07T10:49:59.854Z</time></trkpt><trkpt lat="42.7920452" lon="12.5004852"><ele>446.0</ele><time>2026-04-07T10:50:00.863Z</time></trkpt><trkpt lat="42.7922873" lon="12.5004492"><ele>446.0</ele><time>2026-04-07T10:50:01.848Z</time></trkpt><trkpt lat="42.7925176" lon="12.5004101"><ele>446.0</ele><time>2026-04-07T10:50:02.856Z</time></trkpt><trkpt lat="42.7927486" lon="12.5003463"><ele>447.0</ele><time>2026-04-07T10:50:03.855Z</time></trkpt><trkpt lat="42.7929852" lon="12.5002398"><ele>448.0</ele><time>2026-04-07T10:50:04.856Z</time></trkpt><trkpt lat="42.7932248" lon="12.5001065"><ele>448.0</ele><time>2026-04-07T10:50:05.858Z</time></trkpt><trkpt lat="42.7934719" lon="12.4999596"><ele>448.0</ele><time>2026-04-07T10:50:06.849Z</time></trkpt><trkpt lat="42.7937321" lon="12.499814"><ele>447.5</ele><time>2026-04-07T10:50:07.839Z</time></trkpt><trkpt lat="42.7939978" lon="12.4996669"><ele>447.0</ele><time>2026-04-07T10:50:08.847Z</time></trkpt><trkpt lat="42.794264" lon="12.4995169"><ele>446.0</ele><time>2026-04-07T10:50:09.864Z</time></trkpt><trkpt lat="42.7945292" lon="12.4993673"><ele>445.0</ele><time>2026-04-07T10:50:10.856Z</time></trkpt><trkpt lat="42.7947922" lon="12.4992166"><ele>445.0</ele><time>2026-04-07T10:50:11.85Z</time></trkpt><trkpt lat="42.7950529" lon="12.4990634"><ele>445.0</ele><time>2026-04-07T10:50:12.839Z</time></trkpt><trkpt lat="42.7953039" lon="12.4988934"><ele>447.0</ele><time>2026-04-07T10:50:13.851Z</time></trkpt><trkpt lat="42.795539" lon="12.4986983"><ele>449.0</ele><time>2026-04-07T10:50:14.851Z</time></trkpt><trkpt lat="42.7957625" lon="12.4984783"><ele>449.0</ele><time>2026-04-07T10:50:15.857Z</time></trkpt><trkpt lat="42.7959798" lon="12.4982503"><ele>449.0</ele><time>2026-04-07T10:50:16.857Z</time></trkpt><trkpt lat="42.7961951" lon="12.4980206"><ele>449.0</ele><time>2026-04-07T10:50:17.845Z</time></trkpt><trkpt lat="42.796413" lon="12.4977937"><ele>449.0</ele><time>2026-04-07T10:50:18.846Z</time></trkpt><trkpt lat="42.796633" lon="12.4975627"><ele>449.0</ele><time>2026-04-07T10:50:19.844Z</time></trkpt><trkpt lat="42.7968597" lon="12.4973391"><ele>449.0</ele><time>2026-04-07T10:50:20.845Z</time></trkpt><trkpt lat="42.797088" lon="12.497128"><ele>450.5</ele><time>2026-04-07T10:50:21.855Z</time></trkpt><trkpt lat="42.7973197" lon="12.4969328"><ele>452.0</ele><time>2026-04-07T10:50:22.853Z</time></trkpt><trkpt lat="42.7975472" lon="12.496748"><ele>452.0</ele><time>2026-04-07T10:50:23.854Z</time></trkpt><trkpt lat="42.7977616" lon="12.4965763"><ele>452.0</ele><time>2026-04-07T10:50:24.855Z</time></trkpt><trkpt lat="42.79796" lon="12.4964163"><ele>452.0</ele><time>2026-04-07T10:50:25.853Z</time></trkpt><trkpt lat="42.7981541" lon="12.4962601"><ele>452.0</ele><time>2026-04-07T10:50:26.848Z</time></trkpt><trkpt lat="42.79835" lon="12.4961152"><ele>452.0</ele><time>2026-04-07T10:50:27.829Z</time></trkpt><trkpt lat="42.7985513" lon="12.4959811"><ele>453.5</ele><time>2026-04-07T10:50:28.855Z</time></trkpt><trkpt lat="42.7987674" lon="12.495853"><ele>455.0</ele><time>2026-04-07T10:50:29.845Z</time></trkpt><trkpt lat="42.7989908" lon="12.4957276"><ele>455.0</ele><time>2026-04-07T10:50:30.859Z</time></trkpt><trkpt lat="42.7992253" lon="12.4956066"><ele>455.0</ele><time>2026-04-07T10:50:31.856Z</time></trkpt><trkpt lat="42.7994665" lon="12.4954776"><ele>455.5</ele><time>2026-04-07T10:50:32.86Z</time></trkpt><trkpt lat="42.7997039" lon="12.4953476"><ele>456.0</ele><time>2026-04-07T10:50:33.866Z</time></trkpt><trkpt lat="42.7999379" lon="12.4952227"><ele>457.0</ele><time>2026-04-07T10:50:34.851Z</time></trkpt><trkpt lat="42.8001693" lon="12.495099"><ele>458.0</ele><time>2026-04-07T10:50:35.841Z</time></trkpt><trkpt lat="42.8003981" lon="12.4949759"><ele>458.0</ele><time>2026-04-07T10:50:36.871Z</time></trkpt><trkpt lat="42.8006269" lon="12.494856"><ele>458.0</ele><time>2026-04-07T10:50:37.856Z</time></trkpt><trkpt lat="42.8008597" lon="12.4947406"><ele>458.5</ele><time>2026-04-07T10:50:38.857Z</time></trkpt><trkpt lat="42.8010956" lon="12.4946317"><ele>459.0</ele><time>2026-04-07T10:50:39.84Z</time></trkpt><trkpt lat="42.8013395" lon="12.4945274"><ele>459.0</ele><time>2026-04-07T10:50:40.851Z</time></trkpt><trkpt lat="42.8015899" lon="12.4944067"><ele>459.0</ele><time>2026-04-07T10:50:41.856Z</time></trkpt><trkpt lat="42.8018464" lon="12.4942862"><ele>458.0</ele><time>2026-04-07T10:50:42.839Z</time></trkpt><trkpt lat="42.8021124" lon="12.4941619"><ele>457.0</ele><time>2026-04-07T10:50:43.852Z</time></trkpt><trkpt lat="42.8023808" lon="12.4940331"><ele>457.0</ele><time>2026-04-07T10:50:44.864Z</time></trkpt><trkpt lat="42.8026519" lon="12.4939084"><ele>457.0</ele><time>2026-04-07T10:50:45.844Z</time></trkpt><trkpt lat="42.8029249" lon="12.4937893"><ele>456.5</ele><time>2026-04-07T10:50:46.852Z</time></trkpt><trkpt lat="42.8031962" lon="12.4936684"><ele>456.0</ele><time>2026-04-07T10:50:47.854Z</time></trkpt><trkpt lat="42.8034654" lon="12.4935468"><ele>457.5</ele><time>2026-04-07T10:50:48.842Z</time></trkpt><trkpt lat="42.80372" lon="12.4934372"><ele>459.0</ele><time>2026-04-07T10:50:49.855Z</time></trkpt><trkpt lat="42.803957" lon="12.4933423"><ele>459.0</ele><time>2026-04-07T10:50:50.85Z</time></trkpt><trkpt lat="42.8041959" lon="12.4932629"><ele>459.0</ele><time>2026-04-07T10:50:51.857Z</time></trkpt><trkpt lat="42.8044436" lon="12.4932025"><ele>459.5</ele><time>2026-04-07T10:50:52.843Z</time></trkpt><trkpt lat="42.8047007" lon="12.4931704"><ele>460.0</ele><time>2026-04-07T10:50:53.857Z</time></trkpt><trkpt lat="42.8049615" lon="12.4931533"><ele>459.5</ele><time>2026-04-07T10:50:54.845Z</time></trkpt><trkpt lat="42.8052276" lon="12.4931452"><ele>459.0</ele><time>2026-04-07T10:50:55.855Z</time></trkpt><trkpt lat="42.8054739" lon="12.4931487"><ele>459.0</ele><time>2026-04-07T10:50:56.856Z</time></trkpt><trkpt lat="42.8056968" lon="12.4931599"><ele>459.0</ele><time>2026-04-07T10:50:57.854Z</time></trkpt><trkpt lat="42.8058914" lon="12.4931665"><ele>459.0</ele><time>2026-04-07T10:50:58.839Z</time></trkpt><trkpt lat="42.8060706" lon="12.4931952"><ele>459.33333333333337</ele><time>2026-04-07T10:50:59.847Z</time></trkpt><trkpt lat="42.806244" lon="12.4932646"><ele>459.6666666666667</ele><time>2026-04-07T10:51:00.874Z</time></trkpt><trkpt lat="42.8064032" lon="12.4933822"><ele>460.0</ele><time>2026-04-07T10:51:01.842Z</time></trkpt><trkpt lat="42.8065513" lon="12.4935506"><ele>459.0</ele><time>2026-04-07T10:51:02.831Z</time></trkpt><trkpt lat="42.8067054" lon="12.4937616"><ele>458.0</ele><time>2026-04-07T10:51:03.862Z</time></trkpt><trkpt lat="42.8068615" lon="12.4939902"><ele>457.0</ele><time>2026-04-07T10:51:04.851Z</time></trkpt><trkpt lat="42.8070256" lon="12.4942215"><ele>457.0</ele><time>2026-04-07T10:51:05.843Z</time></trkpt><trkpt lat="42.8071863" lon="12.4944526"><ele>457.0</ele><time>2026-04-07T10:51:06.859Z</time></trkpt><trkpt lat="42.8073446" lon="12.4946817"><ele>456.0</ele><time>2026-04-07T10:51:07.851Z</time></trkpt><trkpt lat="42.8075001" lon="12.4949168"><ele>455.0</ele><time>2026-04-07T10:51:08.845Z</time></trkpt><trkpt lat="42.8076662" lon="12.4951571"><ele>454.0</ele><time>2026-04-07T10:51:09.847Z</time></trkpt><trkpt lat="42.8078453" lon="12.495409"><ele>453.0</ele><time>2026-04-07T10:51:10.85Z</time></trkpt><trkpt lat="42.8080312" lon="12.4956757"><ele>455.0</ele><time>2026-04-07T10:51:11.847Z</time></trkpt><trkpt lat="42.8082142" lon="12.495947"><ele>457.0</ele><time>2026-04-07T10:51:12.848Z</time></trkpt><trkpt lat="42.8083887" lon="12.4962104"><ele>458.0</ele><time>2026-04-07T10:51:13.854Z</time></trkpt><trkpt lat="42.8085577" lon="12.4964628"><ele>459.0</ele><time>2026-04-07T10:51:14.87Z</time></trkpt><trkpt lat="42.8087266" lon="12.4966995"><ele>459.0</ele><time>2026-04-07T10:51:15.852Z</time></trkpt><trkpt lat="42.8089086" lon="12.4969207"><ele>459.0</ele><time>2026-04-07T10:51:16.844Z</time></trkpt><trkpt lat="42.8091078" lon="12.497116"><ele>458.5</ele><time>2026-04-07T10:51:17.857Z</time></trkpt><trkpt lat="42.8093295" lon="12.4972794"><ele>458.0</ele><time>2026-04-07T10:51:18.841Z</time></trkpt><trkpt lat="42.8095648" lon="12.4974454"><ele>458.0</ele><time>2026-04-07T10:51:19.846Z</time></trkpt><trkpt lat="42.8098079" lon="12.4976121"><ele>458.0</ele><time>2026-04-07T10:51:20.864Z</time></trkpt><trkpt lat="42.8100576" lon="12.4977797"><ele>459.0</ele><time>2026-04-07T10:51:21.858Z</time></trkpt><trkpt lat="42.8103279" lon="12.4979319"><ele>460.0</ele><time>2026-04-07T10:51:22.846Z</time></trkpt><trkpt lat="42.8106194" lon="12.4980645"><ele>460.0</ele><time>2026-04-07T10:51:23.848Z</time></trkpt><trkpt lat="42.8109289" lon="12.4981664"><ele>460.0</ele><time>2026-04-07T10:51:24.851Z</time></trkpt><trkpt lat="42.8112594" lon="12.4982671"><ele>461.0</ele><time>2026-04-07T10:51:25.851Z</time></trkpt><trkpt lat="42.8116031" lon="12.4983686"><ele>462.0</ele><time>2026-04-07T10:51:26.851Z</time></trkpt><trkpt lat="42.8119486" lon="12.4984747"><ele>463.0</ele><time>2026-04-07T10:51:27.855Z</time></trkpt><trkpt lat="42.812276" lon="12.4985722"><ele>464.0</ele><time>2026-04-07T10:51:28.855Z</time></trkpt><trkpt lat="42.8125742" lon="12.4986576"><ele>465.0</ele><time>2026-04-07T10:51:29.832Z</time></trkpt><trkpt lat="42.8128525" lon="12.4987399"><ele>466.0</ele><time>2026-04-07T10:51:30.85Z</time></trkpt><trkpt lat="42.813122" lon="12.4988159"><ele>466.0</ele><time>2026-04-07T10:51:31.847Z</time></trkpt><trkpt lat="42.8133858" lon="12.4988977"><ele>466.0</ele><time>2026-04-07T10:51:32.846Z</time></trkpt><trkpt lat="42.8136417" lon="12.4989889"><ele>467.5</ele><time>2026-04-07T10:51:33.855Z</time></trkpt><trkpt lat="42.813896" lon="12.4990964"><ele>469.0</ele><time>2026-04-07T10:51:34.855Z</time></trkpt><trkpt lat="42.8141595" lon="12.4992355"><ele>468.5</ele><time>2026-04-07T10:51:35.848Z</time></trkpt><trkpt lat="42.8144404" lon="12.4993911"><ele>468.0</ele><time>2026-04-07T10:51:36.855Z</time></trkpt><trkpt lat="42.8147307" lon="12.4995568"><ele>468.0</ele><time>2026-04-07T10:51:37.844Z</time></trkpt><trkpt lat="42.8150139" lon="12.4997133"><ele>468.0</ele><time>2026-04-07T10:51:38.851Z</time></trkpt><trkpt lat="42.8152881" lon="12.4998672"><ele>468.0</ele><time>2026-04-07T10:51:39.851Z</time></trkpt><trkpt lat="42.8155653" lon="12.5000142"><ele>468.0</ele><time>2026-04-07T10:51:40.852Z</time></trkpt><trkpt lat="42.8158587" lon="12.5001749"><ele>467.0</ele><time>2026-04-07T10:51:41.851Z</time></trkpt><trkpt lat="42.8161689" lon="12.5003433"><ele>466.0</ele><time>2026-04-07T10:51:42.853Z</time></trkpt><trkpt lat="42.8164765" lon="12.5005121"><ele>466.0</ele><time>2026-04-07T10:51:43.851Z</time></trkpt><trkpt lat="42.8167692" lon="12.5006708"><ele>466.0</ele><time>2026-04-07T10:51:44.863Z</time></trkpt><trkpt lat="42.8170488" lon="12.5008239"><ele>465.5</ele><time>2026-04-07T10:51:45.843Z</time></trkpt><trkpt lat="42.8173331" lon="12.5009752"><ele>465.0</ele><time>2026-04-07T10:51:46.862Z</time></trkpt><trkpt lat="42.8176293" lon="12.5011373"><ele>466.0</ele><time>2026-04-07T10:51:47.842Z</time></trkpt><trkpt lat="42.8179405" lon="12.5013038"><ele>467.0</ele><time>2026-04-07T10:51:48.853Z</time></trkpt><trkpt lat="42.8182603" lon="12.5014782"><ele>468.0</ele><time>2026-04-07T10:51:49.854Z</time></trkpt><trkpt lat="42.8185914" lon="12.501659"><ele>469.0</ele><time>2026-04-07T10:51:50.839Z</time></trkpt><trkpt lat="42.818911" lon="12.5018361"><ele>469.0</ele><time>2026-04-07T10:51:51.852Z</time></trkpt><trkpt lat="42.8192075" lon="12.5019936"><ele>469.0</ele><time>2026-04-07T10:51:52.854Z</time></trkpt><trkpt lat="42.8194872" lon="12.5021366"><ele>469.0</ele><time>2026-04-07T10:51:53.848Z</time></trkpt><trkpt lat="42.819763" lon="12.5022653"><ele>469.0</ele><time>2026-04-07T10:51:54.852Z</time></trkpt><trkpt lat="42.8200495" lon="12.5023987"><ele>470.5</ele><time>2026-04-07T10:51:55.856Z</time></trkpt><trkpt lat="42.8203523" lon="12.5025396"><ele>472.0</ele><time>2026-04-07T10:51:56.848Z</time></trkpt><trkpt lat="42.8206471" lon="12.5026805"><ele>472.0</ele><time>2026-04-07T10:51:57.849Z</time></trkpt><trkpt lat="42.8209154" lon="12.5028107"><ele>472.0</ele><time>2026-04-07T10:51:58.856Z</time></trkpt><trkpt lat="42.8211555" lon="12.5029226"><ele>471.6666666666667</ele><time>2026-04-07T10:51:59.851Z</time></trkpt><trkpt lat="42.8213759" lon="12.5030262"><ele>471.33333333333337</ele><time>2026-04-07T10:52:00.856Z</time></trkpt><trkpt lat="42.8215771" lon="12.5031218"><ele>471.0</ele><time>2026-04-07T10:52:01.838Z</time></trkpt><trkpt lat="42.8217634" lon="12.5032249"><ele>472.0</ele><time>2026-04-07T10:52:02.852Z</time></trkpt><trkpt lat="42.8219354" lon="12.5033398"><ele>473.0</ele><time>2026-04-07T10:52:03.838Z</time></trkpt><trkpt lat="42.8220922" lon="12.503499"><ele>474.0</ele><time>2026-04-07T10:52:04.852Z</time></trkpt><trkpt lat="42.8222363" lon="12.503701"><ele>474.0</ele><time>2026-04-07T10:52:05.85Z</time></trkpt><trkpt lat="42.8223652" lon="12.5039233"><ele>474.0</ele><time>2026-04-07T10:52:06.829Z</time></trkpt><trkpt lat="42.8224852" lon="12.5041763"><ele>474.0</ele><time>2026-04-07T10:52:07.847Z</time></trkpt><trkpt lat="42.822593" lon="12.5044598"><ele>475.5</ele><time>2026-04-07T10:52:08.853Z</time></trkpt><trkpt lat="42.8227036" lon="12.5047451"><ele>477.0</ele><time>2026-04-07T10:52:09.858Z</time></trkpt><trkpt lat="42.8228023" lon="12.5050288"><ele>477.0</ele><time>2026-04-07T10:52:10.855Z</time></trkpt><trkpt lat="42.8228755" lon="12.5053282"><ele>477.0</ele><time>2026-04-07T10:52:11.834Z</time></trkpt><trkpt lat="42.8229343" lon="12.5056443"><ele>477.0</ele><time>2026-04-07T10:52:12.854Z</time></trkpt><trkpt lat="42.8229787" lon="12.5059787"><ele>477.0</ele><time>2026-04-07T10:52:13.848Z</time></trkpt><trkpt lat="42.8230106" lon="12.5062934"><ele>477.0</ele><time>2026-04-07T10:52:14.849Z</time></trkpt><trkpt lat="42.8230436" lon="12.5065848"><ele>477.0</ele><time>2026-04-07T10:52:15.843Z</time></trkpt><trkpt lat="42.8230754" lon="12.5068536"><ele>477.0</ele><time>2026-04-07T10:52:16.847Z</time></trkpt><trkpt lat="42.8231157" lon="12.5070981"><ele>477.33333333333337</ele><time>2026-04-07T10:52:17.834Z</time></trkpt><trkpt lat="42.8231721" lon="12.5073193"><ele>477.6666666666667</ele><time>2026-04-07T10:52:18.841Z</time></trkpt><trkpt lat="42.8232412" lon="12.5075115"><ele>478.0</ele><time>2026-04-07T10:52:19.852Z</time></trkpt><trkpt lat="42.823318" lon="12.5076812"><ele>478.0</ele><time>2026-04-07T10:52:20.853Z</time></trkpt><trkpt lat="42.823399" lon="12.507835"><ele>478.0</ele><time>2026-04-07T10:52:21.85Z</time></trkpt><trkpt lat="42.823472" lon="12.5079718"><ele>478.0</ele><time>2026-04-07T10:52:22.843Z</time></trkpt><trkpt lat="42.8235377" lon="12.5080921"><ele>478.0</ele><time>2026-04-07T10:52:23.844Z</time></trkpt><trkpt lat="42.8235894" lon="12.5081769"><ele>478.25</ele><time>2026-04-07T10:52:24.85Z</time></trkpt><trkpt lat="42.8237044" lon="12.5082049"><ele>478.5</ele><time>2026-04-07T10:52:26.851Z</time></trkpt><trkpt lat="42.8237787" lon="12.5081574"><ele>478.75</ele><time>2026-04-07T10:52:27.849Z</time></trkpt><trkpt lat="42.8238952" lon="12.5080589"><ele>479.0</ele><time>2026-04-07T10:52:28.846Z</time></trkpt><trkpt lat="42.8240597" lon="12.5079682"><ele>479.0</ele><time>2026-04-07T10:52:29.867Z</time></trkpt><trkpt lat="42.8242525" lon="12.5078641"><ele>479.0</ele><time>2026-04-07T10:52:30.846Z</time></trkpt><trkpt lat="42.8244392" lon="12.5077197"><ele>479.0</ele><time>2026-04-07T10:52:31.848Z</time></trkpt><trkpt lat="42.8246268" lon="12.507512"><ele>479.0</ele><time>2026-04-07T10:52:32.845Z</time></trkpt><trkpt lat="42.82483" lon="12.5072482"><ele>479.0</ele><time>2026-04-07T10:52:33.848Z</time></trkpt><trkpt lat="42.825044" lon="12.5069656"><ele>480.5</ele><time>2026-04-07T10:52:34.854Z</time></trkpt><trkpt lat="42.8252576" lon="12.5067069"><ele>482.0</ele><time>2026-04-07T10:52:35.846Z</time></trkpt><trkpt lat="42.8254509" lon="12.5064511"><ele>482.5</ele><time>2026-04-07T10:52:36.852Z</time></trkpt><trkpt lat="42.8256402" lon="12.5062127"><ele>483.0</ele><time>2026-04-07T10:52:37.836Z</time></trkpt><trkpt lat="42.8258178" lon="12.505989"><ele>483.0</ele><time>2026-04-07T10:52:38.832Z</time></trkpt><trkpt lat="42.8259896" lon="12.5057866"><ele>483.0</ele><time>2026-04-07T10:52:39.862Z</time></trkpt><trkpt lat="42.8261636" lon="12.5056128"><ele>483.0</ele><time>2026-04-07T10:52:40.853Z</time></trkpt><trkpt lat="42.8263546" lon="12.5054893"><ele>484.0</ele><time>2026-04-07T10:52:41.837Z</time></trkpt><trkpt lat="42.8265662" lon="12.50539"><ele>485.0</ele><time>2026-04-07T10:52:42.845Z</time></trkpt><trkpt lat="42.8268072" lon="12.5052753"><ele>484.5</ele><time>2026-04-07T10:52:43.848Z</time></trkpt><trkpt lat="42.8270625" lon="12.5051364"><ele>484.0</ele><time>2026-04-07T10:52:44.854Z</time></trkpt><trkpt lat="42.8273403" lon="12.5049898"><ele>484.0</ele><time>2026-04-07T10:52:45.849Z</time></trkpt><trkpt lat="42.827629" lon="12.5048382"><ele>484.0</ele><time>2026-04-07T10:52:46.838Z</time></trkpt><trkpt lat="42.8279053" lon="12.5046852"><ele>484.5</ele><time>2026-04-07T10:52:47.844Z</time></trkpt><trkpt lat="42.8281554" lon="12.5045474"><ele>485.0</ele><time>2026-04-07T10:52:48.851Z</time></trkpt><trkpt lat="42.8283905" lon="12.5044205"><ele>486.5</ele><time>2026-04-07T10:52:49.848Z</time></trkpt><trkpt lat="42.8286094" lon="12.504301"><ele>488.0</ele><time>2026-04-07T10:52:50.847Z</time></trkpt><trkpt lat="42.828815" lon="12.5041928"><ele>488.0</ele><time>2026-04-07T10:52:51.866Z</time></trkpt><trkpt lat="42.8290056" lon="12.5040875"><ele>488.0</ele><time>2026-04-07T10:52:52.859Z</time></trkpt><trkpt lat="42.8291845" lon="12.5039948"><ele>488.0</ele><time>2026-04-07T10:52:53.849Z</time></trkpt><trkpt lat="42.8293561" lon="12.5039019"><ele>487.66666666666663</ele><time>2026-04-07T10:52:54.849Z</time></trkpt><trkpt lat="42.829516" lon="12.503793"><ele>487.33333333333337</ele><time>2026-04-07T10:52:55.85Z</time></trkpt><trkpt lat="42.829663" lon="12.5036459"><ele>487.0</ele><time>2026-04-07T10:52:56.847Z</time></trkpt><trkpt lat="42.8297832" lon="12.5034653"><ele>486.6666666666667</ele><time>2026-04-07T10:52:57.847Z</time></trkpt><trkpt lat="42.8298815" lon="12.5032643"><ele>486.33333333333337</ele><time>2026-04-07T10:52:58.856Z</time></trkpt><trkpt lat="42.8299658" lon="12.5030617"><ele>486.0</ele><time>2026-04-07T10:52:59.855Z</time></trkpt><trkpt lat="42.8300419" lon="12.5028741"><ele>485.66666666666663</ele><time>2026-04-07T10:53:00.858Z</time></trkpt><trkpt lat="42.8301368" lon="12.502708"><ele>485.3333333333333</ele><time>2026-04-07T10:53:01.835Z</time></trkpt><trkpt lat="42.8302502" lon="12.5025795"><ele>485.0</ele><time>2026-04-07T10:53:02.838Z</time></trkpt><trkpt lat="42.8303963" lon="12.5024945"><ele>485.66666666666663</ele><time>2026-04-07T10:53:03.847Z</time></trkpt><trkpt lat="42.8305565" lon="12.5024821"><ele>486.33333333333337</ele><time>2026-04-07T10:53:04.849Z</time></trkpt><trkpt lat="42.8307308" lon="12.5025162"><ele>487.0</ele><time>2026-04-07T10:53:05.836Z</time></trkpt><trkpt lat="42.8309194" lon="12.5025629"><ele>489.0</ele><time>2026-04-07T10:53:06.849Z</time></trkpt><trkpt lat="42.8311043" lon="12.5026103"><ele>491.0</ele><time>2026-04-07T10:53:07.862Z</time></trkpt><trkpt lat="42.8312791" lon="12.5026513"><ele>493.0</ele><time>2026-04-07T10:53:08.853Z</time></trkpt><trkpt lat="42.8314337" lon="12.5026909"><ele>493.0</ele><time>2026-04-07T10:53:09.834Z</time></trkpt><trkpt lat="42.8315805" lon="12.5027356"><ele>493.0</ele><time>2026-04-07T10:53:10.848Z</time></trkpt><trkpt lat="42.8317155" lon="12.5028058"><ele>493.0</ele><time>2026-04-07T10:53:11.855Z</time></trkpt><trkpt lat="42.8318281" lon="12.5029333"><ele>493.0</ele><time>2026-04-07T10:53:12.844Z</time></trkpt><trkpt lat="42.8319207" lon="12.503097"><ele>493.6666666666667</ele><time>2026-04-07T10:53:13.845Z</time></trkpt><trkpt lat="42.8319728" lon="12.5032825"><ele>494.33333333333337</ele><time>2026-04-07T10:53:14.853Z</time></trkpt><trkpt lat="42.8320174" lon="12.503502"><ele>495.0</ele><time>2026-04-07T10:53:15.855Z</time></trkpt><trkpt lat="42.8320798" lon="12.503728"><ele>492.0</ele><time>2026-04-07T10:53:16.852Z</time></trkpt><trkpt lat="42.8321726" lon="12.5039348"><ele>489.0</ele><time>2026-04-07T10:53:17.863Z</time></trkpt><trkpt lat="42.8322989" lon="12.504125"><ele>486.0</ele><time>2026-04-07T10:53:18.843Z</time></trkpt><trkpt lat="42.8324498" lon="12.504278"><ele>486.0</ele><time>2026-04-07T10:53:19.853Z</time></trkpt><trkpt lat="42.8326201" lon="12.5043782"><ele>486.0</ele><time>2026-04-07T10:53:20.862Z</time></trkpt><trkpt lat="42.8328168" lon="12.5044171"><ele>486.0</ele><time>2026-04-07T10:53:21.858Z</time></trkpt><trkpt lat="42.8330477" lon="12.5044156"><ele>485.66666666666663</ele><time>2026-04-07T10:53:22.863Z</time></trkpt><trkpt lat="42.8332755" lon="12.5043939"><ele>485.3333333333333</ele><time>2026-04-07T10:53:23.834Z</time></trkpt><trkpt lat="42.8334932" lon="12.504394"><ele>485.0</ele><time>2026-04-07T10:53:24.843Z</time></trkpt><trkpt lat="42.8336879" lon="12.5044024"><ele>485.0</ele><time>2026-04-07T10:53:25.848Z</time></trkpt><trkpt lat="42.8338709" lon="12.5043555"><ele>485.0</ele><time>2026-04-07T10:53:26.853Z</time></trkpt><trkpt lat="42.8340407" lon="12.5042826"><ele>485.0</ele><time>2026-04-07T10:53:27.851Z</time></trkpt><trkpt lat="42.8342114" lon="12.5041227"><ele>484.5</ele><time>2026-04-07T10:53:28.853Z</time></trkpt><trkpt lat="42.8343843" lon="12.5038915"><ele>484.0</ele><time>2026-04-07T10:53:29.843Z</time></trkpt><trkpt lat="42.8345518" lon="12.5036321"><ele>484.0</ele><time>2026-04-07T10:53:30.851Z</time></trkpt><trkpt lat="42.8347307" lon="12.5033333"><ele>484.0</ele><time>2026-04-07T10:53:31.866Z</time></trkpt><trkpt lat="42.8349104" lon="12.5030243"><ele>486.5</ele><time>2026-04-07T10:53:32.856Z</time></trkpt><trkpt lat="42.8350754" lon="12.5027497"><ele>489.0</ele><time>2026-04-07T10:53:33.868Z</time></trkpt><trkpt lat="42.8352291" lon="12.5024992"><ele>485.66666666666663</ele><time>2026-04-07T10:53:34.865Z</time></trkpt><trkpt lat="42.8353694" lon="12.5022661"><ele>482.3333333333333</ele><time>2026-04-07T10:53:35.848Z</time></trkpt><trkpt lat="42.8355014" lon="12.5020551"><ele>479.0</ele><time>2026-04-07T10:53:36.862Z</time></trkpt><trkpt lat="42.8356172" lon="12.5018563"><ele>479.0</ele><time>2026-04-07T10:53:37.841Z</time></trkpt><trkpt lat="42.8357258" lon="12.5016813"><ele>479.0</ele><time>2026-04-07T10:53:38.878Z</time></trkpt><trkpt lat="42.8358298" lon="12.5015238"><ele>479.0</ele><time>2026-04-07T10:53:39.843Z</time></trkpt><trkpt lat="42.8359415" lon="12.5013904"><ele>478.0</ele><time>2026-04-07T10:53:40.852Z</time></trkpt><trkpt lat="42.8360605" lon="12.5012811"><ele>477.0</ele><time>2026-04-07T10:53:41.848Z</time></trkpt><trkpt lat="42.8361914" lon="12.5012037"><ele>476.0</ele><time>2026-04-07T10:53:42.854Z</time></trkpt><trkpt lat="42.8363155" lon="12.5011447"><ele>475.0</ele><time>2026-04-07T10:53:43.844Z</time></trkpt><trkpt lat="42.8364285" lon="12.5010898"><ele>475.0</ele><time>2026-04-07T10:53:44.847Z</time></trkpt><trkpt lat="42.8365249" lon="12.5010363"><ele>475.0</ele><time>2026-04-07T10:53:45.859Z</time></trkpt><trkpt lat="42.8366082" lon="12.5009875"><ele>475.0</ele><time>2026-04-07T10:53:46.848Z</time></trkpt><trkpt lat="42.8366804" lon="12.5009453"><ele>475.0</ele><time>2026-04-07T10:53:47.855Z</time></trkpt><trkpt lat="42.8367665" lon="12.5008895"><ele>475.0</ele><time>2026-04-07T10:53:49.844Z</time></trkpt><trkpt lat="42.836777" lon="12.5007594"><ele>475.0</ele><time>2026-04-07T10:53:52.85Z</time></trkpt><trkpt lat="42.836776" lon="12.5006445"><ele>475.0</ele><time>2026-04-07T10:53:55.855Z</time></trkpt><trkpt lat="42.8367531" lon="12.5005365"><ele>475.0</ele><time>2026-04-07T10:53:58.848Z</time></trkpt><trkpt lat="42.8366914" lon="12.5005568"><ele>475.0</ele><time>2026-04-07T10:54:02.843Z</time></trkpt></trkseg></trk></gpx>